<?xml version="1.0" encoding="UTF-8" standalone="no" ?>
<gpx xmlns="http://www.topografix.com/GPX/1/1" xmlns:xsi="http://www.w3.org/2001/XMLSchema-instance" xsi:schemaLocation="http://www.topografix.com/GPX/1/1 http://www.topografix.com/GPX/1/1/gpx.xsd" version="1.1" creator="VisuGPX - https://www.visugpx.com">
  <metadata>
    <name>Ada - Save - Danube</name>
  </metadata>
  <trk>
    <name><![CDATA[Sortie à vélo]]></name>
    <extensions>
      <line xmlns="http://www.topografix.com/GPX/gpx_style/0/2">
        <color>0000FF</color>
        <width>4</width>
      </line>
    </extensions>
    <trkseg>
      <trkpt lat="44.77443" lon="20.45715">
        <ele>230.094652</ele>
        <time>2023-03-19T10:01:39.524Z</time>
      </trkpt>
      <trkpt lat="44.77434" lon="20.45706">
        <ele>230.094652</ele>
        <time>2023-03-19T10:01:49.494Z</time>
      </trkpt>
      <trkpt lat="44.77435" lon="20.45691">
        <ele>230.094652</ele>
        <time>2023-03-19T10:01:53.496Z</time>
      </trkpt>
      <trkpt lat="44.77441" lon="20.45678">
        <ele>230.094652</ele>
        <time>2023-03-19T10:01:56.488Z</time>
      </trkpt>
      <trkpt lat="44.77447" lon="20.45667">
        <ele>230.094652</ele>
        <time>2023-03-19T10:01:59.503Z</time>
      </trkpt>
      <trkpt lat="44.77455" lon="20.45656">
        <ele>230.094652</ele>
        <time>2023-03-19T10:02:02.486Z</time>
      </trkpt>
      <trkpt lat="44.77459" lon="20.45644">
        <ele>230.094652</ele>
        <time>2023-03-19T10:02:05.498Z</time>
      </trkpt>
      <trkpt lat="44.77467" lon="20.45634">
        <ele>230.094652</ele>
        <time>2023-03-19T10:02:17.485Z</time>
      </trkpt>
      <trkpt lat="44.77476" lon="20.45625">
        <ele>230.094652</ele>
        <time>2023-03-19T10:02:21.505Z</time>
      </trkpt>
      <trkpt lat="44.77485" lon="20.45621">
        <ele>229.963655</ele>
        <time>2023-03-19T10:02:24.502Z</time>
      </trkpt>
      <trkpt lat="44.77495" lon="20.45629">
        <ele>229.581456</ele>
        <time>2023-03-19T10:02:27.486Z</time>
      </trkpt>
      <trkpt lat="44.77504" lon="20.45638">
        <ele>229.242007</ele>
        <time>2023-03-19T10:02:29.486Z</time>
      </trkpt>
      <trkpt lat="44.77513" lon="20.45646">
        <ele>228.903225</ele>
        <time>2023-03-19T10:02:31.502Z</time>
      </trkpt>
      <trkpt lat="44.77523" lon="20.45655">
        <ele>228.528017</ele>
        <time>2023-03-19T10:02:33.501Z</time>
      </trkpt>
      <trkpt lat="44.77535" lon="20.45662">
        <ele>228.132037</ele>
        <time>2023-03-19T10:02:35.495Z</time>
      </trkpt>
      <trkpt lat="44.77545" lon="20.45671">
        <ele>227.753701</ele>
        <time>2023-03-19T10:02:37.499Z</time>
      </trkpt>
      <trkpt lat="44.77555" lon="20.4568">
        <ele>227.364485</ele>
        <time>2023-03-19T10:02:39.503Z</time>
      </trkpt>
      <trkpt lat="44.77566" lon="20.45688">
        <ele>226.980998</ele>
        <time>2023-03-19T10:02:41.501Z</time>
      </trkpt>
      <trkpt lat="44.77578" lon="20.45695">
        <ele>226.556375</ele>
        <time>2023-03-19T10:02:43.487Z</time>
      </trkpt>
      <trkpt lat="44.7759" lon="20.45703">
        <ele>226.15665</ele>
        <time>2023-03-19T10:02:45.485Z</time>
      </trkpt>
      <trkpt lat="44.776" lon="20.4571">
        <ele>225.786534</ele>
        <time>2023-03-19T10:02:47.499Z</time>
      </trkpt>
      <trkpt lat="44.77611" lon="20.45717">
        <ele>225.421203</ele>
        <time>2023-03-19T10:02:49.498Z</time>
      </trkpt>
      <trkpt lat="44.77621" lon="20.45725">
        <ele>225.030766</ele>
        <time>2023-03-19T10:02:52.509Z</time>
      </trkpt>
      <trkpt lat="44.77631" lon="20.45729">
        <ele>224.723232</ele>
        <time>2023-03-19T10:02:55.489Z</time>
      </trkpt>
      <trkpt lat="44.77639" lon="20.45735">
        <ele>224.433475</ele>
        <time>2023-03-19T10:02:58.497Z</time>
      </trkpt>
      <trkpt lat="44.7765" lon="20.45742">
        <ele>223.95221</ele>
        <time>2023-03-19T10:03:01.503Z</time>
      </trkpt>
      <trkpt lat="44.77658" lon="20.45747">
        <ele>223.563199</ele>
        <time>2023-03-19T10:03:03.484Z</time>
      </trkpt>
      <trkpt lat="44.77668" lon="20.45753">
        <ele>223.123601</ele>
        <time>2023-03-19T10:03:05.503Z</time>
      </trkpt>
      <trkpt lat="44.77679" lon="20.45762">
        <ele>222.581381</ele>
        <time>2023-03-19T10:03:08.504Z</time>
      </trkpt>
      <trkpt lat="44.77687" lon="20.4577">
        <ele>222.169724</ele>
        <time>2023-03-19T10:03:10.505Z</time>
      </trkpt>
      <trkpt lat="44.77699" lon="20.45778">
        <ele>221.588857</ele>
        <time>2023-03-19T10:03:13.500Z</time>
      </trkpt>
      <trkpt lat="44.77709" lon="20.45784">
        <ele>221.143976</ele>
        <time>2023-03-19T10:03:16.501Z</time>
      </trkpt>
      <trkpt lat="44.77718" lon="20.45789">
        <ele>220.730489</ele>
        <time>2023-03-19T10:03:20.500Z</time>
      </trkpt>
      <trkpt lat="44.77728" lon="20.45794">
        <ele>220.292989</ele>
        <time>2023-03-19T10:03:25.514Z</time>
      </trkpt>
      <trkpt lat="44.77737" lon="20.45801">
        <ele>219.860649</ele>
        <time>2023-03-19T10:03:31.494Z</time>
      </trkpt>
      <trkpt lat="44.77744" lon="20.4581">
        <ele>219.450959</ele>
        <time>2023-03-19T10:03:36.486Z</time>
      </trkpt>
      <trkpt lat="44.77754" lon="20.45815">
        <ele>219.011076</ele>
        <time>2023-03-19T10:03:42.495Z</time>
      </trkpt>
      <trkpt lat="44.77763" lon="20.45813">
        <ele>218.624939</ele>
        <time>2023-03-19T10:03:45.500Z</time>
      </trkpt>
      <trkpt lat="44.77774" lon="20.45814">
        <ele>218.19099</ele>
        <time>2023-03-19T10:03:49.497Z</time>
      </trkpt>
      <trkpt lat="44.77784" lon="20.45812">
        <ele>217.753974</ele>
        <time>2023-03-19T10:03:52.502Z</time>
      </trkpt>
      <trkpt lat="44.77795" lon="20.45811">
        <ele>217.311609</ele>
        <time>2023-03-19T10:03:56.500Z</time>
      </trkpt>
      <trkpt lat="44.77804" lon="20.45809">
        <ele>216.903422</ele>
        <time>2023-03-19T10:04:01.496Z</time>
      </trkpt>
      <trkpt lat="44.77814" lon="20.45809">
        <ele>216.606571</ele>
        <time>2023-03-19T10:04:05.484Z</time>
      </trkpt>
      <trkpt lat="44.77824" lon="20.45807">
        <ele>216.329877</ele>
        <time>2023-03-19T10:04:08.510Z</time>
      </trkpt>
      <trkpt lat="44.77831" lon="20.45797">
        <ele>216.064593</ele>
        <time>2023-03-19T10:04:10.499Z</time>
      </trkpt>
      <trkpt lat="44.77839" lon="20.45784">
        <ele>215.721947</ele>
        <time>2023-03-19T10:04:12.497Z</time>
      </trkpt>
      <trkpt lat="44.77847" lon="20.45772">
        <ele>215.394572</ele>
        <time>2023-03-19T10:04:14.498Z</time>
      </trkpt>
      <trkpt lat="44.77856" lon="20.45757">
        <ele>215.006539</ele>
        <time>2023-03-19T10:04:16.513Z</time>
      </trkpt>
      <trkpt lat="44.77867" lon="20.45743">
        <ele>214.606871</ele>
        <time>2023-03-19T10:04:18.499Z</time>
      </trkpt>
      <trkpt lat="44.77877" lon="20.4573">
        <ele>214.239452</ele>
        <time>2023-03-19T10:04:20.509Z</time>
      </trkpt>
      <trkpt lat="44.77887" lon="20.45722">
        <ele>213.910921</ele>
        <time>2023-03-19T10:04:22.485Z</time>
      </trkpt>
      <trkpt lat="44.77897" lon="20.45715">
        <ele>213.591535</ele>
        <time>2023-03-19T10:04:24.487Z</time>
      </trkpt>
      <trkpt lat="44.77907" lon="20.4571">
        <ele>213.303428</ele>
        <time>2023-03-19T10:04:26.492Z</time>
      </trkpt>
      <trkpt lat="44.77917" lon="20.45709">
        <ele>213.017623</ele>
        <time>2023-03-19T10:04:28.485Z</time>
      </trkpt>
      <trkpt lat="44.77927" lon="20.45708">
        <ele>212.754337</ele>
        <time>2023-03-19T10:04:30.486Z</time>
      </trkpt>
      <trkpt lat="44.7794" lon="20.45705">
        <ele>212.380227</ele>
        <time>2023-03-19T10:04:33.482Z</time>
      </trkpt>
      <trkpt lat="44.77954" lon="20.45705">
        <ele>212.004109</ele>
        <time>2023-03-19T10:04:36.500Z</time>
      </trkpt>
      <trkpt lat="44.77966" lon="20.45703">
        <ele>211.954616</ele>
        <time>2023-03-19T10:04:39.484Z</time>
      </trkpt>
      <trkpt lat="44.77975" lon="20.45702">
        <ele>212.096068</ele>
        <time>2023-03-19T10:04:41.500Z</time>
      </trkpt>
      <trkpt lat="44.77984" lon="20.457">
        <ele>212.234822</ele>
        <time>2023-03-19T10:04:43.504Z</time>
      </trkpt>
      <trkpt lat="44.77997" lon="20.45697">
        <ele>212.442342</ele>
        <time>2023-03-19T10:04:46.500Z</time>
      </trkpt>
      <trkpt lat="44.78006" lon="20.45694">
        <ele>212.58512</ele>
        <time>2023-03-19T10:04:48.496Z</time>
      </trkpt>
      <trkpt lat="44.78016" lon="20.4569">
        <ele>212.732211</ele>
        <time>2023-03-19T10:04:50.483Z</time>
      </trkpt>
      <trkpt lat="44.78025" lon="20.45686">
        <ele>212.878157</ele>
        <time>2023-03-19T10:04:52.481Z</time>
      </trkpt>
      <trkpt lat="44.78037" lon="20.4568">
        <ele>213.086019</ele>
        <time>2023-03-19T10:04:55.486Z</time>
      </trkpt>
      <trkpt lat="44.78047" lon="20.45677">
        <ele>213.233392</ele>
        <time>2023-03-19T10:04:57.501Z</time>
      </trkpt>
      <trkpt lat="44.78055" lon="20.45671">
        <ele>213.381321</ele>
        <time>2023-03-19T10:04:59.490Z</time>
      </trkpt>
      <trkpt lat="44.78063" lon="20.45664">
        <ele>213.528854</ele>
        <time>2023-03-19T10:05:01.488Z</time>
      </trkpt>
      <trkpt lat="44.78071" lon="20.45656">
        <ele>213.671124</ele>
        <time>2023-03-19T10:05:03.484Z</time>
      </trkpt>
      <trkpt lat="44.78077" lon="20.45648">
        <ele>213.810264</ele>
        <time>2023-03-19T10:05:05.490Z</time>
      </trkpt>
      <trkpt lat="44.78086" lon="20.45634">
        <ele>214.014334</ele>
        <time>2023-03-19T10:05:08.490Z</time>
      </trkpt>
      <trkpt lat="44.78092" lon="20.45623">
        <ele>214.162949</ele>
        <time>2023-03-19T10:05:10.502Z</time>
      </trkpt>
      <trkpt lat="44.78099" lon="20.45613">
        <ele>214.311386</ele>
        <time>2023-03-19T10:05:12.504Z</time>
      </trkpt>
      <trkpt lat="44.78104" lon="20.45602">
        <ele>214.45555</ele>
        <time>2023-03-19T10:05:14.492Z</time>
      </trkpt>
      <trkpt lat="44.7811" lon="20.45592">
        <ele>214.604492</ele>
        <time>2023-03-19T10:05:16.502Z</time>
      </trkpt>
      <trkpt lat="44.78116" lon="20.45581">
        <ele>214.644999</ele>
        <time>2023-03-19T10:05:18.495Z</time>
      </trkpt>
      <trkpt lat="44.78121" lon="20.4557">
        <ele>214.661362</ele>
        <time>2023-03-19T10:05:20.498Z</time>
      </trkpt>
      <trkpt lat="44.78126" lon="20.4556">
        <ele>214.677527</ele>
        <time>2023-03-19T10:05:22.502Z</time>
      </trkpt>
      <trkpt lat="44.78133" lon="20.45551">
        <ele>214.694255</ele>
        <time>2023-03-19T10:05:24.484Z</time>
      </trkpt>
      <trkpt lat="44.78141" lon="20.45543">
        <ele>214.711943</ele>
        <time>2023-03-19T10:05:26.495Z</time>
      </trkpt>
      <trkpt lat="44.78152" lon="20.45532">
        <ele>214.736216</ele>
        <time>2023-03-19T10:05:29.502Z</time>
      </trkpt>
      <trkpt lat="44.78164" lon="20.45523">
        <ele>214.760234</ele>
        <time>2023-03-19T10:05:32.502Z</time>
      </trkpt>
      <trkpt lat="44.78172" lon="20.45517">
        <ele>214.776683</ele>
        <time>2023-03-19T10:05:34.502Z</time>
      </trkpt>
      <trkpt lat="44.7818" lon="20.4551">
        <ele>214.793505</ele>
        <time>2023-03-19T10:05:36.500Z</time>
      </trkpt>
      <trkpt lat="44.78188" lon="20.45503">
        <ele>214.810737</ele>
        <time>2023-03-19T10:05:38.495Z</time>
      </trkpt>
      <trkpt lat="44.78197" lon="20.45495">
        <ele>214.828943</ele>
        <time>2023-03-19T10:05:40.503Z</time>
      </trkpt>
      <trkpt lat="44.78205" lon="20.45488">
        <ele>214.845756</ele>
        <time>2023-03-19T10:05:42.484Z</time>
      </trkpt>
      <trkpt lat="44.78213" lon="20.45481">
        <ele>214.862615</ele>
        <time>2023-03-19T10:05:44.505Z</time>
      </trkpt>
      <trkpt lat="44.78221" lon="20.45475">
        <ele>214.879933</ele>
        <time>2023-03-19T10:05:46.520Z</time>
      </trkpt>
      <trkpt lat="44.7823" lon="20.45468">
        <ele>214.897208</ele>
        <time>2023-03-19T10:05:48.503Z</time>
      </trkpt>
      <trkpt lat="44.78239" lon="20.45459">
        <ele>214.91666</ele>
        <time>2023-03-19T10:05:50.500Z</time>
      </trkpt>
      <trkpt lat="44.78247" lon="20.45451">
        <ele>214.934937</ele>
        <time>2023-03-19T10:05:52.499Z</time>
      </trkpt>
      <trkpt lat="44.78256" lon="20.45442">
        <ele>214.963842</ele>
        <time>2023-03-19T10:05:54.492Z</time>
      </trkpt>
      <trkpt lat="44.78263" lon="20.45432">
        <ele>215.102145</ele>
        <time>2023-03-19T10:05:56.488Z</time>
      </trkpt>
      <trkpt lat="44.7827" lon="20.45422">
        <ele>215.246591</ele>
        <time>2023-03-19T10:05:58.500Z</time>
      </trkpt>
      <trkpt lat="44.78277" lon="20.45412">
        <ele>215.385239</ele>
        <time>2023-03-19T10:06:00.506Z</time>
      </trkpt>
      <trkpt lat="44.78284" lon="20.45402">
        <ele>215.526907</ele>
        <time>2023-03-19T10:06:02.504Z</time>
      </trkpt>
      <trkpt lat="44.7829" lon="20.45391">
        <ele>215.666305</ele>
        <time>2023-03-19T10:06:04.501Z</time>
      </trkpt>
      <trkpt lat="44.78297" lon="20.4538">
        <ele>215.806189</ele>
        <time>2023-03-19T10:06:06.487Z</time>
      </trkpt>
      <trkpt lat="44.78303" lon="20.45369">
        <ele>215.950434</ele>
        <time>2023-03-19T10:06:08.505Z</time>
      </trkpt>
      <trkpt lat="44.7831" lon="20.45359">
        <ele>216.092184</ele>
        <time>2023-03-19T10:06:10.501Z</time>
      </trkpt>
      <trkpt lat="44.78317" lon="20.45348">
        <ele>216.235894</ele>
        <time>2023-03-19T10:06:12.498Z</time>
      </trkpt>
      <trkpt lat="44.78323" lon="20.45337">
        <ele>216.381055</ele>
        <time>2023-03-19T10:06:14.502Z</time>
      </trkpt>
      <trkpt lat="44.7833" lon="20.45325">
        <ele>216.529695</ele>
        <time>2023-03-19T10:06:16.500Z</time>
      </trkpt>
      <trkpt lat="44.78336" lon="20.45313">
        <ele>216.670128</ele>
        <time>2023-03-19T10:06:18.483Z</time>
      </trkpt>
      <trkpt lat="44.78342" lon="20.45302">
        <ele>216.812198</ele>
        <time>2023-03-19T10:06:20.485Z</time>
      </trkpt>
      <trkpt lat="44.78349" lon="20.45292">
        <ele>216.94955</ele>
        <time>2023-03-19T10:06:22.499Z</time>
      </trkpt>
      <trkpt lat="44.78354" lon="20.4528">
        <ele>217.089128</ele>
        <time>2023-03-19T10:06:24.495Z</time>
      </trkpt>
      <trkpt lat="44.78362" lon="20.45271">
        <ele>217.227497</ele>
        <time>2023-03-19T10:06:26.495Z</time>
      </trkpt>
      <trkpt lat="44.78369" lon="20.45261">
        <ele>217.368002</ele>
        <time>2023-03-19T10:06:28.504Z</time>
      </trkpt>
      <trkpt lat="44.78375" lon="20.45249">
        <ele>217.438247</ele>
        <time>2023-03-19T10:06:30.490Z</time>
      </trkpt>
      <trkpt lat="44.78382" lon="20.45238">
        <ele>217.311286</ele>
        <time>2023-03-19T10:06:32.489Z</time>
      </trkpt>
      <trkpt lat="44.78388" lon="20.45227">
        <ele>217.193212</ele>
        <time>2023-03-19T10:06:34.513Z</time>
      </trkpt>
      <trkpt lat="44.78394" lon="20.45217">
        <ele>217.078893</ele>
        <time>2023-03-19T10:06:36.484Z</time>
      </trkpt>
      <trkpt lat="44.78401" lon="20.45202">
        <ele>216.923532</ele>
        <time>2023-03-19T10:06:39.491Z</time>
      </trkpt>
      <trkpt lat="44.78409" lon="20.4519">
        <ele>216.785564</ele>
        <time>2023-03-19T10:06:42.486Z</time>
      </trkpt>
      <trkpt lat="44.78416" lon="20.45179">
        <ele>216.649056</ele>
        <time>2023-03-19T10:06:45.492Z</time>
      </trkpt>
      <trkpt lat="44.78422" lon="20.45167">
        <ele>216.522629</ele>
        <time>2023-03-19T10:06:47.500Z</time>
      </trkpt>
      <trkpt lat="44.78429" lon="20.45156">
        <ele>216.39896</ele>
        <time>2023-03-19T10:06:49.503Z</time>
      </trkpt>
      <trkpt lat="44.78435" lon="20.45145">
        <ele>216.273306</ele>
        <time>2023-03-19T10:06:51.504Z</time>
      </trkpt>
      <trkpt lat="44.78442" lon="20.45134">
        <ele>216.149406</ele>
        <time>2023-03-19T10:06:53.504Z</time>
      </trkpt>
      <trkpt lat="44.7845" lon="20.45124">
        <ele>216.022758</ele>
        <time>2023-03-19T10:06:55.501Z</time>
      </trkpt>
      <trkpt lat="44.78456" lon="20.45113">
        <ele>215.898858</ele>
        <time>2023-03-19T10:06:57.503Z</time>
      </trkpt>
      <trkpt lat="44.78464" lon="20.45103">
        <ele>215.767788</ele>
        <time>2023-03-19T10:06:59.502Z</time>
      </trkpt>
      <trkpt lat="44.78471" lon="20.45092">
        <ele>215.642218</ele>
        <time>2023-03-19T10:07:01.508Z</time>
      </trkpt>
      <trkpt lat="44.78478" lon="20.45082">
        <ele>215.520212</ele>
        <time>2023-03-19T10:07:03.503Z</time>
      </trkpt>
      <trkpt lat="44.78485" lon="20.45071">
        <ele>215.396497</ele>
        <time>2023-03-19T10:07:05.500Z</time>
      </trkpt>
      <trkpt lat="44.78492" lon="20.45061">
        <ele>215.249766</ele>
        <time>2023-03-19T10:07:07.505Z</time>
      </trkpt>
      <trkpt lat="44.78499" lon="20.45051">
        <ele>214.822857</ele>
        <time>2023-03-19T10:07:09.493Z</time>
      </trkpt>
      <trkpt lat="44.78506" lon="20.45042">
        <ele>214.405367</ele>
        <time>2023-03-19T10:07:11.489Z</time>
      </trkpt>
      <trkpt lat="44.78512" lon="20.45031">
        <ele>213.979594</ele>
        <time>2023-03-19T10:07:13.495Z</time>
      </trkpt>
      <trkpt lat="44.78519" lon="20.4502">
        <ele>213.536269</ele>
        <time>2023-03-19T10:07:15.498Z</time>
      </trkpt>
      <trkpt lat="44.78527" lon="20.45009">
        <ele>213.089893</ele>
        <time>2023-03-19T10:07:17.491Z</time>
      </trkpt>
      <trkpt lat="44.78535" lon="20.45">
        <ele>212.638427</ele>
        <time>2023-03-19T10:07:19.488Z</time>
      </trkpt>
      <trkpt lat="44.78542" lon="20.44992">
        <ele>212.238509</ele>
        <time>2023-03-19T10:07:21.495Z</time>
      </trkpt>
      <trkpt lat="44.7855" lon="20.44985">
        <ele>211.847428</ele>
        <time>2023-03-19T10:07:23.484Z</time>
      </trkpt>
      <trkpt lat="44.78558" lon="20.44977">
        <ele>211.442418</ele>
        <time>2023-03-19T10:07:25.498Z</time>
      </trkpt>
      <trkpt lat="44.78565" lon="20.44968">
        <ele>211.017078</ele>
        <time>2023-03-19T10:07:27.504Z</time>
      </trkpt>
      <trkpt lat="44.78573" lon="20.44959">
        <ele>210.5821</ele>
        <time>2023-03-19T10:07:29.504Z</time>
      </trkpt>
      <trkpt lat="44.78581" lon="20.44951">
        <ele>210.163045</ele>
        <time>2023-03-19T10:07:31.503Z</time>
      </trkpt>
      <trkpt lat="44.78592" lon="20.44943">
        <ele>209.645141</ele>
        <time>2023-03-19T10:07:34.504Z</time>
      </trkpt>
      <trkpt lat="44.78599" lon="20.44934">
        <ele>209.256918</ele>
        <time>2023-03-19T10:07:36.501Z</time>
      </trkpt>
      <trkpt lat="44.78606" lon="20.44926">
        <ele>208.858282</ele>
        <time>2023-03-19T10:07:38.504Z</time>
      </trkpt>
      <trkpt lat="44.78613" lon="20.44918">
        <ele>208.454707</ele>
        <time>2023-03-19T10:07:40.501Z</time>
      </trkpt>
      <trkpt lat="44.78621" lon="20.44908">
        <ele>208.00267</ele>
        <time>2023-03-19T10:07:42.506Z</time>
      </trkpt>
      <trkpt lat="44.7863" lon="20.44899">
        <ele>207.565518</ele>
        <time>2023-03-19T10:07:44.504Z</time>
      </trkpt>
      <trkpt lat="44.78638" lon="20.44889">
        <ele>207.298806</ele>
        <time>2023-03-19T10:07:46.505Z</time>
      </trkpt>
      <trkpt lat="44.78646" lon="20.44879">
        <ele>207.028702</ele>
        <time>2023-03-19T10:07:48.503Z</time>
      </trkpt>
      <trkpt lat="44.78655" lon="20.44869">
        <ele>206.748772</ele>
        <time>2023-03-19T10:07:50.511Z</time>
      </trkpt>
      <trkpt lat="44.78664" lon="20.44858">
        <ele>206.459404</ele>
        <time>2023-03-19T10:07:52.502Z</time>
      </trkpt>
      <trkpt lat="44.78673" lon="20.44846">
        <ele>206.15589</ele>
        <time>2023-03-19T10:07:54.500Z</time>
      </trkpt>
      <trkpt lat="44.78682" lon="20.44835">
        <ele>205.853631</ele>
        <time>2023-03-19T10:07:56.504Z</time>
      </trkpt>
      <trkpt lat="44.78692" lon="20.44824">
        <ele>205.545666</ele>
        <time>2023-03-19T10:07:58.502Z</time>
      </trkpt>
      <trkpt lat="44.78701" lon="20.44812">
        <ele>205.228708</ele>
        <time>2023-03-19T10:08:00.506Z</time>
      </trkpt>
      <trkpt lat="44.78711" lon="20.44799">
        <ele>204.905407</ele>
        <time>2023-03-19T10:08:02.486Z</time>
      </trkpt>
      <trkpt lat="44.78721" lon="20.44788">
        <ele>204.591388</ele>
        <time>2023-03-19T10:08:04.487Z</time>
      </trkpt>
      <trkpt lat="44.78731" lon="20.44776">
        <ele>204.255168</ele>
        <time>2023-03-19T10:08:06.503Z</time>
      </trkpt>
      <trkpt lat="44.78742" lon="20.44763">
        <ele>203.917754</ele>
        <time>2023-03-19T10:08:08.502Z</time>
      </trkpt>
      <trkpt lat="44.78752" lon="20.44752">
        <ele>203.589</ele>
        <time>2023-03-19T10:08:10.506Z</time>
      </trkpt>
      <trkpt lat="44.78763" lon="20.44741">
        <ele>203.266492</ele>
        <time>2023-03-19T10:08:12.505Z</time>
      </trkpt>
      <trkpt lat="44.78773" lon="20.44731">
        <ele>202.768723</ele>
        <time>2023-03-19T10:08:14.504Z</time>
      </trkpt>
      <trkpt lat="44.78784" lon="20.44721">
        <ele>202.132556</ele>
        <time>2023-03-19T10:08:16.504Z</time>
      </trkpt>
      <trkpt lat="44.78795" lon="20.4471">
        <ele>201.480191</ele>
        <time>2023-03-19T10:08:18.503Z</time>
      </trkpt>
      <trkpt lat="44.78807" lon="20.44699">
        <ele>200.800522</ele>
        <time>2023-03-19T10:08:20.488Z</time>
      </trkpt>
      <trkpt lat="44.78817" lon="20.44686">
        <ele>200.150772</ele>
        <time>2023-03-19T10:08:22.501Z</time>
      </trkpt>
      <trkpt lat="44.78826" lon="20.44671">
        <ele>199.478253</ele>
        <time>2023-03-19T10:08:24.498Z</time>
      </trkpt>
      <trkpt lat="44.78834" lon="20.44654">
        <ele>198.753539</ele>
        <time>2023-03-19T10:08:26.495Z</time>
      </trkpt>
      <trkpt lat="44.78843" lon="20.44636">
        <ele>198.014975</ele>
        <time>2023-03-19T10:08:28.491Z</time>
      </trkpt>
      <trkpt lat="44.7885" lon="20.44616">
        <ele>197.246499</ele>
        <time>2023-03-19T10:08:30.486Z</time>
      </trkpt>
      <trkpt lat="44.78858" lon="20.44595">
        <ele>196.443388</ele>
        <time>2023-03-19T10:08:32.505Z</time>
      </trkpt>
      <trkpt lat="44.78864" lon="20.44571">
        <ele>195.56648</ele>
        <time>2023-03-19T10:08:34.504Z</time>
      </trkpt>
      <trkpt lat="44.78868" lon="20.44559">
        <ele>195.112591</ele>
        <time>2023-03-19T10:08:35.495Z</time>
      </trkpt>
      <trkpt lat="44.78872" lon="20.44547">
        <ele>194.63849</ele>
        <time>2023-03-19T10:08:36.499Z</time>
      </trkpt>
      <trkpt lat="44.78875" lon="20.44534">
        <ele>194.225429</ele>
        <time>2023-03-19T10:08:37.502Z</time>
      </trkpt>
      <trkpt lat="44.78879" lon="20.44522">
        <ele>193.850649</ele>
        <time>2023-03-19T10:08:38.481Z</time>
      </trkpt>
      <trkpt lat="44.78886" lon="20.445">
        <ele>193.165989</ele>
        <time>2023-03-19T10:08:40.487Z</time>
      </trkpt>
      <trkpt lat="44.78892" lon="20.44481">
        <ele>192.566869</ele>
        <time>2023-03-19T10:08:42.513Z</time>
      </trkpt>
      <trkpt lat="44.78899" lon="20.44463">
        <ele>192.003323</ele>
        <time>2023-03-19T10:08:44.500Z</time>
      </trkpt>
      <trkpt lat="44.7891" lon="20.44452">
        <ele>191.433131</ele>
        <time>2023-03-19T10:08:46.495Z</time>
      </trkpt>
      <trkpt lat="44.78924" lon="20.44444">
        <ele>190.859744</ele>
        <time>2023-03-19T10:08:48.494Z</time>
      </trkpt>
      <trkpt lat="44.78933" lon="20.44428">
        <ele>190.284108</ele>
        <time>2023-03-19T10:08:50.505Z</time>
      </trkpt>
      <trkpt lat="44.78936" lon="20.44409">
        <ele>189.729489</ele>
        <time>2023-03-19T10:08:52.495Z</time>
      </trkpt>
      <trkpt lat="44.78932" lon="20.44391">
        <ele>189.178579</ele>
        <time>2023-03-19T10:08:54.482Z</time>
      </trkpt>
      <trkpt lat="44.78921" lon="20.4438">
        <ele>188.631279</ele>
        <time>2023-03-19T10:08:56.487Z</time>
      </trkpt>
      <trkpt lat="44.7891" lon="20.44372">
        <ele>188.135391</ele>
        <time>2023-03-19T10:08:58.492Z</time>
      </trkpt>
      <trkpt lat="44.78902" lon="20.44359">
        <ele>187.65979</ele>
        <time>2023-03-19T10:09:00.489Z</time>
      </trkpt>
      <trkpt lat="44.78899" lon="20.4434">
        <ele>187.149977</ele>
        <time>2023-03-19T10:09:02.492Z</time>
      </trkpt>
      <trkpt lat="44.78894" lon="20.4432">
        <ele>186.762639</ele>
        <time>2023-03-19T10:09:04.496Z</time>
      </trkpt>
      <trkpt lat="44.7889" lon="20.443">
        <ele>186.364797</ele>
        <time>2023-03-19T10:09:06.501Z</time>
      </trkpt>
      <trkpt lat="44.78886" lon="20.44281">
        <ele>185.99006</ele>
        <time>2023-03-19T10:09:08.502Z</time>
      </trkpt>
      <trkpt lat="44.78882" lon="20.44263">
        <ele>185.630464</ele>
        <time>2023-03-19T10:09:10.502Z</time>
      </trkpt>
      <trkpt lat="44.78879" lon="20.44244">
        <ele>185.262515</ele>
        <time>2023-03-19T10:09:12.501Z</time>
      </trkpt>
      <trkpt lat="44.78876" lon="20.44226">
        <ele>184.927211</ele>
        <time>2023-03-19T10:09:14.508Z</time>
      </trkpt>
      <trkpt lat="44.78872" lon="20.44209">
        <ele>184.579626</ele>
        <time>2023-03-19T10:09:16.500Z</time>
      </trkpt>
      <trkpt lat="44.78869" lon="20.44191">
        <ele>184.242735</ele>
        <time>2023-03-19T10:09:18.502Z</time>
      </trkpt>
      <trkpt lat="44.78865" lon="20.44173">
        <ele>183.896217</ele>
        <time>2023-03-19T10:09:20.500Z</time>
      </trkpt>
      <trkpt lat="44.78861" lon="20.44157">
        <ele>183.571452</ele>
        <time>2023-03-19T10:09:22.501Z</time>
      </trkpt>
      <trkpt lat="44.78857" lon="20.44142">
        <ele>183.255216</ele>
        <time>2023-03-19T10:09:24.503Z</time>
      </trkpt>
      <trkpt lat="44.78854" lon="20.44128">
        <ele>182.989283</ele>
        <time>2023-03-19T10:09:26.501Z</time>
      </trkpt>
      <trkpt lat="44.78853" lon="20.44115">
        <ele>182.747973</ele>
        <time>2023-03-19T10:09:28.500Z</time>
      </trkpt>
      <trkpt lat="44.78856" lon="20.44103">
        <ele>182.506387</ele>
        <time>2023-03-19T10:09:30.484Z</time>
      </trkpt>
      <trkpt lat="44.78865" lon="20.44097">
        <ele>182.075226</ele>
        <time>2023-03-19T10:09:32.494Z</time>
      </trkpt>
      <trkpt lat="44.78874" lon="20.44094">
        <ele>181.625211</ele>
        <time>2023-03-19T10:09:34.483Z</time>
      </trkpt>
      <trkpt lat="44.78884" lon="20.44092">
        <ele>181.132207</ele>
        <time>2023-03-19T10:09:36.484Z</time>
      </trkpt>
      <trkpt lat="44.78893" lon="20.44089">
        <ele>180.68536</ele>
        <time>2023-03-19T10:09:38.502Z</time>
      </trkpt>
      <trkpt lat="44.78906" lon="20.44084">
        <ele>180.016699</ele>
        <time>2023-03-19T10:09:41.505Z</time>
      </trkpt>
      <trkpt lat="44.78919" lon="20.4408">
        <ele>179.392876</ele>
        <time>2023-03-19T10:09:44.502Z</time>
      </trkpt>
      <trkpt lat="44.78932" lon="20.44077">
        <ele>178.750497</ele>
        <time>2023-03-19T10:09:46.500Z</time>
      </trkpt>
      <trkpt lat="44.78944" lon="20.44074">
        <ele>178.154248</ele>
        <time>2023-03-19T10:09:48.500Z</time>
      </trkpt>
      <trkpt lat="44.78957" lon="20.44071">
        <ele>177.51024</ele>
        <time>2023-03-19T10:09:50.500Z</time>
      </trkpt>
      <trkpt lat="44.7897" lon="20.44068">
        <ele>176.871013</ele>
        <time>2023-03-19T10:09:52.499Z</time>
      </trkpt>
      <trkpt lat="44.78983" lon="20.44065">
        <ele>176.240753</ele>
        <time>2023-03-19T10:09:54.502Z</time>
      </trkpt>
      <trkpt lat="44.78995" lon="20.44063">
        <ele>175.632818</ele>
        <time>2023-03-19T10:09:56.515Z</time>
      </trkpt>
      <trkpt lat="44.79008" lon="20.44064">
        <ele>175.007164</ele>
        <time>2023-03-19T10:09:58.482Z</time>
      </trkpt>
      <trkpt lat="44.79021" lon="20.44065">
        <ele>174.384453</ele>
        <time>2023-03-19T10:10:00.499Z</time>
      </trkpt>
      <trkpt lat="44.79034" lon="20.44066">
        <ele>173.721817</ele>
        <time>2023-03-19T10:10:02.490Z</time>
      </trkpt>
      <trkpt lat="44.79049" lon="20.44069">
        <ele>172.748677</ele>
        <time>2023-03-19T10:10:04.499Z</time>
      </trkpt>
      <trkpt lat="44.79063" lon="20.44076">
        <ele>171.756158</ele>
        <time>2023-03-19T10:10:06.501Z</time>
      </trkpt>
      <trkpt lat="44.79078" lon="20.44084">
        <ele>170.738406</ele>
        <time>2023-03-19T10:10:08.500Z</time>
      </trkpt>
      <trkpt lat="44.79092" lon="20.44093">
        <ele>169.720844</ele>
        <time>2023-03-19T10:10:10.485Z</time>
      </trkpt>
      <trkpt lat="44.79106" lon="20.44102">
        <ele>168.705409</ele>
        <time>2023-03-19T10:10:12.481Z</time>
      </trkpt>
      <trkpt lat="44.7912" lon="20.4411">
        <ele>167.68503</ele>
        <time>2023-03-19T10:10:14.501Z</time>
      </trkpt>
      <trkpt lat="44.79135" lon="20.4412">
        <ele>166.564201</ele>
        <time>2023-03-19T10:10:16.500Z</time>
      </trkpt>
      <trkpt lat="44.79149" lon="20.44128">
        <ele>165.569207</ele>
        <time>2023-03-19T10:10:18.501Z</time>
      </trkpt>
      <trkpt lat="44.79161" lon="20.44135">
        <ele>164.772044</ele>
        <time>2023-03-19T10:10:20.503Z</time>
      </trkpt>
      <trkpt lat="44.79172" lon="20.44142">
        <ele>163.948122</ele>
        <time>2023-03-19T10:10:22.500Z</time>
      </trkpt>
      <trkpt lat="44.79184" lon="20.44147">
        <ele>163.15054</ele>
        <time>2023-03-19T10:10:24.501Z</time>
      </trkpt>
      <trkpt lat="44.79193" lon="20.44152">
        <ele>162.488064</ele>
        <time>2023-03-19T10:10:26.500Z</time>
      </trkpt>
      <trkpt lat="44.79203" lon="20.44158">
        <ele>161.750298</ele>
        <time>2023-03-19T10:10:28.500Z</time>
      </trkpt>
      <trkpt lat="44.79215" lon="20.44163">
        <ele>160.809344</ele>
        <time>2023-03-19T10:10:30.478Z</time>
      </trkpt>
      <trkpt lat="44.79227" lon="20.44171">
        <ele>159.754804</ele>
        <time>2023-03-19T10:10:32.499Z</time>
      </trkpt>
      <trkpt lat="44.79241" lon="20.44177">
        <ele>158.660656</ele>
        <time>2023-03-19T10:10:34.482Z</time>
      </trkpt>
      <trkpt lat="44.79254" lon="20.44185">
        <ele>157.622306</ele>
        <time>2023-03-19T10:10:36.499Z</time>
      </trkpt>
      <trkpt lat="44.79266" lon="20.44191">
        <ele>156.600174</ele>
        <time>2023-03-19T10:10:38.504Z</time>
      </trkpt>
      <trkpt lat="44.79277" lon="20.44196">
        <ele>155.73302</ele>
        <time>2023-03-19T10:10:40.500Z</time>
      </trkpt>
      <trkpt lat="44.79288" lon="20.44202">
        <ele>154.799496</ele>
        <time>2023-03-19T10:10:42.500Z</time>
      </trkpt>
      <trkpt lat="44.79301" lon="20.44209">
        <ele>153.788338</ele>
        <time>2023-03-19T10:10:44.506Z</time>
      </trkpt>
      <trkpt lat="44.79313" lon="20.44214">
        <ele>152.832848</ele>
        <time>2023-03-19T10:10:46.501Z</time>
      </trkpt>
      <trkpt lat="44.79323" lon="20.44217">
        <ele>151.988242</ele>
        <time>2023-03-19T10:10:48.495Z</time>
      </trkpt>
      <trkpt lat="44.79335" lon="20.4422">
        <ele>151.080305</ele>
        <time>2023-03-19T10:10:50.487Z</time>
      </trkpt>
      <trkpt lat="44.79349" lon="20.44225">
        <ele>149.987798</ele>
        <time>2023-03-19T10:10:52.501Z</time>
      </trkpt>
      <trkpt lat="44.79364" lon="20.4423">
        <ele>148.773592</ele>
        <time>2023-03-19T10:10:54.501Z</time>
      </trkpt>
      <trkpt lat="44.7938" lon="20.44236">
        <ele>147.731319</ele>
        <time>2023-03-19T10:10:56.505Z</time>
      </trkpt>
      <trkpt lat="44.79395" lon="20.44241">
        <ele>146.917076</ele>
        <time>2023-03-19T10:10:58.500Z</time>
      </trkpt>
      <trkpt lat="44.7941" lon="20.44246">
        <ele>146.078294</ele>
        <time>2023-03-19T10:11:00.496Z</time>
      </trkpt>
      <trkpt lat="44.79424" lon="20.44251">
        <ele>145.251955</ele>
        <time>2023-03-19T10:11:02.503Z</time>
      </trkpt>
      <trkpt lat="44.79437" lon="20.44257">
        <ele>144.566049</ele>
        <time>2023-03-19T10:11:04.504Z</time>
      </trkpt>
      <trkpt lat="44.7945" lon="20.44262">
        <ele>143.831305</ele>
        <time>2023-03-19T10:11:06.501Z</time>
      </trkpt>
      <trkpt lat="44.79463" lon="20.44268">
        <ele>143.087266</ele>
        <time>2023-03-19T10:11:08.501Z</time>
      </trkpt>
      <trkpt lat="44.79475" lon="20.44276">
        <ele>142.333982</ele>
        <time>2023-03-19T10:11:10.488Z</time>
      </trkpt>
      <trkpt lat="44.79487" lon="20.44286">
        <ele>141.587897</ele>
        <time>2023-03-19T10:11:12.486Z</time>
      </trkpt>
      <trkpt lat="44.795" lon="20.44296">
        <ele>140.795653</ele>
        <time>2023-03-19T10:11:14.511Z</time>
      </trkpt>
      <trkpt lat="44.79513" lon="20.44306">
        <ele>139.981736</ele>
        <time>2023-03-19T10:11:16.499Z</time>
      </trkpt>
      <trkpt lat="44.79525" lon="20.44316">
        <ele>139.266756</ele>
        <time>2023-03-19T10:11:18.504Z</time>
      </trkpt>
      <trkpt lat="44.79536" lon="20.44323">
        <ele>138.577545</ele>
        <time>2023-03-19T10:11:20.510Z</time>
      </trkpt>
      <trkpt lat="44.79548" lon="20.44331">
        <ele>138.101446</ele>
        <time>2023-03-19T10:11:22.483Z</time>
      </trkpt>
      <trkpt lat="44.79559" lon="20.44339">
        <ele>137.71216</ele>
        <time>2023-03-19T10:11:24.499Z</time>
      </trkpt>
      <trkpt lat="44.79569" lon="20.4435">
        <ele>137.322158</ele>
        <time>2023-03-19T10:11:26.482Z</time>
      </trkpt>
      <trkpt lat="44.79574" lon="20.44365">
        <ele>136.95209</ele>
        <time>2023-03-19T10:11:28.490Z</time>
      </trkpt>
      <trkpt lat="44.79578" lon="20.4438">
        <ele>136.588607</ele>
        <time>2023-03-19T10:11:30.487Z</time>
      </trkpt>
      <trkpt lat="44.79581" lon="20.44395">
        <ele>136.258338</ele>
        <time>2023-03-19T10:11:32.499Z</time>
      </trkpt>
      <trkpt lat="44.79586" lon="20.44409">
        <ele>135.910295</ele>
        <time>2023-03-19T10:11:34.501Z</time>
      </trkpt>
      <trkpt lat="44.7959" lon="20.44423">
        <ele>135.569563</ele>
        <time>2023-03-19T10:11:36.501Z</time>
      </trkpt>
      <trkpt lat="44.79594" lon="20.44436">
        <ele>135.245579</ele>
        <time>2023-03-19T10:11:38.501Z</time>
      </trkpt>
      <trkpt lat="44.79599" lon="20.44449">
        <ele>134.930033</ele>
        <time>2023-03-19T10:11:40.491Z</time>
      </trkpt>
      <trkpt lat="44.79607" lon="20.44458">
        <ele>134.625166</ele>
        <time>2023-03-19T10:11:42.489Z</time>
      </trkpt>
      <trkpt lat="44.79615" lon="20.44467">
        <ele>134.296993</ele>
        <time>2023-03-19T10:11:44.487Z</time>
      </trkpt>
      <trkpt lat="44.79624" lon="20.44477">
        <ele>133.925343</ele>
        <time>2023-03-19T10:11:46.481Z</time>
      </trkpt>
      <trkpt lat="44.79634" lon="20.44487">
        <ele>133.558868</ele>
        <time>2023-03-19T10:11:48.498Z</time>
      </trkpt>
      <trkpt lat="44.79644" lon="20.44499">
        <ele>133.134673</ele>
        <time>2023-03-19T10:11:50.480Z</time>
      </trkpt>
      <trkpt lat="44.79655" lon="20.4451">
        <ele>132.749317</ele>
        <time>2023-03-19T10:11:52.498Z</time>
      </trkpt>
      <trkpt lat="44.79666" lon="20.44522">
        <ele>132.474414</ele>
        <time>2023-03-19T10:11:54.502Z</time>
      </trkpt>
      <trkpt lat="44.79676" lon="20.44532">
        <ele>132.225485</ele>
        <time>2023-03-19T10:11:56.502Z</time>
      </trkpt>
      <trkpt lat="44.79685" lon="20.44542">
        <ele>132.002811</ele>
        <time>2023-03-19T10:11:58.491Z</time>
      </trkpt>
      <trkpt lat="44.79692" lon="20.44551">
        <ele>131.813617</ele>
        <time>2023-03-19T10:12:00.499Z</time>
      </trkpt>
      <trkpt lat="44.79704" lon="20.44558">
        <ele>131.549691</ele>
        <time>2023-03-19T10:12:03.481Z</time>
      </trkpt>
      <trkpt lat="44.79715" lon="20.44554">
        <ele>131.32113</ele>
        <time>2023-03-19T10:12:06.479Z</time>
      </trkpt>
      <trkpt lat="44.79724" lon="20.44545">
        <ele>131.108957</ele>
        <time>2023-03-19T10:12:10.492Z</time>
      </trkpt>
      <trkpt lat="44.79723" lon="20.44531">
        <ele>130.911785</ele>
        <time>2023-03-19T10:12:13.486Z</time>
      </trkpt>
      <trkpt lat="44.7972" lon="20.44517">
        <ele>130.700617</ele>
        <time>2023-03-19T10:12:16.500Z</time>
      </trkpt>
      <trkpt lat="44.79715" lon="20.44501">
        <ele>130.462067</ele>
        <time>2023-03-19T10:12:19.504Z</time>
      </trkpt>
      <trkpt lat="44.7971" lon="20.44485">
        <ele>130.203604</ele>
        <time>2023-03-19T10:12:22.482Z</time>
      </trkpt>
      <trkpt lat="44.79706" lon="20.44467">
        <ele>129.945339</ele>
        <time>2023-03-19T10:12:25.500Z</time>
      </trkpt>
      <trkpt lat="44.79702" lon="20.44456">
        <ele>129.761335</ele>
        <time>2023-03-19T10:12:27.499Z</time>
      </trkpt>
      <trkpt lat="44.79697" lon="20.44445">
        <ele>129.579277</ele>
        <time>2023-03-19T10:12:29.500Z</time>
      </trkpt>
      <trkpt lat="44.79692" lon="20.44428">
        <ele>129.314007</ele>
        <time>2023-03-19T10:12:32.480Z</time>
      </trkpt>
      <trkpt lat="44.79687" lon="20.44411">
        <ele>129.049885</ele>
        <time>2023-03-19T10:12:35.502Z</time>
      </trkpt>
      <trkpt lat="44.7968" lon="20.44394">
        <ele>128.786976</ele>
        <time>2023-03-19T10:12:38.497Z</time>
      </trkpt>
      <trkpt lat="44.79675" lon="20.44378">
        <ele>128.525247</ele>
        <time>2023-03-19T10:12:41.503Z</time>
      </trkpt>
      <trkpt lat="44.79672" lon="20.44365">
        <ele>128.34026</ele>
        <time>2023-03-19T10:12:43.498Z</time>
      </trkpt>
      <trkpt lat="44.79667" lon="20.44347">
        <ele>128.07089</ele>
        <time>2023-03-19T10:12:46.500Z</time>
      </trkpt>
      <trkpt lat="44.79663" lon="20.4433">
        <ele>127.811601</ele>
        <time>2023-03-19T10:12:49.503Z</time>
      </trkpt>
      <trkpt lat="44.7966" lon="20.44318">
        <ele>127.622621</ele>
        <time>2023-03-19T10:12:51.482Z</time>
      </trkpt>
      <trkpt lat="44.79656" lon="20.44305">
        <ele>127.422749</ele>
        <time>2023-03-19T10:12:53.489Z</time>
      </trkpt>
      <trkpt lat="44.79653" lon="20.44292">
        <ele>127.235161</ele>
        <time>2023-03-19T10:12:55.502Z</time>
      </trkpt>
      <trkpt lat="44.79649" lon="20.44278">
        <ele>127.018781</ele>
        <time>2023-03-19T10:12:57.498Z</time>
      </trkpt>
      <trkpt lat="44.79646" lon="20.44265">
        <ele>126.818342</ele>
        <time>2023-03-19T10:12:59.500Z</time>
      </trkpt>
      <trkpt lat="44.79642" lon="20.44253">
        <ele>126.632436</ele>
        <time>2023-03-19T10:13:01.499Z</time>
      </trkpt>
      <trkpt lat="44.79639" lon="20.4424">
        <ele>126.436749</ele>
        <time>2023-03-19T10:13:03.508Z</time>
      </trkpt>
      <trkpt lat="44.79636" lon="20.44226">
        <ele>126.234285</ele>
        <time>2023-03-19T10:13:05.502Z</time>
      </trkpt>
      <trkpt lat="44.79632" lon="20.44213">
        <ele>126.038658</ele>
        <time>2023-03-19T10:13:07.502Z</time>
      </trkpt>
      <trkpt lat="44.79629" lon="20.442">
        <ele>125.835574</ele>
        <time>2023-03-19T10:13:09.502Z</time>
      </trkpt>
      <trkpt lat="44.79625" lon="20.44187">
        <ele>125.64061</ele>
        <time>2023-03-19T10:13:11.499Z</time>
      </trkpt>
      <trkpt lat="44.79622" lon="20.44175">
        <ele>125.665041</ele>
        <time>2023-03-19T10:13:13.507Z</time>
      </trkpt>
      <trkpt lat="44.79615" lon="20.44157">
        <ele>125.743761</ele>
        <time>2023-03-19T10:13:16.505Z</time>
      </trkpt>
      <trkpt lat="44.79612" lon="20.44145">
        <ele>125.798965</ele>
        <time>2023-03-19T10:13:18.503Z</time>
      </trkpt>
      <trkpt lat="44.79608" lon="20.44133">
        <ele>125.851311</ele>
        <time>2023-03-19T10:13:20.493Z</time>
      </trkpt>
      <trkpt lat="44.79605" lon="20.4412">
        <ele>125.905428</ele>
        <time>2023-03-19T10:13:22.495Z</time>
      </trkpt>
      <trkpt lat="44.79601" lon="20.44108">
        <ele>125.959838</ele>
        <time>2023-03-19T10:13:24.501Z</time>
      </trkpt>
      <trkpt lat="44.79597" lon="20.4409">
        <ele>126.034886</ele>
        <time>2023-03-19T10:13:27.502Z</time>
      </trkpt>
      <trkpt lat="44.79592" lon="20.44074">
        <ele>126.103929</ele>
        <time>2023-03-19T10:13:30.501Z</time>
      </trkpt>
      <trkpt lat="44.79588" lon="20.44057">
        <ele>126.176144</ele>
        <time>2023-03-19T10:13:33.478Z</time>
      </trkpt>
      <trkpt lat="44.79585" lon="20.44044">
        <ele>126.231531</ele>
        <time>2023-03-19T10:13:35.490Z</time>
      </trkpt>
      <trkpt lat="44.79581" lon="20.44032">
        <ele>126.28388</ele>
        <time>2023-03-19T10:13:37.500Z</time>
      </trkpt>
      <trkpt lat="44.79577" lon="20.4402">
        <ele>126.33648</ele>
        <time>2023-03-19T10:13:39.500Z</time>
      </trkpt>
      <trkpt lat="44.79573" lon="20.44008">
        <ele>126.388967</ele>
        <time>2023-03-19T10:13:41.502Z</time>
      </trkpt>
      <trkpt lat="44.79569" lon="20.43995">
        <ele>126.446446</ele>
        <time>2023-03-19T10:13:43.501Z</time>
      </trkpt>
      <trkpt lat="44.79564" lon="20.43983">
        <ele>126.500947</ele>
        <time>2023-03-19T10:13:45.505Z</time>
      </trkpt>
      <trkpt lat="44.79559" lon="20.43966">
        <ele>126.577211</ele>
        <time>2023-03-19T10:13:48.504Z</time>
      </trkpt>
      <trkpt lat="44.79554" lon="20.4395">
        <ele>126.628359</ele>
        <time>2023-03-19T10:13:51.494Z</time>
      </trkpt>
      <trkpt lat="44.79551" lon="20.43934">
        <ele>126.595235</ele>
        <time>2023-03-19T10:13:54.513Z</time>
      </trkpt>
      <trkpt lat="44.79547" lon="20.43915">
        <ele>126.556973</ele>
        <time>2023-03-19T10:13:57.481Z</time>
      </trkpt>
      <trkpt lat="44.79545" lon="20.43902">
        <ele>126.529696</ele>
        <time>2023-03-19T10:13:59.479Z</time>
      </trkpt>
      <trkpt lat="44.79541" lon="20.43888">
        <ele>126.50069</ele>
        <time>2023-03-19T10:14:01.512Z</time>
      </trkpt>
      <trkpt lat="44.79538" lon="20.43873">
        <ele>126.469859</ele>
        <time>2023-03-19T10:14:03.480Z</time>
      </trkpt>
      <trkpt lat="44.79535" lon="20.43859">
        <ele>126.440477</ele>
        <time>2023-03-19T10:14:05.503Z</time>
      </trkpt>
      <trkpt lat="44.79532" lon="20.43844">
        <ele>126.410182</ele>
        <time>2023-03-19T10:14:07.501Z</time>
      </trkpt>
      <trkpt lat="44.79528" lon="20.43831">
        <ele>126.380582</ele>
        <time>2023-03-19T10:14:09.502Z</time>
      </trkpt>
      <trkpt lat="44.79525" lon="20.43817">
        <ele>126.352872</ele>
        <time>2023-03-19T10:14:11.485Z</time>
      </trkpt>
      <trkpt lat="44.79522" lon="20.43805">
        <ele>126.327328</ele>
        <time>2023-03-19T10:14:13.499Z</time>
      </trkpt>
      <trkpt lat="44.79519" lon="20.43792">
        <ele>126.301003</ele>
        <time>2023-03-19T10:14:15.500Z</time>
      </trkpt>
      <trkpt lat="44.79517" lon="20.4378">
        <ele>126.274852</ele>
        <time>2023-03-19T10:14:17.502Z</time>
      </trkpt>
      <trkpt lat="44.79512" lon="20.43762">
        <ele>126.237983</ele>
        <time>2023-03-19T10:14:20.500Z</time>
      </trkpt>
      <trkpt lat="44.79509" lon="20.43747">
        <ele>126.206527</ele>
        <time>2023-03-19T10:14:23.502Z</time>
      </trkpt>
      <trkpt lat="44.79508" lon="20.43739">
        <ele>126.189733</ele>
        <time>2023-03-19T10:14:30.199Z</time>
      </trkpt>
      <trkpt lat="44.79517" lon="20.43725">
        <ele>126.153148</ele>
        <time>2023-03-19T10:16:10.499Z</time>
      </trkpt>
      <trkpt lat="44.79524" lon="20.43715">
        <ele>126.136121</ele>
        <time>2023-03-19T10:16:13.507Z</time>
      </trkpt>
      <trkpt lat="44.79531" lon="20.43701">
        <ele>126.157468</ele>
        <time>2023-03-19T10:16:16.502Z</time>
      </trkpt>
      <trkpt lat="44.79529" lon="20.43683">
        <ele>126.180026</ele>
        <time>2023-03-19T10:16:19.500Z</time>
      </trkpt>
      <trkpt lat="44.79526" lon="20.4367">
        <ele>126.196298</ele>
        <time>2023-03-19T10:16:21.504Z</time>
      </trkpt>
      <trkpt lat="44.79525" lon="20.43656">
        <ele>126.213363</ele>
        <time>2023-03-19T10:16:23.507Z</time>
      </trkpt>
      <trkpt lat="44.79522" lon="20.43643">
        <ele>126.23066</ele>
        <time>2023-03-19T10:16:25.504Z</time>
      </trkpt>
      <trkpt lat="44.7952" lon="20.43629">
        <ele>126.248897</ele>
        <time>2023-03-19T10:16:27.511Z</time>
      </trkpt>
      <trkpt lat="44.79518" lon="20.43614">
        <ele>126.267241</ele>
        <time>2023-03-19T10:16:29.503Z</time>
      </trkpt>
      <trkpt lat="44.79516" lon="20.43599">
        <ele>126.285721</ele>
        <time>2023-03-19T10:16:31.506Z</time>
      </trkpt>
      <trkpt lat="44.79513" lon="20.43584">
        <ele>126.304995</ele>
        <time>2023-03-19T10:16:33.497Z</time>
      </trkpt>
      <trkpt lat="44.79512" lon="20.43568">
        <ele>126.32463</ele>
        <time>2023-03-19T10:16:35.505Z</time>
      </trkpt>
      <trkpt lat="44.79509" lon="20.43553">
        <ele>126.344146</ele>
        <time>2023-03-19T10:16:37.509Z</time>
      </trkpt>
      <trkpt lat="44.79508" lon="20.43538">
        <ele>126.362681</ele>
        <time>2023-03-19T10:16:39.515Z</time>
      </trkpt>
      <trkpt lat="44.79506" lon="20.43522">
        <ele>126.382268</ele>
        <time>2023-03-19T10:16:41.511Z</time>
      </trkpt>
      <trkpt lat="44.79503" lon="20.43507">
        <ele>126.402097</ele>
        <time>2023-03-19T10:16:43.525Z</time>
      </trkpt>
      <trkpt lat="44.79501" lon="20.43491">
        <ele>126.422046</ele>
        <time>2023-03-19T10:16:45.511Z</time>
      </trkpt>
      <trkpt lat="44.79499" lon="20.43475">
        <ele>126.441874</ele>
        <time>2023-03-19T10:16:47.512Z</time>
      </trkpt>
      <trkpt lat="44.79496" lon="20.4346">
        <ele>126.430009</ele>
        <time>2023-03-19T10:16:49.509Z</time>
      </trkpt>
      <trkpt lat="44.79493" lon="20.43444">
        <ele>126.412167</ele>
        <time>2023-03-19T10:16:51.506Z</time>
      </trkpt>
      <trkpt lat="44.7949" lon="20.43429">
        <ele>126.395059</ele>
        <time>2023-03-19T10:16:53.506Z</time>
      </trkpt>
      <trkpt lat="44.79487" lon="20.43414">
        <ele>126.378101</ele>
        <time>2023-03-19T10:16:55.506Z</time>
      </trkpt>
      <trkpt lat="44.79484" lon="20.43399">
        <ele>126.361123</ele>
        <time>2023-03-19T10:16:57.495Z</time>
      </trkpt>
      <trkpt lat="44.79481" lon="20.43382">
        <ele>126.342748</ele>
        <time>2023-03-19T10:16:59.503Z</time>
      </trkpt>
      <trkpt lat="44.79478" lon="20.43366">
        <ele>126.324936</ele>
        <time>2023-03-19T10:17:01.523Z</time>
      </trkpt>
      <trkpt lat="44.79474" lon="20.43351">
        <ele>126.307532</ele>
        <time>2023-03-19T10:17:03.508Z</time>
      </trkpt>
      <trkpt lat="44.79471" lon="20.43336">
        <ele>126.29038</ele>
        <time>2023-03-19T10:17:05.506Z</time>
      </trkpt>
      <trkpt lat="44.79468" lon="20.43321">
        <ele>126.273361</ele>
        <time>2023-03-19T10:17:07.512Z</time>
      </trkpt>
      <trkpt lat="44.79463" lon="20.43307">
        <ele>126.256527</ele>
        <time>2023-03-19T10:17:09.503Z</time>
      </trkpt>
      <trkpt lat="44.7946" lon="20.43295">
        <ele>126.242188</ele>
        <time>2023-03-19T10:17:11.509Z</time>
      </trkpt>
      <trkpt lat="44.79456" lon="20.43282">
        <ele>126.227482</ele>
        <time>2023-03-19T10:17:13.508Z</time>
      </trkpt>
      <trkpt lat="44.79453" lon="20.43269">
        <ele>126.213037</ele>
        <time>2023-03-19T10:17:15.490Z</time>
      </trkpt>
      <trkpt lat="44.7945" lon="20.43252">
        <ele>126.193681</ele>
        <time>2023-03-19T10:17:18.504Z</time>
      </trkpt>
      <trkpt lat="44.79446" lon="20.43236">
        <ele>126.175262</ele>
        <time>2023-03-19T10:17:21.501Z</time>
      </trkpt>
      <trkpt lat="44.79442" lon="20.43223">
        <ele>126.118092</ele>
        <time>2023-03-19T10:17:24.507Z</time>
      </trkpt>
      <trkpt lat="44.79451" lon="20.43212">
        <ele>126.02859</ele>
        <time>2023-03-19T10:17:28.494Z</time>
      </trkpt>
      <trkpt lat="44.79451" lon="20.43197">
        <ele>125.946433</ele>
        <time>2023-03-19T10:17:33.492Z</time>
      </trkpt>
      <trkpt lat="44.79448" lon="20.43184">
        <ele>125.871266</ele>
        <time>2023-03-19T10:17:36.507Z</time>
      </trkpt>
      <trkpt lat="44.7945" lon="20.43168">
        <ele>125.779909</ele>
        <time>2023-03-19T10:17:39.501Z</time>
      </trkpt>
      <trkpt lat="44.79451" lon="20.43149">
        <ele>125.676781</ele>
        <time>2023-03-19T10:17:42.486Z</time>
      </trkpt>
      <trkpt lat="44.79448" lon="20.43136">
        <ele>125.600038</ele>
        <time>2023-03-19T10:17:44.501Z</time>
      </trkpt>
      <trkpt lat="44.79447" lon="20.43123">
        <ele>125.525321</ele>
        <time>2023-03-19T10:17:46.494Z</time>
      </trkpt>
      <trkpt lat="44.79445" lon="20.43109">
        <ele>125.448935</ele>
        <time>2023-03-19T10:17:48.485Z</time>
      </trkpt>
      <trkpt lat="44.79442" lon="20.43096">
        <ele>125.371456</ele>
        <time>2023-03-19T10:17:50.498Z</time>
      </trkpt>
      <trkpt lat="44.7944" lon="20.43083">
        <ele>125.296354</ele>
        <time>2023-03-19T10:17:52.488Z</time>
      </trkpt>
      <trkpt lat="44.79437" lon="20.43069">
        <ele>125.215575</ele>
        <time>2023-03-19T10:17:54.508Z</time>
      </trkpt>
      <trkpt lat="44.79434" lon="20.43055">
        <ele>125.138058</ele>
        <time>2023-03-19T10:17:56.507Z</time>
      </trkpt>
      <trkpt lat="44.7943" lon="20.43042">
        <ele>125.059263</ele>
        <time>2023-03-19T10:17:58.485Z</time>
      </trkpt>
      <trkpt lat="44.79426" lon="20.43029">
        <ele>124.979555</ele>
        <time>2023-03-19T10:18:00.506Z</time>
      </trkpt>
      <trkpt lat="44.79422" lon="20.43016">
        <ele>124.902192</ele>
        <time>2023-03-19T10:18:02.492Z</time>
      </trkpt>
      <trkpt lat="44.79418" lon="20.43005">
        <ele>124.830555</ele>
        <time>2023-03-19T10:18:04.502Z</time>
      </trkpt>
      <trkpt lat="44.79414" lon="20.42993">
        <ele>124.768891</ele>
        <time>2023-03-19T10:18:06.513Z</time>
      </trkpt>
      <trkpt lat="44.79408" lon="20.42978">
        <ele>124.801884</ele>
        <time>2023-03-19T10:18:09.495Z</time>
      </trkpt>
      <trkpt lat="44.79401" lon="20.42963">
        <ele>124.835185</ele>
        <time>2023-03-19T10:18:12.511Z</time>
      </trkpt>
      <trkpt lat="44.79394" lon="20.42949">
        <ele>124.869265</ele>
        <time>2023-03-19T10:18:15.509Z</time>
      </trkpt>
      <trkpt lat="44.79388" lon="20.42939">
        <ele>124.894363</ele>
        <time>2023-03-19T10:18:17.489Z</time>
      </trkpt>
      <trkpt lat="44.7938" lon="20.42932">
        <ele>124.919897</ele>
        <time>2023-03-19T10:18:19.485Z</time>
      </trkpt>
      <trkpt lat="44.79371" lon="20.42927">
        <ele>124.945273</ele>
        <time>2023-03-19T10:18:21.493Z</time>
      </trkpt>
      <trkpt lat="44.79362" lon="20.42924">
        <ele>124.971144</ele>
        <time>2023-03-19T10:18:23.490Z</time>
      </trkpt>
      <trkpt lat="44.79352" lon="20.42926">
        <ele>124.997326</ele>
        <time>2023-03-19T10:18:25.500Z</time>
      </trkpt>
      <trkpt lat="44.79342" lon="20.42928">
        <ele>125.025406</ele>
        <time>2023-03-19T10:18:27.487Z</time>
      </trkpt>
      <trkpt lat="44.79331" lon="20.42927">
        <ele>125.054895</ele>
        <time>2023-03-19T10:18:29.507Z</time>
      </trkpt>
      <trkpt lat="44.79321" lon="20.42921">
        <ele>125.084725</ele>
        <time>2023-03-19T10:18:31.504Z</time>
      </trkpt>
      <trkpt lat="44.79314" lon="20.42912">
        <ele>125.109133</ele>
        <time>2023-03-19T10:18:33.491Z</time>
      </trkpt>
      <trkpt lat="44.79306" lon="20.42906">
        <ele>125.135045</ele>
        <time>2023-03-19T10:18:35.507Z</time>
      </trkpt>
      <trkpt lat="44.79299" lon="20.42897">
        <ele>125.160045</ele>
        <time>2023-03-19T10:18:37.489Z</time>
      </trkpt>
      <trkpt lat="44.79293" lon="20.42886">
        <ele>125.18615</ele>
        <time>2023-03-19T10:18:39.490Z</time>
      </trkpt>
      <trkpt lat="44.79287" lon="20.42873">
        <ele>125.21558</ele>
        <time>2023-03-19T10:18:41.494Z</time>
      </trkpt>
      <trkpt lat="44.79282" lon="20.42857">
        <ele>125.249898</ele>
        <time>2023-03-19T10:18:43.505Z</time>
      </trkpt>
      <trkpt lat="44.79275" lon="20.42841">
        <ele>125.271437</ele>
        <time>2023-03-19T10:18:45.512Z</time>
      </trkpt>
      <trkpt lat="44.79268" lon="20.42822">
        <ele>125.294285</ele>
        <time>2023-03-19T10:18:47.506Z</time>
      </trkpt>
      <trkpt lat="44.79261" lon="20.42804">
        <ele>125.317265</ele>
        <time>2023-03-19T10:18:49.504Z</time>
      </trkpt>
      <trkpt lat="44.79253" lon="20.42786">
        <ele>125.340202</ele>
        <time>2023-03-19T10:18:51.510Z</time>
      </trkpt>
      <trkpt lat="44.79244" lon="20.42769">
        <ele>125.362563</ele>
        <time>2023-03-19T10:18:53.487Z</time>
      </trkpt>
      <trkpt lat="44.79239" lon="20.42757">
        <ele>125.377695</ele>
        <time>2023-03-19T10:18:54.493Z</time>
      </trkpt>
      <trkpt lat="44.79237" lon="20.42741">
        <ele>125.394381</ele>
        <time>2023-03-19T10:18:56.484Z</time>
      </trkpt>
      <trkpt lat="44.79237" lon="20.42728">
        <ele>125.408858</ele>
        <time>2023-03-19T10:18:58.497Z</time>
      </trkpt>
      <trkpt lat="44.7924" lon="20.42713">
        <ele>125.425765</ele>
        <time>2023-03-19T10:19:02.503Z</time>
      </trkpt>
      <trkpt lat="44.79241" lon="20.42695">
        <ele>125.445132</ele>
        <time>2023-03-19T10:19:05.488Z</time>
      </trkpt>
      <trkpt lat="44.79242" lon="20.4268">
        <ele>125.461241</ele>
        <time>2023-03-19T10:19:08.509Z</time>
      </trkpt>
      <trkpt lat="44.79242" lon="20.42666">
        <ele>125.476252</ele>
        <time>2023-03-19T10:19:11.507Z</time>
      </trkpt>
      <trkpt lat="44.79244" lon="20.42651">
        <ele>125.492967</ele>
        <time>2023-03-19T10:19:14.484Z</time>
      </trkpt>
      <trkpt lat="44.79241" lon="20.42633">
        <ele>125.512736</ele>
        <time>2023-03-19T10:19:17.489Z</time>
      </trkpt>
      <trkpt lat="44.79235" lon="20.42617">
        <ele>125.504531</ele>
        <time>2023-03-19T10:19:20.485Z</time>
      </trkpt>
      <trkpt lat="44.79226" lon="20.42605">
        <ele>125.444853</ele>
        <time>2023-03-19T10:19:23.489Z</time>
      </trkpt>
      <trkpt lat="44.79216" lon="20.42592">
        <ele>125.382353</ele>
        <time>2023-03-19T10:19:26.488Z</time>
      </trkpt>
      <trkpt lat="44.79208" lon="20.42578">
        <ele>125.32298</ele>
        <time>2023-03-19T10:19:29.501Z</time>
      </trkpt>
      <trkpt lat="44.79201" lon="20.42564">
        <ele>125.267519</ele>
        <time>2023-03-19T10:19:32.502Z</time>
      </trkpt>
      <trkpt lat="44.79193" lon="20.4255">
        <ele>125.20748</ele>
        <time>2023-03-19T10:19:35.507Z</time>
      </trkpt>
      <trkpt lat="44.79188" lon="20.42538">
        <ele>125.16113</ele>
        <time>2023-03-19T10:19:37.496Z</time>
      </trkpt>
      <trkpt lat="44.79182" lon="20.42525">
        <ele>125.112609</ele>
        <time>2023-03-19T10:19:39.507Z</time>
      </trkpt>
      <trkpt lat="44.79175" lon="20.42513">
        <ele>125.059525</ele>
        <time>2023-03-19T10:19:41.504Z</time>
      </trkpt>
      <trkpt lat="44.79169" lon="20.425">
        <ele>125.007027</ele>
        <time>2023-03-19T10:19:43.504Z</time>
      </trkpt>
      <trkpt lat="44.79161" lon="20.42487">
        <ele>124.953493</ele>
        <time>2023-03-19T10:19:45.505Z</time>
      </trkpt>
      <trkpt lat="44.79154" lon="20.42475">
        <ele>124.901702</ele>
        <time>2023-03-19T10:19:47.507Z</time>
      </trkpt>
      <trkpt lat="44.79151" lon="20.42461">
        <ele>124.851456</ele>
        <time>2023-03-19T10:19:49.503Z</time>
      </trkpt>
      <trkpt lat="44.79151" lon="20.42448">
        <ele>124.80952</ele>
        <time>2023-03-19T10:19:51.497Z</time>
      </trkpt>
      <trkpt lat="44.7915" lon="20.42433">
        <ele>124.758606</ele>
        <time>2023-03-19T10:19:54.492Z</time>
      </trkpt>
      <trkpt lat="44.79145" lon="20.42421">
        <ele>124.71278</ele>
        <time>2023-03-19T10:19:57.488Z</time>
      </trkpt>
      <trkpt lat="44.7914" lon="20.42409">
        <ele>124.709208</ele>
        <time>2023-03-19T10:20:00.491Z</time>
      </trkpt>
      <trkpt lat="44.79133" lon="20.42395">
        <ele>124.757856</ele>
        <time>2023-03-19T10:20:03.511Z</time>
      </trkpt>
      <trkpt lat="44.79124" lon="20.4238">
        <ele>124.811662</ele>
        <time>2023-03-19T10:20:06.486Z</time>
      </trkpt>
      <trkpt lat="44.79116" lon="20.42373">
        <ele>124.851952</ele>
        <time>2023-03-19T10:20:08.501Z</time>
      </trkpt>
      <trkpt lat="44.79108" lon="20.42365">
        <ele>124.888692</ele>
        <time>2023-03-19T10:20:10.506Z</time>
      </trkpt>
      <trkpt lat="44.79098" lon="20.42354">
        <ele>124.942391</ele>
        <time>2023-03-19T10:20:13.494Z</time>
      </trkpt>
      <trkpt lat="44.79089" lon="20.42346">
        <ele>124.982622</ele>
        <time>2023-03-19T10:20:15.487Z</time>
      </trkpt>
      <trkpt lat="44.7908" lon="20.42338">
        <ele>125.02595</ele>
        <time>2023-03-19T10:20:17.483Z</time>
      </trkpt>
      <trkpt lat="44.79072" lon="20.42328">
        <ele>125.07198</ele>
        <time>2023-03-19T10:20:19.508Z</time>
      </trkpt>
      <trkpt lat="44.79064" lon="20.42315">
        <ele>125.119598</ele>
        <time>2023-03-19T10:20:21.498Z</time>
      </trkpt>
      <trkpt lat="44.79056" lon="20.42303">
        <ele>125.166589</ele>
        <time>2023-03-19T10:20:23.506Z</time>
      </trkpt>
      <trkpt lat="44.79048" lon="20.42292">
        <ele>125.21158</ele>
        <time>2023-03-19T10:20:25.504Z</time>
      </trkpt>
      <trkpt lat="44.7904" lon="20.4228">
        <ele>125.258513</ele>
        <time>2023-03-19T10:20:27.507Z</time>
      </trkpt>
      <trkpt lat="44.79032" lon="20.42269">
        <ele>125.302815</ele>
        <time>2023-03-19T10:20:29.508Z</time>
      </trkpt>
      <trkpt lat="44.79024" lon="20.42258">
        <ele>125.347526</ele>
        <time>2023-03-19T10:20:31.504Z</time>
      </trkpt>
      <trkpt lat="44.79017" lon="20.42246">
        <ele>125.392314</ele>
        <time>2023-03-19T10:20:33.507Z</time>
      </trkpt>
      <trkpt lat="44.79009" lon="20.42235">
        <ele>125.478253</ele>
        <time>2023-03-19T10:20:35.507Z</time>
      </trkpt>
      <trkpt lat="44.79002" lon="20.42224">
        <ele>125.596548</ele>
        <time>2023-03-19T10:20:37.510Z</time>
      </trkpt>
      <trkpt lat="44.78994" lon="20.42212">
        <ele>125.723789</ele>
        <time>2023-03-19T10:20:39.509Z</time>
      </trkpt>
      <trkpt lat="44.78986" lon="20.422">
        <ele>125.852378</ele>
        <time>2023-03-19T10:20:41.514Z</time>
      </trkpt>
      <trkpt lat="44.78978" lon="20.42189">
        <ele>125.978954</ele>
        <time>2023-03-19T10:20:43.509Z</time>
      </trkpt>
      <trkpt lat="44.7897" lon="20.42179">
        <ele>126.102305</ele>
        <time>2023-03-19T10:20:45.502Z</time>
      </trkpt>
      <trkpt lat="44.78962" lon="20.42166">
        <ele>126.232512</ele>
        <time>2023-03-19T10:20:47.509Z</time>
      </trkpt>
      <trkpt lat="44.78955" lon="20.42153">
        <ele>126.363695</ele>
        <time>2023-03-19T10:20:49.503Z</time>
      </trkpt>
      <trkpt lat="44.78948" lon="20.42141">
        <ele>126.4843</ele>
        <time>2023-03-19T10:20:51.494Z</time>
      </trkpt>
      <trkpt lat="44.78942" lon="20.42128">
        <ele>126.606952</ele>
        <time>2023-03-19T10:20:53.503Z</time>
      </trkpt>
      <trkpt lat="44.78935" lon="20.42116">
        <ele>126.732101</ele>
        <time>2023-03-19T10:20:55.506Z</time>
      </trkpt>
      <trkpt lat="44.78929" lon="20.42102">
        <ele>126.858597</ele>
        <time>2023-03-19T10:20:57.511Z</time>
      </trkpt>
      <trkpt lat="44.78923" lon="20.42089">
        <ele>126.983413</ele>
        <time>2023-03-19T10:20:59.511Z</time>
      </trkpt>
      <trkpt lat="44.78916" lon="20.42075">
        <ele>127.110447</ele>
        <time>2023-03-19T10:21:01.504Z</time>
      </trkpt>
      <trkpt lat="44.7891" lon="20.42061">
        <ele>127.239596</ele>
        <time>2023-03-19T10:21:03.506Z</time>
      </trkpt>
      <trkpt lat="44.78904" lon="20.42047">
        <ele>127.374445</ele>
        <time>2023-03-19T10:21:05.509Z</time>
      </trkpt>
      <trkpt lat="44.78897" lon="20.42032">
        <ele>127.171548</ele>
        <time>2023-03-19T10:21:07.503Z</time>
      </trkpt>
      <trkpt lat="44.78891" lon="20.42018">
        <ele>126.864669</ele>
        <time>2023-03-19T10:21:09.505Z</time>
      </trkpt>
      <trkpt lat="44.78887" lon="20.42003">
        <ele>126.571395</ele>
        <time>2023-03-19T10:21:11.506Z</time>
      </trkpt>
      <trkpt lat="44.78883" lon="20.41988">
        <ele>126.290577</ele>
        <time>2023-03-19T10:21:13.507Z</time>
      </trkpt>
      <trkpt lat="44.78882" lon="20.41972">
        <ele>126.002543</ele>
        <time>2023-03-19T10:21:15.495Z</time>
      </trkpt>
      <trkpt lat="44.78882" lon="20.41956">
        <ele>125.70802</ele>
        <time>2023-03-19T10:21:17.498Z</time>
      </trkpt>
      <trkpt lat="44.78883" lon="20.41941">
        <ele>125.440326</ele>
        <time>2023-03-19T10:21:19.484Z</time>
      </trkpt>
      <trkpt lat="44.78883" lon="20.41922">
        <ele>125.100491</ele>
        <time>2023-03-19T10:21:21.493Z</time>
      </trkpt>
      <trkpt lat="44.78881" lon="20.41902">
        <ele>124.718187</ele>
        <time>2023-03-19T10:21:23.484Z</time>
      </trkpt>
      <trkpt lat="44.78875" lon="20.41883">
        <ele>124.355224</ele>
        <time>2023-03-19T10:21:25.490Z</time>
      </trkpt>
      <trkpt lat="44.78868" lon="20.41866">
        <ele>124.008905</ele>
        <time>2023-03-19T10:21:27.494Z</time>
      </trkpt>
      <trkpt lat="44.78862" lon="20.4185">
        <ele>123.672504</ele>
        <time>2023-03-19T10:21:29.503Z</time>
      </trkpt>
      <trkpt lat="44.78857" lon="20.41833">
        <ele>123.338406</ele>
        <time>2023-03-19T10:21:31.506Z</time>
      </trkpt>
      <trkpt lat="44.78852" lon="20.41816">
        <ele>123.015414</ele>
        <time>2023-03-19T10:21:33.506Z</time>
      </trkpt>
      <trkpt lat="44.78847" lon="20.41802">
        <ele>122.784533</ele>
        <time>2023-03-19T10:21:35.505Z</time>
      </trkpt>
      <trkpt lat="44.78844" lon="20.41787">
        <ele>122.665809</ele>
        <time>2023-03-19T10:21:37.506Z</time>
      </trkpt>
      <trkpt lat="44.78844" lon="20.41771">
        <ele>122.546172</ele>
        <time>2023-03-19T10:21:39.499Z</time>
      </trkpt>
      <trkpt lat="44.78848" lon="20.41756">
        <ele>122.421374</ele>
        <time>2023-03-19T10:21:41.497Z</time>
      </trkpt>
      <trkpt lat="44.78852" lon="20.4174">
        <ele>122.294478</ele>
        <time>2023-03-19T10:21:43.496Z</time>
      </trkpt>
      <trkpt lat="44.78857" lon="20.41724">
        <ele>122.162882</ele>
        <time>2023-03-19T10:21:45.505Z</time>
      </trkpt>
      <trkpt lat="44.78862" lon="20.41708">
        <ele>122.034684</ele>
        <time>2023-03-19T10:21:47.507Z</time>
      </trkpt>
      <trkpt lat="44.78866" lon="20.41692">
        <ele>121.904799</ele>
        <time>2023-03-19T10:21:49.504Z</time>
      </trkpt>
      <trkpt lat="44.7887" lon="20.41677">
        <ele>121.778962</ele>
        <time>2023-03-19T10:21:51.509Z</time>
      </trkpt>
      <trkpt lat="44.78875" lon="20.41661">
        <ele>121.651781</ele>
        <time>2023-03-19T10:21:53.500Z</time>
      </trkpt>
      <trkpt lat="44.78883" lon="20.41649">
        <ele>121.526119</ele>
        <time>2023-03-19T10:21:55.506Z</time>
      </trkpt>
      <trkpt lat="44.78893" lon="20.4164">
        <ele>121.397796</ele>
        <time>2023-03-19T10:21:57.487Z</time>
      </trkpt>
      <trkpt lat="44.78905" lon="20.41634">
        <ele>121.265729</ele>
        <time>2023-03-19T10:21:59.499Z</time>
      </trkpt>
      <trkpt lat="44.78917" lon="20.41633">
        <ele>121.13745</ele>
        <time>2023-03-19T10:22:01.496Z</time>
      </trkpt>
      <trkpt lat="44.78929" lon="20.41632">
        <ele>121.00834</ele>
        <time>2023-03-19T10:22:03.497Z</time>
      </trkpt>
      <trkpt lat="44.78942" lon="20.41631">
        <ele>120.840467</ele>
        <time>2023-03-19T10:22:05.504Z</time>
      </trkpt>
      <trkpt lat="44.78955" lon="20.41625">
        <ele>120.611352</ele>
        <time>2023-03-19T10:22:07.497Z</time>
      </trkpt>
      <trkpt lat="44.78965" lon="20.41621">
        <ele>120.441583</ele>
        <time>2023-03-19T10:22:09.507Z</time>
      </trkpt>
      <trkpt lat="44.7897" lon="20.41608">
        <ele>120.263109</ele>
        <time>2023-03-19T10:22:12.493Z</time>
      </trkpt>
      <trkpt lat="44.78965" lon="20.41591">
        <ele>120.03946</ele>
        <time>2023-03-19T10:22:15.497Z</time>
      </trkpt>
      <trkpt lat="44.78963" lon="20.41575">
        <ele>119.836504</ele>
        <time>2023-03-19T10:22:17.494Z</time>
      </trkpt>
      <trkpt lat="44.78963" lon="20.41556">
        <ele>119.613612</ele>
        <time>2023-03-19T10:22:19.485Z</time>
      </trkpt>
      <trkpt lat="44.78964" lon="20.41539">
        <ele>119.403572</ele>
        <time>2023-03-19T10:22:21.493Z</time>
      </trkpt>
      <trkpt lat="44.78966" lon="20.41523">
        <ele>119.20993</ele>
        <time>2023-03-19T10:22:23.511Z</time>
      </trkpt>
      <trkpt lat="44.78968" lon="20.41508">
        <ele>119.017464</ele>
        <time>2023-03-19T10:22:25.487Z</time>
      </trkpt>
      <trkpt lat="44.7897" lon="20.41492">
        <ele>118.820805</ele>
        <time>2023-03-19T10:22:27.505Z</time>
      </trkpt>
      <trkpt lat="44.78973" lon="20.41477">
        <ele>118.638275</ele>
        <time>2023-03-19T10:22:29.503Z</time>
      </trkpt>
      <trkpt lat="44.78974" lon="20.41462">
        <ele>118.456398</ele>
        <time>2023-03-19T10:22:31.508Z</time>
      </trkpt>
      <trkpt lat="44.78975" lon="20.41446">
        <ele>118.266345</ele>
        <time>2023-03-19T10:22:34.491Z</time>
      </trkpt>
      <trkpt lat="44.78974" lon="20.41431">
        <ele>118.07936</ele>
        <time>2023-03-19T10:22:39.492Z</time>
      </trkpt>
      <trkpt lat="44.78971" lon="20.41417">
        <ele>117.906646</ele>
        <time>2023-03-19T10:22:42.508Z</time>
      </trkpt>
      <trkpt lat="44.78977" lon="20.41403">
        <ele>117.867885</ele>
        <time>2023-03-19T10:22:45.498Z</time>
      </trkpt>
      <trkpt lat="44.78988" lon="20.4139">
        <ele>117.906841</ele>
        <time>2023-03-19T10:22:48.490Z</time>
      </trkpt>
      <trkpt lat="44.78995" lon="20.4138">
        <ele>117.933927</ele>
        <time>2023-03-19T10:22:50.507Z</time>
      </trkpt>
      <trkpt lat="44.79004" lon="20.41367">
        <ele>117.97006</ele>
        <time>2023-03-19T10:22:53.512Z</time>
      </trkpt>
      <trkpt lat="44.7901" lon="20.41357">
        <ele>117.996221</ele>
        <time>2023-03-19T10:22:55.505Z</time>
      </trkpt>
      <trkpt lat="44.79016" lon="20.41346">
        <ele>118.023459</ele>
        <time>2023-03-19T10:22:57.511Z</time>
      </trkpt>
      <trkpt lat="44.79022" lon="20.41335">
        <ele>118.050997</ele>
        <time>2023-03-19T10:22:59.507Z</time>
      </trkpt>
      <trkpt lat="44.79028" lon="20.41324">
        <ele>118.077901</ele>
        <time>2023-03-19T10:23:01.498Z</time>
      </trkpt>
      <trkpt lat="44.79033" lon="20.41313">
        <ele>118.102941</ele>
        <time>2023-03-19T10:23:03.509Z</time>
      </trkpt>
      <trkpt lat="44.79032" lon="20.41294">
        <ele>118.139867</ele>
        <time>2023-03-19T10:23:06.488Z</time>
      </trkpt>
      <trkpt lat="44.79034" lon="20.41277">
        <ele>118.17334</ele>
        <time>2023-03-19T10:23:09.505Z</time>
      </trkpt>
      <trkpt lat="44.79043" lon="20.4127">
        <ele>118.202645</ele>
        <time>2023-03-19T10:23:15.487Z</time>
      </trkpt>
      <trkpt lat="44.79049" lon="20.41256">
        <ele>118.233718</ele>
        <time>2023-03-19T10:23:19.502Z</time>
      </trkpt>
      <trkpt lat="44.79049" lon="20.41241">
        <ele>118.26358</ele>
        <time>2023-03-19T10:23:22.505Z</time>
      </trkpt>
      <trkpt lat="44.79047" lon="20.41223">
        <ele>118.298768</ele>
        <time>2023-03-19T10:23:25.491Z</time>
      </trkpt>
      <trkpt lat="44.79045" lon="20.41205">
        <ele>118.335623</ele>
        <time>2023-03-19T10:23:28.500Z</time>
      </trkpt>
      <trkpt lat="44.79042" lon="20.41191">
        <ele>118.238205</ele>
        <time>2023-03-19T10:23:30.510Z</time>
      </trkpt>
      <trkpt lat="44.79041" lon="20.41178">
        <ele>118.107111</ele>
        <time>2023-03-19T10:23:32.515Z</time>
      </trkpt>
      <trkpt lat="44.79039" lon="20.41165">
        <ele>117.973569</ele>
        <time>2023-03-19T10:23:34.508Z</time>
      </trkpt>
      <trkpt lat="44.79037" lon="20.41146">
        <ele>117.783021</ele>
        <time>2023-03-19T10:23:37.506Z</time>
      </trkpt>
      <trkpt lat="44.79037" lon="20.41132">
        <ele>117.647202</ele>
        <time>2023-03-19T10:23:39.510Z</time>
      </trkpt>
      <trkpt lat="44.79038" lon="20.41118">
        <ele>117.504203</ele>
        <time>2023-03-19T10:23:41.505Z</time>
      </trkpt>
      <trkpt lat="44.7904" lon="20.41104">
        <ele>117.356095</ele>
        <time>2023-03-19T10:23:43.499Z</time>
      </trkpt>
      <trkpt lat="44.7904" lon="20.4109">
        <ele>117.217579</ele>
        <time>2023-03-19T10:23:45.489Z</time>
      </trkpt>
      <trkpt lat="44.79037" lon="20.41076">
        <ele>117.07412</ele>
        <time>2023-03-19T10:23:47.499Z</time>
      </trkpt>
      <trkpt lat="44.79034" lon="20.41062">
        <ele>116.929408</ele>
        <time>2023-03-19T10:23:49.484Z</time>
      </trkpt>
      <trkpt lat="44.79031" lon="20.41048">
        <ele>116.778674</ele>
        <time>2023-03-19T10:23:51.494Z</time>
      </trkpt>
      <trkpt lat="44.79027" lon="20.41033">
        <ele>116.624152</ele>
        <time>2023-03-19T10:23:53.507Z</time>
      </trkpt>
      <trkpt lat="44.79025" lon="20.41019">
        <ele>116.479075</ele>
        <time>2023-03-19T10:23:55.485Z</time>
      </trkpt>
      <trkpt lat="44.79023" lon="20.41003">
        <ele>116.324598</ele>
        <time>2023-03-19T10:23:57.493Z</time>
      </trkpt>
      <trkpt lat="44.79023" lon="20.40988">
        <ele>116.171199</ele>
        <time>2023-03-19T10:23:59.494Z</time>
      </trkpt>
      <trkpt lat="44.79021" lon="20.40974">
        <ele>116.024068</ele>
        <time>2023-03-19T10:24:01.510Z</time>
      </trkpt>
      <trkpt lat="44.79017" lon="20.40961">
        <ele>115.884947</ele>
        <time>2023-03-19T10:24:03.498Z</time>
      </trkpt>
      <trkpt lat="44.79014" lon="20.40946">
        <ele>115.938946</ele>
        <time>2023-03-19T10:24:05.494Z</time>
      </trkpt>
      <trkpt lat="44.79013" lon="20.40931">
        <ele>116.155735</ele>
        <time>2023-03-19T10:24:07.509Z</time>
      </trkpt>
      <trkpt lat="44.79013" lon="20.40917">
        <ele>116.366307</ele>
        <time>2023-03-19T10:24:09.484Z</time>
      </trkpt>
      <trkpt lat="44.79012" lon="20.40902">
        <ele>116.578372</ele>
        <time>2023-03-19T10:24:11.491Z</time>
      </trkpt>
      <trkpt lat="44.79012" lon="20.40887">
        <ele>116.797773</ele>
        <time>2023-03-19T10:24:13.482Z</time>
      </trkpt>
      <trkpt lat="44.79011" lon="20.40872">
        <ele>117.012857</ele>
        <time>2023-03-19T10:24:15.502Z</time>
      </trkpt>
      <trkpt lat="44.79011" lon="20.40856">
        <ele>117.240602</ele>
        <time>2023-03-19T10:24:17.506Z</time>
      </trkpt>
      <trkpt lat="44.79008" lon="20.40843">
        <ele>117.448024</ele>
        <time>2023-03-19T10:24:19.509Z</time>
      </trkpt>
      <trkpt lat="44.79005" lon="20.40829">
        <ele>117.649055</ele>
        <time>2023-03-19T10:24:21.486Z</time>
      </trkpt>
      <trkpt lat="44.79002" lon="20.40816">
        <ele>117.850373</ele>
        <time>2023-03-19T10:24:23.485Z</time>
      </trkpt>
      <trkpt lat="44.78999" lon="20.40801">
        <ele>118.071202</ele>
        <time>2023-03-19T10:24:25.509Z</time>
      </trkpt>
      <trkpt lat="44.78994" lon="20.40789">
        <ele>118.2753</ele>
        <time>2023-03-19T10:24:27.519Z</time>
      </trkpt>
      <trkpt lat="44.78991" lon="20.40774">
        <ele>118.496754</ele>
        <time>2023-03-19T10:24:29.516Z</time>
      </trkpt>
      <trkpt lat="44.78987" lon="20.40759">
        <ele>118.724996</ele>
        <time>2023-03-19T10:24:31.508Z</time>
      </trkpt>
      <trkpt lat="44.78983" lon="20.40744">
        <ele>118.955936</ele>
        <time>2023-03-19T10:24:33.508Z</time>
      </trkpt>
      <trkpt lat="44.7898" lon="20.40729">
        <ele>119.182779</ele>
        <time>2023-03-19T10:24:35.505Z</time>
      </trkpt>
      <trkpt lat="44.78978" lon="20.40714">
        <ele>119.408785</ele>
        <time>2023-03-19T10:24:37.507Z</time>
      </trkpt>
      <trkpt lat="44.78976" lon="20.40699">
        <ele>119.433206</ele>
        <time>2023-03-19T10:24:39.505Z</time>
      </trkpt>
      <trkpt lat="44.78975" lon="20.40683">
        <ele>119.377667</ele>
        <time>2023-03-19T10:24:41.505Z</time>
      </trkpt>
      <trkpt lat="44.78973" lon="20.40668">
        <ele>119.326142</ele>
        <time>2023-03-19T10:24:43.490Z</time>
      </trkpt>
      <trkpt lat="44.78971" lon="20.40654">
        <ele>119.275481</ele>
        <time>2023-03-19T10:24:45.506Z</time>
      </trkpt>
      <trkpt lat="44.78968" lon="20.40642">
        <ele>119.229526</ele>
        <time>2023-03-19T10:24:47.508Z</time>
      </trkpt>
      <trkpt lat="44.78966" lon="20.40629">
        <ele>119.183906</ele>
        <time>2023-03-19T10:24:49.490Z</time>
      </trkpt>
      <trkpt lat="44.78963" lon="20.40616">
        <ele>119.136947</ele>
        <time>2023-03-19T10:24:51.503Z</time>
      </trkpt>
      <trkpt lat="44.7896" lon="20.40604">
        <ele>119.089652</ele>
        <time>2023-03-19T10:24:53.511Z</time>
      </trkpt>
      <trkpt lat="44.78957" lon="20.4059">
        <ele>119.039761</ele>
        <time>2023-03-19T10:24:55.509Z</time>
      </trkpt>
      <trkpt lat="44.78951" lon="20.4058">
        <ele>118.993082</ele>
        <time>2023-03-19T10:24:57.490Z</time>
      </trkpt>
      <trkpt lat="44.78943" lon="20.40565">
        <ele>118.93046</ele>
        <time>2023-03-19T10:25:00.501Z</time>
      </trkpt>
      <trkpt lat="44.78932" lon="20.40555">
        <ele>118.865376</ele>
        <time>2023-03-19T10:25:03.489Z</time>
      </trkpt>
      <trkpt lat="44.78922" lon="20.40549">
        <ele>118.810812</ele>
        <time>2023-03-19T10:25:06.490Z</time>
      </trkpt>
      <trkpt lat="44.78913" lon="20.40541">
        <ele>118.755636</ele>
        <time>2023-03-19T10:25:09.510Z</time>
      </trkpt>
      <trkpt lat="44.78909" lon="20.40528">
        <ele>118.707829</ele>
        <time>2023-03-19T10:25:11.497Z</time>
      </trkpt>
      <trkpt lat="44.78906" lon="20.40515">
        <ele>118.659377</ele>
        <time>2023-03-19T10:25:13.498Z</time>
      </trkpt>
      <trkpt lat="44.78904" lon="20.405">
        <ele>118.605802</ele>
        <time>2023-03-19T10:25:15.499Z</time>
      </trkpt>
      <trkpt lat="44.78901" lon="20.40484">
        <ele>118.565978</ele>
        <time>2023-03-19T10:25:17.506Z</time>
      </trkpt>
      <trkpt lat="44.78897" lon="20.40471">
        <ele>118.539097</ele>
        <time>2023-03-19T10:25:19.508Z</time>
      </trkpt>
      <trkpt lat="44.78893" lon="20.40456">
        <ele>118.509957</ele>
        <time>2023-03-19T10:25:21.486Z</time>
      </trkpt>
      <trkpt lat="44.78891" lon="20.4044">
        <ele>118.480975</ele>
        <time>2023-03-19T10:25:23.507Z</time>
      </trkpt>
      <trkpt lat="44.78888" lon="20.40425">
        <ele>118.452471</ele>
        <time>2023-03-19T10:25:25.503Z</time>
      </trkpt>
      <trkpt lat="44.78886" lon="20.40411">
        <ele>118.426783</ele>
        <time>2023-03-19T10:25:27.505Z</time>
      </trkpt>
      <trkpt lat="44.78887" lon="20.40397">
        <ele>118.401524</ele>
        <time>2023-03-19T10:25:29.514Z</time>
      </trkpt>
      <trkpt lat="44.78892" lon="20.40384">
        <ele>118.375044</ele>
        <time>2023-03-19T10:25:31.503Z</time>
      </trkpt>
      <trkpt lat="44.78897" lon="20.40372">
        <ele>118.349417</ele>
        <time>2023-03-19T10:25:33.493Z</time>
      </trkpt>
      <trkpt lat="44.78902" lon="20.4036">
        <ele>118.324017</ele>
        <time>2023-03-19T10:25:35.491Z</time>
      </trkpt>
      <trkpt lat="44.78906" lon="20.40347">
        <ele>118.298282</ele>
        <time>2023-03-19T10:25:37.507Z</time>
      </trkpt>
      <trkpt lat="44.78907" lon="20.40333">
        <ele>118.272663</ele>
        <time>2023-03-19T10:25:39.493Z</time>
      </trkpt>
      <trkpt lat="44.78904" lon="20.4032">
        <ele>118.248766</ele>
        <time>2023-03-19T10:25:41.500Z</time>
      </trkpt>
      <trkpt lat="44.789" lon="20.40307">
        <ele>118.223706</ele>
        <time>2023-03-19T10:25:43.499Z</time>
      </trkpt>
      <trkpt lat="44.78896" lon="20.40294">
        <ele>118.197394</ele>
        <time>2023-03-19T10:25:45.521Z</time>
      </trkpt>
      <trkpt lat="44.7889" lon="20.40282">
        <ele>118.170628</ele>
        <time>2023-03-19T10:25:47.505Z</time>
      </trkpt>
      <trkpt lat="44.78885" lon="20.40269">
        <ele>118.144529</ele>
        <time>2023-03-19T10:25:49.507Z</time>
      </trkpt>
      <trkpt lat="44.7888" lon="20.40257">
        <ele>118.155052</ele>
        <time>2023-03-19T10:25:51.517Z</time>
      </trkpt>
      <trkpt lat="44.78875" lon="20.40243">
        <ele>118.310804</ele>
        <time>2023-03-19T10:25:53.509Z</time>
      </trkpt>
      <trkpt lat="44.78868" lon="20.40233">
        <ele>118.449832</ele>
        <time>2023-03-19T10:25:55.507Z</time>
      </trkpt>
      <trkpt lat="44.78865" lon="20.4022">
        <ele>118.594502</ele>
        <time>2023-03-19T10:25:57.508Z</time>
      </trkpt>
      <trkpt lat="44.78867" lon="20.40205">
        <ele>118.742992</ele>
        <time>2023-03-19T10:25:59.493Z</time>
      </trkpt>
      <trkpt lat="44.78868" lon="20.40191">
        <ele>118.882594</ele>
        <time>2023-03-19T10:26:01.490Z</time>
      </trkpt>
      <trkpt lat="44.78864" lon="20.40177">
        <ele>119.036412</ele>
        <time>2023-03-19T10:26:03.494Z</time>
      </trkpt>
      <trkpt lat="44.78861" lon="20.40163">
        <ele>119.179294</ele>
        <time>2023-03-19T10:26:05.493Z</time>
      </trkpt>
      <trkpt lat="44.78857" lon="20.40149">
        <ele>119.332801</ele>
        <time>2023-03-19T10:26:07.483Z</time>
      </trkpt>
      <trkpt lat="44.78854" lon="20.40135">
        <ele>119.477087</ele>
        <time>2023-03-19T10:26:09.504Z</time>
      </trkpt>
      <trkpt lat="44.78852" lon="20.40121">
        <ele>119.624858</ele>
        <time>2023-03-19T10:26:11.504Z</time>
      </trkpt>
      <trkpt lat="44.78851" lon="20.40106">
        <ele>119.773599</ele>
        <time>2023-03-19T10:26:13.504Z</time>
      </trkpt>
      <trkpt lat="44.7885" lon="20.40092">
        <ele>119.91999</ele>
        <time>2023-03-19T10:26:15.507Z</time>
      </trkpt>
      <trkpt lat="44.7885" lon="20.40076">
        <ele>120.072899</ele>
        <time>2023-03-19T10:26:17.502Z</time>
      </trkpt>
      <trkpt lat="44.78849" lon="20.40061">
        <ele>120.228814</ele>
        <time>2023-03-19T10:26:19.506Z</time>
      </trkpt>
      <trkpt lat="44.78848" lon="20.40045">
        <ele>120.38883</ele>
        <time>2023-03-19T10:26:21.509Z</time>
      </trkpt>
      <trkpt lat="44.78847" lon="20.40029">
        <ele>120.550071</ele>
        <time>2023-03-19T10:26:23.504Z</time>
      </trkpt>
      <trkpt lat="44.78847" lon="20.40013">
        <ele>120.676307</ele>
        <time>2023-03-19T10:26:25.505Z</time>
      </trkpt>
      <trkpt lat="44.78847" lon="20.39998">
        <ele>120.70407</ele>
        <time>2023-03-19T10:26:27.489Z</time>
      </trkpt>
      <trkpt lat="44.78846" lon="20.39983">
        <ele>120.732507</ele>
        <time>2023-03-19T10:26:29.505Z</time>
      </trkpt>
      <trkpt lat="44.78845" lon="20.39967">
        <ele>120.761106</ele>
        <time>2023-03-19T10:26:31.515Z</time>
      </trkpt>
      <trkpt lat="44.78844" lon="20.39953">
        <ele>120.788891</ele>
        <time>2023-03-19T10:26:33.510Z</time>
      </trkpt>
      <trkpt lat="44.78843" lon="20.39938">
        <ele>120.816683</ele>
        <time>2023-03-19T10:26:35.504Z</time>
      </trkpt>
      <trkpt lat="44.78844" lon="20.39923">
        <ele>120.844284</ele>
        <time>2023-03-19T10:26:37.500Z</time>
      </trkpt>
      <trkpt lat="44.78846" lon="20.39909">
        <ele>120.870352</ele>
        <time>2023-03-19T10:26:39.505Z</time>
      </trkpt>
      <trkpt lat="44.78847" lon="20.39896">
        <ele>120.893974</ele>
        <time>2023-03-19T10:26:41.521Z</time>
      </trkpt>
      <trkpt lat="44.78847" lon="20.39883">
        <ele>120.919194</ele>
        <time>2023-03-19T10:26:43.484Z</time>
      </trkpt>
      <trkpt lat="44.78846" lon="20.39868">
        <ele>120.946665</ele>
        <time>2023-03-19T10:26:45.500Z</time>
      </trkpt>
      <trkpt lat="44.78846" lon="20.39853">
        <ele>120.974077</ele>
        <time>2023-03-19T10:26:47.502Z</time>
      </trkpt>
      <trkpt lat="44.78845" lon="20.39839">
        <ele>120.99991</ele>
        <time>2023-03-19T10:26:49.505Z</time>
      </trkpt>
      <trkpt lat="44.78844" lon="20.39826">
        <ele>121.024692</ele>
        <time>2023-03-19T10:26:51.489Z</time>
      </trkpt>
      <trkpt lat="44.7884" lon="20.39808">
        <ele>121.05863</ele>
        <time>2023-03-19T10:26:54.510Z</time>
      </trkpt>
      <trkpt lat="44.78838" lon="20.39795">
        <ele>121.084699</ele>
        <time>2023-03-19T10:26:56.524Z</time>
      </trkpt>
      <trkpt lat="44.78837" lon="20.39781">
        <ele>121.110694</ele>
        <time>2023-03-19T10:26:58.495Z</time>
      </trkpt>
      <trkpt lat="44.78836" lon="20.39766">
        <ele>121.137576</ele>
        <time>2023-03-19T10:27:00.505Z</time>
      </trkpt>
      <trkpt lat="44.78835" lon="20.39752">
        <ele>121.078145</ele>
        <time>2023-03-19T10:27:02.511Z</time>
      </trkpt>
      <trkpt lat="44.78835" lon="20.39737">
        <ele>121.016058</ele>
        <time>2023-03-19T10:27:04.485Z</time>
      </trkpt>
      <trkpt lat="44.78836" lon="20.39721">
        <ele>120.953035</ele>
        <time>2023-03-19T10:27:06.491Z</time>
      </trkpt>
      <trkpt lat="44.78835" lon="20.39707">
        <ele>120.891813</ele>
        <time>2023-03-19T10:27:08.515Z</time>
      </trkpt>
      <trkpt lat="44.78832" lon="20.39692">
        <ele>120.827913</ele>
        <time>2023-03-19T10:27:10.498Z</time>
      </trkpt>
      <trkpt lat="44.78831" lon="20.39677">
        <ele>120.766698</ele>
        <time>2023-03-19T10:27:12.505Z</time>
      </trkpt>
      <trkpt lat="44.78829" lon="20.39662">
        <ele>120.704653</ele>
        <time>2023-03-19T10:27:14.483Z</time>
      </trkpt>
      <trkpt lat="44.78829" lon="20.39649">
        <ele>120.649988</ele>
        <time>2023-03-19T10:27:16.513Z</time>
      </trkpt>
      <trkpt lat="44.78829" lon="20.39632">
        <ele>120.579648</ele>
        <time>2023-03-19T10:27:19.489Z</time>
      </trkpt>
      <trkpt lat="44.78826" lon="20.39614">
        <ele>120.504658</ele>
        <time>2023-03-19T10:27:23.497Z</time>
      </trkpt>
      <trkpt lat="44.78825" lon="20.39595">
        <ele>120.424591</ele>
        <time>2023-03-19T10:27:26.495Z</time>
      </trkpt>
      <trkpt lat="44.78823" lon="20.3958">
        <ele>120.361849</ele>
        <time>2023-03-19T10:27:28.502Z</time>
      </trkpt>
      <trkpt lat="44.7882" lon="20.39565">
        <ele>120.298475</ele>
        <time>2023-03-19T10:27:30.501Z</time>
      </trkpt>
      <trkpt lat="44.78818" lon="20.39551">
        <ele>120.238865</ele>
        <time>2023-03-19T10:27:32.512Z</time>
      </trkpt>
      <trkpt lat="44.78817" lon="20.39537">
        <ele>120.179282</ele>
        <time>2023-03-19T10:27:34.505Z</time>
      </trkpt>
      <trkpt lat="44.78816" lon="20.39521">
        <ele>120.113369</ele>
        <time>2023-03-19T10:27:36.509Z</time>
      </trkpt>
      <trkpt lat="44.78814" lon="20.39505">
        <ele>120.115238</ele>
        <time>2023-03-19T10:27:38.507Z</time>
      </trkpt>
      <trkpt lat="44.78812" lon="20.39488">
        <ele>120.156654</ele>
        <time>2023-03-19T10:27:40.508Z</time>
      </trkpt>
      <trkpt lat="44.78809" lon="20.39471">
        <ele>120.200399</ele>
        <time>2023-03-19T10:27:42.505Z</time>
      </trkpt>
      <trkpt lat="44.78806" lon="20.39453">
        <ele>120.244837</ele>
        <time>2023-03-19T10:27:44.505Z</time>
      </trkpt>
      <trkpt lat="44.78803" lon="20.39435">
        <ele>120.289359</ele>
        <time>2023-03-19T10:27:46.507Z</time>
      </trkpt>
      <trkpt lat="44.788" lon="20.39418">
        <ele>120.334048</ele>
        <time>2023-03-19T10:27:48.504Z</time>
      </trkpt>
      <trkpt lat="44.78796" lon="20.394">
        <ele>120.378212</ele>
        <time>2023-03-19T10:27:50.506Z</time>
      </trkpt>
      <trkpt lat="44.78794" lon="20.39382">
        <ele>120.423001</ele>
        <time>2023-03-19T10:27:52.518Z</time>
      </trkpt>
      <trkpt lat="44.78791" lon="20.39365">
        <ele>120.46649</ele>
        <time>2023-03-19T10:27:54.506Z</time>
      </trkpt>
      <trkpt lat="44.78787" lon="20.39347">
        <ele>120.510707</ele>
        <time>2023-03-19T10:27:56.504Z</time>
      </trkpt>
      <trkpt lat="44.78783" lon="20.3933">
        <ele>120.556068</ele>
        <time>2023-03-19T10:27:58.510Z</time>
      </trkpt>
      <trkpt lat="44.7878" lon="20.39313">
        <ele>120.598824</ele>
        <time>2023-03-19T10:28:00.511Z</time>
      </trkpt>
      <trkpt lat="44.78775" lon="20.39295">
        <ele>120.643817</ele>
        <time>2023-03-19T10:28:02.509Z</time>
      </trkpt>
      <trkpt lat="44.78771" lon="20.39278">
        <ele>120.688481</ele>
        <time>2023-03-19T10:28:04.510Z</time>
      </trkpt>
      <trkpt lat="44.78767" lon="20.39261">
        <ele>120.653013</ele>
        <time>2023-03-19T10:28:06.511Z</time>
      </trkpt>
      <trkpt lat="44.78764" lon="20.39243">
        <ele>120.552285</ele>
        <time>2023-03-19T10:28:08.504Z</time>
      </trkpt>
      <trkpt lat="44.7876" lon="20.39226">
        <ele>120.456787</ele>
        <time>2023-03-19T10:28:10.509Z</time>
      </trkpt>
      <trkpt lat="44.78755" lon="20.39209">
        <ele>120.356956</ele>
        <time>2023-03-19T10:28:12.510Z</time>
      </trkpt>
      <trkpt lat="44.78751" lon="20.39192">
        <ele>120.25815</ele>
        <time>2023-03-19T10:28:14.502Z</time>
      </trkpt>
      <trkpt lat="44.78746" lon="20.39175">
        <ele>120.160026</ele>
        <time>2023-03-19T10:28:16.508Z</time>
      </trkpt>
      <trkpt lat="44.78741" lon="20.39158">
        <ele>120.061112</ele>
        <time>2023-03-19T10:28:18.504Z</time>
      </trkpt>
      <trkpt lat="44.78737" lon="20.39141">
        <ele>119.962766</ele>
        <time>2023-03-19T10:28:20.486Z</time>
      </trkpt>
      <trkpt lat="44.78732" lon="20.39125">
        <ele>119.870804</ele>
        <time>2023-03-19T10:28:22.509Z</time>
      </trkpt>
      <trkpt lat="44.78728" lon="20.39109">
        <ele>119.776594</ele>
        <time>2023-03-19T10:28:24.508Z</time>
      </trkpt>
      <trkpt lat="44.78724" lon="20.39093">
        <ele>119.681768</ele>
        <time>2023-03-19T10:28:26.510Z</time>
      </trkpt>
      <trkpt lat="44.78719" lon="20.39076">
        <ele>119.582854</ele>
        <time>2023-03-19T10:28:28.485Z</time>
      </trkpt>
      <trkpt lat="44.78714" lon="20.39059">
        <ele>119.487237</ele>
        <time>2023-03-19T10:28:30.487Z</time>
      </trkpt>
      <trkpt lat="44.78709" lon="20.39043">
        <ele>119.388923</ele>
        <time>2023-03-19T10:28:32.517Z</time>
      </trkpt>
      <trkpt lat="44.78703" lon="20.39027">
        <ele>119.298843</ele>
        <time>2023-03-19T10:28:34.505Z</time>
      </trkpt>
      <trkpt lat="44.78698" lon="20.3901">
        <ele>119.216919</ele>
        <time>2023-03-19T10:28:36.504Z</time>
      </trkpt>
      <trkpt lat="44.78692" lon="20.38995">
        <ele>119.134466</ele>
        <time>2023-03-19T10:28:38.504Z</time>
      </trkpt>
      <trkpt lat="44.78686" lon="20.38979">
        <ele>119.055143</ele>
        <time>2023-03-19T10:28:40.509Z</time>
      </trkpt>
      <trkpt lat="44.7868" lon="20.38964">
        <ele>118.975411</ele>
        <time>2023-03-19T10:28:42.503Z</time>
      </trkpt>
      <trkpt lat="44.78675" lon="20.38949">
        <ele>118.896393</ele>
        <time>2023-03-19T10:28:44.482Z</time>
      </trkpt>
      <trkpt lat="44.78669" lon="20.38933">
        <ele>118.814612</ele>
        <time>2023-03-19T10:28:46.493Z</time>
      </trkpt>
      <trkpt lat="44.78663" lon="20.38918">
        <ele>118.737017</ele>
        <time>2023-03-19T10:28:48.505Z</time>
      </trkpt>
      <trkpt lat="44.78658" lon="20.38903">
        <ele>118.658209</ele>
        <time>2023-03-19T10:28:50.510Z</time>
      </trkpt>
      <trkpt lat="44.78651" lon="20.38887">
        <ele>118.577121</ele>
        <time>2023-03-19T10:28:52.504Z</time>
      </trkpt>
      <trkpt lat="44.78644" lon="20.38872">
        <ele>118.494407</ele>
        <time>2023-03-19T10:28:54.505Z</time>
      </trkpt>
      <trkpt lat="44.78637" lon="20.38857">
        <ele>118.412464</ele>
        <time>2023-03-19T10:28:56.504Z</time>
      </trkpt>
      <trkpt lat="44.78631" lon="20.38842">
        <ele>118.331948</ele>
        <time>2023-03-19T10:28:58.482Z</time>
      </trkpt>
      <trkpt lat="44.78624" lon="20.38828">
        <ele>118.251155</ele>
        <time>2023-03-19T10:29:00.503Z</time>
      </trkpt>
      <trkpt lat="44.78617" lon="20.38813">
        <ele>118.176465</ele>
        <time>2023-03-19T10:29:02.506Z</time>
      </trkpt>
      <trkpt lat="44.7861" lon="20.38798">
        <ele>118.241256</ele>
        <time>2023-03-19T10:29:04.504Z</time>
      </trkpt>
      <trkpt lat="44.78604" lon="20.38784">
        <ele>118.305251</ele>
        <time>2023-03-19T10:29:06.508Z</time>
      </trkpt>
      <trkpt lat="44.78597" lon="20.38769">
        <ele>118.37126</ele>
        <time>2023-03-19T10:29:08.504Z</time>
      </trkpt>
      <trkpt lat="44.7859" lon="20.38755">
        <ele>118.435758</ele>
        <time>2023-03-19T10:29:10.509Z</time>
      </trkpt>
      <trkpt lat="44.78583" lon="20.38741">
        <ele>118.500846</ele>
        <time>2023-03-19T10:29:12.509Z</time>
      </trkpt>
      <trkpt lat="44.78576" lon="20.38728">
        <ele>118.565331</ele>
        <time>2023-03-19T10:29:14.500Z</time>
      </trkpt>
      <trkpt lat="44.78568" lon="20.38714">
        <ele>118.630135</ele>
        <time>2023-03-19T10:29:16.507Z</time>
      </trkpt>
      <trkpt lat="44.78561" lon="20.38701">
        <ele>118.694115</ele>
        <time>2023-03-19T10:29:18.508Z</time>
      </trkpt>
      <trkpt lat="44.78552" lon="20.38688">
        <ele>118.759513</ele>
        <time>2023-03-19T10:29:20.508Z</time>
      </trkpt>
      <trkpt lat="44.78545" lon="20.38674">
        <ele>118.824456</ele>
        <time>2023-03-19T10:29:22.506Z</time>
      </trkpt>
      <trkpt lat="44.78537" lon="20.38661">
        <ele>118.889286</ele>
        <time>2023-03-19T10:29:24.511Z</time>
      </trkpt>
      <trkpt lat="44.7853" lon="20.38648">
        <ele>118.949469</ele>
        <time>2023-03-19T10:29:26.508Z</time>
      </trkpt>
      <trkpt lat="44.78523" lon="20.38633">
        <ele>119.015469</ele>
        <time>2023-03-19T10:29:28.509Z</time>
      </trkpt>
      <trkpt lat="44.78515" lon="20.3862">
        <ele>119.080584</ele>
        <time>2023-03-19T10:29:30.509Z</time>
      </trkpt>
      <trkpt lat="44.78507" lon="20.38606">
        <ele>119.168232</ele>
        <time>2023-03-19T10:29:32.515Z</time>
      </trkpt>
      <trkpt lat="44.785" lon="20.38592">
        <ele>119.290338</ele>
        <time>2023-03-19T10:29:34.505Z</time>
      </trkpt>
      <trkpt lat="44.78492" lon="20.38579">
        <ele>119.411435</ele>
        <time>2023-03-19T10:29:36.505Z</time>
      </trkpt>
      <trkpt lat="44.78483" lon="20.38565">
        <ele>119.540913</ele>
        <time>2023-03-19T10:29:38.507Z</time>
      </trkpt>
      <trkpt lat="44.78475" lon="20.38552">
        <ele>119.666573</ele>
        <time>2023-03-19T10:29:40.505Z</time>
      </trkpt>
      <trkpt lat="44.78467" lon="20.3854">
        <ele>119.783054</ele>
        <time>2023-03-19T10:29:42.500Z</time>
      </trkpt>
      <trkpt lat="44.78461" lon="20.38527">
        <ele>119.894031</ele>
        <time>2023-03-19T10:29:44.510Z</time>
      </trkpt>
      <trkpt lat="44.78454" lon="20.38516">
        <ele>119.995341</ele>
        <time>2023-03-19T10:29:46.495Z</time>
      </trkpt>
      <trkpt lat="44.78447" lon="20.38505">
        <ele>120.098843</ele>
        <time>2023-03-19T10:29:48.504Z</time>
      </trkpt>
      <trkpt lat="44.78441" lon="20.38493">
        <ele>120.200709</ele>
        <time>2023-03-19T10:29:50.505Z</time>
      </trkpt>
      <trkpt lat="44.78434" lon="20.38481">
        <ele>120.307959</ele>
        <time>2023-03-19T10:29:52.485Z</time>
      </trkpt>
      <trkpt lat="44.78427" lon="20.38469">
        <ele>120.417327</ele>
        <time>2023-03-19T10:29:54.504Z</time>
      </trkpt>
      <trkpt lat="44.78421" lon="20.38457">
        <ele>120.525666</ele>
        <time>2023-03-19T10:29:56.510Z</time>
      </trkpt>
      <trkpt lat="44.78413" lon="20.38445">
        <ele>120.638543</ele>
        <time>2023-03-19T10:29:58.507Z</time>
      </trkpt>
      <trkpt lat="44.78406" lon="20.38431">
        <ele>120.757575</ele>
        <time>2023-03-19T10:30:00.505Z</time>
      </trkpt>
      <trkpt lat="44.784" lon="20.38418">
        <ele>120.871991</ele>
        <time>2023-03-19T10:30:02.511Z</time>
      </trkpt>
      <trkpt lat="44.78393" lon="20.38405">
        <ele>120.86716</ele>
        <time>2023-03-19T10:30:04.499Z</time>
      </trkpt>
      <trkpt lat="44.78386" lon="20.38391">
        <ele>120.796604</ele>
        <time>2023-03-19T10:30:06.513Z</time>
      </trkpt>
      <trkpt lat="44.78379" lon="20.38379">
        <ele>120.725118</ele>
        <time>2023-03-19T10:30:08.508Z</time>
      </trkpt>
      <trkpt lat="44.78372" lon="20.38365">
        <ele>120.651307</ele>
        <time>2023-03-19T10:30:10.503Z</time>
      </trkpt>
      <trkpt lat="44.78364" lon="20.38352">
        <ele>120.576071</ele>
        <time>2023-03-19T10:30:12.509Z</time>
      </trkpt>
      <trkpt lat="44.78357" lon="20.38338">
        <ele>120.501558</ele>
        <time>2023-03-19T10:30:14.510Z</time>
      </trkpt>
      <trkpt lat="44.7835" lon="20.38325">
        <ele>120.429486</ele>
        <time>2023-03-19T10:30:16.506Z</time>
      </trkpt>
      <trkpt lat="44.78343" lon="20.38312">
        <ele>120.354574</ele>
        <time>2023-03-19T10:30:18.508Z</time>
      </trkpt>
      <trkpt lat="44.78336" lon="20.38298">
        <ele>120.282229</ele>
        <time>2023-03-19T10:30:20.501Z</time>
      </trkpt>
      <trkpt lat="44.78329" lon="20.38284">
        <ele>120.205214</ele>
        <time>2023-03-19T10:30:22.506Z</time>
      </trkpt>
      <trkpt lat="44.78323" lon="20.38269">
        <ele>120.131296</ele>
        <time>2023-03-19T10:30:24.506Z</time>
      </trkpt>
      <trkpt lat="44.78316" lon="20.38255">
        <ele>120.053932</ele>
        <time>2023-03-19T10:30:26.504Z</time>
      </trkpt>
      <trkpt lat="44.78309" lon="20.38241">
        <ele>119.978984</ele>
        <time>2023-03-19T10:30:28.513Z</time>
      </trkpt>
      <trkpt lat="44.78302" lon="20.38226">
        <ele>119.903365</ele>
        <time>2023-03-19T10:30:30.521Z</time>
      </trkpt>
      <trkpt lat="44.78295" lon="20.38211">
        <ele>119.825598</ele>
        <time>2023-03-19T10:30:32.505Z</time>
      </trkpt>
      <trkpt lat="44.78289" lon="20.38197">
        <ele>119.859519</ele>
        <time>2023-03-19T10:30:34.510Z</time>
      </trkpt>
      <trkpt lat="44.78283" lon="20.38182">
        <ele>119.946866</ele>
        <time>2023-03-19T10:30:36.516Z</time>
      </trkpt>
      <trkpt lat="44.78277" lon="20.38168">
        <ele>120.034589</ele>
        <time>2023-03-19T10:30:38.507Z</time>
      </trkpt>
      <trkpt lat="44.78271" lon="20.38153">
        <ele>120.121641</ele>
        <time>2023-03-19T10:30:40.503Z</time>
      </trkpt>
      <trkpt lat="44.78265" lon="20.38138">
        <ele>120.211487</ele>
        <time>2023-03-19T10:30:42.516Z</time>
      </trkpt>
      <trkpt lat="44.78258" lon="20.38123">
        <ele>120.302395</ele>
        <time>2023-03-19T10:30:44.488Z</time>
      </trkpt>
      <trkpt lat="44.78251" lon="20.38108">
        <ele>120.392443</ele>
        <time>2023-03-19T10:30:46.507Z</time>
      </trkpt>
      <trkpt lat="44.78245" lon="20.38094">
        <ele>120.480389</ele>
        <time>2023-03-19T10:30:48.508Z</time>
      </trkpt>
      <trkpt lat="44.7824" lon="20.38078">
        <ele>120.569094</ele>
        <time>2023-03-19T10:30:50.489Z</time>
      </trkpt>
      <trkpt lat="44.78234" lon="20.38063">
        <ele>120.658596</ele>
        <time>2023-03-19T10:30:52.514Z</time>
      </trkpt>
      <trkpt lat="44.78228" lon="20.38047">
        <ele>120.753009</ele>
        <time>2023-03-19T10:30:54.510Z</time>
      </trkpt>
      <trkpt lat="44.78223" lon="20.38031">
        <ele>120.844635</ele>
        <time>2023-03-19T10:30:56.517Z</time>
      </trkpt>
      <trkpt lat="44.78217" lon="20.38015">
        <ele>120.933266</ele>
        <time>2023-03-19T10:30:58.505Z</time>
      </trkpt>
      <trkpt lat="44.78212" lon="20.37999">
        <ele>121.02749</ele>
        <time>2023-03-19T10:31:00.501Z</time>
      </trkpt>
      <trkpt lat="44.78206" lon="20.37982">
        <ele>121.11653</ele>
        <time>2023-03-19T10:31:02.485Z</time>
      </trkpt>
      <trkpt lat="44.78202" lon="20.37967">
        <ele>121.166858</ele>
        <time>2023-03-19T10:31:04.510Z</time>
      </trkpt>
      <trkpt lat="44.78197" lon="20.37951">
        <ele>121.216203</ele>
        <time>2023-03-19T10:31:06.485Z</time>
      </trkpt>
      <trkpt lat="44.78192" lon="20.37935">
        <ele>121.267744</ele>
        <time>2023-03-19T10:31:08.506Z</time>
      </trkpt>
      <trkpt lat="44.78188" lon="20.37918">
        <ele>121.321346</ele>
        <time>2023-03-19T10:31:10.506Z</time>
      </trkpt>
      <trkpt lat="44.78185" lon="20.37901">
        <ele>121.373017</ele>
        <time>2023-03-19T10:31:12.510Z</time>
      </trkpt>
      <trkpt lat="44.78181" lon="20.37885">
        <ele>121.423839</ele>
        <time>2023-03-19T10:31:14.505Z</time>
      </trkpt>
      <trkpt lat="44.78177" lon="20.37868">
        <ele>121.476121</ele>
        <time>2023-03-19T10:31:16.489Z</time>
      </trkpt>
      <trkpt lat="44.78174" lon="20.37852">
        <ele>121.52666</ele>
        <time>2023-03-19T10:31:18.486Z</time>
      </trkpt>
      <trkpt lat="44.78171" lon="20.37835">
        <ele>121.578487</ele>
        <time>2023-03-19T10:31:20.508Z</time>
      </trkpt>
      <trkpt lat="44.78168" lon="20.37817">
        <ele>121.63253</ele>
        <time>2023-03-19T10:31:22.504Z</time>
      </trkpt>
      <trkpt lat="44.78165" lon="20.378">
        <ele>121.684761</ele>
        <time>2023-03-19T10:31:24.505Z</time>
      </trkpt>
      <trkpt lat="44.78162" lon="20.37783">
        <ele>121.736319</ele>
        <time>2023-03-19T10:31:26.486Z</time>
      </trkpt>
      <trkpt lat="44.78159" lon="20.37767">
        <ele>121.787867</ele>
        <time>2023-03-19T10:31:28.507Z</time>
      </trkpt>
      <trkpt lat="44.78156" lon="20.3775">
        <ele>121.839845</ele>
        <time>2023-03-19T10:31:30.504Z</time>
      </trkpt>
      <trkpt lat="44.78153" lon="20.37732">
        <ele>121.769709</ele>
        <time>2023-03-19T10:31:32.505Z</time>
      </trkpt>
      <trkpt lat="44.78146" lon="20.37716">
        <ele>121.613888</ele>
        <time>2023-03-19T10:31:34.506Z</time>
      </trkpt>
      <trkpt lat="44.78142" lon="20.377">
        <ele>121.464397</ele>
        <time>2023-03-19T10:31:36.514Z</time>
      </trkpt>
      <trkpt lat="44.78137" lon="20.37684">
        <ele>121.321905</ele>
        <time>2023-03-19T10:31:38.508Z</time>
      </trkpt>
      <trkpt lat="44.78132" lon="20.37669">
        <ele>121.172273</ele>
        <time>2023-03-19T10:31:40.513Z</time>
      </trkpt>
      <trkpt lat="44.78126" lon="20.37653">
        <ele>121.025199</ele>
        <time>2023-03-19T10:31:42.508Z</time>
      </trkpt>
      <trkpt lat="44.78121" lon="20.37637">
        <ele>120.875798</ele>
        <time>2023-03-19T10:31:44.515Z</time>
      </trkpt>
      <trkpt lat="44.78114" lon="20.37622">
        <ele>120.728565</ele>
        <time>2023-03-19T10:31:46.498Z</time>
      </trkpt>
      <trkpt lat="44.78107" lon="20.37607">
        <ele>120.573785</ele>
        <time>2023-03-19T10:31:48.509Z</time>
      </trkpt>
      <trkpt lat="44.781" lon="20.37592">
        <ele>120.422571</ele>
        <time>2023-03-19T10:31:50.503Z</time>
      </trkpt>
      <trkpt lat="44.78093" lon="20.37577">
        <ele>120.266643</ele>
        <time>2023-03-19T10:31:52.505Z</time>
      </trkpt>
      <trkpt lat="44.78086" lon="20.37562">
        <ele>120.114156</ele>
        <time>2023-03-19T10:31:54.501Z</time>
      </trkpt>
      <trkpt lat="44.78077" lon="20.37549">
        <ele>119.966059</ele>
        <time>2023-03-19T10:31:56.487Z</time>
      </trkpt>
      <trkpt lat="44.7807" lon="20.37535">
        <ele>119.820207</ele>
        <time>2023-03-19T10:31:58.509Z</time>
      </trkpt>
      <trkpt lat="44.78062" lon="20.37521">
        <ele>119.764575</ele>
        <time>2023-03-19T10:32:00.505Z</time>
      </trkpt>
      <trkpt lat="44.78053" lon="20.37509">
        <ele>119.910066</ele>
        <time>2023-03-19T10:32:02.505Z</time>
      </trkpt>
      <trkpt lat="44.78043" lon="20.37497">
        <ele>120.052731</ele>
        <time>2023-03-19T10:32:04.507Z</time>
      </trkpt>
      <trkpt lat="44.78035" lon="20.37483">
        <ele>120.202693</ele>
        <time>2023-03-19T10:32:06.489Z</time>
      </trkpt>
      <trkpt lat="44.78025" lon="20.37471">
        <ele>120.350398</ele>
        <time>2023-03-19T10:32:08.508Z</time>
      </trkpt>
      <trkpt lat="44.78015" lon="20.3746">
        <ele>120.495612</ele>
        <time>2023-03-19T10:32:10.503Z</time>
      </trkpt>
      <trkpt lat="44.78007" lon="20.37448">
        <ele>120.632957</ele>
        <time>2023-03-19T10:32:12.510Z</time>
      </trkpt>
      <trkpt lat="44.77998" lon="20.37439">
        <ele>120.757657</ele>
        <time>2023-03-19T10:32:14.506Z</time>
      </trkpt>
      <trkpt lat="44.77987" lon="20.3743">
        <ele>120.9028</ele>
        <time>2023-03-19T10:32:16.507Z</time>
      </trkpt>
      <trkpt lat="44.77977" lon="20.37421">
        <ele>121.042657</ele>
        <time>2023-03-19T10:32:18.506Z</time>
      </trkpt>
      <trkpt lat="44.77968" lon="20.37413">
        <ele>121.164546</ele>
        <time>2023-03-19T10:32:20.506Z</time>
      </trkpt>
      <trkpt lat="44.77958" lon="20.37404">
        <ele>121.297663</ele>
        <time>2023-03-19T10:32:22.510Z</time>
      </trkpt>
      <trkpt lat="44.77949" lon="20.37395">
        <ele>121.42153</ele>
        <time>2023-03-19T10:32:24.506Z</time>
      </trkpt>
      <trkpt lat="44.77939" lon="20.37386">
        <ele>121.557021</ele>
        <time>2023-03-19T10:32:26.505Z</time>
      </trkpt>
      <trkpt lat="44.77929" lon="20.37376">
        <ele>121.697182</ele>
        <time>2023-03-19T10:32:28.507Z</time>
      </trkpt>
      <trkpt lat="44.77921" lon="20.37366">
        <ele>121.798638</ele>
        <time>2023-03-19T10:32:30.486Z</time>
      </trkpt>
      <trkpt lat="44.77913" lon="20.37354">
        <ele>121.857344</ele>
        <time>2023-03-19T10:32:32.496Z</time>
      </trkpt>
      <trkpt lat="44.77906" lon="20.37343">
        <ele>121.912474</ele>
        <time>2023-03-19T10:32:34.500Z</time>
      </trkpt>
      <trkpt lat="44.77898" lon="20.37331">
        <ele>121.969617</ele>
        <time>2023-03-19T10:32:36.537Z</time>
      </trkpt>
      <trkpt lat="44.77891" lon="20.37319">
        <ele>122.028263</ele>
        <time>2023-03-19T10:32:38.508Z</time>
      </trkpt>
      <trkpt lat="44.77885" lon="20.37307">
        <ele>122.082032</ele>
        <time>2023-03-19T10:32:40.485Z</time>
      </trkpt>
      <trkpt lat="44.77874" lon="20.373">
        <ele>122.139354</ele>
        <time>2023-03-19T10:32:42.507Z</time>
      </trkpt>
      <trkpt lat="44.77865" lon="20.37296">
        <ele>122.190583</ele>
        <time>2023-03-19T10:32:44.495Z</time>
      </trkpt>
      <trkpt lat="44.77857" lon="20.37287">
        <ele>122.242325</ele>
        <time>2023-03-19T10:32:46.506Z</time>
      </trkpt>
      <trkpt lat="44.7785" lon="20.37276">
        <ele>122.293735</ele>
        <time>2023-03-19T10:32:48.496Z</time>
      </trkpt>
      <trkpt lat="44.77844" lon="20.37266">
        <ele>122.341451</ele>
        <time>2023-03-19T10:32:50.510Z</time>
      </trkpt>
      <trkpt lat="44.77837" lon="20.37255">
        <ele>122.395103</ele>
        <time>2023-03-19T10:32:52.504Z</time>
      </trkpt>
      <trkpt lat="44.77829" lon="20.37245">
        <ele>122.449013</ele>
        <time>2023-03-19T10:32:54.510Z</time>
      </trkpt>
      <trkpt lat="44.77819" lon="20.37237">
        <ele>122.505005</ele>
        <time>2023-03-19T10:32:56.491Z</time>
      </trkpt>
      <trkpt lat="44.77808" lon="20.37236">
        <ele>122.560251</ele>
        <time>2023-03-19T10:32:58.500Z</time>
      </trkpt>
      <trkpt lat="44.77798" lon="20.37242">
        <ele>122.616615</ele>
        <time>2023-03-19T10:33:00.499Z</time>
      </trkpt>
      <trkpt lat="44.77789" lon="20.37252">
        <ele>122.674505</ele>
        <time>2023-03-19T10:33:02.492Z</time>
      </trkpt>
      <trkpt lat="44.7778" lon="20.37262">
        <ele>122.788456</ele>
        <time>2023-03-19T10:33:04.510Z</time>
      </trkpt>
      <trkpt lat="44.77771" lon="20.37272">
        <ele>122.927564</ele>
        <time>2023-03-19T10:33:06.504Z</time>
      </trkpt>
      <trkpt lat="44.77761" lon="20.37282">
        <ele>123.071057</ele>
        <time>2023-03-19T10:33:08.503Z</time>
      </trkpt>
      <trkpt lat="44.77751" lon="20.37292">
        <ele>123.212604</ele>
        <time>2023-03-19T10:33:10.503Z</time>
      </trkpt>
      <trkpt lat="44.77742" lon="20.37303">
        <ele>123.355272</ele>
        <time>2023-03-19T10:33:12.490Z</time>
      </trkpt>
      <trkpt lat="44.77732" lon="20.37313">
        <ele>123.498879</ele>
        <time>2023-03-19T10:33:14.502Z</time>
      </trkpt>
      <trkpt lat="44.77722" lon="20.37323">
        <ele>123.645322</ele>
        <time>2023-03-19T10:33:16.503Z</time>
      </trkpt>
      <trkpt lat="44.77713" lon="20.37333">
        <ele>123.787403</ele>
        <time>2023-03-19T10:33:18.512Z</time>
      </trkpt>
      <trkpt lat="44.77703" lon="20.37344">
        <ele>123.930072</ele>
        <time>2023-03-19T10:33:20.508Z</time>
      </trkpt>
      <trkpt lat="44.77694" lon="20.37355">
        <ele>124.075895</ele>
        <time>2023-03-19T10:33:22.492Z</time>
      </trkpt>
      <trkpt lat="44.77684" lon="20.37366">
        <ele>124.219733</ele>
        <time>2023-03-19T10:33:24.499Z</time>
      </trkpt>
      <trkpt lat="44.77675" lon="20.37376">
        <ele>124.362829</ele>
        <time>2023-03-19T10:33:26.504Z</time>
      </trkpt>
      <trkpt lat="44.77665" lon="20.37387">
        <ele>124.514138</ele>
        <time>2023-03-19T10:33:28.505Z</time>
      </trkpt>
      <trkpt lat="44.77655" lon="20.37397">
        <ele>124.652449</ele>
        <time>2023-03-19T10:33:30.507Z</time>
      </trkpt>
      <trkpt lat="44.77646" lon="20.37407">
        <ele>124.797089</ele>
        <time>2023-03-19T10:33:32.492Z</time>
      </trkpt>
      <trkpt lat="44.77637" lon="20.37417">
        <ele>124.609485</ele>
        <time>2023-03-19T10:33:34.508Z</time>
      </trkpt>
      <trkpt lat="44.77628" lon="20.37427">
        <ele>124.328603</ele>
        <time>2023-03-19T10:33:36.506Z</time>
      </trkpt>
      <trkpt lat="44.77622" lon="20.3744">
        <ele>124.058251</ele>
        <time>2023-03-19T10:33:38.498Z</time>
      </trkpt>
      <trkpt lat="44.77619" lon="20.37455">
        <ele>123.788393</ele>
        <time>2023-03-19T10:33:40.491Z</time>
      </trkpt>
      <trkpt lat="44.77621" lon="20.37471">
        <ele>123.500831</ele>
        <time>2023-03-19T10:33:42.488Z</time>
      </trkpt>
      <trkpt lat="44.77624" lon="20.37487">
        <ele>123.218274</ele>
        <time>2023-03-19T10:33:44.491Z</time>
      </trkpt>
      <trkpt lat="44.77629" lon="20.37502">
        <ele>122.927589</ele>
        <time>2023-03-19T10:33:46.490Z</time>
      </trkpt>
      <trkpt lat="44.77635" lon="20.37517">
        <ele>122.630172</ele>
        <time>2023-03-19T10:33:48.485Z</time>
      </trkpt>
      <trkpt lat="44.77642" lon="20.37531">
        <ele>122.335714</ele>
        <time>2023-03-19T10:33:50.499Z</time>
      </trkpt>
      <trkpt lat="44.77649" lon="20.37546">
        <ele>122.025453</ele>
        <time>2023-03-19T10:33:52.501Z</time>
      </trkpt>
      <trkpt lat="44.77651" lon="20.37563">
        <ele>121.71472</ele>
        <time>2023-03-19T10:33:54.487Z</time>
      </trkpt>
      <trkpt lat="44.7765" lon="20.3758">
        <ele>121.415798</ele>
        <time>2023-03-19T10:33:56.486Z</time>
      </trkpt>
      <trkpt lat="44.7765" lon="20.37594">
        <ele>121.179676</ele>
        <time>2023-03-19T10:33:58.489Z</time>
      </trkpt>
      <trkpt lat="44.77656" lon="20.37612">
        <ele>120.836067</ele>
        <time>2023-03-19T10:34:00.495Z</time>
      </trkpt>
      <trkpt lat="44.77662" lon="20.37628">
        <ele>120.526873</ele>
        <time>2023-03-19T10:34:02.507Z</time>
      </trkpt>
      <trkpt lat="44.77668" lon="20.37641">
        <ele>120.515854</ele>
        <time>2023-03-19T10:34:04.498Z</time>
      </trkpt>
      <trkpt lat="44.77675" lon="20.37654">
        <ele>120.662323</ele>
        <time>2023-03-19T10:34:06.500Z</time>
      </trkpt>
      <trkpt lat="44.7768" lon="20.37666">
        <ele>120.79129</ele>
        <time>2023-03-19T10:34:08.504Z</time>
      </trkpt>
      <trkpt lat="44.77688" lon="20.3768">
        <ele>120.948144</ele>
        <time>2023-03-19T10:34:10.505Z</time>
      </trkpt>
      <trkpt lat="44.77694" lon="20.37694">
        <ele>121.096931</ele>
        <time>2023-03-19T10:34:12.495Z</time>
      </trkpt>
      <trkpt lat="44.777" lon="20.37707">
        <ele>121.237109</ele>
        <time>2023-03-19T10:34:14.484Z</time>
      </trkpt>
      <trkpt lat="44.77708" lon="20.37719">
        <ele>121.38235</ele>
        <time>2023-03-19T10:34:16.493Z</time>
      </trkpt>
      <trkpt lat="44.7772" lon="20.37729">
        <ele>121.562139</ele>
        <time>2023-03-19T10:34:18.492Z</time>
      </trkpt>
      <trkpt lat="44.77729" lon="20.37741">
        <ele>121.707888</ele>
        <time>2023-03-19T10:34:20.487Z</time>
      </trkpt>
      <trkpt lat="44.7774" lon="20.37752">
        <ele>121.884246</ele>
        <time>2023-03-19T10:34:22.510Z</time>
      </trkpt>
      <trkpt lat="44.77751" lon="20.37765">
        <ele>122.063961</ele>
        <time>2023-03-19T10:34:24.504Z</time>
      </trkpt>
      <trkpt lat="44.7776" lon="20.37779">
        <ele>122.236808</ele>
        <time>2023-03-19T10:34:26.494Z</time>
      </trkpt>
      <trkpt lat="44.77769" lon="20.37793">
        <ele>122.405762</ele>
        <time>2023-03-19T10:34:28.512Z</time>
      </trkpt>
      <trkpt lat="44.77777" lon="20.37807">
        <ele>122.571885</ele>
        <time>2023-03-19T10:34:30.483Z</time>
      </trkpt>
      <trkpt lat="44.77785" lon="20.37821">
        <ele>122.735364</ele>
        <time>2023-03-19T10:34:32.484Z</time>
      </trkpt>
      <trkpt lat="44.77791" lon="20.37835">
        <ele>122.952043</ele>
        <time>2023-03-19T10:34:34.484Z</time>
      </trkpt>
      <trkpt lat="44.77798" lon="20.37847">
        <ele>123.156335</ele>
        <time>2023-03-19T10:34:36.504Z</time>
      </trkpt>
      <trkpt lat="44.77805" lon="20.37858">
        <ele>123.349944</ele>
        <time>2023-03-19T10:34:38.496Z</time>
      </trkpt>
      <trkpt lat="44.7781" lon="20.37872">
        <ele>123.561031</ele>
        <time>2023-03-19T10:34:41.498Z</time>
      </trkpt>
      <trkpt lat="44.77817" lon="20.37884">
        <ele>123.774368</ele>
        <time>2023-03-19T10:34:44.498Z</time>
      </trkpt>
      <trkpt lat="44.77823" lon="20.37896">
        <ele>123.963005</ele>
        <time>2023-03-19T10:34:46.553Z</time>
      </trkpt>
      <trkpt lat="44.77829" lon="20.37909">
        <ele>124.160404</ele>
        <time>2023-03-19T10:34:48.507Z</time>
      </trkpt>
      <trkpt lat="44.77834" lon="20.37921">
        <ele>124.358365</ele>
        <time>2023-03-19T10:34:50.503Z</time>
      </trkpt>
      <trkpt lat="44.7784" lon="20.37935">
        <ele>124.564861</ele>
        <time>2023-03-19T10:34:52.509Z</time>
      </trkpt>
      <trkpt lat="44.77847" lon="20.37947">
        <ele>124.76973</ele>
        <time>2023-03-19T10:34:54.503Z</time>
      </trkpt>
      <trkpt lat="44.77853" lon="20.3796">
        <ele>124.97889</ele>
        <time>2023-03-19T10:34:56.509Z</time>
      </trkpt>
      <trkpt lat="44.77859" lon="20.37974">
        <ele>125.187091</ele>
        <time>2023-03-19T10:34:58.511Z</time>
      </trkpt>
      <trkpt lat="44.77865" lon="20.37986">
        <ele>125.385458</ele>
        <time>2023-03-19T10:35:00.511Z</time>
      </trkpt>
      <trkpt lat="44.7787" lon="20.37999">
        <ele>125.582681</ele>
        <time>2023-03-19T10:35:02.487Z</time>
      </trkpt>
      <trkpt lat="44.77873" lon="20.38016">
        <ele>125.818983</ele>
        <time>2023-03-19T10:35:05.507Z</time>
      </trkpt>
      <trkpt lat="44.7788" lon="20.38029">
        <ele>126.030254</ele>
        <time>2023-03-19T10:35:08.486Z</time>
      </trkpt>
      <trkpt lat="44.77886" lon="20.38044">
        <ele>125.899554</ele>
        <time>2023-03-19T10:35:11.507Z</time>
      </trkpt>
      <trkpt lat="44.77893" lon="20.38054">
        <ele>125.762662</ele>
        <time>2023-03-19T10:35:13.509Z</time>
      </trkpt>
      <trkpt lat="44.77898" lon="20.38066">
        <ele>125.618037</ele>
        <time>2023-03-19T10:35:15.508Z</time>
      </trkpt>
      <trkpt lat="44.77903" lon="20.38079">
        <ele>125.470877</ele>
        <time>2023-03-19T10:35:17.506Z</time>
      </trkpt>
      <trkpt lat="44.77907" lon="20.38091">
        <ele>125.340056</ele>
        <time>2023-03-19T10:35:19.505Z</time>
      </trkpt>
      <trkpt lat="44.77911" lon="20.38103">
        <ele>125.205454</ele>
        <time>2023-03-19T10:35:21.510Z</time>
      </trkpt>
      <trkpt lat="44.77917" lon="20.38115">
        <ele>125.063096</ele>
        <time>2023-03-19T10:35:23.507Z</time>
      </trkpt>
      <trkpt lat="44.77922" lon="20.38128">
        <ele>124.916698</ele>
        <time>2023-03-19T10:35:25.503Z</time>
      </trkpt>
      <trkpt lat="44.77928" lon="20.38141">
        <ele>124.757439</ele>
        <time>2023-03-19T10:35:27.505Z</time>
      </trkpt>
      <trkpt lat="44.77935" lon="20.38154">
        <ele>124.59823</ele>
        <time>2023-03-19T10:35:29.501Z</time>
      </trkpt>
      <trkpt lat="44.77942" lon="20.38166">
        <ele>124.439075</ele>
        <time>2023-03-19T10:35:31.492Z</time>
      </trkpt>
      <trkpt lat="44.77949" lon="20.3818">
        <ele>124.269134</ele>
        <time>2023-03-19T10:35:33.512Z</time>
      </trkpt>
      <trkpt lat="44.77954" lon="20.38191">
        <ele>124.13108</ele>
        <time>2023-03-19T10:35:35.484Z</time>
      </trkpt>
      <trkpt lat="44.77956" lon="20.38205">
        <ele>123.992301</ele>
        <time>2023-03-19T10:35:37.485Z</time>
      </trkpt>
      <trkpt lat="44.77957" lon="20.38222">
        <ele>123.825715</ele>
        <time>2023-03-19T10:35:39.496Z</time>
      </trkpt>
      <trkpt lat="44.77956" lon="20.38239">
        <ele>123.648297</ele>
        <time>2023-03-19T10:35:41.500Z</time>
      </trkpt>
      <trkpt lat="44.77957" lon="20.38258">
        <ele>123.414709</ele>
        <time>2023-03-19T10:35:43.507Z</time>
      </trkpt>
      <trkpt lat="44.77959" lon="20.38276">
        <ele>123.031752</ele>
        <time>2023-03-19T10:35:45.497Z</time>
      </trkpt>
      <trkpt lat="44.77963" lon="20.38294">
        <ele>122.652757</ele>
        <time>2023-03-19T10:35:47.485Z</time>
      </trkpt>
      <trkpt lat="44.77968" lon="20.38313">
        <ele>122.254874</ele>
        <time>2023-03-19T10:35:49.480Z</time>
      </trkpt>
      <trkpt lat="44.77975" lon="20.38329">
        <ele>121.882356</ele>
        <time>2023-03-19T10:35:51.484Z</time>
      </trkpt>
      <trkpt lat="44.77982" lon="20.38343">
        <ele>121.538269</ele>
        <time>2023-03-19T10:35:53.489Z</time>
      </trkpt>
      <trkpt lat="44.77988" lon="20.38354">
        <ele>121.253696</ele>
        <time>2023-03-19T10:35:55.490Z</time>
      </trkpt>
      <trkpt lat="44.77998" lon="20.38365">
        <ele>120.902276</ele>
        <time>2023-03-19T10:35:57.506Z</time>
      </trkpt>
      <trkpt lat="44.78005" lon="20.38376">
        <ele>120.589137</ele>
        <time>2023-03-19T10:35:59.488Z</time>
      </trkpt>
      <trkpt lat="44.78013" lon="20.3839">
        <ele>120.250343</ele>
        <time>2023-03-19T10:36:01.490Z</time>
      </trkpt>
      <trkpt lat="44.78021" lon="20.38403">
        <ele>119.900841</ele>
        <time>2023-03-19T10:36:03.504Z</time>
      </trkpt>
      <trkpt lat="44.78027" lon="20.38415">
        <ele>119.593472</ele>
        <time>2023-03-19T10:36:05.515Z</time>
      </trkpt>
      <trkpt lat="44.78038" lon="20.38426">
        <ele>119.228576</ele>
        <time>2023-03-19T10:36:07.496Z</time>
      </trkpt>
      <trkpt lat="44.78043" lon="20.38441">
        <ele>118.900989</ele>
        <time>2023-03-19T10:36:09.482Z</time>
      </trkpt>
      <trkpt lat="44.78047" lon="20.38456">
        <ele>118.557152</ele>
        <time>2023-03-19T10:36:11.491Z</time>
      </trkpt>
      <trkpt lat="44.78054" lon="20.3847">
        <ele>118.505086</ele>
        <time>2023-03-19T10:36:13.493Z</time>
      </trkpt>
      <trkpt lat="44.78059" lon="20.38485">
        <ele>118.611691</ele>
        <time>2023-03-19T10:36:15.509Z</time>
      </trkpt>
      <trkpt lat="44.78065" lon="20.385">
        <ele>118.721144</ele>
        <time>2023-03-19T10:36:17.504Z</time>
      </trkpt>
      <trkpt lat="44.78069" lon="20.38515">
        <ele>118.828382</ele>
        <time>2023-03-19T10:36:19.508Z</time>
      </trkpt>
      <trkpt lat="44.78074" lon="20.3853">
        <ele>118.937597</ele>
        <time>2023-03-19T10:36:21.506Z</time>
      </trkpt>
      <trkpt lat="44.78079" lon="20.38545">
        <ele>119.044784</ele>
        <time>2023-03-19T10:36:23.505Z</time>
      </trkpt>
      <trkpt lat="44.78084" lon="20.38559">
        <ele>119.150355</ele>
        <time>2023-03-19T10:36:25.498Z</time>
      </trkpt>
      <trkpt lat="44.78089" lon="20.38574">
        <ele>119.252998</ele>
        <time>2023-03-19T10:36:27.509Z</time>
      </trkpt>
      <trkpt lat="44.78094" lon="20.38587">
        <ele>119.353877</ele>
        <time>2023-03-19T10:36:29.502Z</time>
      </trkpt>
      <trkpt lat="44.78101" lon="20.38601">
        <ele>119.461394</ele>
        <time>2023-03-19T10:36:31.506Z</time>
      </trkpt>
      <trkpt lat="44.78107" lon="20.38614">
        <ele>119.566808</ele>
        <time>2023-03-19T10:36:33.486Z</time>
      </trkpt>
      <trkpt lat="44.78113" lon="20.38628">
        <ele>119.67367</ele>
        <time>2023-03-19T10:36:35.509Z</time>
      </trkpt>
      <trkpt lat="44.78118" lon="20.38643">
        <ele>119.778887</ele>
        <time>2023-03-19T10:36:37.507Z</time>
      </trkpt>
      <trkpt lat="44.78123" lon="20.38658">
        <ele>119.887507</ele>
        <time>2023-03-19T10:36:39.502Z</time>
      </trkpt>
      <trkpt lat="44.7813" lon="20.38671">
        <ele>119.99135</ele>
        <time>2023-03-19T10:36:41.503Z</time>
      </trkpt>
      <trkpt lat="44.78136" lon="20.38683">
        <ele>120.092165</ele>
        <time>2023-03-19T10:36:43.489Z</time>
      </trkpt>
      <trkpt lat="44.78143" lon="20.38696">
        <ele>120.165149</ele>
        <time>2023-03-19T10:36:45.509Z</time>
      </trkpt>
      <trkpt lat="44.78149" lon="20.3871">
        <ele>120.239373</ele>
        <time>2023-03-19T10:36:47.483Z</time>
      </trkpt>
      <trkpt lat="44.78155" lon="20.38724">
        <ele>120.314724</ele>
        <time>2023-03-19T10:36:49.492Z</time>
      </trkpt>
      <trkpt lat="44.7816" lon="20.38739">
        <ele>120.390478</ele>
        <time>2023-03-19T10:36:51.506Z</time>
      </trkpt>
      <trkpt lat="44.78166" lon="20.38754">
        <ele>120.46764</ele>
        <time>2023-03-19T10:36:53.504Z</time>
      </trkpt>
      <trkpt lat="44.78172" lon="20.38769">
        <ele>120.545735</ele>
        <time>2023-03-19T10:36:55.506Z</time>
      </trkpt>
      <trkpt lat="44.78178" lon="20.38784">
        <ele>120.624733</ele>
        <time>2023-03-19T10:36:57.499Z</time>
      </trkpt>
      <trkpt lat="44.78182" lon="20.388">
        <ele>120.703251</ele>
        <time>2023-03-19T10:36:59.507Z</time>
      </trkpt>
      <trkpt lat="44.78187" lon="20.38816">
        <ele>120.782611</ele>
        <time>2023-03-19T10:37:01.502Z</time>
      </trkpt>
      <trkpt lat="44.7819" lon="20.38833">
        <ele>120.85954</ele>
        <time>2023-03-19T10:37:03.496Z</time>
      </trkpt>
      <trkpt lat="44.78192" lon="20.38847">
        <ele>120.926986</ele>
        <time>2023-03-19T10:37:05.490Z</time>
      </trkpt>
      <trkpt lat="44.78195" lon="20.38862">
        <ele>120.996714</ele>
        <time>2023-03-19T10:37:07.482Z</time>
      </trkpt>
      <trkpt lat="44.78199" lon="20.38877">
        <ele>121.070704</ele>
        <time>2023-03-19T10:37:09.487Z</time>
      </trkpt>
      <trkpt lat="44.78203" lon="20.38892">
        <ele>121.143752</ele>
        <time>2023-03-19T10:37:11.503Z</time>
      </trkpt>
      <trkpt lat="44.78205" lon="20.38906">
        <ele>121.210328</ele>
        <time>2023-03-19T10:37:13.497Z</time>
      </trkpt>
      <trkpt lat="44.78207" lon="20.3892">
        <ele>121.249009</ele>
        <time>2023-03-19T10:37:15.496Z</time>
      </trkpt>
      <trkpt lat="44.78209" lon="20.38933">
        <ele>121.258813</ele>
        <time>2023-03-19T10:37:17.490Z</time>
      </trkpt>
      <trkpt lat="44.7821" lon="20.38947">
        <ele>121.268648</ele>
        <time>2023-03-19T10:37:19.496Z</time>
      </trkpt>
      <trkpt lat="44.78214" lon="20.3896">
        <ele>121.279118</ele>
        <time>2023-03-19T10:37:21.486Z</time>
      </trkpt>
      <trkpt lat="44.78217" lon="20.38974">
        <ele>121.290008</ele>
        <time>2023-03-19T10:37:23.506Z</time>
      </trkpt>
      <trkpt lat="44.78221" lon="20.38987">
        <ele>121.300692</ele>
        <time>2023-03-19T10:37:25.484Z</time>
      </trkpt>
      <trkpt lat="44.78224" lon="20.38999">
        <ele>121.310052</ele>
        <time>2023-03-19T10:37:27.484Z</time>
      </trkpt>
      <trkpt lat="44.7823" lon="20.39016">
        <ele>121.323712</ele>
        <time>2023-03-19T10:37:30.510Z</time>
      </trkpt>
      <trkpt lat="44.78237" lon="20.39034">
        <ele>121.338878</ele>
        <time>2023-03-19T10:37:33.506Z</time>
      </trkpt>
      <trkpt lat="44.78237" lon="20.39048">
        <ele>121.34933</ele>
        <time>2023-03-19T10:37:35.506Z</time>
      </trkpt>
      <trkpt lat="44.7824" lon="20.39063">
        <ele>121.360501</ele>
        <time>2023-03-19T10:37:37.502Z</time>
      </trkpt>
      <trkpt lat="44.78245" lon="20.39077">
        <ele>121.371784</ele>
        <time>2023-03-19T10:37:39.493Z</time>
      </trkpt>
      <trkpt lat="44.7825" lon="20.3909">
        <ele>121.383185</ele>
        <time>2023-03-19T10:37:41.494Z</time>
      </trkpt>
      <trkpt lat="44.78255" lon="20.39105">
        <ele>121.395046</ele>
        <time>2023-03-19T10:37:43.486Z</time>
      </trkpt>
      <trkpt lat="44.7826" lon="20.3912">
        <ele>121.407242</ele>
        <time>2023-03-19T10:37:45.514Z</time>
      </trkpt>
      <trkpt lat="44.78264" lon="20.39135">
        <ele>121.4189</ele>
        <time>2023-03-19T10:37:47.510Z</time>
      </trkpt>
      <trkpt lat="44.7827" lon="20.39149">
        <ele>121.428183</ele>
        <time>2023-03-19T10:37:49.491Z</time>
      </trkpt>
      <trkpt lat="44.78274" lon="20.39164">
        <ele>121.365567</ele>
        <time>2023-03-19T10:37:51.517Z</time>
      </trkpt>
      <trkpt lat="44.78278" lon="20.39179">
        <ele>121.299971</ele>
        <time>2023-03-19T10:37:53.507Z</time>
      </trkpt>
      <trkpt lat="44.78283" lon="20.39195">
        <ele>121.232966</ele>
        <time>2023-03-19T10:37:55.506Z</time>
      </trkpt>
      <trkpt lat="44.78288" lon="20.3921">
        <ele>121.167756</ele>
        <time>2023-03-19T10:37:57.496Z</time>
      </trkpt>
      <trkpt lat="44.78292" lon="20.39225">
        <ele>121.106007</ele>
        <time>2023-03-19T10:37:59.512Z</time>
      </trkpt>
      <trkpt lat="44.78296" lon="20.3924">
        <ele>121.041239</ele>
        <time>2023-03-19T10:38:01.492Z</time>
      </trkpt>
      <trkpt lat="44.783" lon="20.39255">
        <ele>120.980059</ele>
        <time>2023-03-19T10:38:03.505Z</time>
      </trkpt>
      <trkpt lat="44.78304" lon="20.39269">
        <ele>120.918736</ele>
        <time>2023-03-19T10:38:05.509Z</time>
      </trkpt>
      <trkpt lat="44.78308" lon="20.39284">
        <ele>120.856295</ele>
        <time>2023-03-19T10:38:07.501Z</time>
      </trkpt>
      <trkpt lat="44.78312" lon="20.393">
        <ele>120.79165</ele>
        <time>2023-03-19T10:38:09.488Z</time>
      </trkpt>
      <trkpt lat="44.78316" lon="20.39316">
        <ele>120.72534</ele>
        <time>2023-03-19T10:38:11.508Z</time>
      </trkpt>
      <trkpt lat="44.78317" lon="20.3933">
        <ele>120.670066</ele>
        <time>2023-03-19T10:38:13.494Z</time>
      </trkpt>
      <trkpt lat="44.78321" lon="20.39347">
        <ele>120.599244</ele>
        <time>2023-03-19T10:38:15.485Z</time>
      </trkpt>
      <trkpt lat="44.78325" lon="20.39364">
        <ele>120.531091</ele>
        <time>2023-03-19T10:38:17.508Z</time>
      </trkpt>
      <trkpt lat="44.78328" lon="20.3938">
        <ele>120.465251</ele>
        <time>2023-03-19T10:38:19.487Z</time>
      </trkpt>
      <trkpt lat="44.78332" lon="20.39396">
        <ele>120.51839</ele>
        <time>2023-03-19T10:38:21.504Z</time>
      </trkpt>
      <trkpt lat="44.78334" lon="20.39412">
        <ele>120.648356</ele>
        <time>2023-03-19T10:38:23.496Z</time>
      </trkpt>
      <trkpt lat="44.78335" lon="20.39429">
        <ele>120.785184</ele>
        <time>2023-03-19T10:38:25.507Z</time>
      </trkpt>
      <trkpt lat="44.78337" lon="20.39445">
        <ele>120.922352</ele>
        <time>2023-03-19T10:38:27.509Z</time>
      </trkpt>
      <trkpt lat="44.78339" lon="20.39461">
        <ele>121.053365</ele>
        <time>2023-03-19T10:38:29.504Z</time>
      </trkpt>
      <trkpt lat="44.78344" lon="20.39477">
        <ele>121.194988</ele>
        <time>2023-03-19T10:38:31.487Z</time>
      </trkpt>
      <trkpt lat="44.78349" lon="20.39493">
        <ele>121.337059</ele>
        <time>2023-03-19T10:38:33.486Z</time>
      </trkpt>
      <trkpt lat="44.78354" lon="20.39508">
        <ele>121.46809</ele>
        <time>2023-03-19T10:38:35.486Z</time>
      </trkpt>
      <trkpt lat="44.78359" lon="20.39523">
        <ele>121.60509</ele>
        <time>2023-03-19T10:38:37.484Z</time>
      </trkpt>
      <trkpt lat="44.78359" lon="20.39541">
        <ele>121.746247</ele>
        <time>2023-03-19T10:38:39.486Z</time>
      </trkpt>
      <trkpt lat="44.78363" lon="20.39556">
        <ele>121.874724</ele>
        <time>2023-03-19T10:38:41.497Z</time>
      </trkpt>
      <trkpt lat="44.78367" lon="20.3957">
        <ele>122.000985</ele>
        <time>2023-03-19T10:38:43.495Z</time>
      </trkpt>
      <trkpt lat="44.78372" lon="20.39584">
        <ele>122.128607</ele>
        <time>2023-03-19T10:38:45.490Z</time>
      </trkpt>
      <trkpt lat="44.78376" lon="20.39598">
        <ele>122.253522</ele>
        <time>2023-03-19T10:38:47.503Z</time>
      </trkpt>
      <trkpt lat="44.78382" lon="20.39613">
        <ele>122.386393</ele>
        <time>2023-03-19T10:38:49.510Z</time>
      </trkpt>
      <trkpt lat="44.78389" lon="20.39626">
        <ele>122.497178</ele>
        <time>2023-03-19T10:38:51.488Z</time>
      </trkpt>
      <trkpt lat="44.78394" lon="20.39641">
        <ele>122.521342</ele>
        <time>2023-03-19T10:38:53.507Z</time>
      </trkpt>
      <trkpt lat="44.784" lon="20.39656">
        <ele>122.54602</ele>
        <time>2023-03-19T10:38:55.506Z</time>
      </trkpt>
      <trkpt lat="44.78404" lon="20.39671">
        <ele>122.570526</ele>
        <time>2023-03-19T10:38:57.512Z</time>
      </trkpt>
      <trkpt lat="44.78408" lon="20.39687">
        <ele>122.594405</ele>
        <time>2023-03-19T10:38:59.503Z</time>
      </trkpt>
      <trkpt lat="44.78413" lon="20.39702">
        <ele>122.618296</ele>
        <time>2023-03-19T10:39:01.506Z</time>
      </trkpt>
      <trkpt lat="44.78417" lon="20.39718">
        <ele>122.642856</ele>
        <time>2023-03-19T10:39:03.498Z</time>
      </trkpt>
      <trkpt lat="44.7842" lon="20.39733">
        <ele>122.665433</ele>
        <time>2023-03-19T10:39:05.510Z</time>
      </trkpt>
      <trkpt lat="44.78425" lon="20.39747">
        <ele>122.688267</ele>
        <time>2023-03-19T10:39:07.506Z</time>
      </trkpt>
      <trkpt lat="44.7843" lon="20.39762">
        <ele>122.712178</ele>
        <time>2023-03-19T10:39:09.489Z</time>
      </trkpt>
      <trkpt lat="44.78433" lon="20.39778">
        <ele>122.73587</ele>
        <time>2023-03-19T10:39:11.505Z</time>
      </trkpt>
      <trkpt lat="44.78437" lon="20.39794">
        <ele>122.761388</ele>
        <time>2023-03-19T10:39:13.494Z</time>
      </trkpt>
      <trkpt lat="44.78441" lon="20.3981">
        <ele>122.785811</ele>
        <time>2023-03-19T10:39:15.500Z</time>
      </trkpt>
      <trkpt lat="44.78445" lon="20.39825">
        <ele>122.809027</ele>
        <time>2023-03-19T10:39:17.500Z</time>
      </trkpt>
      <trkpt lat="44.78447" lon="20.39841">
        <ele>122.831916</ele>
        <time>2023-03-19T10:39:19.488Z</time>
      </trkpt>
      <trkpt lat="44.78451" lon="20.39856">
        <ele>122.85463</ele>
        <time>2023-03-19T10:39:21.505Z</time>
      </trkpt>
      <trkpt lat="44.78454" lon="20.39871">
        <ele>122.848491</ele>
        <time>2023-03-19T10:39:23.507Z</time>
      </trkpt>
      <trkpt lat="44.78459" lon="20.39887">
        <ele>122.832916</ele>
        <time>2023-03-19T10:39:25.485Z</time>
      </trkpt>
      <trkpt lat="44.78464" lon="20.39903">
        <ele>122.816786</ele>
        <time>2023-03-19T10:39:27.513Z</time>
      </trkpt>
      <trkpt lat="44.78467" lon="20.39919">
        <ele>122.801147</ele>
        <time>2023-03-19T10:39:29.504Z</time>
      </trkpt>
      <trkpt lat="44.78472" lon="20.39933">
        <ele>122.786541</ele>
        <time>2023-03-19T10:39:31.508Z</time>
      </trkpt>
      <trkpt lat="44.78476" lon="20.39945">
        <ele>122.774042</ele>
        <time>2023-03-19T10:39:33.507Z</time>
      </trkpt>
      <trkpt lat="44.7848" lon="20.39958">
        <ele>122.761121</ele>
        <time>2023-03-19T10:39:35.504Z</time>
      </trkpt>
      <trkpt lat="44.78483" lon="20.39971">
        <ele>122.747636</ele>
        <time>2023-03-19T10:39:37.512Z</time>
      </trkpt>
      <trkpt lat="44.78486" lon="20.39986">
        <ele>122.733273</ele>
        <time>2023-03-19T10:39:39.505Z</time>
      </trkpt>
      <trkpt lat="44.78488" lon="20.40002">
        <ele>122.71861</ele>
        <time>2023-03-19T10:39:41.509Z</time>
      </trkpt>
      <trkpt lat="44.7849" lon="20.40018">
        <ele>122.703764</ele>
        <time>2023-03-19T10:39:43.504Z</time>
      </trkpt>
      <trkpt lat="44.78492" lon="20.40034">
        <ele>122.687945</ele>
        <time>2023-03-19T10:39:45.515Z</time>
      </trkpt>
      <trkpt lat="44.78495" lon="20.40051">
        <ele>122.671671</ele>
        <time>2023-03-19T10:39:47.514Z</time>
      </trkpt>
      <trkpt lat="44.78496" lon="20.40068">
        <ele>122.656017</ele>
        <time>2023-03-19T10:39:49.518Z</time>
      </trkpt>
      <trkpt lat="44.78498" lon="20.40083">
        <ele>122.641376</ele>
        <time>2023-03-19T10:39:51.491Z</time>
      </trkpt>
      <trkpt lat="44.78499" lon="20.40099">
        <ele>122.626889</ele>
        <time>2023-03-19T10:39:53.514Z</time>
      </trkpt>
      <trkpt lat="44.78499" lon="20.40115">
        <ele>122.640759</ele>
        <time>2023-03-19T10:39:55.500Z</time>
      </trkpt>
      <trkpt lat="44.78499" lon="20.40132">
        <ele>122.66134</ele>
        <time>2023-03-19T10:39:57.517Z</time>
      </trkpt>
      <trkpt lat="44.78499" lon="20.40148">
        <ele>122.682048</ele>
        <time>2023-03-19T10:39:59.511Z</time>
      </trkpt>
      <trkpt lat="44.785" lon="20.40164">
        <ele>122.701926</ele>
        <time>2023-03-19T10:40:01.508Z</time>
      </trkpt>
      <trkpt lat="44.78502" lon="20.40181">
        <ele>122.723247</ele>
        <time>2023-03-19T10:40:03.503Z</time>
      </trkpt>
      <trkpt lat="44.78503" lon="20.40198">
        <ele>122.744598</ele>
        <time>2023-03-19T10:40:05.512Z</time>
      </trkpt>
      <trkpt lat="44.78505" lon="20.40215">
        <ele>122.766753</ele>
        <time>2023-03-19T10:40:07.508Z</time>
      </trkpt>
      <trkpt lat="44.78507" lon="20.40232">
        <ele>122.787949</ele>
        <time>2023-03-19T10:40:09.505Z</time>
      </trkpt>
      <trkpt lat="44.78509" lon="20.40249">
        <ele>122.810221</ele>
        <time>2023-03-19T10:40:11.510Z</time>
      </trkpt>
      <trkpt lat="44.78511" lon="20.40267">
        <ele>122.832713</ele>
        <time>2023-03-19T10:40:13.510Z</time>
      </trkpt>
      <trkpt lat="44.78513" lon="20.40285">
        <ele>122.855975</ele>
        <time>2023-03-19T10:40:15.507Z</time>
      </trkpt>
      <trkpt lat="44.78515" lon="20.40303">
        <ele>122.878305</ele>
        <time>2023-03-19T10:40:17.511Z</time>
      </trkpt>
      <trkpt lat="44.78515" lon="20.40321">
        <ele>122.900517</ele>
        <time>2023-03-19T10:40:19.482Z</time>
      </trkpt>
      <trkpt lat="44.78515" lon="20.40339">
        <ele>122.923255</ele>
        <time>2023-03-19T10:40:21.488Z</time>
      </trkpt>
      <trkpt lat="44.78517" lon="20.40357">
        <ele>122.94439</ele>
        <time>2023-03-19T10:40:23.510Z</time>
      </trkpt>
      <trkpt lat="44.78518" lon="20.40375">
        <ele>122.958446</ele>
        <time>2023-03-19T10:40:25.491Z</time>
      </trkpt>
      <trkpt lat="44.78519" lon="20.40393">
        <ele>122.972238</ele>
        <time>2023-03-19T10:40:27.504Z</time>
      </trkpt>
      <trkpt lat="44.7852" lon="20.40411">
        <ele>122.986533</ele>
        <time>2023-03-19T10:40:29.503Z</time>
      </trkpt>
      <trkpt lat="44.78523" lon="20.40429">
        <ele>123.000428</ele>
        <time>2023-03-19T10:40:31.508Z</time>
      </trkpt>
      <trkpt lat="44.78527" lon="20.40446">
        <ele>123.014407</ele>
        <time>2023-03-19T10:40:33.484Z</time>
      </trkpt>
      <trkpt lat="44.78533" lon="20.40463">
        <ele>123.028891</ele>
        <time>2023-03-19T10:40:35.483Z</time>
      </trkpt>
      <trkpt lat="44.78538" lon="20.40481">
        <ele>123.0436</ele>
        <time>2023-03-19T10:40:37.491Z</time>
      </trkpt>
      <trkpt lat="44.78542" lon="20.40498">
        <ele>123.057721</ele>
        <time>2023-03-19T10:40:39.491Z</time>
      </trkpt>
      <trkpt lat="44.78547" lon="20.40514">
        <ele>123.07083</ele>
        <time>2023-03-19T10:40:41.503Z</time>
      </trkpt>
      <trkpt lat="44.7855" lon="20.4053">
        <ele>123.083549</ele>
        <time>2023-03-19T10:40:43.509Z</time>
      </trkpt>
      <trkpt lat="44.78553" lon="20.40545">
        <ele>123.09612</ele>
        <time>2023-03-19T10:40:45.486Z</time>
      </trkpt>
      <trkpt lat="44.78557" lon="20.40562">
        <ele>123.109372</ele>
        <time>2023-03-19T10:40:47.502Z</time>
      </trkpt>
      <trkpt lat="44.78562" lon="20.40576">
        <ele>123.121675</ele>
        <time>2023-03-19T10:40:49.488Z</time>
      </trkpt>
      <trkpt lat="44.78568" lon="20.40587">
        <ele>123.133009</ele>
        <time>2023-03-19T10:40:51.491Z</time>
      </trkpt>
      <trkpt lat="44.78576" lon="20.40599">
        <ele>123.07346</ele>
        <time>2023-03-19T10:40:53.497Z</time>
      </trkpt>
      <trkpt lat="44.78578" lon="20.40614">
        <ele>122.966491</ele>
        <time>2023-03-19T10:40:55.502Z</time>
      </trkpt>
      <trkpt lat="44.78579" lon="20.40629">
        <ele>122.864176</ele>
        <time>2023-03-19T10:40:57.494Z</time>
      </trkpt>
      <trkpt lat="44.78581" lon="20.40645">
        <ele>122.759</ele>
        <time>2023-03-19T10:40:59.489Z</time>
      </trkpt>
      <trkpt lat="44.78583" lon="20.40659">
        <ele>122.659684</ele>
        <time>2023-03-19T10:41:01.484Z</time>
      </trkpt>
      <trkpt lat="44.78586" lon="20.40673">
        <ele>122.561282</ele>
        <time>2023-03-19T10:41:03.489Z</time>
      </trkpt>
      <trkpt lat="44.7859" lon="20.40687">
        <ele>122.458131</ele>
        <time>2023-03-19T10:41:05.516Z</time>
      </trkpt>
      <trkpt lat="44.78596" lon="20.407">
        <ele>122.35383</ele>
        <time>2023-03-19T10:41:07.488Z</time>
      </trkpt>
      <trkpt lat="44.78605" lon="20.40709">
        <ele>122.250641</ele>
        <time>2023-03-19T10:41:09.496Z</time>
      </trkpt>
      <trkpt lat="44.78615" lon="20.40717">
        <ele>122.13704</ele>
        <time>2023-03-19T10:41:11.492Z</time>
      </trkpt>
      <trkpt lat="44.78625" lon="20.4073">
        <ele>122.015405</ele>
        <time>2023-03-19T10:41:13.504Z</time>
      </trkpt>
      <trkpt lat="44.78633" lon="20.40746">
        <ele>121.880358</ele>
        <time>2023-03-19T10:41:15.500Z</time>
      </trkpt>
      <trkpt lat="44.78641" lon="20.40763">
        <ele>121.742228</ele>
        <time>2023-03-19T10:41:17.505Z</time>
      </trkpt>
      <trkpt lat="44.78645" lon="20.40781">
        <ele>121.614307</ele>
        <time>2023-03-19T10:41:19.481Z</time>
      </trkpt>
      <trkpt lat="44.78647" lon="20.40799">
        <ele>121.494699</ele>
        <time>2023-03-19T10:41:21.488Z</time>
      </trkpt>
      <trkpt lat="44.78651" lon="20.40814">
        <ele>121.438011</ele>
        <time>2023-03-19T10:41:23.499Z</time>
      </trkpt>
      <trkpt lat="44.78657" lon="20.40829">
        <ele>121.451989</ele>
        <time>2023-03-19T10:41:25.496Z</time>
      </trkpt>
      <trkpt lat="44.78661" lon="20.40846">
        <ele>121.466069</ele>
        <time>2023-03-19T10:41:27.506Z</time>
      </trkpt>
      <trkpt lat="44.78664" lon="20.40863">
        <ele>121.480821</ele>
        <time>2023-03-19T10:41:29.505Z</time>
      </trkpt>
      <trkpt lat="44.78665" lon="20.4088">
        <ele>121.495168</ele>
        <time>2023-03-19T10:41:31.486Z</time>
      </trkpt>
      <trkpt lat="44.78666" lon="20.40896">
        <ele>121.508243</ele>
        <time>2023-03-19T10:41:33.505Z</time>
      </trkpt>
      <trkpt lat="44.78668" lon="20.40912">
        <ele>121.521825</ele>
        <time>2023-03-19T10:41:35.507Z</time>
      </trkpt>
      <trkpt lat="44.7867" lon="20.40928">
        <ele>121.534934</ele>
        <time>2023-03-19T10:41:37.508Z</time>
      </trkpt>
      <trkpt lat="44.78672" lon="20.40944">
        <ele>121.548508</ele>
        <time>2023-03-19T10:41:39.491Z</time>
      </trkpt>
      <trkpt lat="44.78673" lon="20.4096">
        <ele>121.562048</ele>
        <time>2023-03-19T10:41:41.507Z</time>
      </trkpt>
      <trkpt lat="44.78673" lon="20.40978">
        <ele>121.576412</ele>
        <time>2023-03-19T10:41:43.506Z</time>
      </trkpt>
      <trkpt lat="44.78673" lon="20.40993">
        <ele>121.589296</ele>
        <time>2023-03-19T10:41:45.507Z</time>
      </trkpt>
      <trkpt lat="44.78674" lon="20.41009">
        <ele>121.60202</ele>
        <time>2023-03-19T10:41:47.505Z</time>
      </trkpt>
      <trkpt lat="44.78674" lon="20.41023">
        <ele>121.614167</ele>
        <time>2023-03-19T10:41:49.503Z</time>
      </trkpt>
      <trkpt lat="44.78674" lon="20.41039">
        <ele>121.626714</ele>
        <time>2023-03-19T10:41:51.506Z</time>
      </trkpt>
      <trkpt lat="44.78674" lon="20.41054">
        <ele>121.639759</ele>
        <time>2023-03-19T10:41:53.507Z</time>
      </trkpt>
      <trkpt lat="44.78673" lon="20.41069">
        <ele>121.681304</ele>
        <time>2023-03-19T10:41:55.505Z</time>
      </trkpt>
      <trkpt lat="44.78671" lon="20.41083">
        <ele>121.722494</ele>
        <time>2023-03-19T10:41:57.485Z</time>
      </trkpt>
      <trkpt lat="44.7867" lon="20.41097">
        <ele>121.764198</ele>
        <time>2023-03-19T10:41:59.492Z</time>
      </trkpt>
      <trkpt lat="44.78673" lon="20.4111">
        <ele>121.806968</ele>
        <time>2023-03-19T10:42:01.488Z</time>
      </trkpt>
      <trkpt lat="44.78683" lon="20.41117">
        <ele>121.852362</ele>
        <time>2023-03-19T10:42:04.488Z</time>
      </trkpt>
      <trkpt lat="44.78691" lon="20.41127">
        <ele>121.896431</ele>
        <time>2023-03-19T10:42:07.488Z</time>
      </trkpt>
      <trkpt lat="44.78692" lon="20.41144">
        <ele>121.949375</ele>
        <time>2023-03-19T10:42:10.492Z</time>
      </trkpt>
      <trkpt lat="44.78695" lon="20.41163">
        <ele>122.00555</ele>
        <time>2023-03-19T10:42:13.509Z</time>
      </trkpt>
      <trkpt lat="44.78698" lon="20.41175">
        <ele>122.045061</ele>
        <time>2023-03-19T10:42:15.512Z</time>
      </trkpt>
      <trkpt lat="44.78701" lon="20.41189">
        <ele>122.089432</ele>
        <time>2023-03-19T10:42:17.505Z</time>
      </trkpt>
      <trkpt lat="44.78702" lon="20.41203">
        <ele>122.132319</ele>
        <time>2023-03-19T10:42:19.486Z</time>
      </trkpt>
      <trkpt lat="44.78703" lon="20.41219">
        <ele>122.180038</ele>
        <time>2023-03-19T10:42:21.503Z</time>
      </trkpt>
      <trkpt lat="44.78705" lon="20.41233">
        <ele>122.222852</ele>
        <time>2023-03-19T10:42:23.507Z</time>
      </trkpt>
      <trkpt lat="44.78707" lon="20.41251">
        <ele>122.276795</ele>
        <time>2023-03-19T10:42:26.511Z</time>
      </trkpt>
      <trkpt lat="44.78709" lon="20.41263">
        <ele>122.316008</ele>
        <time>2023-03-19T10:42:29.505Z</time>
      </trkpt>
      <trkpt lat="44.78712" lon="20.41279">
        <ele>122.364035</ele>
        <time>2023-03-19T10:42:33.490Z</time>
      </trkpt>
      <trkpt lat="44.78713" lon="20.41295">
        <ele>122.393265</ele>
        <time>2023-03-19T10:42:36.484Z</time>
      </trkpt>
      <trkpt lat="44.78714" lon="20.41312">
        <ele>122.314332</ele>
        <time>2023-03-19T10:42:39.508Z</time>
      </trkpt>
      <trkpt lat="44.78716" lon="20.41327">
        <ele>122.246597</ele>
        <time>2023-03-19T10:42:42.502Z</time>
      </trkpt>
      <trkpt lat="44.78717" lon="20.41345">
        <ele>122.164153</ele>
        <time>2023-03-19T10:42:45.493Z</time>
      </trkpt>
      <trkpt lat="44.78719" lon="20.41358">
        <ele>122.103382</ele>
        <time>2023-03-19T10:42:47.502Z</time>
      </trkpt>
      <trkpt lat="44.78721" lon="20.41371">
        <ele>122.040896</ele>
        <time>2023-03-19T10:42:49.498Z</time>
      </trkpt>
      <trkpt lat="44.78723" lon="20.41385">
        <ele>121.976059</ele>
        <time>2023-03-19T10:42:51.501Z</time>
      </trkpt>
      <trkpt lat="44.78725" lon="20.41399">
        <ele>121.912406</ele>
        <time>2023-03-19T10:42:53.502Z</time>
      </trkpt>
      <trkpt lat="44.78729" lon="20.41413">
        <ele>121.842485</ele>
        <time>2023-03-19T10:42:55.510Z</time>
      </trkpt>
      <trkpt lat="44.78732" lon="20.41427">
        <ele>121.77604</ele>
        <time>2023-03-19T10:42:57.491Z</time>
      </trkpt>
      <trkpt lat="44.78737" lon="20.4144">
        <ele>121.707704</ele>
        <time>2023-03-19T10:42:59.501Z</time>
      </trkpt>
      <trkpt lat="44.78741" lon="20.41454">
        <ele>121.640276</ele>
        <time>2023-03-19T10:43:01.504Z</time>
      </trkpt>
      <trkpt lat="44.78745" lon="20.41467">
        <ele>121.572752</ele>
        <time>2023-03-19T10:43:03.507Z</time>
      </trkpt>
      <trkpt lat="44.7875" lon="20.4148">
        <ele>121.504656</ele>
        <time>2023-03-19T10:43:05.505Z</time>
      </trkpt>
      <trkpt lat="44.78755" lon="20.41492">
        <ele>121.44433</ele>
        <time>2023-03-19T10:43:07.502Z</time>
      </trkpt>
      <trkpt lat="44.7876" lon="20.41504">
        <ele>121.383449</ele>
        <time>2023-03-19T10:43:09.490Z</time>
      </trkpt>
      <trkpt lat="44.78766" lon="20.41516">
        <ele>121.314605</ele>
        <time>2023-03-19T10:43:11.503Z</time>
      </trkpt>
      <trkpt lat="44.78771" lon="20.41528">
        <ele>121.25161</ele>
        <time>2023-03-19T10:43:13.489Z</time>
      </trkpt>
      <trkpt lat="44.78776" lon="20.41542">
        <ele>121.158263</ele>
        <time>2023-03-19T10:43:17.497Z</time>
      </trkpt>
      <trkpt lat="44.78784" lon="20.41551">
        <ele>121.073445</ele>
        <time>2023-03-19T10:43:20.493Z</time>
      </trkpt>
      <trkpt lat="44.78797" lon="20.41552">
        <ele>120.95639</ele>
        <time>2023-03-19T10:43:23.495Z</time>
      </trkpt>
      <trkpt lat="44.78809" lon="20.41553">
        <ele>120.85861</ele>
        <time>2023-03-19T10:43:25.488Z</time>
      </trkpt>
      <trkpt lat="44.78822" lon="20.41556">
        <ele>120.749929</ele>
        <time>2023-03-19T10:43:27.487Z</time>
      </trkpt>
      <trkpt lat="44.78835" lon="20.41557">
        <ele>120.638553</ele>
        <time>2023-03-19T10:43:29.502Z</time>
      </trkpt>
      <trkpt lat="44.78849" lon="20.41556">
        <ele>120.523986</ele>
        <time>2023-03-19T10:43:31.488Z</time>
      </trkpt>
      <trkpt lat="44.78862" lon="20.41552">
        <ele>120.40581</ele>
        <time>2023-03-19T10:43:33.497Z</time>
      </trkpt>
      <trkpt lat="44.78875" lon="20.41545">
        <ele>120.288114</ele>
        <time>2023-03-19T10:43:35.492Z</time>
      </trkpt>
      <trkpt lat="44.78887" lon="20.41534">
        <ele>120.173188</ele>
        <time>2023-03-19T10:43:37.483Z</time>
      </trkpt>
      <trkpt lat="44.78897" lon="20.41522">
        <ele>120.062719</ele>
        <time>2023-03-19T10:43:39.506Z</time>
      </trkpt>
      <trkpt lat="44.78905" lon="20.41507">
        <ele>119.95266</ele>
        <time>2023-03-19T10:43:41.504Z</time>
      </trkpt>
      <trkpt lat="44.78911" lon="20.41492">
        <ele>119.844073</ele>
        <time>2023-03-19T10:43:43.506Z</time>
      </trkpt>
      <trkpt lat="44.78917" lon="20.41473">
        <ele>119.744653</ele>
        <time>2023-03-19T10:43:45.508Z</time>
      </trkpt>
      <trkpt lat="44.78924" lon="20.41456">
        <ele>119.827605</ele>
        <time>2023-03-19T10:43:47.504Z</time>
      </trkpt>
      <trkpt lat="44.78931" lon="20.41445">
        <ele>119.890083</ele>
        <time>2023-03-19T10:43:49.501Z</time>
      </trkpt>
      <trkpt lat="44.78944" lon="20.41442">
        <ele>119.966401</ele>
        <time>2023-03-19T10:43:52.501Z</time>
      </trkpt>
      <trkpt lat="44.78953" lon="20.41438">
        <ele>120.020113</ele>
        <time>2023-03-19T10:43:54.499Z</time>
      </trkpt>
      <trkpt lat="44.78963" lon="20.41426">
        <ele>120.098414</ele>
        <time>2023-03-19T10:43:57.491Z</time>
      </trkpt>
      <trkpt lat="44.78969" lon="20.41417">
        <ele>120.153884</ele>
        <time>2023-03-19T10:44:00.496Z</time>
      </trkpt>
      <trkpt lat="44.78976" lon="20.4143">
        <ele>120.221856</ele>
        <time>2023-03-19T10:44:04.489Z</time>
      </trkpt>
      <trkpt lat="44.78979" lon="20.41445">
        <ele>120.284138</ele>
        <time>2023-03-19T10:44:07.505Z</time>
      </trkpt>
      <trkpt lat="44.7898" lon="20.41463">
        <ele>120.35976</ele>
        <time>2023-03-19T10:44:10.496Z</time>
      </trkpt>
      <trkpt lat="44.78978" lon="20.41475">
        <ele>120.413799</ele>
        <time>2023-03-19T10:44:12.498Z</time>
      </trkpt>
      <trkpt lat="44.78972" lon="20.41489">
        <ele>120.483486</ele>
        <time>2023-03-19T10:44:14.506Z</time>
      </trkpt>
      <trkpt lat="44.7897" lon="20.41502">
        <ele>120.538209</ele>
        <time>2023-03-19T10:44:16.510Z</time>
      </trkpt>
      <trkpt lat="44.78968" lon="20.41515">
        <ele>120.591178</ele>
        <time>2023-03-19T10:44:18.500Z</time>
      </trkpt>
      <trkpt lat="44.78966" lon="20.41528">
        <ele>120.648215</ele>
        <time>2023-03-19T10:44:20.519Z</time>
      </trkpt>
      <trkpt lat="44.78965" lon="20.41542">
        <ele>120.706578</ele>
        <time>2023-03-19T10:44:22.510Z</time>
      </trkpt>
      <trkpt lat="44.78965" lon="20.41556">
        <ele>120.765727</ele>
        <time>2023-03-19T10:44:24.518Z</time>
      </trkpt>
      <trkpt lat="44.78965" lon="20.41571">
        <ele>120.76865</ele>
        <time>2023-03-19T10:44:26.503Z</time>
      </trkpt>
      <trkpt lat="44.78965" lon="20.41585">
        <ele>120.73096</ele>
        <time>2023-03-19T10:44:28.505Z</time>
      </trkpt>
      <trkpt lat="44.78968" lon="20.41601">
        <ele>120.684866</ele>
        <time>2023-03-19T10:44:31.507Z</time>
      </trkpt>
      <trkpt lat="44.7897" lon="20.41616">
        <ele>120.64343</ele>
        <time>2023-03-19T10:44:35.503Z</time>
      </trkpt>
      <trkpt lat="44.7896" lon="20.41627">
        <ele>120.593887</ele>
        <time>2023-03-19T10:44:41.495Z</time>
      </trkpt>
      <trkpt lat="44.78947" lon="20.41632">
        <ele>120.543611</ele>
        <time>2023-03-19T10:44:43.504Z</time>
      </trkpt>
      <trkpt lat="44.78935" lon="20.41634">
        <ele>120.495576</ele>
        <time>2023-03-19T10:44:45.490Z</time>
      </trkpt>
      <trkpt lat="44.78924" lon="20.41634">
        <ele>120.452762</ele>
        <time>2023-03-19T10:44:47.497Z</time>
      </trkpt>
      <trkpt lat="44.78912" lon="20.41635">
        <ele>120.409867</ele>
        <time>2023-03-19T10:44:49.508Z</time>
      </trkpt>
      <trkpt lat="44.78901" lon="20.41637">
        <ele>120.367525</ele>
        <time>2023-03-19T10:44:51.505Z</time>
      </trkpt>
      <trkpt lat="44.78891" lon="20.41643">
        <ele>120.323922</ele>
        <time>2023-03-19T10:44:53.482Z</time>
      </trkpt>
      <trkpt lat="44.78881" lon="20.41651">
        <ele>120.281965</ele>
        <time>2023-03-19T10:44:55.502Z</time>
      </trkpt>
      <trkpt lat="44.78874" lon="20.41663">
        <ele>120.238858</ele>
        <time>2023-03-19T10:44:57.501Z</time>
      </trkpt>
      <trkpt lat="44.7887" lon="20.41677">
        <ele>120.197935</ele>
        <time>2023-03-19T10:44:59.494Z</time>
      </trkpt>
      <trkpt lat="44.78866" lon="20.41692">
        <ele>120.156509</ele>
        <time>2023-03-19T10:45:01.508Z</time>
      </trkpt>
      <trkpt lat="44.78862" lon="20.41707">
        <ele>120.112682</ele>
        <time>2023-03-19T10:45:03.491Z</time>
      </trkpt>
      <trkpt lat="44.78858" lon="20.41721">
        <ele>120.213618</ele>
        <time>2023-03-19T10:45:05.506Z</time>
      </trkpt>
      <trkpt lat="44.78854" lon="20.41737">
        <ele>120.353144</ele>
        <time>2023-03-19T10:45:07.497Z</time>
      </trkpt>
      <trkpt lat="44.7885" lon="20.41751">
        <ele>120.490938</ele>
        <time>2023-03-19T10:45:09.499Z</time>
      </trkpt>
      <trkpt lat="44.78845" lon="20.41766">
        <ele>120.631599</ele>
        <time>2023-03-19T10:45:11.502Z</time>
      </trkpt>
      <trkpt lat="44.78843" lon="20.41781">
        <ele>120.763587</ele>
        <time>2023-03-19T10:45:13.503Z</time>
      </trkpt>
      <trkpt lat="44.78845" lon="20.41795">
        <ele>120.890002</ele>
        <time>2023-03-19T10:45:15.494Z</time>
      </trkpt>
      <trkpt lat="44.78849" lon="20.41808">
        <ele>121.013659</ele>
        <time>2023-03-19T10:45:17.480Z</time>
      </trkpt>
      <trkpt lat="44.78854" lon="20.4182">
        <ele>121.130804</ele>
        <time>2023-03-19T10:45:19.494Z</time>
      </trkpt>
      <trkpt lat="44.78859" lon="20.41836">
        <ele>121.284222</ele>
        <time>2023-03-19T10:45:22.508Z</time>
      </trkpt>
      <trkpt lat="44.78863" lon="20.41848">
        <ele>121.399715</ele>
        <time>2023-03-19T10:45:24.497Z</time>
      </trkpt>
      <trkpt lat="44.78868" lon="20.4186">
        <ele>121.519709</ele>
        <time>2023-03-19T10:45:26.485Z</time>
      </trkpt>
      <trkpt lat="44.78871" lon="20.41873">
        <ele>121.639021</ele>
        <time>2023-03-19T10:45:28.503Z</time>
      </trkpt>
      <trkpt lat="44.78876" lon="20.41885">
        <ele>121.75902</ele>
        <time>2023-03-19T10:45:30.499Z</time>
      </trkpt>
      <trkpt lat="44.78881" lon="20.41899">
        <ele>121.891412</ele>
        <time>2023-03-19T10:45:32.485Z</time>
      </trkpt>
      <trkpt lat="44.78885" lon="20.41915">
        <ele>122.039896</ele>
        <time>2023-03-19T10:45:34.507Z</time>
      </trkpt>
      <trkpt lat="44.78885" lon="20.41932">
        <ele>122.184649</ele>
        <time>2023-03-19T10:45:36.495Z</time>
      </trkpt>
      <trkpt lat="44.78885" lon="20.41945">
        <ele>122.301166</ele>
        <time>2023-03-19T10:45:38.490Z</time>
      </trkpt>
      <trkpt lat="44.78885" lon="20.41964">
        <ele>122.379142</ele>
        <time>2023-03-19T10:45:41.492Z</time>
      </trkpt>
      <trkpt lat="44.78885" lon="20.41983">
        <ele>122.460846</ele>
        <time>2023-03-19T10:45:44.506Z</time>
      </trkpt>
      <trkpt lat="44.78889" lon="20.41996">
        <ele>122.518979</ele>
        <time>2023-03-19T10:45:46.505Z</time>
      </trkpt>
      <trkpt lat="44.78892" lon="20.42009">
        <ele>122.576915</ele>
        <time>2023-03-19T10:45:48.483Z</time>
      </trkpt>
      <trkpt lat="44.78896" lon="20.42022">
        <ele>122.636306</ele>
        <time>2023-03-19T10:45:50.489Z</time>
      </trkpt>
      <trkpt lat="44.78901" lon="20.42034">
        <ele>122.695125</ele>
        <time>2023-03-19T10:45:52.497Z</time>
      </trkpt>
      <trkpt lat="44.78906" lon="20.42046">
        <ele>122.749764</ele>
        <time>2023-03-19T10:45:54.492Z</time>
      </trkpt>
      <trkpt lat="44.78911" lon="20.42057">
        <ele>122.808206</ele>
        <time>2023-03-19T10:45:56.503Z</time>
      </trkpt>
      <trkpt lat="44.78916" lon="20.4207">
        <ele>122.86855</ele>
        <time>2023-03-19T10:45:58.486Z</time>
      </trkpt>
      <trkpt lat="44.78922" lon="20.42082">
        <ele>122.931464</ele>
        <time>2023-03-19T10:46:00.504Z</time>
      </trkpt>
      <trkpt lat="44.78928" lon="20.42095">
        <ele>122.996714</ele>
        <time>2023-03-19T10:46:02.486Z</time>
      </trkpt>
      <trkpt lat="44.78934" lon="20.42109">
        <ele>123.065422</ele>
        <time>2023-03-19T10:46:04.506Z</time>
      </trkpt>
      <trkpt lat="44.78941" lon="20.42123">
        <ele>123.137548</ele>
        <time>2023-03-19T10:46:06.493Z</time>
      </trkpt>
      <trkpt lat="44.78947" lon="20.42136">
        <ele>123.203518</ele>
        <time>2023-03-19T10:46:08.508Z</time>
      </trkpt>
      <trkpt lat="44.78954" lon="20.42149">
        <ele>123.271891</ele>
        <time>2023-03-19T10:46:10.511Z</time>
      </trkpt>
      <trkpt lat="44.78961" lon="20.42163">
        <ele>123.344024</ele>
        <time>2023-03-19T10:46:12.502Z</time>
      </trkpt>
      <trkpt lat="44.78969" lon="20.42175">
        <ele>123.430553</ele>
        <time>2023-03-19T10:46:14.503Z</time>
      </trkpt>
      <trkpt lat="44.78976" lon="20.42188">
        <ele>123.521093</ele>
        <time>2023-03-19T10:46:16.503Z</time>
      </trkpt>
      <trkpt lat="44.78983" lon="20.42198">
        <ele>123.607314</ele>
        <time>2023-03-19T10:46:18.508Z</time>
      </trkpt>
      <trkpt lat="44.78991" lon="20.42209">
        <ele>123.695815</ele>
        <time>2023-03-19T10:46:20.498Z</time>
      </trkpt>
      <trkpt lat="44.78999" lon="20.4222">
        <ele>123.784109</ele>
        <time>2023-03-19T10:46:22.509Z</time>
      </trkpt>
      <trkpt lat="44.79008" lon="20.42231">
        <ele>123.878854</ele>
        <time>2023-03-19T10:46:24.506Z</time>
      </trkpt>
      <trkpt lat="44.79015" lon="20.42243">
        <ele>123.969668</ele>
        <time>2023-03-19T10:46:26.509Z</time>
      </trkpt>
      <trkpt lat="44.79023" lon="20.42254">
        <ele>124.059772</ele>
        <time>2023-03-19T10:46:28.500Z</time>
      </trkpt>
      <trkpt lat="44.79032" lon="20.42266">
        <ele>124.154707</ele>
        <time>2023-03-19T10:46:30.500Z</time>
      </trkpt>
      <trkpt lat="44.79039" lon="20.42277">
        <ele>124.244792</ele>
        <time>2023-03-19T10:46:32.481Z</time>
      </trkpt>
      <trkpt lat="44.79047" lon="20.4229">
        <ele>124.336368</ele>
        <time>2023-03-19T10:46:34.510Z</time>
      </trkpt>
      <trkpt lat="44.79055" lon="20.42302">
        <ele>124.432662</ele>
        <time>2023-03-19T10:46:36.509Z</time>
      </trkpt>
      <trkpt lat="44.79063" lon="20.42314">
        <ele>124.524958</ele>
        <time>2023-03-19T10:46:38.508Z</time>
      </trkpt>
      <trkpt lat="44.79071" lon="20.42325">
        <ele>124.618224</ele>
        <time>2023-03-19T10:46:40.507Z</time>
      </trkpt>
      <trkpt lat="44.79081" lon="20.42336">
        <ele>124.715586</ele>
        <time>2023-03-19T10:46:42.500Z</time>
      </trkpt>
      <trkpt lat="44.79089" lon="20.42345">
        <ele>124.801923</ele>
        <time>2023-03-19T10:46:44.499Z</time>
      </trkpt>
      <trkpt lat="44.79097" lon="20.42354">
        <ele>124.843608</ele>
        <time>2023-03-19T10:46:46.506Z</time>
      </trkpt>
      <trkpt lat="44.79107" lon="20.42366">
        <ele>124.891958</ele>
        <time>2023-03-19T10:46:49.481Z</time>
      </trkpt>
      <trkpt lat="44.79114" lon="20.42375">
        <ele>124.924728</ele>
        <time>2023-03-19T10:46:51.508Z</time>
      </trkpt>
      <trkpt lat="44.79123" lon="20.42389">
        <ele>124.973058</ele>
        <time>2023-03-19T10:46:54.500Z</time>
      </trkpt>
      <trkpt lat="44.7913" lon="20.42398">
        <ele>125.00645</ele>
        <time>2023-03-19T10:46:56.505Z</time>
      </trkpt>
      <trkpt lat="44.79136" lon="20.42408">
        <ele>125.039644</ele>
        <time>2023-03-19T10:46:58.509Z</time>
      </trkpt>
      <trkpt lat="44.79142" lon="20.42418">
        <ele>125.072643</ele>
        <time>2023-03-19T10:47:00.504Z</time>
      </trkpt>
      <trkpt lat="44.79149" lon="20.4243">
        <ele>125.11439</ele>
        <time>2023-03-19T10:47:03.483Z</time>
      </trkpt>
      <trkpt lat="44.79153" lon="20.42446">
        <ele>125.157691</ele>
        <time>2023-03-19T10:47:06.497Z</time>
      </trkpt>
      <trkpt lat="44.79152" lon="20.42461">
        <ele>125.19479</ele>
        <time>2023-03-19T10:47:08.483Z</time>
      </trkpt>
      <trkpt lat="44.79155" lon="20.42475">
        <ele>125.23369</ele>
        <time>2023-03-19T10:47:10.506Z</time>
      </trkpt>
      <trkpt lat="44.79162" lon="20.42489">
        <ele>125.276363</ele>
        <time>2023-03-19T10:47:12.499Z</time>
      </trkpt>
      <trkpt lat="44.79169" lon="20.42502">
        <ele>125.318536</ele>
        <time>2023-03-19T10:47:14.494Z</time>
      </trkpt>
      <trkpt lat="44.79176" lon="20.42515">
        <ele>125.360171</ele>
        <time>2023-03-19T10:47:16.499Z</time>
      </trkpt>
      <trkpt lat="44.79181" lon="20.42528">
        <ele>125.39872</ele>
        <time>2023-03-19T10:47:18.495Z</time>
      </trkpt>
      <trkpt lat="44.79189" lon="20.4254">
        <ele>125.439453</ele>
        <time>2023-03-19T10:47:20.486Z</time>
      </trkpt>
      <trkpt lat="44.79194" lon="20.42551">
        <ele>125.381678</ele>
        <time>2023-03-19T10:47:22.502Z</time>
      </trkpt>
      <trkpt lat="44.79199" lon="20.42562">
        <ele>125.209183</ele>
        <time>2023-03-19T10:47:24.502Z</time>
      </trkpt>
      <trkpt lat="44.79205" lon="20.42572">
        <ele>125.042076</ele>
        <time>2023-03-19T10:47:26.510Z</time>
      </trkpt>
      <trkpt lat="44.79212" lon="20.42586">
        <ele>124.819727</ele>
        <time>2023-03-19T10:47:29.506Z</time>
      </trkpt>
      <trkpt lat="44.79221" lon="20.426">
        <ele>124.579361</ele>
        <time>2023-03-19T10:47:32.507Z</time>
      </trkpt>
      <trkpt lat="44.79228" lon="20.4261">
        <ele>124.388167</ele>
        <time>2023-03-19T10:47:34.508Z</time>
      </trkpt>
      <trkpt lat="44.79236" lon="20.42622">
        <ele>124.170232</ele>
        <time>2023-03-19T10:47:36.489Z</time>
      </trkpt>
      <trkpt lat="44.79245" lon="20.42635">
        <ele>123.931449</ele>
        <time>2023-03-19T10:47:38.515Z</time>
      </trkpt>
      <trkpt lat="44.79257" lon="20.42645">
        <ele>123.672667</ele>
        <time>2023-03-19T10:47:40.508Z</time>
      </trkpt>
      <trkpt lat="44.79271" lon="20.42655">
        <ele>123.389061</ele>
        <time>2023-03-19T10:47:42.491Z</time>
      </trkpt>
      <trkpt lat="44.79284" lon="20.42667">
        <ele>123.10552</ele>
        <time>2023-03-19T10:47:44.507Z</time>
      </trkpt>
      <trkpt lat="44.79296" lon="20.42681">
        <ele>122.820491</ele>
        <time>2023-03-19T10:47:46.484Z</time>
      </trkpt>
      <trkpt lat="44.79305" lon="20.42696">
        <ele>122.566032</ele>
        <time>2023-03-19T10:47:48.482Z</time>
      </trkpt>
      <trkpt lat="44.79313" lon="20.42709">
        <ele>122.348659</ele>
        <time>2023-03-19T10:47:50.492Z</time>
      </trkpt>
      <trkpt lat="44.79321" lon="20.42722">
        <ele>122.146331</ele>
        <time>2023-03-19T10:47:52.503Z</time>
      </trkpt>
      <trkpt lat="44.7933" lon="20.42735">
        <ele>122.106537</ele>
        <time>2023-03-19T10:47:54.504Z</time>
      </trkpt>
      <trkpt lat="44.79339" lon="20.42749">
        <ele>122.063376</ele>
        <time>2023-03-19T10:47:56.500Z</time>
      </trkpt>
      <trkpt lat="44.79348" lon="20.42764">
        <ele>122.019164</ele>
        <time>2023-03-19T10:47:58.504Z</time>
      </trkpt>
      <trkpt lat="44.79356" lon="20.42781">
        <ele>121.973857</ele>
        <time>2023-03-19T10:48:00.508Z</time>
      </trkpt>
      <trkpt lat="44.79362" lon="20.42797">
        <ele>121.931991</ele>
        <time>2023-03-19T10:48:02.504Z</time>
      </trkpt>
      <trkpt lat="44.79369" lon="20.4281">
        <ele>121.896065</ele>
        <time>2023-03-19T10:48:04.510Z</time>
      </trkpt>
      <trkpt lat="44.79376" lon="20.42822">
        <ele>121.861266</ele>
        <time>2023-03-19T10:48:06.496Z</time>
      </trkpt>
      <trkpt lat="44.79383" lon="20.42833">
        <ele>121.828394</ele>
        <time>2023-03-19T10:48:08.505Z</time>
      </trkpt>
      <trkpt lat="44.79391" lon="20.42843">
        <ele>121.797007</ele>
        <time>2023-03-19T10:48:10.508Z</time>
      </trkpt>
      <trkpt lat="44.79398" lon="20.42855">
        <ele>121.759578</ele>
        <time>2023-03-19T10:48:13.513Z</time>
      </trkpt>
      <trkpt lat="44.79405" lon="20.42866">
        <ele>121.728121</ele>
        <time>2023-03-19T10:48:16.508Z</time>
      </trkpt>
      <trkpt lat="44.79412" lon="20.42878">
        <ele>121.694186</ele>
        <time>2023-03-19T10:48:19.485Z</time>
      </trkpt>
      <trkpt lat="44.79422" lon="20.42886">
        <ele>121.657617</ele>
        <time>2023-03-19T10:48:22.485Z</time>
      </trkpt>
      <trkpt lat="44.79432" lon="20.42895">
        <ele>121.618925</ele>
        <time>2023-03-19T10:48:25.504Z</time>
      </trkpt>
      <trkpt lat="44.7944" lon="20.42909">
        <ele>121.597843</ele>
        <time>2023-03-19T10:48:28.502Z</time>
      </trkpt>
      <trkpt lat="44.79449" lon="20.42924">
        <ele>121.701426</ele>
        <time>2023-03-19T10:48:31.501Z</time>
      </trkpt>
      <trkpt lat="44.79455" lon="20.42934">
        <ele>121.772575</ele>
        <time>2023-03-19T10:48:33.492Z</time>
      </trkpt>
      <trkpt lat="44.79462" lon="20.42944">
        <ele>121.843543</ele>
        <time>2023-03-19T10:48:35.484Z</time>
      </trkpt>
      <trkpt lat="44.79467" lon="20.42954">
        <ele>121.910891</ele>
        <time>2023-03-19T10:48:37.513Z</time>
      </trkpt>
      <trkpt lat="44.79473" lon="20.42964">
        <ele>121.979387</ele>
        <time>2023-03-19T10:48:39.497Z</time>
      </trkpt>
      <trkpt lat="44.79482" lon="20.42973">
        <ele>122.059391</ele>
        <time>2023-03-19T10:48:41.499Z</time>
      </trkpt>
      <trkpt lat="44.79489" lon="20.42983">
        <ele>122.134943</ele>
        <time>2023-03-19T10:48:43.505Z</time>
      </trkpt>
      <trkpt lat="44.79495" lon="20.42993">
        <ele>122.204963</ele>
        <time>2023-03-19T10:48:45.506Z</time>
      </trkpt>
      <trkpt lat="44.79502" lon="20.43004">
        <ele>122.277493</ele>
        <time>2023-03-19T10:48:47.496Z</time>
      </trkpt>
      <trkpt lat="44.79509" lon="20.43015">
        <ele>122.361224</ele>
        <time>2023-03-19T10:48:50.507Z</time>
      </trkpt>
      <trkpt lat="44.79518" lon="20.43027">
        <ele>122.450129</ele>
        <time>2023-03-19T10:48:53.506Z</time>
      </trkpt>
      <trkpt lat="44.79525" lon="20.43041">
        <ele>122.540117</ele>
        <time>2023-03-19T10:48:56.510Z</time>
      </trkpt>
      <trkpt lat="44.79533" lon="20.43055">
        <ele>122.63447</ele>
        <time>2023-03-19T10:48:59.510Z</time>
      </trkpt>
      <trkpt lat="44.7954" lon="20.43065">
        <ele>122.708276</ele>
        <time>2023-03-19T10:49:01.481Z</time>
      </trkpt>
      <trkpt lat="44.79545" lon="20.43076">
        <ele>122.776418</ele>
        <time>2023-03-19T10:49:03.507Z</time>
      </trkpt>
      <trkpt lat="44.79551" lon="20.43086">
        <ele>122.844635</ele>
        <time>2023-03-19T10:49:05.506Z</time>
      </trkpt>
      <trkpt lat="44.79557" lon="20.43097">
        <ele>122.917086</ele>
        <time>2023-03-19T10:49:07.482Z</time>
      </trkpt>
      <trkpt lat="44.79562" lon="20.43108">
        <ele>122.90981</ele>
        <time>2023-03-19T10:49:09.495Z</time>
      </trkpt>
      <trkpt lat="44.79569" lon="20.4312">
        <ele>122.901116</ele>
        <time>2023-03-19T10:49:11.511Z</time>
      </trkpt>
      <trkpt lat="44.79574" lon="20.43132">
        <ele>122.89282</ele>
        <time>2023-03-19T10:49:13.490Z</time>
      </trkpt>
      <trkpt lat="44.7958" lon="20.43144">
        <ele>122.884238</ele>
        <time>2023-03-19T10:49:15.504Z</time>
      </trkpt>
      <trkpt lat="44.79586" lon="20.43157">
        <ele>122.875745</ele>
        <time>2023-03-19T10:49:17.500Z</time>
      </trkpt>
      <trkpt lat="44.79592" lon="20.43169">
        <ele>122.867168</ele>
        <time>2023-03-19T10:49:19.486Z</time>
      </trkpt>
      <trkpt lat="44.79597" lon="20.43181">
        <ele>122.858746</ele>
        <time>2023-03-19T10:49:21.500Z</time>
      </trkpt>
      <trkpt lat="44.79602" lon="20.43193">
        <ele>122.850937</ele>
        <time>2023-03-19T10:49:23.490Z</time>
      </trkpt>
      <trkpt lat="44.79609" lon="20.43205">
        <ele>122.841729</ele>
        <time>2023-03-19T10:49:25.508Z</time>
      </trkpt>
      <trkpt lat="44.79615" lon="20.43215">
        <ele>122.833894</ele>
        <time>2023-03-19T10:49:27.490Z</time>
      </trkpt>
      <trkpt lat="44.79621" lon="20.43228">
        <ele>122.825444</ele>
        <time>2023-03-19T10:49:29.511Z</time>
      </trkpt>
      <trkpt lat="44.79627" lon="20.43241">
        <ele>122.81606</ele>
        <time>2023-03-19T10:49:31.483Z</time>
      </trkpt>
      <trkpt lat="44.79633" lon="20.43254">
        <ele>122.807292</ele>
        <time>2023-03-19T10:49:33.499Z</time>
      </trkpt>
      <trkpt lat="44.7964" lon="20.43266">
        <ele>122.798237</ele>
        <time>2023-03-19T10:49:35.502Z</time>
      </trkpt>
      <trkpt lat="44.79646" lon="20.43279">
        <ele>122.789565</ele>
        <time>2023-03-19T10:49:37.489Z</time>
      </trkpt>
      <trkpt lat="44.79652" lon="20.43291">
        <ele>122.781177</ele>
        <time>2023-03-19T10:49:39.494Z</time>
      </trkpt>
      <trkpt lat="44.79658" lon="20.43304">
        <ele>122.771739</ele>
        <time>2023-03-19T10:49:41.491Z</time>
      </trkpt>
      <trkpt lat="44.79664" lon="20.43318">
        <ele>122.823375</ele>
        <time>2023-03-19T10:49:43.505Z</time>
      </trkpt>
      <trkpt lat="44.7967" lon="20.43331">
        <ele>122.88007</ele>
        <time>2023-03-19T10:49:45.507Z</time>
      </trkpt>
      <trkpt lat="44.79677" lon="20.43344">
        <ele>122.937334</ele>
        <time>2023-03-19T10:49:47.509Z</time>
      </trkpt>
      <trkpt lat="44.79684" lon="20.43357">
        <ele>122.992817</ele>
        <time>2023-03-19T10:49:49.508Z</time>
      </trkpt>
      <trkpt lat="44.79689" lon="20.43368">
        <ele>123.04366</ele>
        <time>2023-03-19T10:49:51.507Z</time>
      </trkpt>
      <trkpt lat="44.79694" lon="20.4338">
        <ele>123.091304</ele>
        <time>2023-03-19T10:49:53.508Z</time>
      </trkpt>
      <trkpt lat="44.79698" lon="20.43392">
        <ele>123.139942</ele>
        <time>2023-03-19T10:49:55.513Z</time>
      </trkpt>
      <trkpt lat="44.79704" lon="20.43403">
        <ele>123.186952</ele>
        <time>2023-03-19T10:49:57.502Z</time>
      </trkpt>
      <trkpt lat="44.79711" lon="20.43413">
        <ele>123.238643</ele>
        <time>2023-03-19T10:49:59.504Z</time>
      </trkpt>
      <trkpt lat="44.79717" lon="20.43424">
        <ele>123.289129</ele>
        <time>2023-03-19T10:50:01.483Z</time>
      </trkpt>
      <trkpt lat="44.79723" lon="20.43436">
        <ele>123.342</ele>
        <time>2023-03-19T10:50:03.515Z</time>
      </trkpt>
      <trkpt lat="44.7973" lon="20.43449">
        <ele>123.398356</ele>
        <time>2023-03-19T10:50:05.499Z</time>
      </trkpt>
      <trkpt lat="44.79736" lon="20.43461">
        <ele>123.45446</ele>
        <time>2023-03-19T10:50:07.481Z</time>
      </trkpt>
      <trkpt lat="44.79743" lon="20.43474">
        <ele>123.50969</ele>
        <time>2023-03-19T10:50:09.505Z</time>
      </trkpt>
      <trkpt lat="44.7975" lon="20.43486">
        <ele>123.564897</ele>
        <time>2023-03-19T10:50:11.504Z</time>
      </trkpt>
      <trkpt lat="44.79756" lon="20.43499">
        <ele>123.620371</ele>
        <time>2023-03-19T10:50:13.505Z</time>
      </trkpt>
      <trkpt lat="44.79763" lon="20.43512">
        <ele>123.678457</ele>
        <time>2023-03-19T10:50:15.480Z</time>
      </trkpt>
      <trkpt lat="44.79768" lon="20.43525">
        <ele>123.721016</ele>
        <time>2023-03-19T10:50:17.512Z</time>
      </trkpt>
      <trkpt lat="44.79774" lon="20.43538">
        <ele>123.76329</ele>
        <time>2023-03-19T10:50:19.508Z</time>
      </trkpt>
      <trkpt lat="44.79778" lon="20.43552">
        <ele>123.806616</ele>
        <time>2023-03-19T10:50:21.479Z</time>
      </trkpt>
      <trkpt lat="44.79783" lon="20.43566">
        <ele>123.852019</ele>
        <time>2023-03-19T10:50:23.485Z</time>
      </trkpt>
      <trkpt lat="44.7979" lon="20.4358">
        <ele>123.898415</ele>
        <time>2023-03-19T10:50:25.483Z</time>
      </trkpt>
      <trkpt lat="44.79796" lon="20.43592">
        <ele>123.942287</ele>
        <time>2023-03-19T10:50:27.506Z</time>
      </trkpt>
      <trkpt lat="44.79803" lon="20.43606">
        <ele>123.988935</ele>
        <time>2023-03-19T10:50:29.485Z</time>
      </trkpt>
      <trkpt lat="44.7981" lon="20.43619">
        <ele>124.034881</ele>
        <time>2023-03-19T10:50:31.505Z</time>
      </trkpt>
      <trkpt lat="44.79817" lon="20.43632">
        <ele>124.081994</ele>
        <time>2023-03-19T10:50:33.507Z</time>
      </trkpt>
      <trkpt lat="44.79824" lon="20.43645">
        <ele>124.126576</ele>
        <time>2023-03-19T10:50:35.489Z</time>
      </trkpt>
      <trkpt lat="44.79831" lon="20.43658">
        <ele>124.172282</ele>
        <time>2023-03-19T10:50:37.490Z</time>
      </trkpt>
      <trkpt lat="44.79837" lon="20.43671">
        <ele>124.216615</ele>
        <time>2023-03-19T10:50:39.505Z</time>
      </trkpt>
      <trkpt lat="44.79844" lon="20.43684">
        <ele>124.261864</ele>
        <time>2023-03-19T10:50:41.505Z</time>
      </trkpt>
      <trkpt lat="44.79851" lon="20.43696">
        <ele>124.305831</ele>
        <time>2023-03-19T10:50:43.513Z</time>
      </trkpt>
      <trkpt lat="44.79858" lon="20.43708">
        <ele>124.352111</ele>
        <time>2023-03-19T10:50:45.490Z</time>
      </trkpt>
      <trkpt lat="44.79865" lon="20.43721">
        <ele>124.389143</ele>
        <time>2023-03-19T10:50:47.486Z</time>
      </trkpt>
      <trkpt lat="44.79871" lon="20.43733">
        <ele>124.355041</ele>
        <time>2023-03-19T10:50:49.498Z</time>
      </trkpt>
      <trkpt lat="44.79877" lon="20.43744">
        <ele>124.32247</ele>
        <time>2023-03-19T10:50:51.504Z</time>
      </trkpt>
      <trkpt lat="44.79883" lon="20.43755">
        <ele>124.287805</ele>
        <time>2023-03-19T10:50:53.507Z</time>
      </trkpt>
      <trkpt lat="44.79889" lon="20.43767">
        <ele>124.253492</ele>
        <time>2023-03-19T10:50:55.491Z</time>
      </trkpt>
      <trkpt lat="44.79895" lon="20.43781">
        <ele>124.215142</ele>
        <time>2023-03-19T10:50:57.508Z</time>
      </trkpt>
      <trkpt lat="44.79902" lon="20.43793">
        <ele>124.178716</ele>
        <time>2023-03-19T10:50:59.499Z</time>
      </trkpt>
      <trkpt lat="44.7991" lon="20.43805">
        <ele>124.140419</ele>
        <time>2023-03-19T10:51:01.494Z</time>
      </trkpt>
      <trkpt lat="44.79916" lon="20.43818">
        <ele>124.103685</ele>
        <time>2023-03-19T10:51:03.491Z</time>
      </trkpt>
      <trkpt lat="44.79921" lon="20.43831">
        <ele>124.069883</ele>
        <time>2023-03-19T10:51:05.512Z</time>
      </trkpt>
      <trkpt lat="44.79926" lon="20.43843">
        <ele>124.037598</ele>
        <time>2023-03-19T10:51:07.503Z</time>
      </trkpt>
      <trkpt lat="44.79932" lon="20.43856">
        <ele>124.000611</ele>
        <time>2023-03-19T10:51:09.490Z</time>
      </trkpt>
      <trkpt lat="44.79939" lon="20.43868">
        <ele>123.964971</ele>
        <time>2023-03-19T10:51:11.483Z</time>
      </trkpt>
      <trkpt lat="44.79944" lon="20.43881">
        <ele>123.929976</ele>
        <time>2023-03-19T10:51:13.511Z</time>
      </trkpt>
      <trkpt lat="44.79949" lon="20.43894">
        <ele>123.894388</ele>
        <time>2023-03-19T10:51:15.494Z</time>
      </trkpt>
      <trkpt lat="44.79956" lon="20.43907">
        <ele>123.857984</ele>
        <time>2023-03-19T10:51:17.505Z</time>
      </trkpt>
      <trkpt lat="44.79964" lon="20.43919">
        <ele>123.819186</ele>
        <time>2023-03-19T10:51:19.489Z</time>
      </trkpt>
      <trkpt lat="44.79972" lon="20.4393">
        <ele>123.738588</ele>
        <time>2023-03-19T10:51:21.485Z</time>
      </trkpt>
      <trkpt lat="44.7998" lon="20.43941">
        <ele>123.607504</ele>
        <time>2023-03-19T10:51:23.484Z</time>
      </trkpt>
      <trkpt lat="44.79988" lon="20.43951">
        <ele>123.479808</ele>
        <time>2023-03-19T10:51:25.489Z</time>
      </trkpt>
      <trkpt lat="44.79995" lon="20.43962">
        <ele>123.355388</ele>
        <time>2023-03-19T10:51:27.507Z</time>
      </trkpt>
      <trkpt lat="44.80003" lon="20.43972">
        <ele>123.235603</ele>
        <time>2023-03-19T10:51:29.508Z</time>
      </trkpt>
      <trkpt lat="44.80012" lon="20.43982">
        <ele>123.102409</ele>
        <time>2023-03-19T10:51:31.489Z</time>
      </trkpt>
      <trkpt lat="44.8002" lon="20.43992">
        <ele>122.9724</ele>
        <time>2023-03-19T10:51:33.491Z</time>
      </trkpt>
      <trkpt lat="44.80027" lon="20.44003">
        <ele>122.851001</ele>
        <time>2023-03-19T10:51:35.507Z</time>
      </trkpt>
      <trkpt lat="44.80035" lon="20.44017">
        <ele>122.698284</ele>
        <time>2023-03-19T10:51:38.499Z</time>
      </trkpt>
      <trkpt lat="44.80041" lon="20.44028">
        <ele>122.585177</ele>
        <time>2023-03-19T10:51:40.494Z</time>
      </trkpt>
      <trkpt lat="44.80047" lon="20.44039">
        <ele>122.467909</ele>
        <time>2023-03-19T10:51:42.505Z</time>
      </trkpt>
      <trkpt lat="44.80054" lon="20.4405">
        <ele>122.348691</ele>
        <time>2023-03-19T10:51:44.485Z</time>
      </trkpt>
      <trkpt lat="44.80061" lon="20.44061">
        <ele>122.222936</ele>
        <time>2023-03-19T10:51:46.508Z</time>
      </trkpt>
      <trkpt lat="44.80068" lon="20.44073">
        <ele>122.094746</ele>
        <time>2023-03-19T10:51:48.485Z</time>
      </trkpt>
      <trkpt lat="44.80075" lon="20.44085">
        <ele>121.967726</ele>
        <time>2023-03-19T10:51:50.521Z</time>
      </trkpt>
      <trkpt lat="44.80082" lon="20.44096">
        <ele>121.83946</ele>
        <time>2023-03-19T10:51:52.511Z</time>
      </trkpt>
      <trkpt lat="44.80089" lon="20.44108">
        <ele>121.710127</ele>
        <time>2023-03-19T10:51:54.490Z</time>
      </trkpt>
      <trkpt lat="44.80096" lon="20.44119">
        <ele>121.812455</ele>
        <time>2023-03-19T10:51:56.495Z</time>
      </trkpt>
      <trkpt lat="44.80103" lon="20.4413">
        <ele>121.971885</ele>
        <time>2023-03-19T10:51:58.502Z</time>
      </trkpt>
      <trkpt lat="44.80109" lon="20.44139">
        <ele>122.121547</ele>
        <time>2023-03-19T10:52:00.487Z</time>
      </trkpt>
      <trkpt lat="44.80118" lon="20.44152">
        <ele>122.323695</ele>
        <time>2023-03-19T10:52:03.505Z</time>
      </trkpt>
      <trkpt lat="44.80126" lon="20.44167">
        <ele>122.537737</ele>
        <time>2023-03-19T10:52:06.488Z</time>
      </trkpt>
      <trkpt lat="44.80129" lon="20.44181">
        <ele>122.702499</ele>
        <time>2023-03-19T10:52:08.480Z</time>
      </trkpt>
      <trkpt lat="44.80131" lon="20.44195">
        <ele>122.865112</ele>
        <time>2023-03-19T10:52:10.487Z</time>
      </trkpt>
      <trkpt lat="44.80135" lon="20.44207">
        <ele>123.020616</ele>
        <time>2023-03-19T10:52:12.500Z</time>
      </trkpt>
      <trkpt lat="44.8014" lon="20.44219">
        <ele>123.176218</ele>
        <time>2023-03-19T10:52:14.490Z</time>
      </trkpt>
      <trkpt lat="44.80146" lon="20.4423">
        <ele>123.335365</ele>
        <time>2023-03-19T10:52:16.482Z</time>
      </trkpt>
      <trkpt lat="44.80155" lon="20.44243">
        <ele>123.538598</ele>
        <time>2023-03-19T10:52:19.485Z</time>
      </trkpt>
      <trkpt lat="44.80162" lon="20.44257">
        <ele>123.723736</ele>
        <time>2023-03-19T10:52:23.505Z</time>
      </trkpt>
      <trkpt lat="44.80172" lon="20.44269">
        <ele>123.936599</ele>
        <time>2023-03-19T10:52:26.504Z</time>
      </trkpt>
      <trkpt lat="44.8018" lon="20.44276">
        <ele>124.086195</ele>
        <time>2023-03-19T10:52:28.482Z</time>
      </trkpt>
      <trkpt lat="44.80186" lon="20.44286">
        <ele>124.234246</ele>
        <time>2023-03-19T10:52:30.502Z</time>
      </trkpt>
      <trkpt lat="44.80191" lon="20.44303">
        <ele>124.446442</ele>
        <time>2023-03-19T10:52:33.481Z</time>
      </trkpt>
      <trkpt lat="44.80192" lon="20.44321">
        <ele>124.639188</ele>
        <time>2023-03-19T10:52:36.478Z</time>
      </trkpt>
      <trkpt lat="44.80188" lon="20.44337">
        <ele>124.802207</ele>
        <time>2023-03-19T10:52:39.500Z</time>
      </trkpt>
      <trkpt lat="44.8018" lon="20.44351">
        <ele>124.984443</ele>
        <time>2023-03-19T10:52:42.480Z</time>
      </trkpt>
      <trkpt lat="44.80173" lon="20.44361">
        <ele>125.128574</ele>
        <time>2023-03-19T10:52:44.501Z</time>
      </trkpt>
      <trkpt lat="44.80167" lon="20.44372">
        <ele>125.26949</ele>
        <time>2023-03-19T10:52:46.484Z</time>
      </trkpt>
      <trkpt lat="44.80159" lon="20.44387">
        <ele>125.451629</ele>
        <time>2023-03-19T10:52:49.485Z</time>
      </trkpt>
      <trkpt lat="44.80152" lon="20.44403">
        <ele>125.634031</ele>
        <time>2023-03-19T10:52:52.484Z</time>
      </trkpt>
      <trkpt lat="44.80147" lon="20.44413">
        <ele>125.760914</ele>
        <time>2023-03-19T10:52:54.483Z</time>
      </trkpt>
      <trkpt lat="44.80142" lon="20.44424">
        <ele>125.895056</ele>
        <time>2023-03-19T10:52:56.494Z</time>
      </trkpt>
      <trkpt lat="44.80136" lon="20.44436">
        <ele>126.036706</ele>
        <time>2023-03-19T10:52:58.493Z</time>
      </trkpt>
      <trkpt lat="44.8013" lon="20.44448">
        <ele>126.178979</ele>
        <time>2023-03-19T10:53:00.489Z</time>
      </trkpt>
      <trkpt lat="44.80125" lon="20.44459">
        <ele>126.313155</ele>
        <time>2023-03-19T10:53:02.501Z</time>
      </trkpt>
      <trkpt lat="44.80118" lon="20.44469">
        <ele>126.448343</ele>
        <time>2023-03-19T10:53:04.484Z</time>
      </trkpt>
      <trkpt lat="44.80112" lon="20.4448">
        <ele>126.591694</ele>
        <time>2023-03-19T10:53:06.488Z</time>
      </trkpt>
      <trkpt lat="44.80106" lon="20.4449">
        <ele>126.725208</ele>
        <time>2023-03-19T10:53:08.497Z</time>
      </trkpt>
      <trkpt lat="44.80099" lon="20.44504">
        <ele>126.891105</ele>
        <time>2023-03-19T10:53:11.493Z</time>
      </trkpt>
      <trkpt lat="44.8011" lon="20.44514">
        <ele>127.064042</ele>
        <time>2023-03-19T10:53:14.499Z</time>
      </trkpt>
      <trkpt lat="44.80118" lon="20.44521">
        <ele>127.198755</ele>
        <time>2023-03-19T10:53:16.480Z</time>
      </trkpt>
      <trkpt lat="44.80126" lon="20.44527">
        <ele>127.335937</ele>
        <time>2023-03-19T10:53:18.481Z</time>
      </trkpt>
      <trkpt lat="44.80134" lon="20.44535">
        <ele>127.478098</ele>
        <time>2023-03-19T10:53:20.484Z</time>
      </trkpt>
      <trkpt lat="44.80142" lon="20.44543">
        <ele>127.62258</ele>
        <time>2023-03-19T10:53:22.501Z</time>
      </trkpt>
      <trkpt lat="44.8015" lon="20.4455">
        <ele>127.761075</ele>
        <time>2023-03-19T10:53:24.482Z</time>
      </trkpt>
      <trkpt lat="44.80158" lon="20.44558">
        <ele>127.898402</ele>
        <time>2023-03-19T10:53:26.499Z</time>
      </trkpt>
      <trkpt lat="44.80166" lon="20.44571">
        <ele>128.074292</ele>
        <time>2023-03-19T10:53:29.510Z</time>
      </trkpt>
      <trkpt lat="44.80174" lon="20.44579">
        <ele>128.216935</ele>
        <time>2023-03-19T10:53:31.486Z</time>
      </trkpt>
      <trkpt lat="44.80184" lon="20.44591">
        <ele>128.40656</ele>
        <time>2023-03-19T10:53:34.504Z</time>
      </trkpt>
      <trkpt lat="44.80193" lon="20.44605">
        <ele>128.600051</ele>
        <time>2023-03-19T10:53:37.488Z</time>
      </trkpt>
      <trkpt lat="44.80202" lon="20.44613">
        <ele>128.757411</ele>
        <time>2023-03-19T10:53:39.493Z</time>
      </trkpt>
      <trkpt lat="44.80209" lon="20.44624">
        <ele>128.90159</ele>
        <time>2023-03-19T10:53:41.483Z</time>
      </trkpt>
      <trkpt lat="44.80217" lon="20.44632">
        <ele>129.037473</ele>
        <time>2023-03-19T10:53:43.515Z</time>
      </trkpt>
      <trkpt lat="44.80225" lon="20.44645">
        <ele>129.217819</ele>
        <time>2023-03-19T10:53:46.485Z</time>
      </trkpt>
      <trkpt lat="44.80233" lon="20.44652">
        <ele>129.349242</ele>
        <time>2023-03-19T10:53:48.483Z</time>
      </trkpt>
      <trkpt lat="44.80243" lon="20.44665">
        <ele>129.544709</ele>
        <time>2023-03-19T10:53:51.490Z</time>
      </trkpt>
      <trkpt lat="44.80252" lon="20.44678">
        <ele>129.66157</ele>
        <time>2023-03-19T10:53:54.486Z</time>
      </trkpt>
      <trkpt lat="44.8026" lon="20.44686">
        <ele>129.627368</ele>
        <time>2023-03-19T10:53:56.518Z</time>
      </trkpt>
      <trkpt lat="44.80266" lon="20.44696">
        <ele>129.591581</ele>
        <time>2023-03-19T10:53:58.499Z</time>
      </trkpt>
      <trkpt lat="44.80274" lon="20.44707">
        <ele>129.552154</ele>
        <time>2023-03-19T10:54:00.492Z</time>
      </trkpt>
      <trkpt lat="44.8028" lon="20.44719">
        <ele>129.513636</ele>
        <time>2023-03-19T10:54:02.506Z</time>
      </trkpt>
      <trkpt lat="44.80285" lon="20.44729">
        <ele>129.478132</ele>
        <time>2023-03-19T10:54:04.483Z</time>
      </trkpt>
      <trkpt lat="44.80287" lon="20.44743">
        <ele>129.441502</ele>
        <time>2023-03-19T10:54:06.499Z</time>
      </trkpt>
      <trkpt lat="44.80287" lon="20.44757">
        <ele>129.405816</ele>
        <time>2023-03-19T10:54:08.492Z</time>
      </trkpt>
      <trkpt lat="44.80291" lon="20.44769">
        <ele>129.369453</ele>
        <time>2023-03-19T10:54:10.505Z</time>
      </trkpt>
      <trkpt lat="44.80296" lon="20.44782">
        <ele>129.332419</ele>
        <time>2023-03-19T10:54:12.488Z</time>
      </trkpt>
      <trkpt lat="44.80301" lon="20.44794">
        <ele>129.294707</ele>
        <time>2023-03-19T10:54:14.480Z</time>
      </trkpt>
      <trkpt lat="44.80307" lon="20.44806">
        <ele>129.255973</ele>
        <time>2023-03-19T10:54:16.492Z</time>
      </trkpt>
      <trkpt lat="44.80314" lon="20.44817">
        <ele>129.217766</ele>
        <time>2023-03-19T10:54:18.482Z</time>
      </trkpt>
      <trkpt lat="44.80319" lon="20.44828">
        <ele>129.182753</ele>
        <time>2023-03-19T10:54:20.503Z</time>
      </trkpt>
      <trkpt lat="44.80324" lon="20.44841">
        <ele>129.14379</ele>
        <time>2023-03-19T10:54:22.483Z</time>
      </trkpt>
      <trkpt lat="44.8033" lon="20.44851">
        <ele>129.109556</ele>
        <time>2023-03-19T10:54:24.484Z</time>
      </trkpt>
      <trkpt lat="44.80336" lon="20.44861">
        <ele>129.074322</ele>
        <time>2023-03-19T10:54:27.493Z</time>
      </trkpt>
      <trkpt lat="44.80344" lon="20.44875">
        <ele>129.027798</ele>
        <time>2023-03-19T10:54:30.491Z</time>
      </trkpt>
      <trkpt lat="44.80351" lon="20.44886">
        <ele>128.932119</ele>
        <time>2023-03-19T10:54:32.506Z</time>
      </trkpt>
      <trkpt lat="44.80357" lon="20.44897">
        <ele>128.775325</ele>
        <time>2023-03-19T10:54:34.506Z</time>
      </trkpt>
      <trkpt lat="44.80362" lon="20.44909">
        <ele>128.619357</ele>
        <time>2023-03-19T10:54:36.513Z</time>
      </trkpt>
      <trkpt lat="44.80368" lon="20.44921">
        <ele>128.470491</ele>
        <time>2023-03-19T10:54:38.502Z</time>
      </trkpt>
      <trkpt lat="44.80374" lon="20.44932">
        <ele>128.308805</ele>
        <time>2023-03-19T10:54:40.501Z</time>
      </trkpt>
      <trkpt lat="44.8038" lon="20.44942">
        <ele>128.165065</ele>
        <time>2023-03-19T10:54:42.505Z</time>
      </trkpt>
      <trkpt lat="44.80391" lon="20.44954">
        <ele>127.955582</ele>
        <time>2023-03-19T10:54:45.505Z</time>
      </trkpt>
      <trkpt lat="44.80399" lon="20.44964">
        <ele>127.788411</ele>
        <time>2023-03-19T10:54:48.505Z</time>
      </trkpt>
      <trkpt lat="44.80407" lon="20.44975">
        <ele>127.621611</ele>
        <time>2023-03-19T10:54:51.492Z</time>
      </trkpt>
      <trkpt lat="44.80415" lon="20.44983">
        <ele>127.4662</ele>
        <time>2023-03-19T10:54:54.502Z</time>
      </trkpt>
      <trkpt lat="44.80425" lon="20.44978">
        <ele>127.306069</ele>
        <time>2023-03-19T10:54:57.500Z</time>
      </trkpt>
      <trkpt lat="44.80434" lon="20.44965">
        <ele>127.105964</ele>
        <time>2023-03-19T10:55:00.503Z</time>
      </trkpt>
      <trkpt lat="44.8044" lon="20.44955">
        <ele>126.96432</ele>
        <time>2023-03-19T10:55:02.481Z</time>
      </trkpt>
      <trkpt lat="44.80445" lon="20.44944">
        <ele>126.8242</ele>
        <time>2023-03-19T10:55:04.483Z</time>
      </trkpt>
      <trkpt lat="44.8045" lon="20.44933">
        <ele>126.681513</ele>
        <time>2023-03-19T10:55:06.488Z</time>
      </trkpt>
      <trkpt lat="44.80454" lon="20.44922">
        <ele>126.538271</ele>
        <time>2023-03-19T10:55:08.493Z</time>
      </trkpt>
      <trkpt lat="44.80459" lon="20.44911">
        <ele>126.400198</ele>
        <time>2023-03-19T10:55:10.501Z</time>
      </trkpt>
      <trkpt lat="44.80468" lon="20.44897">
        <ele>126.239221</ele>
        <time>2023-03-19T10:55:13.494Z</time>
      </trkpt>
      <trkpt lat="44.80473" lon="20.44886">
        <ele>126.237688</ele>
        <time>2023-03-19T10:55:15.493Z</time>
      </trkpt>
      <trkpt lat="44.80479" lon="20.44876">
        <ele>126.236105</ele>
        <time>2023-03-19T10:55:17.515Z</time>
      </trkpt>
      <trkpt lat="44.80491" lon="20.44876">
        <ele>126.23398</ele>
        <time>2023-03-19T10:55:20.494Z</time>
      </trkpt>
      <trkpt lat="44.805" lon="20.44885">
        <ele>126.232249</ele>
        <time>2023-03-19T10:55:22.499Z</time>
      </trkpt>
      <trkpt lat="44.80508" lon="20.44894">
        <ele>126.230502</ele>
        <time>2023-03-19T10:55:24.489Z</time>
      </trkpt>
      <trkpt lat="44.80516" lon="20.44902">
        <ele>126.228765</ele>
        <time>2023-03-19T10:55:26.501Z</time>
      </trkpt>
      <trkpt lat="44.80524" lon="20.4491">
        <ele>126.227199</ele>
        <time>2023-03-19T10:55:28.504Z</time>
      </trkpt>
      <trkpt lat="44.80534" lon="20.44921">
        <ele>126.224962</ele>
        <time>2023-03-19T10:55:31.492Z</time>
      </trkpt>
      <trkpt lat="44.80543" lon="20.44927">
        <ele>126.22339</ele>
        <time>2023-03-19T10:55:33.486Z</time>
      </trkpt>
      <trkpt lat="44.80555" lon="20.44935">
        <ele>126.221109</ele>
        <time>2023-03-19T10:55:36.507Z</time>
      </trkpt>
      <trkpt lat="44.80564" lon="20.44941">
        <ele>126.21946</ele>
        <time>2023-03-19T10:55:38.511Z</time>
      </trkpt>
      <trkpt lat="44.80573" lon="20.44945">
        <ele>126.217813</ele>
        <time>2023-03-19T10:55:40.508Z</time>
      </trkpt>
      <trkpt lat="44.80582" lon="20.44952">
        <ele>126.21607</ele>
        <time>2023-03-19T10:55:42.486Z</time>
      </trkpt>
      <trkpt lat="44.80592" lon="20.44957">
        <ele>126.214392</ele>
        <time>2023-03-19T10:55:44.508Z</time>
      </trkpt>
      <trkpt lat="44.80601" lon="20.44964">
        <ele>126.212549</ele>
        <time>2023-03-19T10:55:46.519Z</time>
      </trkpt>
      <trkpt lat="44.80611" lon="20.4497">
        <ele>126.210793</ele>
        <time>2023-03-19T10:55:48.498Z</time>
      </trkpt>
      <trkpt lat="44.80621" lon="20.44973">
        <ele>126.258976</ele>
        <time>2023-03-19T10:55:50.486Z</time>
      </trkpt>
      <trkpt lat="44.8063" lon="20.44975">
        <ele>126.502058</ele>
        <time>2023-03-19T10:55:52.520Z</time>
      </trkpt>
      <trkpt lat="44.8064" lon="20.44977">
        <ele>126.763894</ele>
        <time>2023-03-19T10:55:54.481Z</time>
      </trkpt>
      <trkpt lat="44.8065" lon="20.44979">
        <ele>127.029861</ele>
        <time>2023-03-19T10:55:56.506Z</time>
      </trkpt>
      <trkpt lat="44.80661" lon="20.44979">
        <ele>127.30696</ele>
        <time>2023-03-19T10:55:58.510Z</time>
      </trkpt>
      <trkpt lat="44.80671" lon="20.44978">
        <ele>127.571246</ele>
        <time>2023-03-19T10:56:00.490Z</time>
      </trkpt>
      <trkpt lat="44.80683" lon="20.44982">
        <ele>127.883881</ele>
        <time>2023-03-19T10:56:03.501Z</time>
      </trkpt>
      <trkpt lat="44.80695" lon="20.44985">
        <ele>128.190318</ele>
        <time>2023-03-19T10:56:06.502Z</time>
      </trkpt>
      <trkpt lat="44.80707" lon="20.44988">
        <ele>128.521214</ele>
        <time>2023-03-19T10:56:09.498Z</time>
      </trkpt>
      <trkpt lat="44.80719" lon="20.44991">
        <ele>128.837378</ele>
        <time>2023-03-19T10:56:12.490Z</time>
      </trkpt>
      <trkpt lat="44.80732" lon="20.44993">
        <ele>129.173239</ele>
        <time>2023-03-19T10:56:15.507Z</time>
      </trkpt>
      <trkpt lat="44.80745" lon="20.44995">
        <ele>129.507375</ele>
        <time>2023-03-19T10:56:18.485Z</time>
      </trkpt>
      <trkpt lat="44.80756" lon="20.44997">
        <ele>129.789209</ele>
        <time>2023-03-19T10:56:21.502Z</time>
      </trkpt>
      <trkpt lat="44.80766" lon="20.44997">
        <ele>130.042984</ele>
        <time>2023-03-19T10:56:24.498Z</time>
      </trkpt>
      <trkpt lat="44.80776" lon="20.45">
        <ele>130.307732</ele>
        <time>2023-03-19T10:56:27.492Z</time>
      </trkpt>
      <trkpt lat="44.80788" lon="20.45003">
        <ele>130.624686</ele>
        <time>2023-03-19T10:56:30.507Z</time>
      </trkpt>
      <trkpt lat="44.80798" lon="20.45007">
        <ele>130.844644</ele>
        <time>2023-03-19T10:56:33.506Z</time>
      </trkpt>
      <trkpt lat="44.80809" lon="20.45008">
        <ele>130.650472</ele>
        <time>2023-03-19T10:56:37.489Z</time>
      </trkpt>
      <trkpt lat="44.80819" lon="20.45007">
        <ele>130.471927</ele>
        <time>2023-03-19T10:56:40.490Z</time>
      </trkpt>
      <trkpt lat="44.80826" lon="20.44997">
        <ele>130.293761</ele>
        <time>2023-03-19T10:56:43.490Z</time>
      </trkpt>
      <trkpt lat="44.80827" lon="20.44979">
        <ele>130.068642</ele>
        <time>2023-03-19T10:56:46.508Z</time>
      </trkpt>
      <trkpt lat="44.80828" lon="20.44966">
        <ele>129.906836</ele>
        <time>2023-03-19T10:56:48.494Z</time>
      </trkpt>
      <trkpt lat="44.80828" lon="20.44953">
        <ele>129.738534</ele>
        <time>2023-03-19T10:56:50.490Z</time>
      </trkpt>
      <trkpt lat="44.80828" lon="20.44935">
        <ele>129.506156</ele>
        <time>2023-03-19T10:56:53.513Z</time>
      </trkpt>
      <trkpt lat="44.80828" lon="20.44917">
        <ele>129.285145</ele>
        <time>2023-03-19T10:56:56.497Z</time>
      </trkpt>
      <trkpt lat="44.80827" lon="20.449">
        <ele>129.06482</ele>
        <time>2023-03-19T10:56:59.491Z</time>
      </trkpt>
      <trkpt lat="44.80826" lon="20.44883">
        <ele>128.850752</ele>
        <time>2023-03-19T10:57:02.488Z</time>
      </trkpt>
      <trkpt lat="44.80824" lon="20.44868">
        <ele>128.663672</ele>
        <time>2023-03-19T10:57:05.503Z</time>
      </trkpt>
      <trkpt lat="44.80823" lon="20.44856">
        <ele>128.501361</ele>
        <time>2023-03-19T10:57:08.487Z</time>
      </trkpt>
      <trkpt lat="44.80835" lon="20.44854">
        <ele>128.277698</ele>
        <time>2023-03-19T10:57:12.491Z</time>
      </trkpt>
      <trkpt lat="44.80847" lon="20.44858">
        <ele>128.063197</ele>
        <time>2023-03-19T10:57:15.481Z</time>
      </trkpt>
      <trkpt lat="44.80859" lon="20.44865">
        <ele>127.842647</ele>
        <time>2023-03-19T10:57:18.507Z</time>
      </trkpt>
      <trkpt lat="44.80871" lon="20.44872">
        <ele>127.638917</ele>
        <time>2023-03-19T10:57:21.492Z</time>
      </trkpt>
      <trkpt lat="44.80879" lon="20.44877">
        <ele>127.55884</ele>
        <time>2023-03-19T10:57:23.491Z</time>
      </trkpt>
      <trkpt lat="44.80888" lon="20.44884">
        <ele>127.470811</ele>
        <time>2023-03-19T10:57:25.485Z</time>
      </trkpt>
      <trkpt lat="44.80897" lon="20.4489">
        <ele>127.388194</ele>
        <time>2023-03-19T10:57:27.484Z</time>
      </trkpt>
      <trkpt lat="44.80905" lon="20.44893">
        <ele>127.310402</ele>
        <time>2023-03-19T10:57:29.493Z</time>
      </trkpt>
      <trkpt lat="44.80915" lon="20.44896">
        <ele>127.228049</ele>
        <time>2023-03-19T10:57:31.483Z</time>
      </trkpt>
      <trkpt lat="44.80924" lon="20.44901">
        <ele>127.142527</ele>
        <time>2023-03-19T10:57:33.502Z</time>
      </trkpt>
      <trkpt lat="44.80933" lon="20.44905">
        <ele>127.060475</ele>
        <time>2023-03-19T10:57:35.487Z</time>
      </trkpt>
      <trkpt lat="44.80943" lon="20.44908">
        <ele>126.976628</ele>
        <time>2023-03-19T10:57:37.510Z</time>
      </trkpt>
      <trkpt lat="44.80952" lon="20.44912">
        <ele>126.894602</ele>
        <time>2023-03-19T10:57:39.485Z</time>
      </trkpt>
      <trkpt lat="44.80962" lon="20.44914">
        <ele>126.809609</ele>
        <time>2023-03-19T10:57:41.510Z</time>
      </trkpt>
      <trkpt lat="44.80972" lon="20.44918">
        <ele>126.718687</ele>
        <time>2023-03-19T10:57:43.505Z</time>
      </trkpt>
      <trkpt lat="44.80982" lon="20.44921">
        <ele>126.633071</ele>
        <time>2023-03-19T10:57:45.505Z</time>
      </trkpt>
      <trkpt lat="44.80991" lon="20.44924">
        <ele>126.547319</ele>
        <time>2023-03-19T10:57:47.488Z</time>
      </trkpt>
      <trkpt lat="44.81001" lon="20.44927">
        <ele>126.462115</ele>
        <time>2023-03-19T10:57:49.506Z</time>
      </trkpt>
      <trkpt lat="44.81011" lon="20.44931">
        <ele>126.375773</ele>
        <time>2023-03-19T10:57:51.486Z</time>
      </trkpt>
      <trkpt lat="44.8102" lon="20.44934">
        <ele>126.294205</ele>
        <time>2023-03-19T10:57:53.507Z</time>
      </trkpt>
      <trkpt lat="44.8103" lon="20.44936">
        <ele>126.201212</ele>
        <time>2023-03-19T10:57:55.488Z</time>
      </trkpt>
      <trkpt lat="44.81041" lon="20.44938">
        <ele>126.106228</ele>
        <time>2023-03-19T10:57:57.489Z</time>
      </trkpt>
      <trkpt lat="44.81051" lon="20.4494">
        <ele>125.995025</ele>
        <time>2023-03-19T10:57:59.503Z</time>
      </trkpt>
      <trkpt lat="44.81062" lon="20.44945">
        <ele>125.869559</ele>
        <time>2023-03-19T10:58:01.507Z</time>
      </trkpt>
      <trkpt lat="44.81074" lon="20.44947">
        <ele>125.737693</ele>
        <time>2023-03-19T10:58:03.496Z</time>
      </trkpt>
      <trkpt lat="44.81086" lon="20.44947">
        <ele>125.608644</ele>
        <time>2023-03-19T10:58:05.481Z</time>
      </trkpt>
      <trkpt lat="44.81098" lon="20.44948">
        <ele>125.484902</ele>
        <time>2023-03-19T10:58:07.486Z</time>
      </trkpt>
      <trkpt lat="44.81109" lon="20.44948">
        <ele>125.362244</ele>
        <time>2023-03-19T10:58:09.521Z</time>
      </trkpt>
      <trkpt lat="44.8112" lon="20.4495">
        <ele>125.2424</ele>
        <time>2023-03-19T10:58:11.505Z</time>
      </trkpt>
      <trkpt lat="44.8113" lon="20.44951">
        <ele>125.129941</ele>
        <time>2023-03-19T10:58:13.490Z</time>
      </trkpt>
      <trkpt lat="44.8114" lon="20.44954">
        <ele>125.024692</ele>
        <time>2023-03-19T10:58:15.485Z</time>
      </trkpt>
      <trkpt lat="44.81151" lon="20.44956">
        <ele>124.902063</ele>
        <time>2023-03-19T10:58:17.488Z</time>
      </trkpt>
      <trkpt lat="44.81162" lon="20.44959">
        <ele>124.777178</ele>
        <time>2023-03-19T10:58:19.480Z</time>
      </trkpt>
      <trkpt lat="44.81174" lon="20.44961">
        <ele>124.654751</ele>
        <time>2023-03-19T10:58:21.507Z</time>
      </trkpt>
      <trkpt lat="44.81185" lon="20.44963">
        <ele>124.529097</ele>
        <time>2023-03-19T10:58:23.505Z</time>
      </trkpt>
      <trkpt lat="44.81197" lon="20.44964">
        <ele>124.403782</ele>
        <time>2023-03-19T10:58:25.506Z</time>
      </trkpt>
      <trkpt lat="44.81208" lon="20.44966">
        <ele>124.282929</ele>
        <time>2023-03-19T10:58:27.502Z</time>
      </trkpt>
      <trkpt lat="44.81218" lon="20.44968">
        <ele>124.16803</ele>
        <time>2023-03-19T10:58:29.503Z</time>
      </trkpt>
      <trkpt lat="44.81228" lon="20.4497">
        <ele>124.12575</ele>
        <time>2023-03-19T10:58:31.517Z</time>
      </trkpt>
      <trkpt lat="44.81239" lon="20.44972">
        <ele>124.082636</ele>
        <time>2023-03-19T10:58:33.508Z</time>
      </trkpt>
      <trkpt lat="44.81249" lon="20.44974">
        <ele>124.040441</ele>
        <time>2023-03-19T10:58:35.491Z</time>
      </trkpt>
      <trkpt lat="44.8126" lon="20.44976">
        <ele>123.997327</ele>
        <time>2023-03-19T10:58:37.484Z</time>
      </trkpt>
      <trkpt lat="44.8127" lon="20.44978">
        <ele>123.954615</ele>
        <time>2023-03-19T10:58:39.499Z</time>
      </trkpt>
      <trkpt lat="44.8128" lon="20.44981">
        <ele>123.911903</ele>
        <time>2023-03-19T10:58:41.504Z</time>
      </trkpt>
      <trkpt lat="44.81291" lon="20.44983">
        <ele>123.867499</ele>
        <time>2023-03-19T10:58:43.501Z</time>
      </trkpt>
      <trkpt lat="44.81302" lon="20.44985">
        <ele>123.824865</ele>
        <time>2023-03-19T10:58:45.482Z</time>
      </trkpt>
      <trkpt lat="44.81313" lon="20.44987">
        <ele>123.779775</ele>
        <time>2023-03-19T10:58:47.488Z</time>
      </trkpt>
      <trkpt lat="44.81323" lon="20.44989">
        <ele>123.735125</ele>
        <time>2023-03-19T10:58:49.499Z</time>
      </trkpt>
      <trkpt lat="44.81334" lon="20.4499">
        <ele>123.691316</ele>
        <time>2023-03-19T10:58:51.505Z</time>
      </trkpt>
      <trkpt lat="44.81345" lon="20.44991">
        <ele>123.646504</ele>
        <time>2023-03-19T10:58:53.507Z</time>
      </trkpt>
      <trkpt lat="44.81356" lon="20.44992">
        <ele>123.601725</ele>
        <time>2023-03-19T10:58:55.499Z</time>
      </trkpt>
      <trkpt lat="44.81368" lon="20.44993">
        <ele>123.555365</ele>
        <time>2023-03-19T10:58:57.507Z</time>
      </trkpt>
      <trkpt lat="44.81378" lon="20.44993">
        <ele>123.51145</ele>
        <time>2023-03-19T10:58:59.510Z</time>
      </trkpt>
      <trkpt lat="44.8139" lon="20.44993">
        <ele>123.465507</ele>
        <time>2023-03-19T10:59:01.479Z</time>
      </trkpt>
      <trkpt lat="44.81401" lon="20.44993">
        <ele>123.476981</ele>
        <time>2023-03-19T10:59:03.498Z</time>
      </trkpt>
      <trkpt lat="44.81412" lon="20.44993">
        <ele>123.60186</ele>
        <time>2023-03-19T10:59:05.484Z</time>
      </trkpt>
      <trkpt lat="44.81423" lon="20.44992">
        <ele>123.733683</ele>
        <time>2023-03-19T10:59:07.505Z</time>
      </trkpt>
      <trkpt lat="44.81435" lon="20.44992">
        <ele>123.869949</ele>
        <time>2023-03-19T10:59:09.499Z</time>
      </trkpt>
      <trkpt lat="44.81447" lon="20.44992">
        <ele>123.997077</ele>
        <time>2023-03-19T10:59:11.506Z</time>
      </trkpt>
      <trkpt lat="44.81458" lon="20.44992">
        <ele>124.128746</ele>
        <time>2023-03-19T10:59:13.505Z</time>
      </trkpt>
      <trkpt lat="44.81469" lon="20.4499">
        <ele>124.254741</ele>
        <time>2023-03-19T10:59:15.506Z</time>
      </trkpt>
      <trkpt lat="44.8148" lon="20.44985">
        <ele>124.383229</ele>
        <time>2023-03-19T10:59:17.481Z</time>
      </trkpt>
      <trkpt lat="44.81489" lon="20.44981">
        <ele>124.494679</ele>
        <time>2023-03-19T10:59:19.498Z</time>
      </trkpt>
      <trkpt lat="44.81498" lon="20.44981">
        <ele>124.599256</ele>
        <time>2023-03-19T10:59:21.494Z</time>
      </trkpt>
      <trkpt lat="44.81508" lon="20.44993">
        <ele>124.743843</ele>
        <time>2023-03-19T10:59:24.487Z</time>
      </trkpt>
      <trkpt lat="44.8152" lon="20.44993">
        <ele>124.8813</ele>
        <time>2023-03-19T10:59:26.492Z</time>
      </trkpt>
      <trkpt lat="44.8153" lon="20.44992">
        <ele>124.991694</ele>
        <time>2023-03-19T10:59:28.489Z</time>
      </trkpt>
      <trkpt lat="44.81541" lon="20.44993">
        <ele>125.116574</ele>
        <time>2023-03-19T10:59:30.499Z</time>
      </trkpt>
      <trkpt lat="44.81552" lon="20.44991">
        <ele>125.242998</ele>
        <time>2023-03-19T10:59:32.501Z</time>
      </trkpt>
      <trkpt lat="44.81563" lon="20.4499">
        <ele>125.361745</ele>
        <time>2023-03-19T10:59:34.504Z</time>
      </trkpt>
      <trkpt lat="44.81573" lon="20.44988">
        <ele>125.47667</ele>
        <time>2023-03-19T10:59:36.505Z</time>
      </trkpt>
      <trkpt lat="44.81584" lon="20.44985">
        <ele>125.474272</ele>
        <time>2023-03-19T10:59:38.503Z</time>
      </trkpt>
      <trkpt lat="44.81595" lon="20.44982">
        <ele>125.471933</ele>
        <time>2023-03-19T10:59:40.501Z</time>
      </trkpt>
      <trkpt lat="44.81606" lon="20.44979">
        <ele>125.469561</ele>
        <time>2023-03-19T10:59:42.499Z</time>
      </trkpt>
      <trkpt lat="44.81617" lon="20.44976">
        <ele>125.467122</ele>
        <time>2023-03-19T10:59:44.502Z</time>
      </trkpt>
      <trkpt lat="44.81628" lon="20.44972">
        <ele>125.464591</ele>
        <time>2023-03-19T10:59:46.506Z</time>
      </trkpt>
      <trkpt lat="44.81639" lon="20.44967">
        <ele>125.46207</ele>
        <time>2023-03-19T10:59:48.496Z</time>
      </trkpt>
      <trkpt lat="44.81651" lon="20.44964">
        <ele>125.459536</ele>
        <time>2023-03-19T10:59:50.508Z</time>
      </trkpt>
      <trkpt lat="44.81662" lon="20.44962">
        <ele>125.457077</ele>
        <time>2023-03-19T10:59:52.499Z</time>
      </trkpt>
      <trkpt lat="44.81673" lon="20.44958">
        <ele>125.454498</ele>
        <time>2023-03-19T10:59:54.495Z</time>
      </trkpt>
      <trkpt lat="44.81685" lon="20.44955">
        <ele>125.452009</ele>
        <time>2023-03-19T10:59:56.498Z</time>
      </trkpt>
      <trkpt lat="44.81696" lon="20.44951">
        <ele>125.449429</ele>
        <time>2023-03-19T10:59:58.488Z</time>
      </trkpt>
      <trkpt lat="44.81707" lon="20.44948">
        <ele>125.447057</ele>
        <time>2023-03-19T11:00:00.486Z</time>
      </trkpt>
      <trkpt lat="44.81718" lon="20.44945">
        <ele>125.444547</ele>
        <time>2023-03-19T11:00:02.507Z</time>
      </trkpt>
      <trkpt lat="44.8173" lon="20.44942">
        <ele>125.442026</ele>
        <time>2023-03-19T11:00:04.501Z</time>
      </trkpt>
      <trkpt lat="44.81741" lon="20.44939">
        <ele>125.439484</ele>
        <time>2023-03-19T11:00:06.507Z</time>
      </trkpt>
      <trkpt lat="44.81753" lon="20.44935">
        <ele>125.434725</ele>
        <time>2023-03-19T11:00:08.515Z</time>
      </trkpt>
      <trkpt lat="44.81764" lon="20.44933">
        <ele>125.427095</ele>
        <time>2023-03-19T11:00:10.506Z</time>
      </trkpt>
      <trkpt lat="44.81776" lon="20.44929">
        <ele>125.419229</ele>
        <time>2023-03-19T11:00:12.503Z</time>
      </trkpt>
      <trkpt lat="44.81787" lon="20.44926">
        <ele>125.411663</ele>
        <time>2023-03-19T11:00:14.500Z</time>
      </trkpt>
      <trkpt lat="44.81797" lon="20.44922">
        <ele>125.404485</ele>
        <time>2023-03-19T11:00:16.484Z</time>
      </trkpt>
      <trkpt lat="44.81804" lon="20.44912">
        <ele>125.398034</ele>
        <time>2023-03-19T11:00:18.482Z</time>
      </trkpt>
      <trkpt lat="44.81809" lon="20.44901">
        <ele>125.391598</ele>
        <time>2023-03-19T11:00:20.496Z</time>
      </trkpt>
      <trkpt lat="44.81814" lon="20.44889">
        <ele>125.384948</ele>
        <time>2023-03-19T11:00:22.501Z</time>
      </trkpt>
      <trkpt lat="44.81824" lon="20.44882">
        <ele>125.377718</ele>
        <time>2023-03-19T11:00:24.485Z</time>
      </trkpt>
      <trkpt lat="44.81835" lon="20.44879">
        <ele>125.37043</ele>
        <time>2023-03-19T11:00:26.488Z</time>
      </trkpt>
      <trkpt lat="44.81845" lon="20.44875">
        <ele>125.36293</ele>
        <time>2023-03-19T11:00:28.488Z</time>
      </trkpt>
      <trkpt lat="44.81856" lon="20.4487">
        <ele>125.355559</ele>
        <time>2023-03-19T11:00:30.505Z</time>
      </trkpt>
      <trkpt lat="44.81867" lon="20.44866">
        <ele>125.347698</ele>
        <time>2023-03-19T11:00:32.499Z</time>
      </trkpt>
      <trkpt lat="44.81877" lon="20.44861">
        <ele>125.340437</ele>
        <time>2023-03-19T11:00:34.492Z</time>
      </trkpt>
      <trkpt lat="44.81888" lon="20.44855">
        <ele>125.332558</ele>
        <time>2023-03-19T11:00:36.498Z</time>
      </trkpt>
      <trkpt lat="44.81899" lon="20.44849">
        <ele>125.324963</ele>
        <time>2023-03-19T11:00:38.500Z</time>
      </trkpt>
      <trkpt lat="44.8191" lon="20.44844">
        <ele>125.3174</ele>
        <time>2023-03-19T11:00:40.499Z</time>
      </trkpt>
      <trkpt lat="44.81921" lon="20.44838">
        <ele>125.284104</ele>
        <time>2023-03-19T11:00:42.495Z</time>
      </trkpt>
      <trkpt lat="44.81932" lon="20.44832">
        <ele>125.249939</ele>
        <time>2023-03-19T11:00:44.480Z</time>
      </trkpt>
      <trkpt lat="44.81943" lon="20.44825">
        <ele>125.215792</ele>
        <time>2023-03-19T11:00:46.477Z</time>
      </trkpt>
      <trkpt lat="44.81954" lon="20.44819">
        <ele>125.181139</ele>
        <time>2023-03-19T11:00:48.487Z</time>
      </trkpt>
      <trkpt lat="44.81965" lon="20.44812">
        <ele>125.146731</ele>
        <time>2023-03-19T11:00:50.503Z</time>
      </trkpt>
      <trkpt lat="44.81976" lon="20.44805">
        <ele>125.112908</ele>
        <time>2023-03-19T11:00:52.480Z</time>
      </trkpt>
      <trkpt lat="44.81987" lon="20.44799">
        <ele>125.078217</ele>
        <time>2023-03-19T11:00:54.484Z</time>
      </trkpt>
      <trkpt lat="44.81998" lon="20.44792">
        <ele>125.04407</ele>
        <time>2023-03-19T11:00:56.506Z</time>
      </trkpt>
      <trkpt lat="44.82009" lon="20.44785">
        <ele>125.00941</ele>
        <time>2023-03-19T11:00:58.494Z</time>
      </trkpt>
      <trkpt lat="44.8202" lon="20.44778">
        <ele>124.974035</ele>
        <time>2023-03-19T11:01:00.504Z</time>
      </trkpt>
      <trkpt lat="44.82031" lon="20.44771">
        <ele>124.939544</ele>
        <time>2023-03-19T11:01:02.511Z</time>
      </trkpt>
      <trkpt lat="44.82042" lon="20.44763">
        <ele>124.904678</ele>
        <time>2023-03-19T11:01:04.482Z</time>
      </trkpt>
      <trkpt lat="44.82052" lon="20.44755">
        <ele>124.871385</ele>
        <time>2023-03-19T11:01:06.493Z</time>
      </trkpt>
      <trkpt lat="44.82064" lon="20.44749">
        <ele>124.836392</ele>
        <time>2023-03-19T11:01:08.494Z</time>
      </trkpt>
      <trkpt lat="44.82074" lon="20.44741">
        <ele>124.802623</ele>
        <time>2023-03-19T11:01:10.505Z</time>
      </trkpt>
      <trkpt lat="44.82085" lon="20.44734">
        <ele>124.775865</ele>
        <time>2023-03-19T11:01:12.501Z</time>
      </trkpt>
      <trkpt lat="44.82095" lon="20.44725">
        <ele>124.748729</ele>
        <time>2023-03-19T11:01:14.488Z</time>
      </trkpt>
      <trkpt lat="44.82106" lon="20.44716">
        <ele>124.721399</ele>
        <time>2023-03-19T11:01:16.479Z</time>
      </trkpt>
      <trkpt lat="44.82116" lon="20.44708">
        <ele>124.694537</ele>
        <time>2023-03-19T11:01:18.497Z</time>
      </trkpt>
      <trkpt lat="44.82126" lon="20.44699">
        <ele>124.668223</ele>
        <time>2023-03-19T11:01:20.505Z</time>
      </trkpt>
      <trkpt lat="44.82136" lon="20.44691">
        <ele>124.643086</ele>
        <time>2023-03-19T11:01:22.499Z</time>
      </trkpt>
      <trkpt lat="44.82147" lon="20.44695">
        <ele>124.617746</ele>
        <time>2023-03-19T11:01:24.490Z</time>
      </trkpt>
      <trkpt lat="44.82158" lon="20.44702">
        <ele>124.591126</ele>
        <time>2023-03-19T11:01:26.504Z</time>
      </trkpt>
      <trkpt lat="44.82169" lon="20.44703">
        <ele>124.565402</ele>
        <time>2023-03-19T11:01:28.489Z</time>
      </trkpt>
      <trkpt lat="44.8218" lon="20.44694">
        <ele>124.537935</ele>
        <time>2023-03-19T11:01:30.486Z</time>
      </trkpt>
      <trkpt lat="44.8219" lon="20.44686">
        <ele>124.511</ele>
        <time>2023-03-19T11:01:32.496Z</time>
      </trkpt>
      <trkpt lat="44.82201" lon="20.44677">
        <ele>124.483671</ele>
        <time>2023-03-19T11:01:34.497Z</time>
      </trkpt>
      <trkpt lat="44.82211" lon="20.44669">
        <ele>124.457163</ele>
        <time>2023-03-19T11:01:36.504Z</time>
      </trkpt>
      <trkpt lat="44.82221" lon="20.4466">
        <ele>124.429802</ele>
        <time>2023-03-19T11:01:38.505Z</time>
      </trkpt>
      <trkpt lat="44.82231" lon="20.44651">
        <ele>124.403569</ele>
        <time>2023-03-19T11:01:40.497Z</time>
      </trkpt>
      <trkpt lat="44.82241" lon="20.44644">
        <ele>124.396189</ele>
        <time>2023-03-19T11:01:42.498Z</time>
      </trkpt>
      <trkpt lat="44.8225" lon="20.44637">
        <ele>124.392245</ele>
        <time>2023-03-19T11:01:44.505Z</time>
      </trkpt>
      <trkpt lat="44.82259" lon="20.44632">
        <ele>124.388521</ele>
        <time>2023-03-19T11:01:46.495Z</time>
      </trkpt>
      <trkpt lat="44.82271" lon="20.44629">
        <ele>124.383875</ele>
        <time>2023-03-19T11:01:49.483Z</time>
      </trkpt>
      <trkpt lat="44.8228" lon="20.44635">
        <ele>124.380245</ele>
        <time>2023-03-19T11:02:00.497Z</time>
      </trkpt>
      <trkpt lat="44.8229" lon="20.44634">
        <ele>124.376389</ele>
        <time>2023-03-19T11:02:10.492Z</time>
      </trkpt>
      <trkpt lat="44.82299" lon="20.44634">
        <ele>124.372804</ele>
        <time>2023-03-19T11:02:22.493Z</time>
      </trkpt>
      <trkpt lat="44.82308" lon="20.44633">
        <ele>124.36926</ele>
        <time>2023-03-19T11:02:25.505Z</time>
      </trkpt>
      <trkpt lat="44.8232" lon="20.44631">
        <ele>124.364911</ele>
        <time>2023-03-19T11:02:28.482Z</time>
      </trkpt>
      <trkpt lat="44.82331" lon="20.4463">
        <ele>124.360529</ele>
        <time>2023-03-19T11:02:31.505Z</time>
      </trkpt>
      <trkpt lat="44.82344" lon="20.44626">
        <ele>124.355454</ele>
        <time>2023-03-19T11:02:34.496Z</time>
      </trkpt>
      <trkpt lat="44.82357" lon="20.44622">
        <ele>124.350349</ele>
        <time>2023-03-19T11:02:37.499Z</time>
      </trkpt>
      <trkpt lat="44.8237" lon="20.44619">
        <ele>124.345553</ele>
        <time>2023-03-19T11:02:40.499Z</time>
      </trkpt>
      <trkpt lat="44.82382" lon="20.44615">
        <ele>124.340923</ele>
        <time>2023-03-19T11:02:43.512Z</time>
      </trkpt>
      <trkpt lat="44.82392" lon="20.44612">
        <ele>124.337017</ele>
        <time>2023-03-19T11:02:46.499Z</time>
      </trkpt>
      <trkpt lat="44.82402" lon="20.44608">
        <ele>124.332864</ele>
        <time>2023-03-19T11:02:49.481Z</time>
      </trkpt>
      <trkpt lat="44.82412" lon="20.44605">
        <ele>124.286808</ele>
        <time>2023-03-19T11:02:52.502Z</time>
      </trkpt>
      <trkpt lat="44.82422" lon="20.44599">
        <ele>124.201596</ele>
        <time>2023-03-19T11:02:55.510Z</time>
      </trkpt>
      <trkpt lat="44.82432" lon="20.44598">
        <ele>124.124701</ele>
        <time>2023-03-19T11:02:58.492Z</time>
      </trkpt>
      <trkpt lat="44.82442" lon="20.44601">
        <ele>124.04571</ele>
        <time>2023-03-19T11:03:02.491Z</time>
      </trkpt>
      <trkpt lat="44.82453" lon="20.446">
        <ele>123.964069</ele>
        <time>2023-03-19T11:03:05.490Z</time>
      </trkpt>
      <trkpt lat="44.82463" lon="20.44598">
        <ele>123.889672</ele>
        <time>2023-03-19T11:03:08.505Z</time>
      </trkpt>
      <trkpt lat="44.82471" lon="20.4459">
        <ele>123.810348</ele>
        <time>2023-03-19T11:03:14.488Z</time>
      </trkpt>
      <trkpt lat="44.82483" lon="20.4459">
        <ele>123.72094</ele>
        <time>2023-03-19T11:03:18.495Z</time>
      </trkpt>
      <trkpt lat="44.82494" lon="20.4459">
        <ele>123.638379</ele>
        <time>2023-03-19T11:03:21.502Z</time>
      </trkpt>
      <trkpt lat="44.82505" lon="20.4459">
        <ele>123.550487</ele>
        <time>2023-03-19T11:03:24.517Z</time>
      </trkpt>
      <trkpt lat="44.82516" lon="20.44591">
        <ele>123.463979</ele>
        <time>2023-03-19T11:03:27.492Z</time>
      </trkpt>
      <trkpt lat="44.82528" lon="20.44591">
        <ele>123.373781</ele>
        <time>2023-03-19T11:03:30.502Z</time>
      </trkpt>
      <trkpt lat="44.82538" lon="20.44591">
        <ele>123.302673</ele>
        <time>2023-03-19T11:03:32.497Z</time>
      </trkpt>
      <trkpt lat="44.82549" lon="20.44592">
        <ele>123.21215</ele>
        <time>2023-03-19T11:03:35.502Z</time>
      </trkpt>
      <trkpt lat="44.82561" lon="20.44593">
        <ele>123.12657</ele>
        <time>2023-03-19T11:03:38.501Z</time>
      </trkpt>
      <trkpt lat="44.8257" lon="20.44594">
        <ele>123.053822</ele>
        <time>2023-03-19T11:03:41.499Z</time>
      </trkpt>
      <trkpt lat="44.82581" lon="20.44588">
        <ele>122.964807</ele>
        <time>2023-03-19T11:03:45.493Z</time>
      </trkpt>
      <trkpt lat="44.8259" lon="20.44584">
        <ele>122.903275</ele>
        <time>2023-03-19T11:03:48.504Z</time>
      </trkpt>
      <trkpt lat="44.82599" lon="20.44578">
        <ele>122.839304</ele>
        <time>2023-03-19T11:03:51.507Z</time>
      </trkpt>
      <trkpt lat="44.8261" lon="20.44578">
        <ele>122.773476</ele>
        <time>2023-03-19T11:03:53.511Z</time>
      </trkpt>
      <trkpt lat="44.82618" lon="20.44584">
        <ele>122.714232</ele>
        <time>2023-03-19T11:03:55.479Z</time>
      </trkpt>
      <trkpt lat="44.82631" lon="20.44581">
        <ele>122.628616</ele>
        <time>2023-03-19T11:03:58.490Z</time>
      </trkpt>
      <trkpt lat="44.8264" lon="20.4458">
        <ele>122.571352</ele>
        <time>2023-03-19T11:04:00.497Z</time>
      </trkpt>
      <trkpt lat="44.82649" lon="20.44584">
        <ele>122.513569</ele>
        <time>2023-03-19T11:04:02.485Z</time>
      </trkpt>
      <trkpt lat="44.82661" lon="20.44592">
        <ele>122.429358</ele>
        <time>2023-03-19T11:04:05.493Z</time>
      </trkpt>
      <trkpt lat="44.82669" lon="20.44597">
        <ele>122.371062</ele>
        <time>2023-03-19T11:04:07.497Z</time>
      </trkpt>
      <trkpt lat="44.82678" lon="20.44602">
        <ele>122.312995</ele>
        <time>2023-03-19T11:04:09.503Z</time>
      </trkpt>
      <trkpt lat="44.82687" lon="20.44607">
        <ele>122.251843</ele>
        <time>2023-03-19T11:04:11.506Z</time>
      </trkpt>
      <trkpt lat="44.82695" lon="20.44613">
        <ele>122.191502</ele>
        <time>2023-03-19T11:04:13.514Z</time>
      </trkpt>
      <trkpt lat="44.82704" lon="20.44619">
        <ele>122.132117</ele>
        <time>2023-03-19T11:04:15.494Z</time>
      </trkpt>
      <trkpt lat="44.82712" lon="20.44624">
        <ele>122.074069</ele>
        <time>2023-03-19T11:04:17.503Z</time>
      </trkpt>
      <trkpt lat="44.8272" lon="20.44631">
        <ele>122.012621</ele>
        <time>2023-03-19T11:04:19.515Z</time>
      </trkpt>
      <trkpt lat="44.82728" lon="20.44639">
        <ele>121.954415</ele>
        <time>2023-03-19T11:04:21.505Z</time>
      </trkpt>
      <trkpt lat="44.82737" lon="20.44645">
        <ele>121.889785</ele>
        <time>2023-03-19T11:04:23.501Z</time>
      </trkpt>
      <trkpt lat="44.82746" lon="20.44653">
        <ele>121.824157</ele>
        <time>2023-03-19T11:04:25.503Z</time>
      </trkpt>
      <trkpt lat="44.82754" lon="20.4466">
        <ele>121.858043</ele>
        <time>2023-03-19T11:04:27.499Z</time>
      </trkpt>
      <trkpt lat="44.82761" lon="20.44667">
        <ele>121.900904</ele>
        <time>2023-03-19T11:04:29.495Z</time>
      </trkpt>
      <trkpt lat="44.82769" lon="20.44675">
        <ele>121.945852</ele>
        <time>2023-03-19T11:04:31.488Z</time>
      </trkpt>
      <trkpt lat="44.82778" lon="20.44682">
        <ele>121.993286</ele>
        <time>2023-03-19T11:04:33.504Z</time>
      </trkpt>
      <trkpt lat="44.82786" lon="20.4469">
        <ele>122.039067</ele>
        <time>2023-03-19T11:04:35.503Z</time>
      </trkpt>
      <trkpt lat="44.82793" lon="20.44698">
        <ele>122.083332</ele>
        <time>2023-03-19T11:04:37.501Z</time>
      </trkpt>
      <trkpt lat="44.82801" lon="20.44706">
        <ele>122.128492</ele>
        <time>2023-03-19T11:04:39.484Z</time>
      </trkpt>
      <trkpt lat="44.82808" lon="20.44716">
        <ele>122.174589</ele>
        <time>2023-03-19T11:04:41.505Z</time>
      </trkpt>
      <trkpt lat="44.82812" lon="20.44728">
        <ele>122.218466</ele>
        <time>2023-03-19T11:04:43.488Z</time>
      </trkpt>
      <trkpt lat="44.82813" lon="20.4474">
        <ele>122.261039</ele>
        <time>2023-03-19T11:04:45.480Z</time>
      </trkpt>
      <trkpt lat="44.82813" lon="20.44758">
        <ele>122.321058</ele>
        <time>2023-03-19T11:04:48.494Z</time>
      </trkpt>
      <trkpt lat="44.82817" lon="20.44773">
        <ele>122.374479</ele>
        <time>2023-03-19T11:04:51.479Z</time>
      </trkpt>
      <trkpt lat="44.82829" lon="20.44773">
        <ele>122.430853</ele>
        <time>2023-03-19T11:04:54.493Z</time>
      </trkpt>
      <trkpt lat="44.8284" lon="20.44771">
        <ele>122.480119</ele>
        <time>2023-03-19T11:04:57.478Z</time>
      </trkpt>
      <trkpt lat="44.82852" lon="20.44773">
        <ele>122.538213</ele>
        <time>2023-03-19T11:05:01.487Z</time>
      </trkpt>
      <trkpt lat="44.8286" lon="20.44782">
        <ele>122.587199</ele>
        <time>2023-03-19T11:05:04.504Z</time>
      </trkpt>
      <trkpt lat="44.82867" lon="20.44795">
        <ele>122.643196</ele>
        <time>2023-03-19T11:05:07.494Z</time>
      </trkpt>
      <trkpt lat="44.82874" lon="20.44808">
        <ele>122.768768</ele>
        <time>2023-03-19T11:05:10.480Z</time>
      </trkpt>
      <trkpt lat="44.82885" lon="20.44822">
        <ele>122.999366</ele>
        <time>2023-03-19T11:05:13.487Z</time>
      </trkpt>
      <trkpt lat="44.82891" lon="20.44832">
        <ele>123.151024</ele>
        <time>2023-03-19T11:05:15.486Z</time>
      </trkpt>
      <trkpt lat="44.82898" lon="20.44843">
        <ele>123.308049</ele>
        <time>2023-03-19T11:05:17.506Z</time>
      </trkpt>
      <trkpt lat="44.82905" lon="20.44853">
        <ele>123.459631</ele>
        <time>2023-03-19T11:05:19.509Z</time>
      </trkpt>
      <trkpt lat="44.82911" lon="20.44864">
        <ele>123.615607</ele>
        <time>2023-03-19T11:05:21.507Z</time>
      </trkpt>
      <trkpt lat="44.82917" lon="20.44874">
        <ele>123.77007</ele>
        <time>2023-03-19T11:05:23.487Z</time>
      </trkpt>
      <trkpt lat="44.82924" lon="20.44885">
        <ele>123.920496</ele>
        <time>2023-03-19T11:05:25.484Z</time>
      </trkpt>
      <trkpt lat="44.8293" lon="20.44896">
        <ele>124.077828</ele>
        <time>2023-03-19T11:05:27.503Z</time>
      </trkpt>
      <trkpt lat="44.82935" lon="20.44907">
        <ele>124.2297</ele>
        <time>2023-03-19T11:05:29.505Z</time>
      </trkpt>
      <trkpt lat="44.82941" lon="20.44919">
        <ele>124.38159</ele>
        <time>2023-03-19T11:05:31.503Z</time>
      </trkpt>
      <trkpt lat="44.82946" lon="20.44929">
        <ele>124.526233</ele>
        <time>2023-03-19T11:05:33.506Z</time>
      </trkpt>
      <trkpt lat="44.82952" lon="20.44941">
        <ele>124.685387</ele>
        <time>2023-03-19T11:05:35.487Z</time>
      </trkpt>
      <trkpt lat="44.82958" lon="20.44953">
        <ele>124.850902</ele>
        <time>2023-03-19T11:05:37.493Z</time>
      </trkpt>
      <trkpt lat="44.82965" lon="20.44964">
        <ele>125.014988</ele>
        <time>2023-03-19T11:05:39.494Z</time>
      </trkpt>
      <trkpt lat="44.82971" lon="20.4498">
        <ele>125.213173</ele>
        <time>2023-03-19T11:05:42.506Z</time>
      </trkpt>
      <trkpt lat="44.82977" lon="20.4499">
        <ele>125.356062</ele>
        <time>2023-03-19T11:05:44.503Z</time>
      </trkpt>
      <trkpt lat="44.82984" lon="20.45006">
        <ele>125.462838</ele>
        <time>2023-03-19T11:05:47.504Z</time>
      </trkpt>
      <trkpt lat="44.82986" lon="20.45019">
        <ele>125.443038</ele>
        <time>2023-03-19T11:05:49.492Z</time>
      </trkpt>
      <trkpt lat="44.82991" lon="20.4503">
        <ele>125.424378</ele>
        <time>2023-03-19T11:05:51.482Z</time>
      </trkpt>
      <trkpt lat="44.83" lon="20.45044">
        <ele>125.396208</ele>
        <time>2023-03-19T11:05:54.502Z</time>
      </trkpt>
      <trkpt lat="44.83003" lon="20.45057">
        <ele>125.377387</ele>
        <time>2023-03-19T11:05:56.492Z</time>
      </trkpt>
      <trkpt lat="44.83005" lon="20.4507">
        <ele>125.357965</ele>
        <time>2023-03-19T11:05:58.495Z</time>
      </trkpt>
      <trkpt lat="44.83007" lon="20.45082">
        <ele>125.339337</ele>
        <time>2023-03-19T11:06:00.486Z</time>
      </trkpt>
      <trkpt lat="44.83011" lon="20.45094">
        <ele>125.319872</ele>
        <time>2023-03-19T11:06:02.497Z</time>
      </trkpt>
      <trkpt lat="44.83017" lon="20.45111">
        <ele>125.291852</ele>
        <time>2023-03-19T11:06:05.489Z</time>
      </trkpt>
      <trkpt lat="44.8302" lon="20.45123">
        <ele>125.273366</ele>
        <time>2023-03-19T11:06:07.520Z</time>
      </trkpt>
      <trkpt lat="44.83023" lon="20.45135">
        <ele>125.254409</ele>
        <time>2023-03-19T11:06:09.500Z</time>
      </trkpt>
      <trkpt lat="44.83026" lon="20.45148">
        <ele>125.23511</ele>
        <time>2023-03-19T11:06:11.510Z</time>
      </trkpt>
      <trkpt lat="44.8303" lon="20.45161">
        <ele>125.21526</ele>
        <time>2023-03-19T11:06:13.502Z</time>
      </trkpt>
      <trkpt lat="44.83033" lon="20.45175">
        <ele>125.193969</ele>
        <time>2023-03-19T11:06:15.492Z</time>
      </trkpt>
      <trkpt lat="44.83035" lon="20.45187">
        <ele>125.175461</ele>
        <time>2023-03-19T11:06:17.499Z</time>
      </trkpt>
      <trkpt lat="44.83038" lon="20.452">
        <ele>125.15526</ele>
        <time>2023-03-19T11:06:19.500Z</time>
      </trkpt>
      <trkpt lat="44.83041" lon="20.45213">
        <ele>125.136192</ele>
        <time>2023-03-19T11:06:21.487Z</time>
      </trkpt>
      <trkpt lat="44.83044" lon="20.45225">
        <ele>125.117148</ele>
        <time>2023-03-19T11:06:23.492Z</time>
      </trkpt>
      <trkpt lat="44.83049" lon="20.45241">
        <ele>125.064764</ele>
        <time>2023-03-19T11:06:26.486Z</time>
      </trkpt>
      <trkpt lat="44.83054" lon="20.45256">
        <ele>124.993693</ele>
        <time>2023-03-19T11:06:29.481Z</time>
      </trkpt>
      <trkpt lat="44.83057" lon="20.45273">
        <ele>124.916892</ele>
        <time>2023-03-19T11:06:32.490Z</time>
      </trkpt>
      <trkpt lat="44.83058" lon="20.45292">
        <ele>124.835827</ele>
        <time>2023-03-19T11:06:35.485Z</time>
      </trkpt>
      <trkpt lat="44.8306" lon="20.45305">
        <ele>124.779524</ele>
        <time>2023-03-19T11:06:37.503Z</time>
      </trkpt>
      <trkpt lat="44.83061" lon="20.45318">
        <ele>124.722468</ele>
        <time>2023-03-19T11:06:39.492Z</time>
      </trkpt>
      <trkpt lat="44.83062" lon="20.45331">
        <ele>124.664222</ele>
        <time>2023-03-19T11:06:41.478Z</time>
      </trkpt>
      <trkpt lat="44.83064" lon="20.45344">
        <ele>124.607492</ele>
        <time>2023-03-19T11:06:43.507Z</time>
      </trkpt>
      <trkpt lat="44.83066" lon="20.45356">
        <ele>124.552468</ele>
        <time>2023-03-19T11:06:45.491Z</time>
      </trkpt>
      <trkpt lat="44.83066" lon="20.45369">
        <ele>124.496989</ele>
        <time>2023-03-19T11:06:47.507Z</time>
      </trkpt>
      <trkpt lat="44.83067" lon="20.45382">
        <ele>124.441741</ele>
        <time>2023-03-19T11:06:49.501Z</time>
      </trkpt>
      <trkpt lat="44.83068" lon="20.45395">
        <ele>124.382672</ele>
        <time>2023-03-19T11:06:51.531Z</time>
      </trkpt>
      <trkpt lat="44.83069" lon="20.45409">
        <ele>124.324795</ele>
        <time>2023-03-19T11:06:53.504Z</time>
      </trkpt>
      <trkpt lat="44.83069" lon="20.45422">
        <ele>124.265802</ele>
        <time>2023-03-19T11:06:55.509Z</time>
      </trkpt>
      <trkpt lat="44.83071" lon="20.45435">
        <ele>124.209948</ele>
        <time>2023-03-19T11:06:57.503Z</time>
      </trkpt>
      <trkpt lat="44.83071" lon="20.45448">
        <ele>124.15355</ele>
        <time>2023-03-19T11:06:59.489Z</time>
      </trkpt>
      <trkpt lat="44.83072" lon="20.45461">
        <ele>124.097023</ele>
        <time>2023-03-19T11:07:01.509Z</time>
      </trkpt>
      <trkpt lat="44.83073" lon="20.45479">
        <ele>124.019998</ele>
        <time>2023-03-19T11:07:04.500Z</time>
      </trkpt>
      <trkpt lat="44.83073" lon="20.45496">
        <ele>124.009201</ele>
        <time>2023-03-19T11:07:07.487Z</time>
      </trkpt>
      <trkpt lat="44.83073" lon="20.45515">
        <ele>124.013634</ele>
        <time>2023-03-19T11:07:10.481Z</time>
      </trkpt>
      <trkpt lat="44.83073" lon="20.45528">
        <ele>124.01659</ele>
        <time>2023-03-19T11:07:12.489Z</time>
      </trkpt>
      <trkpt lat="44.83073" lon="20.45541">
        <ele>124.019684</ele>
        <time>2023-03-19T11:07:14.504Z</time>
      </trkpt>
      <trkpt lat="44.83073" lon="20.45554">
        <ele>124.022639</ele>
        <time>2023-03-19T11:07:16.500Z</time>
      </trkpt>
      <trkpt lat="44.83072" lon="20.45568">
        <ele>124.025759</ele>
        <time>2023-03-19T11:07:18.505Z</time>
      </trkpt>
      <trkpt lat="44.83072" lon="20.45581">
        <ele>124.028927</ele>
        <time>2023-03-19T11:07:20.506Z</time>
      </trkpt>
      <trkpt lat="44.83072" lon="20.45595">
        <ele>124.032091</ele>
        <time>2023-03-19T11:07:22.498Z</time>
      </trkpt>
      <trkpt lat="44.83071" lon="20.45609">
        <ele>124.035278</ele>
        <time>2023-03-19T11:07:24.498Z</time>
      </trkpt>
      <trkpt lat="44.83072" lon="20.45622">
        <ele>124.038372</ele>
        <time>2023-03-19T11:07:26.479Z</time>
      </trkpt>
      <trkpt lat="44.83071" lon="20.45636">
        <ele>124.041541</ele>
        <time>2023-03-19T11:07:28.507Z</time>
      </trkpt>
      <trkpt lat="44.83068" lon="20.45649">
        <ele>124.044725</ele>
        <time>2023-03-19T11:07:30.485Z</time>
      </trkpt>
      <trkpt lat="44.83065" lon="20.45663">
        <ele>124.047969</ele>
        <time>2023-03-19T11:07:32.479Z</time>
      </trkpt>
      <trkpt lat="44.83062" lon="20.45676">
        <ele>124.051201</ele>
        <time>2023-03-19T11:07:34.481Z</time>
      </trkpt>
      <trkpt lat="44.83059" lon="20.4569">
        <ele>124.054497</ele>
        <time>2023-03-19T11:07:36.512Z</time>
      </trkpt>
      <trkpt lat="44.83058" lon="20.45704">
        <ele>124.057772</ele>
        <time>2023-03-19T11:07:38.507Z</time>
      </trkpt>
      <trkpt lat="44.83058" lon="20.45718">
        <ele>124.061096</ele>
        <time>2023-03-19T11:07:40.505Z</time>
      </trkpt>
      <trkpt lat="44.83058" lon="20.45733">
        <ele>124.064491</ele>
        <time>2023-03-19T11:07:42.502Z</time>
      </trkpt>
      <trkpt lat="44.83058" lon="20.45748">
        <ele>123.955473</ele>
        <time>2023-03-19T11:07:44.490Z</time>
      </trkpt>
      <trkpt lat="44.83056" lon="20.45762">
        <ele>123.844824</ele>
        <time>2023-03-19T11:07:46.507Z</time>
      </trkpt>
      <trkpt lat="44.83055" lon="20.45777">
        <ele>123.737487</ele>
        <time>2023-03-19T11:07:48.506Z</time>
      </trkpt>
      <trkpt lat="44.83053" lon="20.45791">
        <ele>123.626192</ele>
        <time>2023-03-19T11:07:50.496Z</time>
      </trkpt>
      <trkpt lat="44.83051" lon="20.45806">
        <ele>123.514986</ele>
        <time>2023-03-19T11:07:52.500Z</time>
      </trkpt>
      <trkpt lat="44.83049" lon="20.4582">
        <ele>123.408237</ele>
        <time>2023-03-19T11:07:54.507Z</time>
      </trkpt>
      <trkpt lat="44.83048" lon="20.45835">
        <ele>123.296388</ele>
        <time>2023-03-19T11:07:56.499Z</time>
      </trkpt>
      <trkpt lat="44.83047" lon="20.4585">
        <ele>123.188064</ele>
        <time>2023-03-19T11:07:58.504Z</time>
      </trkpt>
      <trkpt lat="44.83047" lon="20.45864">
        <ele>123.077938</ele>
        <time>2023-03-19T11:08:00.505Z</time>
      </trkpt>
      <trkpt lat="44.83047" lon="20.45879">
        <ele>122.967886</ele>
        <time>2023-03-19T11:08:02.505Z</time>
      </trkpt>
      <trkpt lat="44.83047" lon="20.45894">
        <ele>122.86005</ele>
        <time>2023-03-19T11:08:04.513Z</time>
      </trkpt>
      <trkpt lat="44.83048" lon="20.45907">
        <ele>122.757645</ele>
        <time>2023-03-19T11:08:06.498Z</time>
      </trkpt>
      <trkpt lat="44.83048" lon="20.4592">
        <ele>122.663161</ele>
        <time>2023-03-19T11:08:08.487Z</time>
      </trkpt>
      <trkpt lat="44.83048" lon="20.45933">
        <ele>122.567778</ele>
        <time>2023-03-19T11:08:10.485Z</time>
      </trkpt>
      <trkpt lat="44.83047" lon="20.4595">
        <ele>122.438797</ele>
        <time>2023-03-19T11:08:13.494Z</time>
      </trkpt>
      <trkpt lat="44.83046" lon="20.45968">
        <ele>122.305847</ele>
        <time>2023-03-19T11:08:16.503Z</time>
      </trkpt>
      <trkpt lat="44.83044" lon="20.45986">
        <ele>122.174715</ele>
        <time>2023-03-19T11:08:19.490Z</time>
      </trkpt>
      <trkpt lat="44.83043" lon="20.46">
        <ele>122.138725</ele>
        <time>2023-03-19T11:08:21.519Z</time>
      </trkpt>
      <trkpt lat="44.83043" lon="20.46013">
        <ele>122.102463</ele>
        <time>2023-03-19T11:08:23.491Z</time>
      </trkpt>
      <trkpt lat="44.83042" lon="20.46027">
        <ele>122.064747</ele>
        <time>2023-03-19T11:08:25.500Z</time>
      </trkpt>
      <trkpt lat="44.8304" lon="20.4604">
        <ele>122.027594</ele>
        <time>2023-03-19T11:08:27.475Z</time>
      </trkpt>
      <trkpt lat="44.83039" lon="20.46054">
        <ele>121.98969</ele>
        <time>2023-03-19T11:08:29.500Z</time>
      </trkpt>
      <trkpt lat="44.83037" lon="20.46067">
        <ele>121.953456</ele>
        <time>2023-03-19T11:08:31.486Z</time>
      </trkpt>
      <trkpt lat="44.83037" lon="20.46081">
        <ele>121.915343</ele>
        <time>2023-03-19T11:08:33.492Z</time>
      </trkpt>
      <trkpt lat="44.83036" lon="20.46095">
        <ele>121.877045</ele>
        <time>2023-03-19T11:08:35.486Z</time>
      </trkpt>
      <trkpt lat="44.83034" lon="20.4611">
        <ele>121.837289</ele>
        <time>2023-03-19T11:08:37.478Z</time>
      </trkpt>
      <trkpt lat="44.83032" lon="20.46124">
        <ele>121.796729</ele>
        <time>2023-03-19T11:08:39.508Z</time>
      </trkpt>
      <trkpt lat="44.83031" lon="20.46138">
        <ele>121.759012</ele>
        <time>2023-03-19T11:08:41.506Z</time>
      </trkpt>
      <trkpt lat="44.8303" lon="20.46152">
        <ele>121.722378</ele>
        <time>2023-03-19T11:08:43.508Z</time>
      </trkpt>
      <trkpt lat="44.83029" lon="20.46165">
        <ele>121.685002</ele>
        <time>2023-03-19T11:08:45.501Z</time>
      </trkpt>
      <trkpt lat="44.83028" lon="20.4618">
        <ele>121.645803</ele>
        <time>2023-03-19T11:08:47.492Z</time>
      </trkpt>
      <trkpt lat="44.83026" lon="20.46194">
        <ele>121.605849</ele>
        <time>2023-03-19T11:08:49.496Z</time>
      </trkpt>
      <trkpt lat="44.83023" lon="20.46208">
        <ele>121.567026</ele>
        <time>2023-03-19T11:08:51.504Z</time>
      </trkpt>
      <trkpt lat="44.83021" lon="20.46221">
        <ele>121.529811</ele>
        <time>2023-03-19T11:08:53.490Z</time>
      </trkpt>
      <trkpt lat="44.8302" lon="20.4624">
        <ele>121.504154</ele>
        <time>2023-03-19T11:08:56.479Z</time>
      </trkpt>
      <trkpt lat="44.83015" lon="20.46256">
        <ele>121.57249</ele>
        <time>2023-03-19T11:08:59.503Z</time>
      </trkpt>
      <trkpt lat="44.8301" lon="20.46271">
        <ele>121.63734</ele>
        <time>2023-03-19T11:09:02.490Z</time>
      </trkpt>
      <trkpt lat="44.83007" lon="20.46288">
        <ele>121.707769</ele>
        <time>2023-03-19T11:09:05.484Z</time>
      </trkpt>
      <trkpt lat="44.83007" lon="20.46306">
        <ele>121.781064</ele>
        <time>2023-03-19T11:09:08.497Z</time>
      </trkpt>
      <trkpt lat="44.83008" lon="20.4632">
        <ele>121.833298</ele>
        <time>2023-03-19T11:09:10.494Z</time>
      </trkpt>
      <trkpt lat="44.83008" lon="20.46332">
        <ele>121.883966</ele>
        <time>2023-03-19T11:09:12.499Z</time>
      </trkpt>
      <trkpt lat="44.83004" lon="20.4635">
        <ele>121.955723</ele>
        <time>2023-03-19T11:09:15.487Z</time>
      </trkpt>
      <trkpt lat="44.82998" lon="20.46363">
        <ele>122.018819</ele>
        <time>2023-03-19T11:09:18.483Z</time>
      </trkpt>
      <trkpt lat="44.82994" lon="20.46377">
        <ele>122.076677</ele>
        <time>2023-03-19T11:09:21.482Z</time>
      </trkpt>
      <trkpt lat="44.82992" lon="20.46393">
        <ele>122.141237</ele>
        <time>2023-03-19T11:09:24.506Z</time>
      </trkpt>
      <trkpt lat="44.82991" lon="20.46408">
        <ele>122.2022</ele>
        <time>2023-03-19T11:09:27.484Z</time>
      </trkpt>
      <trkpt lat="44.82991" lon="20.46422">
        <ele>122.257985</ele>
        <time>2023-03-19T11:09:30.499Z</time>
      </trkpt>
      <trkpt lat="44.82993" lon="20.46435">
        <ele>122.308038</ele>
        <time>2023-03-19T11:09:33.489Z</time>
      </trkpt>
      <trkpt lat="44.83" lon="20.46445">
        <ele>122.363819</ele>
        <time>2023-03-19T11:09:38.496Z</time>
      </trkpt>
      <trkpt lat="44.83" lon="20.46444">
        <ele>122.368985</ele>
        <time>2023-03-19T11:09:42.641Z</time>
      </trkpt>
      <trkpt lat="44.82995" lon="20.46431">
        <ele>122.42732</ele>
        <time>2023-03-19T11:14:56.479Z</time>
      </trkpt>
      <trkpt lat="44.82992" lon="20.46419">
        <ele>122.478076</ele>
        <time>2023-03-19T11:15:00.478Z</time>
      </trkpt>
      <trkpt lat="44.82992" lon="20.46402">
        <ele>122.450573</ele>
        <time>2023-03-19T11:15:04.474Z</time>
      </trkpt>
      <trkpt lat="44.82994" lon="20.46388">
        <ele>122.404156</ele>
        <time>2023-03-19T11:15:07.479Z</time>
      </trkpt>
      <trkpt lat="44.82995" lon="20.46374">
        <ele>122.359739</ele>
        <time>2023-03-19T11:15:10.481Z</time>
      </trkpt>
      <trkpt lat="44.83" lon="20.46359">
        <ele>122.309049</ele>
        <time>2023-03-19T11:15:13.486Z</time>
      </trkpt>
      <trkpt lat="44.83006" lon="20.46345">
        <ele>122.257819</ele>
        <time>2023-03-19T11:15:16.476Z</time>
      </trkpt>
      <trkpt lat="44.83008" lon="20.46329">
        <ele>122.207314</ele>
        <time>2023-03-19T11:15:19.486Z</time>
      </trkpt>
      <trkpt lat="44.83006" lon="20.46312">
        <ele>122.154468</ele>
        <time>2023-03-19T11:15:22.481Z</time>
      </trkpt>
      <trkpt lat="44.83006" lon="20.46295">
        <ele>122.102009</ele>
        <time>2023-03-19T11:15:25.500Z</time>
      </trkpt>
      <trkpt lat="44.83007" lon="20.46281">
        <ele>122.05846</ele>
        <time>2023-03-19T11:15:31.482Z</time>
      </trkpt>
      <trkpt lat="44.8301" lon="20.46266">
        <ele>122.006613</ele>
        <time>2023-03-19T11:15:35.490Z</time>
      </trkpt>
      <trkpt lat="44.83015" lon="20.46252">
        <ele>121.959311</ele>
        <time>2023-03-19T11:15:38.474Z</time>
      </trkpt>
      <trkpt lat="44.8302" lon="20.46238">
        <ele>121.909283</ele>
        <time>2023-03-19T11:15:41.479Z</time>
      </trkpt>
      <trkpt lat="44.83022" lon="20.46221">
        <ele>121.856696</ele>
        <time>2023-03-19T11:15:44.502Z</time>
      </trkpt>
      <trkpt lat="44.83023" lon="20.46204">
        <ele>121.803808</ele>
        <time>2023-03-19T11:15:47.478Z</time>
      </trkpt>
      <trkpt lat="44.83026" lon="20.46188">
        <ele>121.749752</ele>
        <time>2023-03-19T11:15:50.496Z</time>
      </trkpt>
      <trkpt lat="44.83029" lon="20.4617">
        <ele>121.707076</ele>
        <time>2023-03-19T11:15:53.489Z</time>
      </trkpt>
      <trkpt lat="44.8303" lon="20.46152">
        <ele>121.84425</ele>
        <time>2023-03-19T11:15:56.477Z</time>
      </trkpt>
      <trkpt lat="44.8303" lon="20.46139">
        <ele>121.941209</ele>
        <time>2023-03-19T11:15:58.472Z</time>
      </trkpt>
      <trkpt lat="44.8303" lon="20.46126">
        <ele>122.038214</ele>
        <time>2023-03-19T11:16:00.486Z</time>
      </trkpt>
      <trkpt lat="44.83031" lon="20.46113">
        <ele>122.132049</ele>
        <time>2023-03-19T11:16:02.491Z</time>
      </trkpt>
      <trkpt lat="44.83034" lon="20.461">
        <ele>122.229525</ele>
        <time>2023-03-19T11:16:04.479Z</time>
      </trkpt>
      <trkpt lat="44.83035" lon="20.46086">
        <ele>122.332853</ele>
        <time>2023-03-19T11:16:06.490Z</time>
      </trkpt>
      <trkpt lat="44.83036" lon="20.46072">
        <ele>122.439104</ele>
        <time>2023-03-19T11:16:08.489Z</time>
      </trkpt>
      <trkpt lat="44.83036" lon="20.46058">
        <ele>122.541286</ele>
        <time>2023-03-19T11:16:10.480Z</time>
      </trkpt>
      <trkpt lat="44.83037" lon="20.46045">
        <ele>122.642593</ele>
        <time>2023-03-19T11:16:12.497Z</time>
      </trkpt>
      <trkpt lat="44.83039" lon="20.46031">
        <ele>122.746114</ele>
        <time>2023-03-19T11:16:14.490Z</time>
      </trkpt>
      <trkpt lat="44.83042" lon="20.46017">
        <ele>122.85441</ele>
        <time>2023-03-19T11:16:16.486Z</time>
      </trkpt>
      <trkpt lat="44.83043" lon="20.46003">
        <ele>122.959643</ele>
        <time>2023-03-19T11:16:18.498Z</time>
      </trkpt>
      <trkpt lat="44.83044" lon="20.45989">
        <ele>123.063046</ele>
        <time>2023-03-19T11:16:20.482Z</time>
      </trkpt>
      <trkpt lat="44.83044" lon="20.45975">
        <ele>123.166666</ele>
        <time>2023-03-19T11:16:22.482Z</time>
      </trkpt>
      <trkpt lat="44.83045" lon="20.4596">
        <ele>123.272917</ele>
        <time>2023-03-19T11:16:24.486Z</time>
      </trkpt>
      <trkpt lat="44.83046" lon="20.45946">
        <ele>123.376319</ele>
        <time>2023-03-19T11:16:26.500Z</time>
      </trkpt>
      <trkpt lat="44.83047" lon="20.45931">
        <ele>123.488584</ele>
        <time>2023-03-19T11:16:28.500Z</time>
      </trkpt>
      <trkpt lat="44.83048" lon="20.45917">
        <ele>123.571023</ele>
        <time>2023-03-19T11:16:30.498Z</time>
      </trkpt>
      <trkpt lat="44.83048" lon="20.45902">
        <ele>123.554191</ele>
        <time>2023-03-19T11:16:32.472Z</time>
      </trkpt>
      <trkpt lat="44.83047" lon="20.45887">
        <ele>123.537803</ele>
        <time>2023-03-19T11:16:34.472Z</time>
      </trkpt>
      <trkpt lat="44.83048" lon="20.45873">
        <ele>123.521534</ele>
        <time>2023-03-19T11:16:36.481Z</time>
      </trkpt>
      <trkpt lat="44.83047" lon="20.45858">
        <ele>123.504361</ele>
        <time>2023-03-19T11:16:38.488Z</time>
      </trkpt>
      <trkpt lat="44.83048" lon="20.45844">
        <ele>123.488313</ele>
        <time>2023-03-19T11:16:40.492Z</time>
      </trkpt>
      <trkpt lat="44.83049" lon="20.4583">
        <ele>123.471918</ele>
        <time>2023-03-19T11:16:42.498Z</time>
      </trkpt>
      <trkpt lat="44.83051" lon="20.45815">
        <ele>123.455164</ele>
        <time>2023-03-19T11:16:44.487Z</time>
      </trkpt>
      <trkpt lat="44.83051" lon="20.45801">
        <ele>123.439563</ele>
        <time>2023-03-19T11:16:46.489Z</time>
      </trkpt>
      <trkpt lat="44.83052" lon="20.45787">
        <ele>123.423281</ele>
        <time>2023-03-19T11:16:48.491Z</time>
      </trkpt>
      <trkpt lat="44.83054" lon="20.45774">
        <ele>123.40819</ele>
        <time>2023-03-19T11:16:50.494Z</time>
      </trkpt>
      <trkpt lat="44.83055" lon="20.4576">
        <ele>123.392302</ele>
        <time>2023-03-19T11:16:52.495Z</time>
      </trkpt>
      <trkpt lat="44.83056" lon="20.45745">
        <ele>123.375097</ele>
        <time>2023-03-19T11:16:54.494Z</time>
      </trkpt>
      <trkpt lat="44.83056" lon="20.4573">
        <ele>123.358265</ele>
        <time>2023-03-19T11:16:56.507Z</time>
      </trkpt>
      <trkpt lat="44.83057" lon="20.45714">
        <ele>123.340262</ele>
        <time>2023-03-19T11:16:58.500Z</time>
      </trkpt>
      <trkpt lat="44.83058" lon="20.457">
        <ele>123.32398</ele>
        <time>2023-03-19T11:17:00.488Z</time>
      </trkpt>
      <trkpt lat="44.83059" lon="20.45686">
        <ele>123.307472</ele>
        <time>2023-03-19T11:17:02.500Z</time>
      </trkpt>
      <trkpt lat="44.83061" lon="20.45673">
        <ele>123.293139</ele>
        <time>2023-03-19T11:17:04.491Z</time>
      </trkpt>
      <trkpt lat="44.83065" lon="20.45661">
        <ele>123.308472</ele>
        <time>2023-03-19T11:17:06.477Z</time>
      </trkpt>
      <trkpt lat="44.83069" lon="20.45648">
        <ele>123.349854</ele>
        <time>2023-03-19T11:17:08.481Z</time>
      </trkpt>
      <trkpt lat="44.83071" lon="20.45633">
        <ele>123.390946</ele>
        <time>2023-03-19T11:17:10.486Z</time>
      </trkpt>
      <trkpt lat="44.83071" lon="20.4562">
        <ele>123.428666</ele>
        <time>2023-03-19T11:17:12.481Z</time>
      </trkpt>
      <trkpt lat="44.83072" lon="20.45607">
        <ele>123.465014</ele>
        <time>2023-03-19T11:17:15.492Z</time>
      </trkpt>
      <trkpt lat="44.83073" lon="20.45591">
        <ele>123.511041</ele>
        <time>2023-03-19T11:17:21.480Z</time>
      </trkpt>
      <trkpt lat="44.83073" lon="20.45576">
        <ele>123.554421</ele>
        <time>2023-03-19T11:17:24.473Z</time>
      </trkpt>
      <trkpt lat="44.83074" lon="20.45563">
        <ele>123.592476</ele>
        <time>2023-03-19T11:17:26.500Z</time>
      </trkpt>
      <trkpt lat="44.83074" lon="20.45549">
        <ele>123.631017</ele>
        <time>2023-03-19T11:17:28.489Z</time>
      </trkpt>
      <trkpt lat="44.83073" lon="20.45535">
        <ele>123.671016</ele>
        <time>2023-03-19T11:17:30.499Z</time>
      </trkpt>
      <trkpt lat="44.83073" lon="20.45522">
        <ele>123.709305</ele>
        <time>2023-03-19T11:17:32.501Z</time>
      </trkpt>
      <trkpt lat="44.83072" lon="20.45509">
        <ele>123.747575</ele>
        <time>2023-03-19T11:17:34.495Z</time>
      </trkpt>
      <trkpt lat="44.83072" lon="20.45495">
        <ele>123.786116</ele>
        <time>2023-03-19T11:17:36.486Z</time>
      </trkpt>
      <trkpt lat="44.83073" lon="20.45481">
        <ele>123.824975</ele>
        <time>2023-03-19T11:17:38.487Z</time>
      </trkpt>
      <trkpt lat="44.83072" lon="20.45468">
        <ele>123.863631</ele>
        <time>2023-03-19T11:17:40.489Z</time>
      </trkpt>
      <trkpt lat="44.83072" lon="20.45455">
        <ele>123.901582</ele>
        <time>2023-03-19T11:17:42.493Z</time>
      </trkpt>
      <trkpt lat="44.83071" lon="20.45441">
        <ele>123.939871</ele>
        <time>2023-03-19T11:17:44.491Z</time>
      </trkpt>
      <trkpt lat="44.8307" lon="20.45428">
        <ele>123.977751</ele>
        <time>2023-03-19T11:17:46.492Z</time>
      </trkpt>
      <trkpt lat="44.83069" lon="20.45414">
        <ele>123.999303</ele>
        <time>2023-03-19T11:17:48.491Z</time>
      </trkpt>
      <trkpt lat="44.83068" lon="20.45401">
        <ele>123.94859</ele>
        <time>2023-03-19T11:17:50.480Z</time>
      </trkpt>
      <trkpt lat="44.83067" lon="20.45387">
        <ele>123.895892</ele>
        <time>2023-03-19T11:17:52.504Z</time>
      </trkpt>
      <trkpt lat="44.83066" lon="20.45373">
        <ele>123.844743</ele>
        <time>2023-03-19T11:17:54.482Z</time>
      </trkpt>
      <trkpt lat="44.83065" lon="20.45359">
        <ele>123.791415</ele>
        <time>2023-03-19T11:17:56.500Z</time>
      </trkpt>
      <trkpt lat="44.83064" lon="20.45345">
        <ele>123.737145</ele>
        <time>2023-03-19T11:17:58.477Z</time>
      </trkpt>
      <trkpt lat="44.83062" lon="20.45331">
        <ele>123.683656</ele>
        <time>2023-03-19T11:18:00.502Z</time>
      </trkpt>
      <trkpt lat="44.83061" lon="20.45316">
        <ele>123.629635</ele>
        <time>2023-03-19T11:18:02.495Z</time>
      </trkpt>
      <trkpt lat="44.8306" lon="20.45302">
        <ele>123.5755</ele>
        <time>2023-03-19T11:18:04.494Z</time>
      </trkpt>
      <trkpt lat="44.83058" lon="20.45289">
        <ele>123.524228</ele>
        <time>2023-03-19T11:18:06.501Z</time>
      </trkpt>
      <trkpt lat="44.83056" lon="20.45275">
        <ele>123.472486</ele>
        <time>2023-03-19T11:18:08.494Z</time>
      </trkpt>
      <trkpt lat="44.83054" lon="20.45262">
        <ele>123.420475</ele>
        <time>2023-03-19T11:18:10.503Z</time>
      </trkpt>
      <trkpt lat="44.83052" lon="20.45248">
        <ele>123.366692</ele>
        <time>2023-03-19T11:18:12.483Z</time>
      </trkpt>
      <trkpt lat="44.83045" lon="20.45231">
        <ele>123.294778</ele>
        <time>2023-03-19T11:18:15.485Z</time>
      </trkpt>
      <trkpt lat="44.83042" lon="20.45218">
        <ele>123.242147</ele>
        <time>2023-03-19T11:18:17.500Z</time>
      </trkpt>
      <trkpt lat="44.83039" lon="20.45206">
        <ele>123.193022</ele>
        <time>2023-03-19T11:18:19.497Z</time>
      </trkpt>
      <trkpt lat="44.83037" lon="20.45193">
        <ele>123.144338</ele>
        <time>2023-03-19T11:18:21.476Z</time>
      </trkpt>
      <trkpt lat="44.83033" lon="20.4518">
        <ele>123.092171</ele>
        <time>2023-03-19T11:18:23.500Z</time>
      </trkpt>
      <trkpt lat="44.83029" lon="20.45167">
        <ele>123.067052</ele>
        <time>2023-03-19T11:18:25.500Z</time>
      </trkpt>
      <trkpt lat="44.83026" lon="20.45153">
        <ele>123.095068</ele>
        <time>2023-03-19T11:18:27.491Z</time>
      </trkpt>
      <trkpt lat="44.83024" lon="20.4514">
        <ele>123.123422</ele>
        <time>2023-03-19T11:18:29.507Z</time>
      </trkpt>
      <trkpt lat="44.83021" lon="20.45127">
        <ele>123.151153</ele>
        <time>2023-03-19T11:18:31.478Z</time>
      </trkpt>
      <trkpt lat="44.83017" lon="20.45114">
        <ele>123.179825</ele>
        <time>2023-03-19T11:18:33.500Z</time>
      </trkpt>
      <trkpt lat="44.83012" lon="20.45101">
        <ele>123.210953</ele>
        <time>2023-03-19T11:18:35.500Z</time>
      </trkpt>
      <trkpt lat="44.83008" lon="20.45089">
        <ele>123.23727</ele>
        <time>2023-03-19T11:18:37.493Z</time>
      </trkpt>
      <trkpt lat="44.83003" lon="20.45076">
        <ele>123.267605</ele>
        <time>2023-03-19T11:18:40.478Z</time>
      </trkpt>
      <trkpt lat="44.83002" lon="20.45058">
        <ele>123.304107</ele>
        <time>2023-03-19T11:18:43.478Z</time>
      </trkpt>
      <trkpt lat="44.82998" lon="20.45046">
        <ele>123.331426</ele>
        <time>2023-03-19T11:18:45.488Z</time>
      </trkpt>
      <trkpt lat="44.8299" lon="20.45032">
        <ele>123.368397</ele>
        <time>2023-03-19T11:18:48.481Z</time>
      </trkpt>
      <trkpt lat="44.82983" lon="20.45019">
        <ele>123.401539</ele>
        <time>2023-03-19T11:18:51.475Z</time>
      </trkpt>
      <trkpt lat="44.8298" lon="20.45006">
        <ele>123.429735</ele>
        <time>2023-03-19T11:18:53.479Z</time>
      </trkpt>
      <trkpt lat="44.82975" lon="20.44994">
        <ele>123.456688</ele>
        <time>2023-03-19T11:18:55.485Z</time>
      </trkpt>
      <trkpt lat="44.82969" lon="20.44984">
        <ele>123.485483</ele>
        <time>2023-03-19T11:18:57.475Z</time>
      </trkpt>
      <trkpt lat="44.82964" lon="20.44972">
        <ele>123.513047</ele>
        <time>2023-03-19T11:18:59.501Z</time>
      </trkpt>
      <trkpt lat="44.82959" lon="20.44961">
        <ele>123.539681</ele>
        <time>2023-03-19T11:19:01.476Z</time>
      </trkpt>
      <trkpt lat="44.82954" lon="20.44949">
        <ele>123.567824</ele>
        <time>2023-03-19T11:19:03.498Z</time>
      </trkpt>
      <trkpt lat="44.82948" lon="20.44937">
        <ele>123.458604</ele>
        <time>2023-03-19T11:19:05.497Z</time>
      </trkpt>
      <trkpt lat="44.82942" lon="20.44926">
        <ele>123.316098</ele>
        <time>2023-03-19T11:19:07.500Z</time>
      </trkpt>
      <trkpt lat="44.82936" lon="20.44913">
        <ele>123.16625</ele>
        <time>2023-03-19T11:19:09.491Z</time>
      </trkpt>
      <trkpt lat="44.82931" lon="20.44901">
        <ele>123.021777</ele>
        <time>2023-03-19T11:19:11.489Z</time>
      </trkpt>
      <trkpt lat="44.82925" lon="20.44889">
        <ele>122.876661</ele>
        <time>2023-03-19T11:19:13.480Z</time>
      </trkpt>
      <trkpt lat="44.82918" lon="20.44877">
        <ele>122.724035</ele>
        <time>2023-03-19T11:19:15.474Z</time>
      </trkpt>
      <trkpt lat="44.82911" lon="20.44865">
        <ele>122.569461</ele>
        <time>2023-03-19T11:19:17.500Z</time>
      </trkpt>
      <trkpt lat="44.82904" lon="20.44854">
        <ele>122.414719</ele>
        <time>2023-03-19T11:19:19.492Z</time>
      </trkpt>
      <trkpt lat="44.82897" lon="20.44842">
        <ele>122.258956</ele>
        <time>2023-03-19T11:19:21.472Z</time>
      </trkpt>
      <trkpt lat="44.82889" lon="20.4483">
        <ele>122.094816</ele>
        <time>2023-03-19T11:19:23.485Z</time>
      </trkpt>
      <trkpt lat="44.82882" lon="20.44818">
        <ele>121.93763</ele>
        <time>2023-03-19T11:19:25.497Z</time>
      </trkpt>
      <trkpt lat="44.82874" lon="20.44806">
        <ele>121.774737</ele>
        <time>2023-03-19T11:19:27.485Z</time>
      </trkpt>
      <trkpt lat="44.82867" lon="20.44794">
        <ele>121.615976</ele>
        <time>2023-03-19T11:19:29.490Z</time>
      </trkpt>
      <trkpt lat="44.82861" lon="20.44783">
        <ele>121.478971</ele>
        <time>2023-03-19T11:19:31.500Z</time>
      </trkpt>
      <trkpt lat="44.82854" lon="20.44768">
        <ele>121.299646</ele>
        <time>2023-03-19T11:19:34.501Z</time>
      </trkpt>
      <trkpt lat="44.82843" lon="20.44762">
        <ele>121.132639</ele>
        <time>2023-03-19T11:19:37.483Z</time>
      </trkpt>
      <trkpt lat="44.82834" lon="20.44763">
        <ele>121.017327</ele>
        <time>2023-03-19T11:19:39.493Z</time>
      </trkpt>
      <trkpt lat="44.82825" lon="20.44769">
        <ele>120.950589</ele>
        <time>2023-03-19T11:19:41.468Z</time>
      </trkpt>
      <trkpt lat="44.82816" lon="20.44769">
        <ele>120.891974</ele>
        <time>2023-03-19T11:19:43.481Z</time>
      </trkpt>
      <trkpt lat="44.82813" lon="20.44751">
        <ele>120.809893</ele>
        <time>2023-03-19T11:19:46.476Z</time>
      </trkpt>
      <trkpt lat="44.82813" lon="20.44738">
        <ele>120.748228</ele>
        <time>2023-03-19T11:19:48.475Z</time>
      </trkpt>
      <trkpt lat="44.82812" lon="20.44725">
        <ele>120.687615</ele>
        <time>2023-03-19T11:19:50.481Z</time>
      </trkpt>
      <trkpt lat="44.82807" lon="20.44713">
        <ele>120.626989</ele>
        <time>2023-03-19T11:19:52.478Z</time>
      </trkpt>
      <trkpt lat="44.82799" lon="20.44704">
        <ele>120.559132</ele>
        <time>2023-03-19T11:19:54.479Z</time>
      </trkpt>
      <trkpt lat="44.8279" lon="20.44695">
        <ele>120.489649</ele>
        <time>2023-03-19T11:19:56.482Z</time>
      </trkpt>
      <trkpt lat="44.82781" lon="20.44686">
        <ele>120.418838</ele>
        <time>2023-03-19T11:19:58.499Z</time>
      </trkpt>
      <trkpt lat="44.82772" lon="20.44677">
        <ele>120.343822</ele>
        <time>2023-03-19T11:20:00.489Z</time>
      </trkpt>
      <trkpt lat="44.82761" lon="20.44668">
        <ele>120.266379</ele>
        <time>2023-03-19T11:20:02.490Z</time>
      </trkpt>
      <trkpt lat="44.82752" lon="20.44658">
        <ele>120.190053</ele>
        <time>2023-03-19T11:20:04.472Z</time>
      </trkpt>
      <trkpt lat="44.82742" lon="20.4465">
        <ele>120.116554</ele>
        <time>2023-03-19T11:20:06.487Z</time>
      </trkpt>
      <trkpt lat="44.82732" lon="20.44641">
        <ele>120.039847</ele>
        <time>2023-03-19T11:20:08.482Z</time>
      </trkpt>
      <trkpt lat="44.82722" lon="20.44632">
        <ele>119.963069</ele>
        <time>2023-03-19T11:20:10.497Z</time>
      </trkpt>
      <trkpt lat="44.82712" lon="20.44624">
        <ele>119.889336</ele>
        <time>2023-03-19T11:20:12.494Z</time>
      </trkpt>
      <trkpt lat="44.82701" lon="20.44617">
        <ele>119.957402</ele>
        <time>2023-03-19T11:20:14.492Z</time>
      </trkpt>
      <trkpt lat="44.82692" lon="20.44608">
        <ele>120.07835</ele>
        <time>2023-03-19T11:20:16.501Z</time>
      </trkpt>
      <trkpt lat="44.82683" lon="20.44597">
        <ele>120.202887</ele>
        <time>2023-03-19T11:20:18.496Z</time>
      </trkpt>
      <trkpt lat="44.82671" lon="20.44591">
        <ele>120.330864</ele>
        <time>2023-03-19T11:20:20.493Z</time>
      </trkpt>
      <trkpt lat="44.82659" lon="20.44585">
        <ele>120.464102</ele>
        <time>2023-03-19T11:20:22.483Z</time>
      </trkpt>
      <trkpt lat="44.82648" lon="20.4458">
        <ele>120.588757</ele>
        <time>2023-03-19T11:20:24.497Z</time>
      </trkpt>
      <trkpt lat="44.82636" lon="20.44578">
        <ele>120.711334</ele>
        <time>2023-03-19T11:20:26.505Z</time>
      </trkpt>
      <trkpt lat="44.82624" lon="20.44579">
        <ele>120.832371</ele>
        <time>2023-03-19T11:20:28.479Z</time>
      </trkpt>
      <trkpt lat="44.82614" lon="20.4458">
        <ele>120.942538</ele>
        <time>2023-03-19T11:20:30.487Z</time>
      </trkpt>
      <trkpt lat="44.82602" lon="20.4458">
        <ele>121.06197</ele>
        <time>2023-03-19T11:20:32.480Z</time>
      </trkpt>
      <trkpt lat="44.82592" lon="20.44586">
        <ele>121.174127</ele>
        <time>2023-03-19T11:20:35.480Z</time>
      </trkpt>
      <trkpt lat="44.82583" lon="20.44589">
        <ele>121.278759</ele>
        <time>2023-03-19T11:20:38.483Z</time>
      </trkpt>
      <trkpt lat="44.82573" lon="20.44593">
        <ele>121.384115</ele>
        <time>2023-03-19T11:20:41.479Z</time>
      </trkpt>
      <trkpt lat="44.82564" lon="20.44596">
        <ele>121.479669</ele>
        <time>2023-03-19T11:20:44.501Z</time>
      </trkpt>
      <trkpt lat="44.82553" lon="20.44597">
        <ele>121.587059</ele>
        <time>2023-03-19T11:20:47.495Z</time>
      </trkpt>
      <trkpt lat="44.82541" lon="20.44597">
        <ele>121.711675</ele>
        <time>2023-03-19T11:20:50.501Z</time>
      </trkpt>
      <trkpt lat="44.82529" lon="20.44596">
        <ele>121.761456</ele>
        <time>2023-03-19T11:20:53.493Z</time>
      </trkpt>
      <trkpt lat="44.82518" lon="20.44596">
        <ele>121.790002</ele>
        <time>2023-03-19T11:20:56.475Z</time>
      </trkpt>
      <trkpt lat="44.82508" lon="20.44595">
        <ele>121.815325</ele>
        <time>2023-03-19T11:20:59.489Z</time>
      </trkpt>
      <trkpt lat="44.82499" lon="20.44594">
        <ele>121.838185</ele>
        <time>2023-03-19T11:21:02.497Z</time>
      </trkpt>
      <trkpt lat="44.82488" lon="20.44594">
        <ele>121.863991</ele>
        <time>2023-03-19T11:21:06.492Z</time>
      </trkpt>
      <trkpt lat="44.82479" lon="20.446">
        <ele>121.888543</ele>
        <time>2023-03-19T11:21:15.489Z</time>
      </trkpt>
      <trkpt lat="44.82468" lon="20.446">
        <ele>121.915841</ele>
        <time>2023-03-19T11:21:34.503Z</time>
      </trkpt>
      <trkpt lat="44.82459" lon="20.44602">
        <ele>121.939293</ele>
        <time>2023-03-19T11:21:37.502Z</time>
      </trkpt>
      <trkpt lat="44.82447" lon="20.44604">
        <ele>121.968289</ele>
        <time>2023-03-19T11:21:41.500Z</time>
      </trkpt>
      <trkpt lat="44.82437" lon="20.44602">
        <ele>121.994872</ele>
        <time>2023-03-19T11:21:46.489Z</time>
      </trkpt>
      <trkpt lat="44.82426" lon="20.44603">
        <ele>122.022221</ele>
        <time>2023-03-19T11:21:49.488Z</time>
      </trkpt>
      <trkpt lat="44.82415" lon="20.44606">
        <ele>122.05008</ele>
        <time>2023-03-19T11:21:52.492Z</time>
      </trkpt>
      <trkpt lat="44.82404" lon="20.44612">
        <ele>122.078922</ele>
        <time>2023-03-19T11:21:56.503Z</time>
      </trkpt>
      <trkpt lat="44.82393" lon="20.44616">
        <ele>122.106103</ele>
        <time>2023-03-19T11:21:59.486Z</time>
      </trkpt>
      <trkpt lat="44.82383" lon="20.44619">
        <ele>122.131129</ele>
        <time>2023-03-19T11:22:02.493Z</time>
      </trkpt>
      <trkpt lat="44.82373" lon="20.44622">
        <ele>122.15646</ele>
        <time>2023-03-19T11:22:05.498Z</time>
      </trkpt>
      <trkpt lat="44.82363" lon="20.44625">
        <ele>122.182989</ele>
        <time>2023-03-19T11:22:08.501Z</time>
      </trkpt>
      <trkpt lat="44.82352" lon="20.44628">
        <ele>122.295275</ele>
        <time>2023-03-19T11:22:11.500Z</time>
      </trkpt>
      <trkpt lat="44.82341" lon="20.44632">
        <ele>122.414447</ele>
        <time>2023-03-19T11:22:14.506Z</time>
      </trkpt>
      <trkpt lat="44.8233" lon="20.44634">
        <ele>122.53091</ele>
        <time>2023-03-19T11:22:17.480Z</time>
      </trkpt>
      <trkpt lat="44.82319" lon="20.44634">
        <ele>122.641857</ele>
        <time>2023-03-19T11:22:20.478Z</time>
      </trkpt>
      <trkpt lat="44.82309" lon="20.44634">
        <ele>122.745611</ele>
        <time>2023-03-19T11:22:23.498Z</time>
      </trkpt>
      <trkpt lat="44.82299" lon="20.44636">
        <ele>122.852912</ele>
        <time>2023-03-19T11:22:26.494Z</time>
      </trkpt>
      <trkpt lat="44.8229" lon="20.44637">
        <ele>122.951402</ele>
        <time>2023-03-19T11:22:29.495Z</time>
      </trkpt>
      <trkpt lat="44.82279" lon="20.44637">
        <ele>123.061265</ele>
        <time>2023-03-19T11:22:34.500Z</time>
      </trkpt>
      <trkpt lat="44.82271" lon="20.44627">
        <ele>123.171507</ele>
        <time>2023-03-19T11:22:37.490Z</time>
      </trkpt>
      <trkpt lat="44.8226" lon="20.44632">
        <ele>123.293987</ele>
        <time>2023-03-19T11:22:43.478Z</time>
      </trkpt>
      <trkpt lat="44.82249" lon="20.44639">
        <ele>123.423214</ele>
        <time>2023-03-19T11:22:47.477Z</time>
      </trkpt>
      <trkpt lat="44.82238" lon="20.44645">
        <ele>123.543162</ele>
        <time>2023-03-19T11:22:50.502Z</time>
      </trkpt>
      <trkpt lat="44.82229" lon="20.44654">
        <ele>123.663377</ele>
        <time>2023-03-19T11:22:53.496Z</time>
      </trkpt>
      <trkpt lat="44.82219" lon="20.44663">
        <ele>123.780118</ele>
        <time>2023-03-19T11:22:56.494Z</time>
      </trkpt>
      <trkpt lat="44.8221" lon="20.44671">
        <ele>123.891045</ele>
        <time>2023-03-19T11:22:59.499Z</time>
      </trkpt>
      <trkpt lat="44.82206" lon="20.44676">
        <ele>123.95305</ele>
        <time>2023-03-19T11:23:11.676Z</time>
      </trkpt>
      <trkpt lat="44.82194" lon="20.44685">
        <ele>124.099281</ele>
        <time>2023-03-19T11:24:04.500Z</time>
      </trkpt>
      <trkpt lat="44.82186" lon="20.44691">
        <ele>124.222635</ele>
        <time>2023-03-19T11:24:07.480Z</time>
      </trkpt>
      <trkpt lat="44.82175" lon="20.44701">
        <ele>124.387599</ele>
        <time>2023-03-19T11:24:10.474Z</time>
      </trkpt>
      <trkpt lat="44.82162" lon="20.44706">
        <ele>124.560386</ele>
        <time>2023-03-19T11:24:13.482Z</time>
      </trkpt>
      <trkpt lat="44.82153" lon="20.44701">
        <ele>124.686265</ele>
        <time>2023-03-19T11:24:15.486Z</time>
      </trkpt>
      <trkpt lat="44.82144" lon="20.44697">
        <ele>124.817399</ele>
        <time>2023-03-19T11:24:17.479Z</time>
      </trkpt>
      <trkpt lat="44.82134" lon="20.44699">
        <ele>124.943524</ele>
        <time>2023-03-19T11:24:19.482Z</time>
      </trkpt>
      <trkpt lat="44.82125" lon="20.44705">
        <ele>125.066335</ele>
        <time>2023-03-19T11:24:21.481Z</time>
      </trkpt>
      <trkpt lat="44.82116" lon="20.4471">
        <ele>125.197456</ele>
        <time>2023-03-19T11:24:23.490Z</time>
      </trkpt>
      <trkpt lat="44.82107" lon="20.44716">
        <ele>125.336433</ele>
        <time>2023-03-19T11:24:25.490Z</time>
      </trkpt>
      <trkpt lat="44.82097" lon="20.44722">
        <ele>125.469602</ele>
        <time>2023-03-19T11:24:27.471Z</time>
      </trkpt>
      <trkpt lat="44.82088" lon="20.44729">
        <ele>125.61162</ele>
        <time>2023-03-19T11:24:29.484Z</time>
      </trkpt>
      <trkpt lat="44.82078" lon="20.44735">
        <ele>125.744648</ele>
        <time>2023-03-19T11:24:31.479Z</time>
      </trkpt>
      <trkpt lat="44.82069" lon="20.44743">
        <ele>125.885522</ele>
        <time>2023-03-19T11:24:33.497Z</time>
      </trkpt>
      <trkpt lat="44.82061" lon="20.4475">
        <ele>126.016625</ele>
        <time>2023-03-19T11:24:35.486Z</time>
      </trkpt>
      <trkpt lat="44.82052" lon="20.44757">
        <ele>126.151826</ele>
        <time>2023-03-19T11:24:37.476Z</time>
      </trkpt>
      <trkpt lat="44.82043" lon="20.44764">
        <ele>126.283409</ele>
        <time>2023-03-19T11:24:39.476Z</time>
      </trkpt>
      <trkpt lat="44.82034" lon="20.44771">
        <ele>126.414481</ele>
        <time>2023-03-19T11:24:41.484Z</time>
      </trkpt>
      <trkpt lat="44.82025" lon="20.44778">
        <ele>126.393263</ele>
        <time>2023-03-19T11:24:43.498Z</time>
      </trkpt>
      <trkpt lat="44.82015" lon="20.44783">
        <ele>126.366556</ele>
        <time>2023-03-19T11:24:45.490Z</time>
      </trkpt>
      <trkpt lat="44.82006" lon="20.4479">
        <ele>126.339873</ele>
        <time>2023-03-19T11:24:47.477Z</time>
      </trkpt>
      <trkpt lat="44.81996" lon="20.44797">
        <ele>126.310887</ele>
        <time>2023-03-19T11:24:49.500Z</time>
      </trkpt>
      <trkpt lat="44.81987" lon="20.44802">
        <ele>126.285863</ele>
        <time>2023-03-19T11:24:51.493Z</time>
      </trkpt>
      <trkpt lat="44.81978" lon="20.44807">
        <ele>126.260154</ele>
        <time>2023-03-19T11:24:53.484Z</time>
      </trkpt>
      <trkpt lat="44.81969" lon="20.44813">
        <ele>126.233012</ele>
        <time>2023-03-19T11:24:55.500Z</time>
      </trkpt>
      <trkpt lat="44.81959" lon="20.44818">
        <ele>126.207169</ele>
        <time>2023-03-19T11:24:57.488Z</time>
      </trkpt>
      <trkpt lat="44.8195" lon="20.44824">
        <ele>126.180346</ele>
        <time>2023-03-19T11:24:59.502Z</time>
      </trkpt>
      <trkpt lat="44.81941" lon="20.4483">
        <ele>126.154228</ele>
        <time>2023-03-19T11:25:01.484Z</time>
      </trkpt>
      <trkpt lat="44.81932" lon="20.44835">
        <ele>126.12821</ele>
        <time>2023-03-19T11:25:03.485Z</time>
      </trkpt>
      <trkpt lat="44.81922" lon="20.4484">
        <ele>126.101344</ele>
        <time>2023-03-19T11:25:05.497Z</time>
      </trkpt>
      <trkpt lat="44.81913" lon="20.44847">
        <ele>126.07491</ele>
        <time>2023-03-19T11:25:07.473Z</time>
      </trkpt>
      <trkpt lat="44.81904" lon="20.44851">
        <ele>126.049886</ele>
        <time>2023-03-19T11:25:09.477Z</time>
      </trkpt>
      <trkpt lat="44.81895" lon="20.44857">
        <ele>126.024042</ele>
        <time>2023-03-19T11:25:11.501Z</time>
      </trkpt>
      <trkpt lat="44.81886" lon="20.4486">
        <ele>125.999841</ele>
        <time>2023-03-19T11:25:13.475Z</time>
      </trkpt>
      <trkpt lat="44.81877" lon="20.44865">
        <ele>125.975995</ele>
        <time>2023-03-19T11:25:15.479Z</time>
      </trkpt>
      <trkpt lat="44.81865" lon="20.44873">
        <ele>125.897707</ele>
        <time>2023-03-19T11:25:18.485Z</time>
      </trkpt>
      <trkpt lat="44.81856" lon="20.44878">
        <ele>125.756069</ele>
        <time>2023-03-19T11:25:20.489Z</time>
      </trkpt>
      <trkpt lat="44.81843" lon="20.44882">
        <ele>125.559739</ele>
        <time>2023-03-19T11:25:23.504Z</time>
      </trkpt>
      <trkpt lat="44.81833" lon="20.44886">
        <ele>125.414549</ele>
        <time>2023-03-19T11:25:25.482Z</time>
      </trkpt>
      <trkpt lat="44.81824" lon="20.4489">
        <ele>125.277463</ele>
        <time>2023-03-19T11:25:27.490Z</time>
      </trkpt>
      <trkpt lat="44.81815" lon="20.44896">
        <ele>125.136417</ele>
        <time>2023-03-19T11:25:29.483Z</time>
      </trkpt>
      <trkpt lat="44.81808" lon="20.44906">
        <ele>124.989217</ele>
        <time>2023-03-19T11:25:31.487Z</time>
      </trkpt>
      <trkpt lat="44.81802" lon="20.44918">
        <ele>124.837438</ele>
        <time>2023-03-19T11:25:33.478Z</time>
      </trkpt>
      <trkpt lat="44.81794" lon="20.44927">
        <ele>124.684926</ele>
        <time>2023-03-19T11:25:35.502Z</time>
      </trkpt>
      <trkpt lat="44.81783" lon="20.4493">
        <ele>124.530849</ele>
        <time>2023-03-19T11:25:37.483Z</time>
      </trkpt>
      <trkpt lat="44.81773" lon="20.44933">
        <ele>124.37636</ele>
        <time>2023-03-19T11:25:39.478Z</time>
      </trkpt>
      <trkpt lat="44.81762" lon="20.44936">
        <ele>124.217821</ele>
        <time>2023-03-19T11:25:41.498Z</time>
      </trkpt>
      <trkpt lat="44.81751" lon="20.4494">
        <ele>124.053186</ele>
        <time>2023-03-19T11:25:43.496Z</time>
      </trkpt>
      <trkpt lat="44.81741" lon="20.44943">
        <ele>123.899324</ele>
        <time>2023-03-19T11:25:45.499Z</time>
      </trkpt>
      <trkpt lat="44.8173" lon="20.44946">
        <ele>123.740562</ele>
        <time>2023-03-19T11:25:47.474Z</time>
      </trkpt>
      <trkpt lat="44.81719" lon="20.44948">
        <ele>123.576096</ele>
        <time>2023-03-19T11:25:49.482Z</time>
      </trkpt>
      <trkpt lat="44.81708" lon="20.44951">
        <ele>123.421963</ele>
        <time>2023-03-19T11:25:51.487Z</time>
      </trkpt>
      <trkpt lat="44.81697" lon="20.44954">
        <ele>123.29177</ele>
        <time>2023-03-19T11:25:53.492Z</time>
      </trkpt>
      <trkpt lat="44.81686" lon="20.44958">
        <ele>123.19414</ele>
        <time>2023-03-19T11:25:55.498Z</time>
      </trkpt>
      <trkpt lat="44.81676" lon="20.44961">
        <ele>123.095764</ele>
        <time>2023-03-19T11:25:57.474Z</time>
      </trkpt>
      <trkpt lat="44.81665" lon="20.44964">
        <ele>122.997129</ele>
        <time>2023-03-19T11:25:59.496Z</time>
      </trkpt>
      <trkpt lat="44.81654" lon="20.44968">
        <ele>122.898942</ele>
        <time>2023-03-19T11:26:01.484Z</time>
      </trkpt>
      <trkpt lat="44.81644" lon="20.44971">
        <ele>122.802921</ele>
        <time>2023-03-19T11:26:03.475Z</time>
      </trkpt>
      <trkpt lat="44.81632" lon="20.44975">
        <ele>122.700816</ele>
        <time>2023-03-19T11:26:05.491Z</time>
      </trkpt>
      <trkpt lat="44.81622" lon="20.4498">
        <ele>122.601247</ele>
        <time>2023-03-19T11:26:07.473Z</time>
      </trkpt>
      <trkpt lat="44.81611" lon="20.44983">
        <ele>122.505662</ele>
        <time>2023-03-19T11:26:09.472Z</time>
      </trkpt>
      <trkpt lat="44.81601" lon="20.44986">
        <ele>122.406412</ele>
        <time>2023-03-19T11:26:11.474Z</time>
      </trkpt>
      <trkpt lat="44.8159" lon="20.44989">
        <ele>122.308921</ele>
        <time>2023-03-19T11:26:13.477Z</time>
      </trkpt>
      <trkpt lat="44.81578" lon="20.44991">
        <ele>122.204964</ele>
        <time>2023-03-19T11:26:15.498Z</time>
      </trkpt>
      <trkpt lat="44.81567" lon="20.44994">
        <ele>122.100126</ele>
        <time>2023-03-19T11:26:17.481Z</time>
      </trkpt>
      <trkpt lat="44.81555" lon="20.44995">
        <ele>121.99882</ele>
        <time>2023-03-19T11:26:19.499Z</time>
      </trkpt>
      <trkpt lat="44.81544" lon="20.44997">
        <ele>121.897719</ele>
        <time>2023-03-19T11:26:21.470Z</time>
      </trkpt>
      <trkpt lat="44.81533" lon="20.44999">
        <ele>121.796953</ele>
        <time>2023-03-19T11:26:23.499Z</time>
      </trkpt>
      <trkpt lat="44.81522" lon="20.45">
        <ele>121.791542</ele>
        <time>2023-03-19T11:26:25.489Z</time>
      </trkpt>
      <trkpt lat="44.8151" lon="20.45002">
        <ele>121.904374</ele>
        <time>2023-03-19T11:26:27.476Z</time>
      </trkpt>
      <trkpt lat="44.81501" lon="20.44999">
        <ele>121.992645</ele>
        <time>2023-03-19T11:26:29.489Z</time>
      </trkpt>
      <trkpt lat="44.8149" lon="20.44991">
        <ele>122.108834</ele>
        <time>2023-03-19T11:26:32.473Z</time>
      </trkpt>
      <trkpt lat="44.81477" lon="20.44994">
        <ele>122.237737</ele>
        <time>2023-03-19T11:26:34.486Z</time>
      </trkpt>
      <trkpt lat="44.81466" lon="20.44996">
        <ele>122.346827</ele>
        <time>2023-03-19T11:26:36.471Z</time>
      </trkpt>
      <trkpt lat="44.81455" lon="20.44996">
        <ele>122.451391</ele>
        <time>2023-03-19T11:26:38.472Z</time>
      </trkpt>
      <trkpt lat="44.81444" lon="20.44996">
        <ele>122.54924</ele>
        <time>2023-03-19T11:26:40.474Z</time>
      </trkpt>
      <trkpt lat="44.81434" lon="20.44996">
        <ele>122.647088</ele>
        <time>2023-03-19T11:26:42.485Z</time>
      </trkpt>
      <trkpt lat="44.81424" lon="20.44995">
        <ele>122.749877</ele>
        <time>2023-03-19T11:26:44.488Z</time>
      </trkpt>
      <trkpt lat="44.81413" lon="20.44996">
        <ele>122.850833</ele>
        <time>2023-03-19T11:26:46.474Z</time>
      </trkpt>
      <trkpt lat="44.81402" lon="20.44996">
        <ele>122.952528</ele>
        <time>2023-03-19T11:26:48.502Z</time>
      </trkpt>
      <trkpt lat="44.81393" lon="20.44996">
        <ele>123.044684</ele>
        <time>2023-03-19T11:26:50.494Z</time>
      </trkpt>
      <trkpt lat="44.81379" lon="20.44995">
        <ele>123.173259</ele>
        <time>2023-03-19T11:26:53.486Z</time>
      </trkpt>
      <trkpt lat="44.8137" lon="20.44995">
        <ele>123.259596</ele>
        <time>2023-03-19T11:26:55.473Z</time>
      </trkpt>
      <trkpt lat="44.81361" lon="20.44995">
        <ele>123.346903</ele>
        <time>2023-03-19T11:26:57.476Z</time>
      </trkpt>
      <trkpt lat="44.81352" lon="20.44994">
        <ele>123.438242</ele>
        <time>2023-03-19T11:26:59.497Z</time>
      </trkpt>
      <trkpt lat="44.81342" lon="20.44993">
        <ele>123.509149</ele>
        <time>2023-03-19T11:27:01.490Z</time>
      </trkpt>
      <trkpt lat="44.81332" lon="20.44992">
        <ele>123.567118</ele>
        <time>2023-03-19T11:27:03.478Z</time>
      </trkpt>
      <trkpt lat="44.81323" lon="20.4499">
        <ele>123.623797</ele>
        <time>2023-03-19T11:27:05.480Z</time>
      </trkpt>
      <trkpt lat="44.81313" lon="20.44988">
        <ele>123.68462</ele>
        <time>2023-03-19T11:27:07.475Z</time>
      </trkpt>
      <trkpt lat="44.81304" lon="20.44987">
        <ele>123.742626</ele>
        <time>2023-03-19T11:27:09.475Z</time>
      </trkpt>
      <trkpt lat="44.81294" lon="20.44985">
        <ele>123.801042</ele>
        <time>2023-03-19T11:27:11.489Z</time>
      </trkpt>
      <trkpt lat="44.81284" lon="20.44983">
        <ele>123.86301</ele>
        <time>2023-03-19T11:27:13.475Z</time>
      </trkpt>
      <trkpt lat="44.81274" lon="20.44981">
        <ele>123.925163</ele>
        <time>2023-03-19T11:27:15.473Z</time>
      </trkpt>
      <trkpt lat="44.81265" lon="20.44979">
        <ele>123.982585</ele>
        <time>2023-03-19T11:27:17.487Z</time>
      </trkpt>
      <trkpt lat="44.81254" lon="20.44976">
        <ele>124.048346</ele>
        <time>2023-03-19T11:27:19.497Z</time>
      </trkpt>
      <trkpt lat="44.81245" lon="20.44975">
        <ele>124.106958</ele>
        <time>2023-03-19T11:27:21.476Z</time>
      </trkpt>
      <trkpt lat="44.81234" lon="20.44973">
        <ele>124.170132</ele>
        <time>2023-03-19T11:27:23.503Z</time>
      </trkpt>
      <trkpt lat="44.81224" lon="20.44971">
        <ele>124.231152</ele>
        <time>2023-03-19T11:27:25.489Z</time>
      </trkpt>
      <trkpt lat="44.81214" lon="20.44969">
        <ele>124.291915</ele>
        <time>2023-03-19T11:27:27.474Z</time>
      </trkpt>
      <trkpt lat="44.81203" lon="20.44968">
        <ele>124.363363</ele>
        <time>2023-03-19T11:27:30.484Z</time>
      </trkpt>
      <trkpt lat="44.81193" lon="20.44965">
        <ele>124.424982</ele>
        <time>2023-03-19T11:27:33.476Z</time>
      </trkpt>
      <trkpt lat="44.81183" lon="20.44964">
        <ele>124.485376</ele>
        <time>2023-03-19T11:27:36.476Z</time>
      </trkpt>
      <trkpt lat="44.81171" lon="20.44963">
        <ele>124.556029</ele>
        <time>2023-03-19T11:27:39.475Z</time>
      </trkpt>
      <trkpt lat="44.81159" lon="20.44962">
        <ele>124.734007</ele>
        <time>2023-03-19T11:27:42.498Z</time>
      </trkpt>
      <trkpt lat="44.81146" lon="20.44959">
        <ele>124.936377</ele>
        <time>2023-03-19T11:27:45.474Z</time>
      </trkpt>
      <trkpt lat="44.81137" lon="20.44957">
        <ele>125.073362</ele>
        <time>2023-03-19T11:27:47.475Z</time>
      </trkpt>
      <trkpt lat="44.81124" lon="20.44954">
        <ele>125.275423</ele>
        <time>2023-03-19T11:27:50.500Z</time>
      </trkpt>
      <trkpt lat="44.8111" lon="20.44953">
        <ele>125.479392</ele>
        <time>2023-03-19T11:27:53.475Z</time>
      </trkpt>
      <trkpt lat="44.81098" lon="20.44952">
        <ele>125.670461</ele>
        <time>2023-03-19T11:27:56.494Z</time>
      </trkpt>
      <trkpt lat="44.81086" lon="20.44951">
        <ele>125.856427</ele>
        <time>2023-03-19T11:27:59.475Z</time>
      </trkpt>
      <trkpt lat="44.81076" lon="20.44951">
        <ele>125.996051</ele>
        <time>2023-03-19T11:28:01.489Z</time>
      </trkpt>
      <trkpt lat="44.81066" lon="20.44951">
        <ele>126.150701</ele>
        <time>2023-03-19T11:28:03.471Z</time>
      </trkpt>
      <trkpt lat="44.81056" lon="20.44948">
        <ele>126.303453</ele>
        <time>2023-03-19T11:28:05.477Z</time>
      </trkpt>
      <trkpt lat="44.81047" lon="20.44945">
        <ele>126.451455</ele>
        <time>2023-03-19T11:28:07.472Z</time>
      </trkpt>
      <trkpt lat="44.81037" lon="20.44942">
        <ele>126.597385</ele>
        <time>2023-03-19T11:28:09.482Z</time>
      </trkpt>
      <trkpt lat="44.81024" lon="20.44937">
        <ele>126.79958</ele>
        <time>2023-03-19T11:28:12.485Z</time>
      </trkpt>
      <trkpt lat="44.81015" lon="20.44935">
        <ele>126.945898</ele>
        <time>2023-03-19T11:28:14.489Z</time>
      </trkpt>
      <trkpt lat="44.81005" lon="20.44932">
        <ele>127.101746</ele>
        <time>2023-03-19T11:28:16.498Z</time>
      </trkpt>
      <trkpt lat="44.80995" lon="20.44929">
        <ele>127.25059</ele>
        <time>2023-03-19T11:28:18.473Z</time>
      </trkpt>
      <trkpt lat="44.80985" lon="20.44926">
        <ele>127.389298</ele>
        <time>2023-03-19T11:28:20.502Z</time>
      </trkpt>
      <trkpt lat="44.80976" lon="20.44922">
        <ele>127.515693</ele>
        <time>2023-03-19T11:28:22.504Z</time>
      </trkpt>
      <trkpt lat="44.80962" lon="20.44917">
        <ele>127.69888</ele>
        <time>2023-03-19T11:28:25.490Z</time>
      </trkpt>
      <trkpt lat="44.80952" lon="20.44915">
        <ele>127.827078</ele>
        <time>2023-03-19T11:28:27.488Z</time>
      </trkpt>
      <trkpt lat="44.80942" lon="20.44912">
        <ele>127.964807</ele>
        <time>2023-03-19T11:28:29.476Z</time>
      </trkpt>
      <trkpt lat="44.80931" lon="20.44909">
        <ele>128.099835</ele>
        <time>2023-03-19T11:28:31.486Z</time>
      </trkpt>
      <trkpt lat="44.80921" lon="20.44905">
        <ele>128.233732</ele>
        <time>2023-03-19T11:28:33.477Z</time>
      </trkpt>
      <trkpt lat="44.8091" lon="20.44901">
        <ele>128.38266</ele>
        <time>2023-03-19T11:28:35.479Z</time>
      </trkpt>
      <trkpt lat="44.809" lon="20.44898">
        <ele>128.512358</ele>
        <time>2023-03-19T11:28:37.500Z</time>
      </trkpt>
      <trkpt lat="44.80891" lon="20.44895">
        <ele>128.638368</ele>
        <time>2023-03-19T11:28:39.474Z</time>
      </trkpt>
      <trkpt lat="44.80881" lon="20.44891">
        <ele>128.775412</ele>
        <time>2023-03-19T11:28:41.488Z</time>
      </trkpt>
      <trkpt lat="44.8087" lon="20.44886">
        <ele>128.911762</ele>
        <time>2023-03-19T11:28:43.501Z</time>
      </trkpt>
      <trkpt lat="44.80861" lon="20.44882">
        <ele>129.038631</ele>
        <time>2023-03-19T11:28:45.479Z</time>
      </trkpt>
      <trkpt lat="44.80849" lon="20.44875">
        <ele>129.206994</ele>
        <time>2023-03-19T11:28:48.474Z</time>
      </trkpt>
      <trkpt lat="44.80837" lon="20.4487">
        <ele>129.366323</ele>
        <time>2023-03-19T11:28:51.490Z</time>
      </trkpt>
      <trkpt lat="44.80826" lon="20.4487">
        <ele>129.506634</ele>
        <time>2023-03-19T11:28:54.478Z</time>
      </trkpt>
      <trkpt lat="44.80815" lon="20.44873">
        <ele>129.648838</ele>
        <time>2023-03-19T11:28:58.477Z</time>
      </trkpt>
      <trkpt lat="44.80808" lon="20.44883">
        <ele>129.772092</ele>
        <time>2023-03-19T11:29:01.503Z</time>
      </trkpt>
      <trkpt lat="44.80809" lon="20.44898">
        <ele>129.905174</ele>
        <time>2023-03-19T11:29:04.477Z</time>
      </trkpt>
      <trkpt lat="44.8081" lon="20.44915">
        <ele>130.04923</ele>
        <time>2023-03-19T11:29:07.474Z</time>
      </trkpt>
      <trkpt lat="44.8081" lon="20.44933">
        <ele>130.205722</ele>
        <time>2023-03-19T11:29:10.480Z</time>
      </trkpt>
      <trkpt lat="44.8081" lon="20.44947">
        <ele>130.322962</ele>
        <time>2023-03-19T11:29:12.471Z</time>
      </trkpt>
      <trkpt lat="44.8081" lon="20.4496">
        <ele>130.440159</ele>
        <time>2023-03-19T11:29:14.480Z</time>
      </trkpt>
      <trkpt lat="44.80811" lon="20.44974">
        <ele>130.554288</ele>
        <time>2023-03-19T11:29:16.493Z</time>
      </trkpt>
      <trkpt lat="44.80811" lon="20.44991">
        <ele>130.70394</ele>
        <time>2023-03-19T11:29:19.502Z</time>
      </trkpt>
      <trkpt lat="44.80812" lon="20.45006">
        <ele>130.833411</ele>
        <time>2023-03-19T11:29:22.487Z</time>
      </trkpt>
      <trkpt lat="44.80806" lon="20.45017">
        <ele>130.948481</ele>
        <time>2023-03-19T11:29:25.487Z</time>
      </trkpt>
      <trkpt lat="44.80793" lon="20.45017">
        <ele>131.112422</ele>
        <time>2023-03-19T11:29:28.485Z</time>
      </trkpt>
      <trkpt lat="44.80782" lon="20.45015">
        <ele>131.244589</ele>
        <time>2023-03-19T11:29:30.481Z</time>
      </trkpt>
      <trkpt lat="44.80771" lon="20.45014">
        <ele>131.373773</ele>
        <time>2023-03-19T11:29:32.472Z</time>
      </trkpt>
      <trkpt lat="44.80761" lon="20.45013">
        <ele>131.498404</ele>
        <time>2023-03-19T11:29:34.473Z</time>
      </trkpt>
      <trkpt lat="44.8075" lon="20.45012">
        <ele>131.633604</ele>
        <time>2023-03-19T11:29:36.497Z</time>
      </trkpt>
      <trkpt lat="44.80739" lon="20.4501">
        <ele>131.763688</ele>
        <time>2023-03-19T11:29:38.485Z</time>
      </trkpt>
      <trkpt lat="44.80729" lon="20.45007">
        <ele>131.591029</ele>
        <time>2023-03-19T11:29:40.490Z</time>
      </trkpt>
      <trkpt lat="44.80718" lon="20.45005">
        <ele>131.408904</ele>
        <time>2023-03-19T11:29:42.475Z</time>
      </trkpt>
      <trkpt lat="44.80708" lon="20.45001">
        <ele>131.225407</ele>
        <time>2023-03-19T11:29:44.492Z</time>
      </trkpt>
      <trkpt lat="44.80699" lon="20.44997">
        <ele>131.048635</ele>
        <time>2023-03-19T11:29:46.490Z</time>
      </trkpt>
      <trkpt lat="44.80689" lon="20.44994">
        <ele>130.865469</ele>
        <time>2023-03-19T11:29:48.502Z</time>
      </trkpt>
      <trkpt lat="44.80679" lon="20.44991">
        <ele>130.683426</ele>
        <time>2023-03-19T11:29:50.473Z</time>
      </trkpt>
      <trkpt lat="44.80665" lon="20.44987">
        <ele>130.439962</ele>
        <time>2023-03-19T11:29:53.472Z</time>
      </trkpt>
      <trkpt lat="44.80655" lon="20.44984">
        <ele>130.262607</ele>
        <time>2023-03-19T11:29:55.489Z</time>
      </trkpt>
      <trkpt lat="44.80646" lon="20.4498">
        <ele>130.086596</ele>
        <time>2023-03-19T11:29:57.480Z</time>
      </trkpt>
      <trkpt lat="44.80636" lon="20.44977">
        <ele>129.915276</ele>
        <time>2023-03-19T11:29:59.483Z</time>
      </trkpt>
      <trkpt lat="44.80626" lon="20.44973">
        <ele>129.721548</ele>
        <time>2023-03-19T11:30:01.475Z</time>
      </trkpt>
      <trkpt lat="44.80615" lon="20.44969">
        <ele>129.531294</ele>
        <time>2023-03-19T11:30:03.475Z</time>
      </trkpt>
      <trkpt lat="44.80604" lon="20.44965">
        <ele>129.330775</ele>
        <time>2023-03-19T11:30:05.491Z</time>
      </trkpt>
      <trkpt lat="44.80595" lon="20.4496">
        <ele>129.158137</ele>
        <time>2023-03-19T11:30:07.488Z</time>
      </trkpt>
      <trkpt lat="44.80586" lon="20.44956">
        <ele>128.982161</ele>
        <time>2023-03-19T11:30:09.488Z</time>
      </trkpt>
      <trkpt lat="44.80575" lon="20.44949">
        <ele>128.769228</ele>
        <time>2023-03-19T11:30:11.500Z</time>
      </trkpt>
      <trkpt lat="44.80565" lon="20.44941">
        <ele>128.573021</ele>
        <time>2023-03-19T11:30:13.491Z</time>
      </trkpt>
      <trkpt lat="44.80555" lon="20.44935">
        <ele>128.441272</ele>
        <time>2023-03-19T11:30:15.482Z</time>
      </trkpt>
      <trkpt lat="44.80545" lon="20.44929">
        <ele>128.31035</ele>
        <time>2023-03-19T11:30:17.491Z</time>
      </trkpt>
      <trkpt lat="44.80536" lon="20.44922">
        <ele>128.184353</ele>
        <time>2023-03-19T11:30:19.498Z</time>
      </trkpt>
      <trkpt lat="44.80527" lon="20.44915">
        <ele>128.052266</ele>
        <time>2023-03-19T11:30:21.491Z</time>
      </trkpt>
      <trkpt lat="44.80518" lon="20.44906">
        <ele>127.922513</ele>
        <time>2023-03-19T11:30:23.494Z</time>
      </trkpt>
      <trkpt lat="44.80509" lon="20.44897">
        <ele>127.785245</ele>
        <time>2023-03-19T11:30:25.489Z</time>
      </trkpt>
      <trkpt lat="44.805" lon="20.44889">
        <ele>127.658285</ele>
        <time>2023-03-19T11:30:27.484Z</time>
      </trkpt>
      <trkpt lat="44.80491" lon="20.44883">
        <ele>127.539114</ele>
        <time>2023-03-19T11:30:29.488Z</time>
      </trkpt>
      <trkpt lat="44.8048" lon="20.44883">
        <ele>127.400564</ele>
        <time>2023-03-19T11:30:32.474Z</time>
      </trkpt>
      <trkpt lat="44.80473" lon="20.44897">
        <ele>127.250764</ele>
        <time>2023-03-19T11:30:35.481Z</time>
      </trkpt>
      <trkpt lat="44.80465" lon="20.44911">
        <ele>127.096025</ele>
        <time>2023-03-19T11:30:38.491Z</time>
      </trkpt>
      <trkpt lat="44.80458" lon="20.44925">
        <ele>126.940654</ele>
        <time>2023-03-19T11:30:41.493Z</time>
      </trkpt>
      <trkpt lat="44.80452" lon="20.4494">
        <ele>126.801308</ele>
        <time>2023-03-19T11:30:44.494Z</time>
      </trkpt>
      <trkpt lat="44.80445" lon="20.44948">
        <ele>126.682073</ele>
        <time>2023-03-19T11:30:47.473Z</time>
      </trkpt>
      <trkpt lat="44.80437" lon="20.44956">
        <ele>126.561335</ele>
        <time>2023-03-19T11:30:50.485Z</time>
      </trkpt>
      <trkpt lat="44.80428" lon="20.44969">
        <ele>126.405705</ele>
        <time>2023-03-19T11:30:53.477Z</time>
      </trkpt>
      <trkpt lat="44.80419" lon="20.4498">
        <ele>126.508346</ele>
        <time>2023-03-19T11:30:56.478Z</time>
      </trkpt>
      <trkpt lat="44.80408" lon="20.44979">
        <ele>126.658411</ele>
        <time>2023-03-19T11:31:00.482Z</time>
      </trkpt>
      <trkpt lat="44.80398" lon="20.44969">
        <ele>126.811336</ele>
        <time>2023-03-19T11:31:03.484Z</time>
      </trkpt>
      <trkpt lat="44.80388" lon="20.44957">
        <ele>126.969896</ele>
        <time>2023-03-19T11:31:06.474Z</time>
      </trkpt>
      <trkpt lat="44.80379" lon="20.44944">
        <ele>127.133939</ele>
        <time>2023-03-19T11:31:09.490Z</time>
      </trkpt>
      <trkpt lat="44.80374" lon="20.44933">
        <ele>127.2513</ele>
        <time>2023-03-19T11:31:11.483Z</time>
      </trkpt>
      <trkpt lat="44.80367" lon="20.44923">
        <ele>127.372179</ele>
        <time>2023-03-19T11:31:13.477Z</time>
      </trkpt>
      <trkpt lat="44.80361" lon="20.44914">
        <ele>127.489525</ele>
        <time>2023-03-19T11:31:15.485Z</time>
      </trkpt>
      <trkpt lat="44.80356" lon="20.44903">
        <ele>127.603983</ele>
        <time>2023-03-19T11:31:17.490Z</time>
      </trkpt>
      <trkpt lat="44.8035" lon="20.44893">
        <ele>127.719879</ele>
        <time>2023-03-19T11:31:19.504Z</time>
      </trkpt>
      <trkpt lat="44.80342" lon="20.44879">
        <ele>127.880752</ele>
        <time>2023-03-19T11:31:22.489Z</time>
      </trkpt>
      <trkpt lat="44.80334" lon="20.44866">
        <ele>128.040915</ele>
        <time>2023-03-19T11:31:25.490Z</time>
      </trkpt>
      <trkpt lat="44.80326" lon="20.44853">
        <ele>128.188533</ele>
        <time>2023-03-19T11:31:28.488Z</time>
      </trkpt>
      <trkpt lat="44.80318" lon="20.44841">
        <ele>128.336209</ele>
        <time>2023-03-19T11:31:31.477Z</time>
      </trkpt>
      <trkpt lat="44.80312" lon="20.44829">
        <ele>128.462317</ele>
        <time>2023-03-19T11:31:34.497Z</time>
      </trkpt>
      <trkpt lat="44.80306" lon="20.44818">
        <ele>128.589216</ele>
        <time>2023-03-19T11:31:38.498Z</time>
      </trkpt>
      <trkpt lat="44.803" lon="20.44806">
        <ele>128.759616</ele>
        <time>2023-03-19T11:31:43.479Z</time>
      </trkpt>
      <trkpt lat="44.80293" lon="20.44794">
        <ele>128.98337</ele>
        <time>2023-03-19T11:31:47.495Z</time>
      </trkpt>
      <trkpt lat="44.80285" lon="20.44783">
        <ele>129.200119</ele>
        <time>2023-03-19T11:31:50.473Z</time>
      </trkpt>
      <trkpt lat="44.80278" lon="20.4477">
        <ele>129.421431</ele>
        <time>2023-03-19T11:31:53.483Z</time>
      </trkpt>
      <trkpt lat="44.80272" lon="20.44757">
        <ele>129.633918</ele>
        <time>2023-03-19T11:31:56.473Z</time>
      </trkpt>
      <trkpt lat="44.80271" lon="20.4474">
        <ele>129.870847</ele>
        <time>2023-03-19T11:31:59.485Z</time>
      </trkpt>
      <trkpt lat="44.80267" lon="20.44729">
        <ele>130.050524</ele>
        <time>2023-03-19T11:32:01.475Z</time>
      </trkpt>
      <trkpt lat="44.80262" lon="20.44718">
        <ele>130.230159</ele>
        <time>2023-03-19T11:32:03.480Z</time>
      </trkpt>
      <trkpt lat="44.80256" lon="20.44709">
        <ele>130.40906</ele>
        <time>2023-03-19T11:32:05.478Z</time>
      </trkpt>
      <trkpt lat="44.80248" lon="20.44702">
        <ele>130.585066</ele>
        <time>2023-03-19T11:32:07.475Z</time>
      </trkpt>
      <trkpt lat="44.80239" lon="20.44699">
        <ele>130.780228</ele>
        <time>2023-03-19T11:32:09.481Z</time>
      </trkpt>
      <trkpt lat="44.80229" lon="20.44695">
        <ele>130.978415</ele>
        <time>2023-03-19T11:32:11.486Z</time>
      </trkpt>
      <trkpt lat="44.8022" lon="20.44686">
        <ele>131.187599</ele>
        <time>2023-03-19T11:32:13.489Z</time>
      </trkpt>
      <trkpt lat="44.80213" lon="20.44674">
        <ele>131.405902</ele>
        <time>2023-03-19T11:32:15.477Z</time>
      </trkpt>
      <trkpt lat="44.80206" lon="20.44661">
        <ele>131.630499</ele>
        <time>2023-03-19T11:32:17.477Z</time>
      </trkpt>
      <trkpt lat="44.80197" lon="20.44651">
        <ele>131.862292</ele>
        <time>2023-03-19T11:32:19.475Z</time>
      </trkpt>
      <trkpt lat="44.80188" lon="20.44639">
        <ele>132.092905</ele>
        <time>2023-03-19T11:32:21.492Z</time>
      </trkpt>
      <trkpt lat="44.8018" lon="20.44627">
        <ele>132.005461</ele>
        <time>2023-03-19T11:32:23.478Z</time>
      </trkpt>
      <trkpt lat="44.80171" lon="20.44616">
        <ele>131.7179</ele>
        <time>2023-03-19T11:32:25.478Z</time>
      </trkpt>
      <trkpt lat="44.80163" lon="20.44605">
        <ele>131.467161</ele>
        <time>2023-03-19T11:32:27.496Z</time>
      </trkpt>
      <trkpt lat="44.80156" lon="20.44594">
        <ele>131.2159</ele>
        <time>2023-03-19T11:32:29.488Z</time>
      </trkpt>
      <trkpt lat="44.80153" lon="20.44579">
        <ele>130.960627</ele>
        <time>2023-03-19T11:32:31.477Z</time>
      </trkpt>
      <trkpt lat="44.80144" lon="20.44569">
        <ele>130.702452</ele>
        <time>2023-03-19T11:32:33.491Z</time>
      </trkpt>
      <trkpt lat="44.80138" lon="20.44558">
        <ele>130.457249</ele>
        <time>2023-03-19T11:32:35.475Z</time>
      </trkpt>
      <trkpt lat="44.8013" lon="20.44547">
        <ele>130.210172</ele>
        <time>2023-03-19T11:32:37.486Z</time>
      </trkpt>
      <trkpt lat="44.80123" lon="20.44537">
        <ele>129.973485</ele>
        <time>2023-03-19T11:32:39.471Z</time>
      </trkpt>
      <trkpt lat="44.80116" lon="20.44527">
        <ele>129.74032</ele>
        <time>2023-03-19T11:32:41.487Z</time>
      </trkpt>
      <trkpt lat="44.80107" lon="20.44514">
        <ele>129.431008</ele>
        <time>2023-03-19T11:32:44.487Z</time>
      </trkpt>
      <trkpt lat="44.80098" lon="20.44503">
        <ele>129.157907</ele>
        <time>2023-03-19T11:32:47.480Z</time>
      </trkpt>
      <trkpt lat="44.80099" lon="20.44488">
        <ele>128.911153</ele>
        <time>2023-03-19T11:32:50.477Z</time>
      </trkpt>
      <trkpt lat="44.80108" lon="20.44474">
        <ele>128.606267</ele>
        <time>2023-03-19T11:32:53.476Z</time>
      </trkpt>
      <trkpt lat="44.80114" lon="20.44464">
        <ele>128.383306</ele>
        <time>2023-03-19T11:32:55.480Z</time>
      </trkpt>
      <trkpt lat="44.80122" lon="20.44449">
        <ele>128.069744</ele>
        <time>2023-03-19T11:32:58.499Z</time>
      </trkpt>
      <trkpt lat="44.80129" lon="20.44434">
        <ele>127.809214</ele>
        <time>2023-03-19T11:33:01.485Z</time>
      </trkpt>
      <trkpt lat="44.80135" lon="20.44424">
        <ele>127.643305</ele>
        <time>2023-03-19T11:33:03.477Z</time>
      </trkpt>
      <trkpt lat="44.8014" lon="20.44413">
        <ele>127.473359</ele>
        <time>2023-03-19T11:33:05.470Z</time>
      </trkpt>
      <trkpt lat="44.80149" lon="20.44398">
        <ele>127.227236</ele>
        <time>2023-03-19T11:33:08.498Z</time>
      </trkpt>
      <trkpt lat="44.80156" lon="20.44384">
        <ele>126.997737</ele>
        <time>2023-03-19T11:33:11.476Z</time>
      </trkpt>
      <trkpt lat="44.80162" lon="20.44372">
        <ele>126.808673</ele>
        <time>2023-03-19T11:33:14.485Z</time>
      </trkpt>
      <trkpt lat="44.80169" lon="20.44361">
        <ele>126.612536</ele>
        <time>2023-03-19T11:33:17.474Z</time>
      </trkpt>
      <trkpt lat="44.80176" lon="20.44347">
        <ele>126.386301</ele>
        <time>2023-03-19T11:33:20.497Z</time>
      </trkpt>
      <trkpt lat="44.80184" lon="20.44331">
        <ele>126.136696</ele>
        <time>2023-03-19T11:33:23.472Z</time>
      </trkpt>
      <trkpt lat="44.8019" lon="20.44314">
        <ele>125.895739</ele>
        <time>2023-03-19T11:33:26.494Z</time>
      </trkpt>
      <trkpt lat="44.8019" lon="20.44301">
        <ele>125.722528</ele>
        <time>2023-03-19T11:33:28.473Z</time>
      </trkpt>
      <trkpt lat="44.80187" lon="20.44283">
        <ele>125.482541</ele>
        <time>2023-03-19T11:33:31.475Z</time>
      </trkpt>
      <trkpt lat="44.80181" lon="20.44267">
        <ele>125.251946</ele>
        <time>2023-03-19T11:33:34.475Z</time>
      </trkpt>
      <trkpt lat="44.80171" lon="20.44255">
        <ele>125.012508</ele>
        <time>2023-03-19T11:33:37.472Z</time>
      </trkpt>
      <trkpt lat="44.80158" lon="20.44245">
        <ele>124.744144</ele>
        <time>2023-03-19T11:33:40.486Z</time>
      </trkpt>
      <trkpt lat="44.8015" lon="20.44235">
        <ele>124.602395</ele>
        <time>2023-03-19T11:33:43.488Z</time>
      </trkpt>
      <trkpt lat="44.8014" lon="20.44221">
        <ele>124.465429</ele>
        <time>2023-03-19T11:33:46.477Z</time>
      </trkpt>
      <trkpt lat="44.80135" lon="20.44209">
        <ele>124.366556</ele>
        <time>2023-03-19T11:33:48.480Z</time>
      </trkpt>
      <trkpt lat="44.80131" lon="20.44193">
        <ele>124.246689</ele>
        <time>2023-03-19T11:33:50.481Z</time>
      </trkpt>
      <trkpt lat="44.80128" lon="20.44175">
        <ele>124.110823</ele>
        <time>2023-03-19T11:33:52.477Z</time>
      </trkpt>
      <trkpt lat="44.80121" lon="20.44157">
        <ele>123.968676</ele>
        <time>2023-03-19T11:33:54.498Z</time>
      </trkpt>
      <trkpt lat="44.80113" lon="20.44144">
        <ele>123.841553</ele>
        <time>2023-03-19T11:33:56.486Z</time>
      </trkpt>
      <trkpt lat="44.80105" lon="20.44132">
        <ele>123.724051</ele>
        <time>2023-03-19T11:33:58.474Z</time>
      </trkpt>
      <trkpt lat="44.80098" lon="20.4412">
        <ele>123.61452</ele>
        <time>2023-03-19T11:34:00.475Z</time>
      </trkpt>
      <trkpt lat="44.8009" lon="20.44111">
        <ele>123.513013</ele>
        <time>2023-03-19T11:34:02.476Z</time>
      </trkpt>
      <trkpt lat="44.80084" lon="20.44101">
        <ele>123.416414</ele>
        <time>2023-03-19T11:34:04.479Z</time>
      </trkpt>
      <trkpt lat="44.80077" lon="20.4409">
        <ele>123.310224</ele>
        <time>2023-03-19T11:34:06.474Z</time>
      </trkpt>
      <trkpt lat="44.8007" lon="20.44077">
        <ele>123.199719</ele>
        <time>2023-03-19T11:34:08.484Z</time>
      </trkpt>
      <trkpt lat="44.80063" lon="20.44066">
        <ele>123.095801</ele>
        <time>2023-03-19T11:34:10.487Z</time>
      </trkpt>
      <trkpt lat="44.80056" lon="20.44055">
        <ele>122.990553</ele>
        <time>2023-03-19T11:34:12.489Z</time>
      </trkpt>
      <trkpt lat="44.80049" lon="20.44043">
        <ele>122.881088</ele>
        <time>2023-03-19T11:34:14.486Z</time>
      </trkpt>
      <trkpt lat="44.80042" lon="20.44031">
        <ele>122.77555</ele>
        <time>2023-03-19T11:34:16.478Z</time>
      </trkpt>
      <trkpt lat="44.80035" lon="20.4402">
        <ele>122.673887</ele>
        <time>2023-03-19T11:34:18.500Z</time>
      </trkpt>
      <trkpt lat="44.80028" lon="20.44008">
        <ele>122.570909</ele>
        <time>2023-03-19T11:34:20.482Z</time>
      </trkpt>
      <trkpt lat="44.80022" lon="20.43997">
        <ele>122.471484</ele>
        <time>2023-03-19T11:34:22.491Z</time>
      </trkpt>
      <trkpt lat="44.80015" lon="20.43986">
        <ele>122.376288</ele>
        <time>2023-03-19T11:34:24.478Z</time>
      </trkpt>
      <trkpt lat="44.80006" lon="20.43978">
        <ele>122.27476</ele>
        <time>2023-03-19T11:34:26.493Z</time>
      </trkpt>
      <trkpt lat="44.79998" lon="20.43971">
        <ele>122.185553</ele>
        <time>2023-03-19T11:34:28.490Z</time>
      </trkpt>
      <trkpt lat="44.79991" lon="20.43961">
        <ele>122.090042</ele>
        <time>2023-03-19T11:34:30.499Z</time>
      </trkpt>
      <trkpt lat="44.79984" lon="20.4395">
        <ele>121.995117</ele>
        <time>2023-03-19T11:34:32.475Z</time>
      </trkpt>
      <trkpt lat="44.79977" lon="20.43941">
        <ele>121.904898</ele>
        <time>2023-03-19T11:34:34.492Z</time>
      </trkpt>
      <trkpt lat="44.7997" lon="20.43932">
        <ele>121.809546</ele>
        <time>2023-03-19T11:34:36.489Z</time>
      </trkpt>
      <trkpt lat="44.79962" lon="20.43923">
        <ele>121.717661</ele>
        <time>2023-03-19T11:34:38.503Z</time>
      </trkpt>
      <trkpt lat="44.79957" lon="20.43912">
        <ele>121.62772</ele>
        <time>2023-03-19T11:34:40.498Z</time>
      </trkpt>
      <trkpt lat="44.79951" lon="20.43901">
        <ele>121.532847</ele>
        <time>2023-03-19T11:34:42.490Z</time>
      </trkpt>
      <trkpt lat="44.79945" lon="20.4389">
        <ele>121.439643</ele>
        <time>2023-03-19T11:34:44.479Z</time>
      </trkpt>
      <trkpt lat="44.79939" lon="20.43878">
        <ele>121.344215</ele>
        <time>2023-03-19T11:34:46.470Z</time>
      </trkpt>
      <trkpt lat="44.79934" lon="20.43867">
        <ele>121.251009</ele>
        <time>2023-03-19T11:34:48.495Z</time>
      </trkpt>
      <trkpt lat="44.79928" lon="20.43855">
        <ele>121.15174</ele>
        <time>2023-03-19T11:34:50.499Z</time>
      </trkpt>
      <trkpt lat="44.79922" lon="20.43843">
        <ele>121.014832</ele>
        <time>2023-03-19T11:34:52.481Z</time>
      </trkpt>
      <trkpt lat="44.79915" lon="20.43831">
        <ele>120.879435</ele>
        <time>2023-03-19T11:34:54.501Z</time>
      </trkpt>
      <trkpt lat="44.79909" lon="20.43818">
        <ele>120.738107</ele>
        <time>2023-03-19T11:34:56.502Z</time>
      </trkpt>
      <trkpt lat="44.79904" lon="20.43806">
        <ele>120.600904</ele>
        <time>2023-03-19T11:34:58.488Z</time>
      </trkpt>
      <trkpt lat="44.79897" lon="20.43792">
        <ele>120.4491</ele>
        <time>2023-03-19T11:35:00.487Z</time>
      </trkpt>
      <trkpt lat="44.7989" lon="20.4378">
        <ele>120.305842</ele>
        <time>2023-03-19T11:35:02.500Z</time>
      </trkpt>
      <trkpt lat="44.79885" lon="20.43768">
        <ele>120.181132</ele>
        <time>2023-03-19T11:35:04.482Z</time>
      </trkpt>
      <trkpt lat="44.7988" lon="20.43755">
        <ele>120.047161</ele>
        <time>2023-03-19T11:35:06.473Z</time>
      </trkpt>
      <trkpt lat="44.79874" lon="20.43743">
        <ele>119.913995</ele>
        <time>2023-03-19T11:35:08.488Z</time>
      </trkpt>
      <trkpt lat="44.79868" lon="20.4373">
        <ele>119.768895</ele>
        <time>2023-03-19T11:35:10.490Z</time>
      </trkpt>
      <trkpt lat="44.79862" lon="20.43718">
        <ele>119.629783</ele>
        <time>2023-03-19T11:35:12.476Z</time>
      </trkpt>
      <trkpt lat="44.79855" lon="20.43706">
        <ele>119.491362</ele>
        <time>2023-03-19T11:35:14.478Z</time>
      </trkpt>
      <trkpt lat="44.79848" lon="20.43694">
        <ele>119.352153</ele>
        <time>2023-03-19T11:35:16.482Z</time>
      </trkpt>
      <trkpt lat="44.79842" lon="20.43682">
        <ele>119.214562</ele>
        <time>2023-03-19T11:35:18.493Z</time>
      </trkpt>
      <trkpt lat="44.79836" lon="20.4367">
        <ele>119.082947</ele>
        <time>2023-03-19T11:35:20.498Z</time>
      </trkpt>
      <trkpt lat="44.7983" lon="20.43659">
        <ele>118.955005</ele>
        <time>2023-03-19T11:35:22.494Z</time>
      </trkpt>
      <trkpt lat="44.79824" lon="20.43648">
        <ele>118.862931</ele>
        <time>2023-03-19T11:35:24.493Z</time>
      </trkpt>
      <trkpt lat="44.79817" lon="20.43638">
        <ele>119.007007</ele>
        <time>2023-03-19T11:35:26.472Z</time>
      </trkpt>
      <trkpt lat="44.79811" lon="20.43626">
        <ele>119.153519</ele>
        <time>2023-03-19T11:35:28.477Z</time>
      </trkpt>
      <trkpt lat="44.79805" lon="20.43613">
        <ele>119.306664</ele>
        <time>2023-03-19T11:35:30.482Z</time>
      </trkpt>
      <trkpt lat="44.79799" lon="20.436">
        <ele>119.458847</ele>
        <time>2023-03-19T11:35:32.486Z</time>
      </trkpt>
      <trkpt lat="44.79792" lon="20.43588">
        <ele>119.61188</ele>
        <time>2023-03-19T11:35:34.487Z</time>
      </trkpt>
      <trkpt lat="44.79786" lon="20.43576">
        <ele>119.760941</ele>
        <time>2023-03-19T11:35:36.487Z</time>
      </trkpt>
      <trkpt lat="44.79779" lon="20.43564">
        <ele>119.913945</ele>
        <time>2023-03-19T11:35:38.497Z</time>
      </trkpt>
      <trkpt lat="44.79775" lon="20.4355">
        <ele>120.065184</ele>
        <time>2023-03-19T11:35:40.484Z</time>
      </trkpt>
      <trkpt lat="44.7977" lon="20.43536">
        <ele>120.217973</ele>
        <time>2023-03-19T11:35:42.480Z</time>
      </trkpt>
      <trkpt lat="44.79765" lon="20.43523">
        <ele>120.369706</ele>
        <time>2023-03-19T11:35:44.495Z</time>
      </trkpt>
      <trkpt lat="44.79759" lon="20.4351">
        <ele>120.521088</ele>
        <time>2023-03-19T11:35:46.468Z</time>
      </trkpt>
      <trkpt lat="44.79753" lon="20.43497">
        <ele>120.679828</ele>
        <time>2023-03-19T11:35:48.491Z</time>
      </trkpt>
      <trkpt lat="44.79746" lon="20.43485">
        <ele>120.833706</ele>
        <time>2023-03-19T11:35:50.497Z</time>
      </trkpt>
      <trkpt lat="44.7974" lon="20.43472">
        <ele>120.986852</ele>
        <time>2023-03-19T11:35:52.496Z</time>
      </trkpt>
      <trkpt lat="44.79734" lon="20.4346">
        <ele>121.134153</ele>
        <time>2023-03-19T11:35:54.497Z</time>
      </trkpt>
      <trkpt lat="44.79728" lon="20.43448">
        <ele>121.288175</ele>
        <time>2023-03-19T11:35:56.489Z</time>
      </trkpt>
      <trkpt lat="44.79721" lon="20.43436">
        <ele>121.414123</ele>
        <time>2023-03-19T11:35:58.475Z</time>
      </trkpt>
      <trkpt lat="44.79714" lon="20.43424">
        <ele>121.502808</ele>
        <time>2023-03-19T11:36:00.476Z</time>
      </trkpt>
      <trkpt lat="44.79706" lon="20.43412">
        <ele>121.590923</ele>
        <time>2023-03-19T11:36:02.475Z</time>
      </trkpt>
      <trkpt lat="44.797" lon="20.434">
        <ele>121.676996</ele>
        <time>2023-03-19T11:36:04.493Z</time>
      </trkpt>
      <trkpt lat="44.79694" lon="20.43388">
        <ele>121.762187</ele>
        <time>2023-03-19T11:36:06.473Z</time>
      </trkpt>
      <trkpt lat="44.79689" lon="20.43375">
        <ele>121.850794</ele>
        <time>2023-03-19T11:36:08.493Z</time>
      </trkpt>
      <trkpt lat="44.79682" lon="20.43362">
        <ele>121.942494</ele>
        <time>2023-03-19T11:36:10.471Z</time>
      </trkpt>
      <trkpt lat="44.79676" lon="20.43349">
        <ele>122.035181</ele>
        <time>2023-03-19T11:36:12.489Z</time>
      </trkpt>
      <trkpt lat="44.7967" lon="20.43335">
        <ele>122.12428</ele>
        <time>2023-03-19T11:36:14.486Z</time>
      </trkpt>
      <trkpt lat="44.79664" lon="20.43323">
        <ele>122.210929</ele>
        <time>2023-03-19T11:36:16.473Z</time>
      </trkpt>
      <trkpt lat="44.79659" lon="20.4331">
        <ele>122.294273</ele>
        <time>2023-03-19T11:36:18.501Z</time>
      </trkpt>
      <trkpt lat="44.79653" lon="20.43299">
        <ele>122.375634</ele>
        <time>2023-03-19T11:36:20.487Z</time>
      </trkpt>
      <trkpt lat="44.79646" lon="20.43283">
        <ele>122.484937</ele>
        <time>2023-03-19T11:36:23.486Z</time>
      </trkpt>
      <trkpt lat="44.79638" lon="20.43268">
        <ele>122.590757</ele>
        <time>2023-03-19T11:36:26.481Z</time>
      </trkpt>
      <trkpt lat="44.79631" lon="20.43255">
        <ele>122.687187</ele>
        <time>2023-03-19T11:36:29.483Z</time>
      </trkpt>
      <trkpt lat="44.79624" lon="20.43239">
        <ele>122.792158</ele>
        <time>2023-03-19T11:36:32.488Z</time>
      </trkpt>
      <trkpt lat="44.79619" lon="20.43227">
        <ele>122.801159</ele>
        <time>2023-03-19T11:36:34.490Z</time>
      </trkpt>
      <trkpt lat="44.79613" lon="20.43217">
        <ele>122.735329</ele>
        <time>2023-03-19T11:36:36.474Z</time>
      </trkpt>
      <trkpt lat="44.79604" lon="20.43202">
        <ele>122.642814</ele>
        <time>2023-03-19T11:36:39.477Z</time>
      </trkpt>
      <trkpt lat="44.79599" lon="20.43191">
        <ele>122.578753</ele>
        <time>2023-03-19T11:36:41.487Z</time>
      </trkpt>
      <trkpt lat="44.79594" lon="20.43179">
        <ele>122.510438</ele>
        <time>2023-03-19T11:36:43.476Z</time>
      </trkpt>
      <trkpt lat="44.79589" lon="20.43167">
        <ele>122.443313</ele>
        <time>2023-03-19T11:36:45.498Z</time>
      </trkpt>
      <trkpt lat="44.79583" lon="20.43157">
        <ele>122.375478</ele>
        <time>2023-03-19T11:36:47.481Z</time>
      </trkpt>
      <trkpt lat="44.79577" lon="20.43145">
        <ele>122.308221</ele>
        <time>2023-03-19T11:36:49.494Z</time>
      </trkpt>
      <trkpt lat="44.79572" lon="20.43133">
        <ele>122.239557</ele>
        <time>2023-03-19T11:36:51.472Z</time>
      </trkpt>
      <trkpt lat="44.79567" lon="20.43121">
        <ele>122.170397</ele>
        <time>2023-03-19T11:36:53.491Z</time>
      </trkpt>
      <trkpt lat="44.79562" lon="20.43109">
        <ele>122.103085</ele>
        <time>2023-03-19T11:36:55.477Z</time>
      </trkpt>
      <trkpt lat="44.79557" lon="20.43098">
        <ele>122.038759</ele>
        <time>2023-03-19T11:36:57.490Z</time>
      </trkpt>
      <trkpt lat="44.79551" lon="20.43087">
        <ele>121.974674</ele>
        <time>2023-03-19T11:36:59.480Z</time>
      </trkpt>
      <trkpt lat="44.79545" lon="20.43073">
        <ele>121.890707</ele>
        <time>2023-03-19T11:37:02.487Z</time>
      </trkpt>
      <trkpt lat="44.79537" lon="20.4306">
        <ele>121.8069</ele>
        <time>2023-03-19T11:37:05.484Z</time>
      </trkpt>
      <trkpt lat="44.79529" lon="20.43047">
        <ele>121.7254</ele>
        <time>2023-03-19T11:37:08.481Z</time>
      </trkpt>
      <trkpt lat="44.79521" lon="20.43033">
        <ele>121.638207</ele>
        <time>2023-03-19T11:37:11.470Z</time>
      </trkpt>
      <trkpt lat="44.79513" lon="20.43021">
        <ele>121.554952</ele>
        <time>2023-03-19T11:37:14.492Z</time>
      </trkpt>
      <trkpt lat="44.79503" lon="20.43008">
        <ele>121.470248</ele>
        <time>2023-03-19T11:37:17.489Z</time>
      </trkpt>
      <trkpt lat="44.79496" lon="20.43">
        <ele>121.409663</ele>
        <time>2023-03-19T11:37:19.471Z</time>
      </trkpt>
      <trkpt lat="44.79488" lon="20.42986">
        <ele>121.322723</ele>
        <time>2023-03-19T11:37:22.502Z</time>
      </trkpt>
      <trkpt lat="44.79481" lon="20.42976">
        <ele>121.261446</ele>
        <time>2023-03-19T11:37:24.491Z</time>
      </trkpt>
      <trkpt lat="44.79475" lon="20.42966">
        <ele>121.201996</ele>
        <time>2023-03-19T11:37:26.489Z</time>
      </trkpt>
      <trkpt lat="44.79468" lon="20.42954">
        <ele>121.127012</ele>
        <time>2023-03-19T11:37:29.486Z</time>
      </trkpt>
      <trkpt lat="44.7946" lon="20.42943">
        <ele>121.054558</ele>
        <time>2023-03-19T11:37:33.500Z</time>
      </trkpt>
      <trkpt lat="44.79455" lon="20.42931">
        <ele>120.987948</ele>
        <time>2023-03-19T11:37:36.472Z</time>
      </trkpt>
      <trkpt lat="44.79447" lon="20.42918">
        <ele>120.907961</ele>
        <time>2023-03-19T11:37:39.491Z</time>
      </trkpt>
      <trkpt lat="44.79438" lon="20.42904">
        <ele>120.821959</ele>
        <time>2023-03-19T11:37:42.496Z</time>
      </trkpt>
      <trkpt lat="44.79429" lon="20.42891">
        <ele>120.734716</ele>
        <time>2023-03-19T11:37:45.501Z</time>
      </trkpt>
      <trkpt lat="44.79421" lon="20.42884">
        <ele>120.672489</ele>
        <time>2023-03-19T11:37:47.475Z</time>
      </trkpt>
      <trkpt lat="44.7941" lon="20.42876">
        <ele>120.589979</ele>
        <time>2023-03-19T11:37:50.476Z</time>
      </trkpt>
      <trkpt lat="44.79403" lon="20.42867">
        <ele>120.52894</ele>
        <time>2023-03-19T11:37:52.478Z</time>
      </trkpt>
      <trkpt lat="44.79397" lon="20.42856">
        <ele>120.465746</ele>
        <time>2023-03-19T11:37:54.477Z</time>
      </trkpt>
      <trkpt lat="44.79391" lon="20.42847">
        <ele>120.435493</ele>
        <time>2023-03-19T11:37:56.496Z</time>
      </trkpt>
      <trkpt lat="44.79385" lon="20.42837">
        <ele>120.561184</ele>
        <time>2023-03-19T11:37:58.475Z</time>
      </trkpt>
      <trkpt lat="44.79378" lon="20.42826">
        <ele>120.69334</ele>
        <time>2023-03-19T11:38:00.490Z</time>
      </trkpt>
      <trkpt lat="44.79371" lon="20.42815">
        <ele>120.832371</ele>
        <time>2023-03-19T11:38:02.487Z</time>
      </trkpt>
      <trkpt lat="44.79364" lon="20.42805">
        <ele>120.963593</ele>
        <time>2023-03-19T11:38:04.499Z</time>
      </trkpt>
      <trkpt lat="44.79358" lon="20.42796">
        <ele>121.092807</ele>
        <time>2023-03-19T11:38:06.497Z</time>
      </trkpt>
      <trkpt lat="44.79351" lon="20.42785">
        <ele>121.227413</ele>
        <time>2023-03-19T11:38:08.488Z</time>
      </trkpt>
      <trkpt lat="44.79344" lon="20.42775">
        <ele>121.362289</ele>
        <time>2023-03-19T11:38:10.487Z</time>
      </trkpt>
      <trkpt lat="44.79337" lon="20.42764">
        <ele>121.506839</ele>
        <time>2023-03-19T11:38:12.484Z</time>
      </trkpt>
      <trkpt lat="44.79329" lon="20.42752">
        <ele>121.660619</ele>
        <time>2023-03-19T11:38:14.496Z</time>
      </trkpt>
      <trkpt lat="44.79322" lon="20.4274">
        <ele>121.808704</ele>
        <time>2023-03-19T11:38:16.490Z</time>
      </trkpt>
      <trkpt lat="44.79314" lon="20.4273">
        <ele>121.946404</ele>
        <time>2023-03-19T11:38:18.471Z</time>
      </trkpt>
      <trkpt lat="44.79306" lon="20.42721">
        <ele>122.081114</ele>
        <time>2023-03-19T11:38:20.489Z</time>
      </trkpt>
      <trkpt lat="44.79297" lon="20.42718">
        <ele>122.217258</ele>
        <time>2023-03-19T11:38:22.475Z</time>
      </trkpt>
      <trkpt lat="44.79283" lon="20.42716">
        <ele>122.397651</ele>
        <time>2023-03-19T11:38:25.475Z</time>
      </trkpt>
      <trkpt lat="44.79271" lon="20.42712">
        <ele>122.563496</ele>
        <time>2023-03-19T11:38:28.474Z</time>
      </trkpt>
      <trkpt lat="44.7926" lon="20.42708">
        <ele>122.721497</ele>
        <time>2023-03-19T11:38:31.475Z</time>
      </trkpt>
      <trkpt lat="44.79248" lon="20.4271">
        <ele>122.873251</ele>
        <time>2023-03-19T11:38:34.480Z</time>
      </trkpt>
      <trkpt lat="44.79239" lon="20.42719">
        <ele>123.000791</ele>
        <time>2023-03-19T11:38:37.480Z</time>
      </trkpt>
      <trkpt lat="44.79236" lon="20.42734">
        <ele>123.128152</ele>
        <time>2023-03-19T11:38:39.475Z</time>
      </trkpt>
      <trkpt lat="44.79236" lon="20.4275">
        <ele>123.259455</ele>
        <time>2023-03-19T11:38:41.474Z</time>
      </trkpt>
      <trkpt lat="44.79244" lon="20.42767">
        <ele>123.422017</ele>
        <time>2023-03-19T11:38:43.475Z</time>
      </trkpt>
      <trkpt lat="44.79251" lon="20.42783">
        <ele>123.578055</ele>
        <time>2023-03-19T11:38:45.480Z</time>
      </trkpt>
      <trkpt lat="44.79257" lon="20.42805">
        <ele>123.776285</ele>
        <time>2023-03-19T11:38:47.481Z</time>
      </trkpt>
      <trkpt lat="44.7926" lon="20.42817">
        <ele>123.882572</ele>
        <time>2023-03-19T11:38:48.488Z</time>
      </trkpt>
      <trkpt lat="44.79268" lon="20.42834">
        <ele>124.043043</ele>
        <time>2023-03-19T11:38:51.484Z</time>
      </trkpt>
      <trkpt lat="44.79274" lon="20.42847">
        <ele>124.172856</ele>
        <time>2023-03-19T11:38:53.488Z</time>
      </trkpt>
      <trkpt lat="44.79279" lon="20.4286">
        <ele>124.296639</ele>
        <time>2023-03-19T11:38:55.486Z</time>
      </trkpt>
      <trkpt lat="44.79283" lon="20.42872">
        <ele>124.406911</ele>
        <time>2023-03-19T11:38:57.499Z</time>
      </trkpt>
      <trkpt lat="44.7929" lon="20.42888">
        <ele>124.560162</ele>
        <time>2023-03-19T11:39:00.497Z</time>
      </trkpt>
      <trkpt lat="44.79296" lon="20.42902">
        <ele>124.693608</ele>
        <time>2023-03-19T11:39:03.491Z</time>
      </trkpt>
      <trkpt lat="44.79304" lon="20.42913">
        <ele>124.821834</ele>
        <time>2023-03-19T11:39:06.478Z</time>
      </trkpt>
      <trkpt lat="44.79315" lon="20.42925">
        <ele>124.842409</ele>
        <time>2023-03-19T11:39:09.479Z</time>
      </trkpt>
      <trkpt lat="44.79325" lon="20.4293">
        <ele>124.742616</ele>
        <time>2023-03-19T11:39:11.483Z</time>
      </trkpt>
      <trkpt lat="44.79335" lon="20.42935">
        <ele>124.631417</ele>
        <time>2023-03-19T11:39:14.480Z</time>
      </trkpt>
      <trkpt lat="44.79345" lon="20.42941">
        <ele>124.52344</ele>
        <time>2023-03-19T11:39:16.496Z</time>
      </trkpt>
      <trkpt lat="44.79356" lon="20.42949">
        <ele>124.394082</ele>
        <time>2023-03-19T11:39:19.478Z</time>
      </trkpt>
      <trkpt lat="44.79367" lon="20.42949">
        <ele>124.278871</ele>
        <time>2023-03-19T11:39:22.476Z</time>
      </trkpt>
      <trkpt lat="44.7938" lon="20.42942">
        <ele>124.141306</ele>
        <time>2023-03-19T11:39:25.479Z</time>
      </trkpt>
      <trkpt lat="44.79392" lon="20.42945">
        <ele>124.009452</ele>
        <time>2023-03-19T11:39:28.475Z</time>
      </trkpt>
      <trkpt lat="44.79398" lon="20.42955">
        <ele>123.915914</ele>
        <time>2023-03-19T11:39:30.490Z</time>
      </trkpt>
      <trkpt lat="44.79403" lon="20.42967">
        <ele>123.818003</ele>
        <time>2023-03-19T11:39:32.485Z</time>
      </trkpt>
      <trkpt lat="44.79408" lon="20.42979">
        <ele>123.715252</ele>
        <time>2023-03-19T11:39:34.500Z</time>
      </trkpt>
      <trkpt lat="44.79413" lon="20.42991">
        <ele>123.614176</ele>
        <time>2023-03-19T11:39:36.500Z</time>
      </trkpt>
      <trkpt lat="44.79417" lon="20.43004">
        <ele>123.512571</ele>
        <time>2023-03-19T11:39:38.489Z</time>
      </trkpt>
      <trkpt lat="44.79422" lon="20.43017">
        <ele>123.403769</ele>
        <time>2023-03-19T11:39:40.475Z</time>
      </trkpt>
      <trkpt lat="44.79425" lon="20.43031">
        <ele>123.299362</ele>
        <time>2023-03-19T11:39:42.484Z</time>
      </trkpt>
      <trkpt lat="44.79429" lon="20.43045">
        <ele>123.191271</ele>
        <time>2023-03-19T11:39:44.488Z</time>
      </trkpt>
      <trkpt lat="44.79433" lon="20.43059">
        <ele>123.083181</ele>
        <time>2023-03-19T11:39:46.492Z</time>
      </trkpt>
      <trkpt lat="44.79436" lon="20.43073">
        <ele>123.016389</ele>
        <time>2023-03-19T11:39:48.486Z</time>
      </trkpt>
      <trkpt lat="44.79439" lon="20.43086">
        <ele>122.952281</ele>
        <time>2023-03-19T11:39:50.490Z</time>
      </trkpt>
      <trkpt lat="44.79441" lon="20.431">
        <ele>122.889061</ele>
        <time>2023-03-19T11:39:52.489Z</time>
      </trkpt>
      <trkpt lat="44.79443" lon="20.43114">
        <ele>122.82499</ele>
        <time>2023-03-19T11:39:54.488Z</time>
      </trkpt>
      <trkpt lat="44.79445" lon="20.43128">
        <ele>122.764094</ele>
        <time>2023-03-19T11:39:56.496Z</time>
      </trkpt>
      <trkpt lat="44.79447" lon="20.43141">
        <ele>122.702225</ele>
        <time>2023-03-19T11:39:58.499Z</time>
      </trkpt>
      <trkpt lat="44.79448" lon="20.43155">
        <ele>122.640134</ele>
        <time>2023-03-19T11:40:00.490Z</time>
      </trkpt>
      <trkpt lat="44.79448" lon="20.4317">
        <ele>122.576492</ele>
        <time>2023-03-19T11:40:02.495Z</time>
      </trkpt>
      <trkpt lat="44.79447" lon="20.43182">
        <ele>122.519658</ele>
        <time>2023-03-19T11:40:04.476Z</time>
      </trkpt>
      <trkpt lat="44.79449" lon="20.43198">
        <ele>122.447824</ele>
        <time>2023-03-19T11:40:07.479Z</time>
      </trkpt>
      <trkpt lat="44.79455" lon="20.43208">
        <ele>122.388152</ele>
        <time>2023-03-19T11:40:10.485Z</time>
      </trkpt>
      <trkpt lat="44.79449" lon="20.43219">
        <ele>122.325025</ele>
        <time>2023-03-19T11:40:17.477Z</time>
      </trkpt>
      <trkpt lat="44.79446" lon="20.43232">
        <ele>122.264282</ele>
        <time>2023-03-19T11:40:21.478Z</time>
      </trkpt>
      <trkpt lat="44.7945" lon="20.43245">
        <ele>122.199379</ele>
        <time>2023-03-19T11:40:24.489Z</time>
      </trkpt>
      <trkpt lat="44.79455" lon="20.43259">
        <ele>122.127533</ele>
        <time>2023-03-19T11:40:27.501Z</time>
      </trkpt>
      <trkpt lat="44.79459" lon="20.43275">
        <ele>122.052489</ele>
        <time>2023-03-19T11:40:30.502Z</time>
      </trkpt>
      <trkpt lat="44.79463" lon="20.43293">
        <ele>121.969887</ele>
        <time>2023-03-19T11:40:33.475Z</time>
      </trkpt>
      <trkpt lat="44.79467" lon="20.43305">
        <ele>122.026032</ele>
        <time>2023-03-19T11:40:35.478Z</time>
      </trkpt>
      <trkpt lat="44.79472" lon="20.43323">
        <ele>122.18863</ele>
        <time>2023-03-19T11:40:38.489Z</time>
      </trkpt>
      <trkpt lat="44.79476" lon="20.43336">
        <ele>122.307026</ele>
        <time>2023-03-19T11:40:40.510Z</time>
      </trkpt>
      <trkpt lat="44.79479" lon="20.43353">
        <ele>122.462964</ele>
        <time>2023-03-19T11:40:43.481Z</time>
      </trkpt>
      <trkpt lat="44.79482" lon="20.43371">
        <ele>122.623162</ele>
        <time>2023-03-19T11:40:46.500Z</time>
      </trkpt>
      <trkpt lat="44.79484" lon="20.43384">
        <ele>122.734138</ele>
        <time>2023-03-19T11:40:48.488Z</time>
      </trkpt>
      <trkpt lat="44.79487" lon="20.43397">
        <ele>122.855375</ele>
        <time>2023-03-19T11:40:50.472Z</time>
      </trkpt>
      <trkpt lat="44.79491" lon="20.43416">
        <ele>123.020594</ele>
        <time>2023-03-19T11:40:53.483Z</time>
      </trkpt>
      <trkpt lat="44.79492" lon="20.4343">
        <ele>123.142775</ele>
        <time>2023-03-19T11:40:55.470Z</time>
      </trkpt>
      <trkpt lat="44.79496" lon="20.43443">
        <ele>123.265622</ele>
        <time>2023-03-19T11:40:57.471Z</time>
      </trkpt>
      <trkpt lat="44.79498" lon="20.43458">
        <ele>123.392615</ele>
        <time>2023-03-19T11:40:59.477Z</time>
      </trkpt>
      <trkpt lat="44.795" lon="20.43472">
        <ele>123.516531</ele>
        <time>2023-03-19T11:41:01.486Z</time>
      </trkpt>
      <trkpt lat="44.79503" lon="20.43486">
        <ele>123.64217</ele>
        <time>2023-03-19T11:41:03.476Z</time>
      </trkpt>
      <trkpt lat="44.79505" lon="20.435">
        <ele>123.766125</ele>
        <time>2023-03-19T11:41:05.486Z</time>
      </trkpt>
      <trkpt lat="44.79508" lon="20.43514">
        <ele>123.889023</ele>
        <time>2023-03-19T11:41:07.488Z</time>
      </trkpt>
      <trkpt lat="44.7951" lon="20.43528">
        <ele>124.015885</ele>
        <time>2023-03-19T11:41:09.476Z</time>
      </trkpt>
      <trkpt lat="44.79513" lon="20.43542">
        <ele>124.115326</ele>
        <time>2023-03-19T11:41:11.487Z</time>
      </trkpt>
      <trkpt lat="44.79515" lon="20.43556">
        <ele>123.971792</ele>
        <time>2023-03-19T11:41:13.502Z</time>
      </trkpt>
      <trkpt lat="44.79516" lon="20.43571">
        <ele>123.830708</ele>
        <time>2023-03-19T11:41:15.500Z</time>
      </trkpt>
      <trkpt lat="44.79519" lon="20.43585">
        <ele>123.684011</ele>
        <time>2023-03-19T11:41:17.490Z</time>
      </trkpt>
      <trkpt lat="44.7952" lon="20.436">
        <ele>123.53663</ele>
        <time>2023-03-19T11:41:19.482Z</time>
      </trkpt>
      <trkpt lat="44.79522" lon="20.43614">
        <ele>123.393891</ele>
        <time>2023-03-19T11:41:21.500Z</time>
      </trkpt>
      <trkpt lat="44.79524" lon="20.43629">
        <ele>123.243578</ele>
        <time>2023-03-19T11:41:23.477Z</time>
      </trkpt>
      <trkpt lat="44.79526" lon="20.43643">
        <ele>123.09815</ele>
        <time>2023-03-19T11:41:25.495Z</time>
      </trkpt>
      <trkpt lat="44.79528" lon="20.43657">
        <ele>122.956591</ele>
        <time>2023-03-19T11:41:27.471Z</time>
      </trkpt>
      <trkpt lat="44.79531" lon="20.43671">
        <ele>122.816846</ele>
        <time>2023-03-19T11:41:29.471Z</time>
      </trkpt>
      <trkpt lat="44.79532" lon="20.43685">
        <ele>122.674107</ele>
        <time>2023-03-19T11:41:31.477Z</time>
      </trkpt>
      <trkpt lat="44.79534" lon="20.43698">
        <ele>122.540544</ele>
        <time>2023-03-19T11:41:33.496Z</time>
      </trkpt>
      <trkpt lat="44.79537" lon="20.43711">
        <ele>122.410542</ele>
        <time>2023-03-19T11:41:35.475Z</time>
      </trkpt>
      <trkpt lat="44.79534" lon="20.43725">
        <ele>122.268022</ele>
        <time>2023-03-19T11:41:39.475Z</time>
      </trkpt>
      <trkpt lat="44.79534" lon="20.43725">
        <ele>122.265233</ele>
        <time>2023-03-19T11:41:42.982Z</time>
      </trkpt>
      <trkpt lat="44.79522" lon="20.43729">
        <ele>122.08869</ele>
        <time>2023-03-19T11:43:43.489Z</time>
      </trkpt>
      <trkpt lat="44.79514" lon="20.43736">
        <ele>121.952371</ele>
        <time>2023-03-19T11:43:47.490Z</time>
      </trkpt>
      <trkpt lat="44.79514" lon="20.43754">
        <ele>121.780168</ele>
        <time>2023-03-19T11:43:51.478Z</time>
      </trkpt>
      <trkpt lat="44.79516" lon="20.43769">
        <ele>121.621937</ele>
        <time>2023-03-19T11:43:54.475Z</time>
      </trkpt>
      <trkpt lat="44.7952" lon="20.43786">
        <ele>121.48767</ele>
        <time>2023-03-19T11:43:57.472Z</time>
      </trkpt>
      <trkpt lat="44.79524" lon="20.43802">
        <ele>121.35468</ele>
        <time>2023-03-19T11:44:00.497Z</time>
      </trkpt>
      <trkpt lat="44.79528" lon="20.43818">
        <ele>121.217628</ele>
        <time>2023-03-19T11:44:03.474Z</time>
      </trkpt>
      <trkpt lat="44.79532" lon="20.43834">
        <ele>121.086811</ele>
        <time>2023-03-19T11:44:06.501Z</time>
      </trkpt>
      <trkpt lat="44.79535" lon="20.43849">
        <ele>120.970452</ele>
        <time>2023-03-19T11:44:09.489Z</time>
      </trkpt>
      <trkpt lat="44.79538" lon="20.43862">
        <ele>120.861575</ele>
        <time>2023-03-19T11:44:12.473Z</time>
      </trkpt>
      <trkpt lat="44.79542" lon="20.43876">
        <ele>120.745359</ele>
        <time>2023-03-19T11:44:15.501Z</time>
      </trkpt>
      <trkpt lat="44.79546" lon="20.43892">
        <ele>120.616359</ele>
        <time>2023-03-19T11:44:18.502Z</time>
      </trkpt>
      <trkpt lat="44.7955" lon="20.43908">
        <ele>120.482594</ele>
        <time>2023-03-19T11:44:21.490Z</time>
      </trkpt>
      <trkpt lat="44.79555" lon="20.43924">
        <ele>120.348963</ele>
        <time>2023-03-19T11:44:24.479Z</time>
      </trkpt>
      <trkpt lat="44.79558" lon="20.43938">
        <ele>120.23186</ele>
        <time>2023-03-19T11:44:27.489Z</time>
      </trkpt>
      <trkpt lat="44.79562" lon="20.43951">
        <ele>120.123857</ele>
        <time>2023-03-19T11:44:30.491Z</time>
      </trkpt>
      <trkpt lat="44.79566" lon="20.43966">
        <ele>119.999638</ele>
        <time>2023-03-19T11:44:33.478Z</time>
      </trkpt>
      <trkpt lat="44.79571" lon="20.43982">
        <ele>119.860959</ele>
        <time>2023-03-19T11:44:36.494Z</time>
      </trkpt>
      <trkpt lat="44.79576" lon="20.43999">
        <ele>119.720981</ele>
        <time>2023-03-19T11:44:39.489Z</time>
      </trkpt>
      <trkpt lat="44.79581" lon="20.44015">
        <ele>119.750683</ele>
        <time>2023-03-19T11:44:42.501Z</time>
      </trkpt>
      <trkpt lat="44.79586" lon="20.44032">
        <ele>119.935178</ele>
        <time>2023-03-19T11:44:45.477Z</time>
      </trkpt>
      <trkpt lat="44.7959" lon="20.44049">
        <ele>120.127097</ele>
        <time>2023-03-19T11:44:48.472Z</time>
      </trkpt>
      <trkpt lat="44.79593" lon="20.44061">
        <ele>120.260512</ele>
        <time>2023-03-19T11:44:50.488Z</time>
      </trkpt>
      <trkpt lat="44.79597" lon="20.44074">
        <ele>120.396381</ele>
        <time>2023-03-19T11:44:52.489Z</time>
      </trkpt>
      <trkpt lat="44.79601" lon="20.44085">
        <ele>120.529041</ele>
        <time>2023-03-19T11:44:54.496Z</time>
      </trkpt>
      <trkpt lat="44.79604" lon="20.44097">
        <ele>120.663961</ele>
        <time>2023-03-19T11:44:56.487Z</time>
      </trkpt>
      <trkpt lat="44.79608" lon="20.4411">
        <ele>120.80497</ele>
        <time>2023-03-19T11:44:58.487Z</time>
      </trkpt>
      <trkpt lat="44.79611" lon="20.44123">
        <ele>120.9456</ele>
        <time>2023-03-19T11:45:00.487Z</time>
      </trkpt>
      <trkpt lat="44.79616" lon="20.44141">
        <ele>121.142206</ele>
        <time>2023-03-19T11:45:03.471Z</time>
      </trkpt>
      <trkpt lat="44.79621" lon="20.44157">
        <ele>121.317632</ele>
        <time>2023-03-19T11:45:06.488Z</time>
      </trkpt>
      <trkpt lat="44.79625" lon="20.44173">
        <ele>121.499509</ele>
        <time>2023-03-19T11:45:09.486Z</time>
      </trkpt>
      <trkpt lat="44.7963" lon="20.44189">
        <ele>121.679652</ele>
        <time>2023-03-19T11:45:12.481Z</time>
      </trkpt>
      <trkpt lat="44.79635" lon="20.44205">
        <ele>121.856549</ele>
        <time>2023-03-19T11:45:15.501Z</time>
      </trkpt>
      <trkpt lat="44.7964" lon="20.44222">
        <ele>122.045782</ele>
        <time>2023-03-19T11:45:18.470Z</time>
      </trkpt>
      <trkpt lat="44.79644" lon="20.44239">
        <ele>122.229712</ele>
        <time>2023-03-19T11:45:21.486Z</time>
      </trkpt>
      <trkpt lat="44.79649" lon="20.44256">
        <ele>122.262068</ele>
        <time>2023-03-19T11:45:24.490Z</time>
      </trkpt>
      <trkpt lat="44.79654" lon="20.44273">
        <ele>122.260597</ele>
        <time>2023-03-19T11:45:27.488Z</time>
      </trkpt>
      <trkpt lat="44.79658" lon="20.4429">
        <ele>122.259198</ele>
        <time>2023-03-19T11:45:30.489Z</time>
      </trkpt>
      <trkpt lat="44.79662" lon="20.44306">
        <ele>122.257848</ele>
        <time>2023-03-19T11:45:33.490Z</time>
      </trkpt>
      <trkpt lat="44.79667" lon="20.44323">
        <ele>122.256419</ele>
        <time>2023-03-19T11:45:36.499Z</time>
      </trkpt>
      <trkpt lat="44.79671" lon="20.4434">
        <ele>122.255028</ele>
        <time>2023-03-19T11:45:39.500Z</time>
      </trkpt>
      <trkpt lat="44.79675" lon="20.44357">
        <ele>122.253588</ele>
        <time>2023-03-19T11:45:42.500Z</time>
      </trkpt>
      <trkpt lat="44.79679" lon="20.44375">
        <ele>122.252136</ele>
        <time>2023-03-19T11:45:45.477Z</time>
      </trkpt>
      <trkpt lat="44.79682" lon="20.44387">
        <ele>122.251127</ele>
        <time>2023-03-19T11:45:47.474Z</time>
      </trkpt>
      <trkpt lat="44.79687" lon="20.44404">
        <ele>122.249653</ele>
        <time>2023-03-19T11:45:50.491Z</time>
      </trkpt>
      <trkpt lat="44.79692" lon="20.4442">
        <ele>122.248269</ele>
        <time>2023-03-19T11:45:53.499Z</time>
      </trkpt>
      <trkpt lat="44.79695" lon="20.44436">
        <ele>122.246968</ele>
        <time>2023-03-19T11:45:56.478Z</time>
      </trkpt>
      <trkpt lat="44.79699" lon="20.4445">
        <ele>122.245785</ele>
        <time>2023-03-19T11:45:59.478Z</time>
      </trkpt>
      <trkpt lat="44.79703" lon="20.44465">
        <ele>122.244498</ele>
        <time>2023-03-19T11:46:02.476Z</time>
      </trkpt>
      <trkpt lat="44.79706" lon="20.44483">
        <ele>122.276203</ele>
        <time>2023-03-19T11:46:05.495Z</time>
      </trkpt>
      <trkpt lat="44.79711" lon="20.44499">
        <ele>122.530868</ele>
        <time>2023-03-19T11:46:08.489Z</time>
      </trkpt>
      <trkpt lat="44.79715" lon="20.44516">
        <ele>122.786885</ele>
        <time>2023-03-19T11:46:11.495Z</time>
      </trkpt>
      <trkpt lat="44.79719" lon="20.44532">
        <ele>123.02481</ele>
        <time>2023-03-19T11:46:14.481Z</time>
      </trkpt>
      <trkpt lat="44.79723" lon="20.44548">
        <ele>123.265491</ele>
        <time>2023-03-19T11:46:17.471Z</time>
      </trkpt>
      <trkpt lat="44.79728" lon="20.44565">
        <ele>123.531383</ele>
        <time>2023-03-19T11:46:20.476Z</time>
      </trkpt>
      <trkpt lat="44.79732" lon="20.44577">
        <ele>123.720798</ele>
        <time>2023-03-19T11:46:22.472Z</time>
      </trkpt>
      <trkpt lat="44.79736" lon="20.44589">
        <ele>123.901672</ele>
        <time>2023-03-19T11:46:24.482Z</time>
      </trkpt>
      <trkpt lat="44.79739" lon="20.44601">
        <ele>124.088705</ele>
        <time>2023-03-19T11:46:26.484Z</time>
      </trkpt>
      <trkpt lat="44.79742" lon="20.44614">
        <ele>124.275681</ele>
        <time>2023-03-19T11:46:28.492Z</time>
      </trkpt>
      <trkpt lat="44.79745" lon="20.44626">
        <ele>124.466067</ele>
        <time>2023-03-19T11:46:30.496Z</time>
      </trkpt>
      <trkpt lat="44.7975" lon="20.44643">
        <ele>124.724953</ele>
        <time>2023-03-19T11:46:33.494Z</time>
      </trkpt>
      <trkpt lat="44.79754" lon="20.4466">
        <ele>124.973639</ele>
        <time>2023-03-19T11:46:36.490Z</time>
      </trkpt>
      <trkpt lat="44.79757" lon="20.44674">
        <ele>125.185414</ele>
        <time>2023-03-19T11:46:39.495Z</time>
      </trkpt>
      <trkpt lat="44.79761" lon="20.44687">
        <ele>125.385127</ele>
        <time>2023-03-19T11:46:42.475Z</time>
      </trkpt>
      <trkpt lat="44.79762" lon="20.44701">
        <ele>125.577967</ele>
        <time>2023-03-19T11:46:46.476Z</time>
      </trkpt>
      <trkpt lat="44.79764" lon="20.44716">
        <ele>125.797196</ele>
        <time>2023-03-19T11:46:50.476Z</time>
      </trkpt>
      <trkpt lat="44.79768" lon="20.4473">
        <ele>126.020677</ele>
        <time>2023-03-19T11:46:53.471Z</time>
      </trkpt>
      <trkpt lat="44.79773" lon="20.44744">
        <ele>126.245412</ele>
        <time>2023-03-19T11:46:56.489Z</time>
      </trkpt>
      <trkpt lat="44.79778" lon="20.44759">
        <ele>126.490388</ele>
        <time>2023-03-19T11:46:59.489Z</time>
      </trkpt>
      <trkpt lat="44.79784" lon="20.44773">
        <ele>126.731652</ele>
        <time>2023-03-19T11:47:02.479Z</time>
      </trkpt>
      <trkpt lat="44.7979" lon="20.44787">
        <ele>126.971282</ele>
        <time>2023-03-19T11:47:05.474Z</time>
      </trkpt>
      <trkpt lat="44.79797" lon="20.44802">
        <ele>127.230823</ele>
        <time>2023-03-19T11:47:08.487Z</time>
      </trkpt>
      <trkpt lat="44.79805" lon="20.44815">
        <ele>127.485785</ele>
        <time>2023-03-19T11:47:11.482Z</time>
      </trkpt>
      <trkpt lat="44.79814" lon="20.44827">
        <ele>127.734947</ele>
        <time>2023-03-19T11:47:14.488Z</time>
      </trkpt>
      <trkpt lat="44.79822" lon="20.4484">
        <ele>127.983097</ele>
        <time>2023-03-19T11:47:17.489Z</time>
      </trkpt>
      <trkpt lat="44.7983" lon="20.44851">
        <ele>128.219462</ele>
        <time>2023-03-19T11:47:20.486Z</time>
      </trkpt>
      <trkpt lat="44.79838" lon="20.44859">
        <ele>128.417977</ele>
        <time>2023-03-19T11:47:23.476Z</time>
      </trkpt>
      <trkpt lat="44.79845" lon="20.44868">
        <ele>128.608656</ele>
        <time>2023-03-19T11:47:26.486Z</time>
      </trkpt>
      <trkpt lat="44.7985" lon="20.44879">
        <ele>128.811024</ele>
        <time>2023-03-19T11:47:30.488Z</time>
      </trkpt>
      <trkpt lat="44.79846" lon="20.44891">
        <ele>128.997563</ele>
        <time>2023-03-19T11:47:34.486Z</time>
      </trkpt>
      <trkpt lat="44.79834" lon="20.44891">
        <ele>129.250597</ele>
        <time>2023-03-19T11:47:38.499Z</time>
      </trkpt>
      <trkpt lat="44.79824" lon="20.44886">
        <ele>129.474202</ele>
        <time>2023-03-19T11:47:41.472Z</time>
      </trkpt>
      <trkpt lat="44.79814" lon="20.44888">
        <ele>129.884561</ele>
        <time>2023-03-19T11:47:51.476Z</time>
      </trkpt>
      <trkpt lat="44.79817" lon="20.449">
        <ele>130.367476</ele>
        <time>2023-03-19T11:48:17.477Z</time>
      </trkpt>
      <trkpt lat="44.79809" lon="20.44911">
        <ele>130.94586</ele>
        <time>2023-03-19T11:48:30.482Z</time>
      </trkpt>
      <trkpt lat="44.79805" lon="20.44922">
        <ele>131.415758</ele>
        <time>2023-03-19T11:48:34.500Z</time>
      </trkpt>
      <trkpt lat="44.79797" lon="20.44929">
        <ele>131.9174</ele>
        <time>2023-03-19T11:48:38.478Z</time>
      </trkpt>
      <trkpt lat="44.79787" lon="20.44934">
        <ele>132.44933</ele>
        <time>2023-03-19T11:48:42.486Z</time>
      </trkpt>
      <trkpt lat="44.79777" lon="20.44937">
        <ele>132.968577</ele>
        <time>2023-03-19T11:48:46.491Z</time>
      </trkpt>
      <trkpt lat="44.79768" lon="20.44938">
        <ele>133.457964</ele>
        <time>2023-03-19T11:48:50.490Z</time>
      </trkpt>
      <trkpt lat="44.79759" lon="20.44935">
        <ele>133.94188</ele>
        <time>2023-03-19T11:48:54.486Z</time>
      </trkpt>
      <trkpt lat="44.7975" lon="20.44932">
        <ele>134.419329</ele>
        <time>2023-03-19T11:48:58.489Z</time>
      </trkpt>
      <trkpt lat="44.79739" lon="20.44928">
        <ele>135.008582</ele>
        <time>2023-03-19T11:49:03.476Z</time>
      </trkpt>
      <trkpt lat="44.7973" lon="20.44926">
        <ele>135.479049</ele>
        <time>2023-03-19T11:49:07.489Z</time>
      </trkpt>
      <trkpt lat="44.7972" lon="20.44923">
        <ele>136.054322</ele>
        <time>2023-03-19T11:49:12.498Z</time>
      </trkpt>
      <trkpt lat="44.7971" lon="20.44919">
        <ele>136.55705</ele>
        <time>2023-03-19T11:49:16.499Z</time>
      </trkpt>
      <trkpt lat="44.79701" lon="20.44916">
        <ele>137.066462</ele>
        <time>2023-03-19T11:49:20.482Z</time>
      </trkpt>
      <trkpt lat="44.79692" lon="20.44914">
        <ele>137.561855</ele>
        <time>2023-03-19T11:49:24.475Z</time>
      </trkpt>
      <trkpt lat="44.79682" lon="20.44914">
        <ele>138.04337</ele>
        <time>2023-03-19T11:49:28.488Z</time>
      </trkpt>
      <trkpt lat="44.79672" lon="20.44908">
        <ele>138.612206</ele>
        <time>2023-03-19T11:49:33.502Z</time>
      </trkpt>
      <trkpt lat="44.79662" lon="20.44905">
        <ele>139.278554</ele>
        <time>2023-03-19T11:49:38.487Z</time>
      </trkpt>
      <trkpt lat="44.79653" lon="20.449">
        <ele>139.979167</ele>
        <time>2023-03-19T11:49:42.471Z</time>
      </trkpt>
      <trkpt lat="44.79642" lon="20.44897">
        <ele>140.793977</ele>
        <time>2023-03-19T11:49:47.489Z</time>
      </trkpt>
      <trkpt lat="44.79633" lon="20.44894">
        <ele>141.498203</ele>
        <time>2023-03-19T11:49:51.473Z</time>
      </trkpt>
      <trkpt lat="44.79624" lon="20.44892">
        <ele>142.17281</ele>
        <time>2023-03-19T11:49:55.478Z</time>
      </trkpt>
      <trkpt lat="44.79613" lon="20.44889">
        <ele>142.972931</ele>
        <time>2023-03-19T11:50:00.504Z</time>
      </trkpt>
      <trkpt lat="44.79603" lon="20.44887">
        <ele>143.730949</ele>
        <time>2023-03-19T11:50:05.480Z</time>
      </trkpt>
      <trkpt lat="44.79594" lon="20.44885">
        <ele>144.460035</ele>
        <time>2023-03-19T11:50:10.476Z</time>
      </trkpt>
      <trkpt lat="44.79583" lon="20.44882">
        <ele>145.230801</ele>
        <time>2023-03-19T11:50:15.498Z</time>
      </trkpt>
      <trkpt lat="44.79573" lon="20.44878">
        <ele>146.0464</ele>
        <time>2023-03-19T11:50:20.495Z</time>
      </trkpt>
      <trkpt lat="44.79564" lon="20.44875">
        <ele>146.731608</ele>
        <time>2023-03-19T11:50:25.483Z</time>
      </trkpt>
      <trkpt lat="44.79555" lon="20.44865">
        <ele>147.550229</ele>
        <time>2023-03-19T11:50:30.486Z</time>
      </trkpt>
      <trkpt lat="44.79545" lon="20.44858">
        <ele>148.386251</ele>
        <time>2023-03-19T11:50:35.484Z</time>
      </trkpt>
      <trkpt lat="44.79537" lon="20.44854">
        <ele>149.058596</ele>
        <time>2023-03-19T11:50:39.477Z</time>
      </trkpt>
      <trkpt lat="44.79527" lon="20.44851">
        <ele>149.794692</ele>
        <time>2023-03-19T11:50:43.471Z</time>
      </trkpt>
      <trkpt lat="44.79518" lon="20.44847">
        <ele>150.507577</ele>
        <time>2023-03-19T11:50:47.486Z</time>
      </trkpt>
      <trkpt lat="44.79507" lon="20.44842">
        <ele>151.327374</ele>
        <time>2023-03-19T11:50:52.499Z</time>
      </trkpt>
      <trkpt lat="44.79499" lon="20.44838">
        <ele>152.006731</ele>
        <time>2023-03-19T11:50:56.496Z</time>
      </trkpt>
      <trkpt lat="44.7949" lon="20.44832">
        <ele>152.450142</ele>
        <time>2023-03-19T11:51:00.473Z</time>
      </trkpt>
      <trkpt lat="44.7948" lon="20.44827">
        <ele>152.648099</ele>
        <time>2023-03-19T11:51:04.499Z</time>
      </trkpt>
      <trkpt lat="44.79469" lon="20.44822">
        <ele>152.879513</ele>
        <time>2023-03-19T11:51:08.497Z</time>
      </trkpt>
      <trkpt lat="44.7946" lon="20.44818">
        <ele>153.069555</ele>
        <time>2023-03-19T11:51:12.474Z</time>
      </trkpt>
      <trkpt lat="44.79452" lon="20.44828">
        <ele>153.270811</ele>
        <time>2023-03-19T11:51:16.488Z</time>
      </trkpt>
      <trkpt lat="44.79451" lon="20.44832">
        <ele>153.337716</ele>
        <time>2023-03-19T11:51:36.131Z</time>
      </trkpt>
      <trkpt lat="44.79443" lon="20.44865">
        <ele>153.814716</ele>
        <time>2023-03-19T11:52:02.483Z</time>
      </trkpt>
      <trkpt lat="44.79433" lon="20.44869">
        <ele>154.006774</ele>
        <time>2023-03-19T11:52:06.486Z</time>
      </trkpt>
      <trkpt lat="44.79424" lon="20.44878">
        <ele>154.22447</ele>
        <time>2023-03-19T11:52:12.490Z</time>
      </trkpt>
      <trkpt lat="44.79417" lon="20.44889">
        <ele>154.438556</ele>
        <time>2023-03-19T11:52:16.482Z</time>
      </trkpt>
      <trkpt lat="44.7941" lon="20.449">
        <ele>154.62659</ele>
        <time>2023-03-19T11:52:19.489Z</time>
      </trkpt>
      <trkpt lat="44.79403" lon="20.4491">
        <ele>154.831285</ele>
        <time>2023-03-19T11:52:22.499Z</time>
      </trkpt>
      <trkpt lat="44.79396" lon="20.44922">
        <ele>155.042779</ele>
        <time>2023-03-19T11:52:25.500Z</time>
      </trkpt>
      <trkpt lat="44.79389" lon="20.44933">
        <ele>155.246539</ele>
        <time>2023-03-19T11:52:28.482Z</time>
      </trkpt>
      <trkpt lat="44.79382" lon="20.44944">
        <ele>155.446071</ele>
        <time>2023-03-19T11:52:31.491Z</time>
      </trkpt>
      <trkpt lat="44.79375" lon="20.44955">
        <ele>155.645185</ele>
        <time>2023-03-19T11:52:34.487Z</time>
      </trkpt>
      <trkpt lat="44.79369" lon="20.44966">
        <ele>155.840921</ele>
        <time>2023-03-19T11:52:37.491Z</time>
      </trkpt>
      <trkpt lat="44.79365" lon="20.44977">
        <ele>156.068336</ele>
        <time>2023-03-19T11:52:40.497Z</time>
      </trkpt>
      <trkpt lat="44.79361" lon="20.44989">
        <ele>156.297544</ele>
        <time>2023-03-19T11:52:43.486Z</time>
      </trkpt>
      <trkpt lat="44.79357" lon="20.45003">
        <ele>156.586109</ele>
        <time>2023-03-19T11:52:47.498Z</time>
      </trkpt>
      <trkpt lat="44.79345" lon="20.45006">
        <ele>156.879745</ele>
        <time>2023-03-19T11:52:51.478Z</time>
      </trkpt>
      <trkpt lat="44.79336" lon="20.45015">
        <ele>157.151528</ele>
        <time>2023-03-19T11:52:55.480Z</time>
      </trkpt>
      <trkpt lat="44.79331" lon="20.45026">
        <ele>157.400263</ele>
        <time>2023-03-19T11:52:58.486Z</time>
      </trkpt>
      <trkpt lat="44.79327" lon="20.45039">
        <ele>157.646875</ele>
        <time>2023-03-19T11:53:02.485Z</time>
      </trkpt>
      <trkpt lat="44.79321" lon="20.45049">
        <ele>157.892185</ele>
        <time>2023-03-19T11:53:06.489Z</time>
      </trkpt>
      <trkpt lat="44.79315" lon="20.45061">
        <ele>158.14881</ele>
        <time>2023-03-19T11:53:09.474Z</time>
      </trkpt>
      <trkpt lat="44.7931" lon="20.45072">
        <ele>158.394613</ele>
        <time>2023-03-19T11:53:12.506Z</time>
      </trkpt>
      <trkpt lat="44.79303" lon="20.45083">
        <ele>158.636918</ele>
        <time>2023-03-19T11:53:15.476Z</time>
      </trkpt>
      <trkpt lat="44.79298" lon="20.45093">
        <ele>158.879899</ele>
        <time>2023-03-19T11:53:18.487Z</time>
      </trkpt>
      <trkpt lat="44.79291" lon="20.45105">
        <ele>159.149826</ele>
        <time>2023-03-19T11:53:22.489Z</time>
      </trkpt>
      <trkpt lat="44.79283" lon="20.45117">
        <ele>159.430029</ele>
        <time>2023-03-19T11:53:26.491Z</time>
      </trkpt>
      <trkpt lat="44.79277" lon="20.4513">
        <ele>159.716834</ele>
        <time>2023-03-19T11:53:29.481Z</time>
      </trkpt>
      <trkpt lat="44.7927" lon="20.45144">
        <ele>160.027064</ele>
        <time>2023-03-19T11:53:33.486Z</time>
      </trkpt>
      <trkpt lat="44.79262" lon="20.45155">
        <ele>160.314207</ele>
        <time>2023-03-19T11:53:36.497Z</time>
      </trkpt>
      <trkpt lat="44.79254" lon="20.45167">
        <ele>160.955086</ele>
        <time>2023-03-19T11:53:39.488Z</time>
      </trkpt>
      <trkpt lat="44.79247" lon="20.45176">
        <ele>161.618154</ele>
        <time>2023-03-19T11:53:43.473Z</time>
      </trkpt>
      <trkpt lat="44.7924" lon="20.45185">
        <ele>162.28297</ele>
        <time>2023-03-19T11:53:46.489Z</time>
      </trkpt>
      <trkpt lat="44.79233" lon="20.45196">
        <ele>162.975698</ele>
        <time>2023-03-19T11:53:49.482Z</time>
      </trkpt>
      <trkpt lat="44.79226" lon="20.45205">
        <ele>163.687568</ele>
        <time>2023-03-19T11:53:52.486Z</time>
      </trkpt>
      <trkpt lat="44.79218" lon="20.45215">
        <ele>164.39131</ele>
        <time>2023-03-19T11:53:55.485Z</time>
      </trkpt>
      <trkpt lat="44.79211" lon="20.45225">
        <ele>165.093181</ele>
        <time>2023-03-19T11:53:58.489Z</time>
      </trkpt>
      <trkpt lat="44.79204" lon="20.45235">
        <ele>165.778829</ele>
        <time>2023-03-19T11:54:01.483Z</time>
      </trkpt>
      <trkpt lat="44.79196" lon="20.45245">
        <ele>166.529479</ele>
        <time>2023-03-19T11:54:04.497Z</time>
      </trkpt>
      <trkpt lat="44.79188" lon="20.45254">
        <ele>167.223523</ele>
        <time>2023-03-19T11:54:07.470Z</time>
      </trkpt>
      <trkpt lat="44.7918" lon="20.45264">
        <ele>167.972751</ele>
        <time>2023-03-19T11:54:10.484Z</time>
      </trkpt>
      <trkpt lat="44.79172" lon="20.45273">
        <ele>168.684259</ele>
        <time>2023-03-19T11:54:13.488Z</time>
      </trkpt>
      <trkpt lat="44.79163" lon="20.45283">
        <ele>169.480632</ele>
        <time>2023-03-19T11:54:16.501Z</time>
      </trkpt>
      <trkpt lat="44.79155" lon="20.45292">
        <ele>170.185245</ele>
        <time>2023-03-19T11:54:19.500Z</time>
      </trkpt>
      <trkpt lat="44.79146" lon="20.45304">
        <ele>171.014928</ele>
        <time>2023-03-19T11:54:22.481Z</time>
      </trkpt>
      <trkpt lat="44.79137" lon="20.45314">
        <ele>171.856746</ele>
        <time>2023-03-19T11:54:25.470Z</time>
      </trkpt>
      <trkpt lat="44.79129" lon="20.45322">
        <ele>172.533581</ele>
        <time>2023-03-19T11:54:28.492Z</time>
      </trkpt>
      <trkpt lat="44.79121" lon="20.4533">
        <ele>172.927146</ele>
        <time>2023-03-19T11:54:31.473Z</time>
      </trkpt>
      <trkpt lat="44.79113" lon="20.45338">
        <ele>173.082502</ele>
        <time>2023-03-19T11:54:34.487Z</time>
      </trkpt>
      <trkpt lat="44.79104" lon="20.45347">
        <ele>173.241598</ele>
        <time>2023-03-19T11:54:37.486Z</time>
      </trkpt>
      <trkpt lat="44.79096" lon="20.45356">
        <ele>173.396955</ele>
        <time>2023-03-19T11:54:40.486Z</time>
      </trkpt>
      <trkpt lat="44.79088" lon="20.45365">
        <ele>173.557846</ele>
        <time>2023-03-19T11:54:43.499Z</time>
      </trkpt>
      <trkpt lat="44.79079" lon="20.45374">
        <ele>173.721822</ele>
        <time>2023-03-19T11:54:46.480Z</time>
      </trkpt>
      <trkpt lat="44.79071" lon="20.45382">
        <ele>173.879707</ele>
        <time>2023-03-19T11:54:49.496Z</time>
      </trkpt>
      <trkpt lat="44.79062" lon="20.45391">
        <ele>174.045571</ele>
        <time>2023-03-19T11:54:52.500Z</time>
      </trkpt>
      <trkpt lat="44.79052" lon="20.454">
        <ele>174.228196</ele>
        <time>2023-03-19T11:54:56.482Z</time>
      </trkpt>
      <trkpt lat="44.79044" lon="20.45408">
        <ele>174.374767</ele>
        <time>2023-03-19T11:54:59.475Z</time>
      </trkpt>
      <trkpt lat="44.79036" lon="20.45418">
        <ele>174.54451</ele>
        <time>2023-03-19T11:55:02.476Z</time>
      </trkpt>
      <trkpt lat="44.79026" lon="20.45429">
        <ele>174.737668</ele>
        <time>2023-03-19T11:55:05.474Z</time>
      </trkpt>
      <trkpt lat="44.79016" lon="20.45439">
        <ele>174.920365</ele>
        <time>2023-03-19T11:55:08.487Z</time>
      </trkpt>
      <trkpt lat="44.79007" lon="20.4545">
        <ele>175.102825</ele>
        <time>2023-03-19T11:55:11.488Z</time>
      </trkpt>
      <trkpt lat="44.78999" lon="20.45458">
        <ele>175.242505</ele>
        <time>2023-03-19T11:55:14.470Z</time>
      </trkpt>
      <trkpt lat="44.7899" lon="20.45467">
        <ele>175.41647</ele>
        <time>2023-03-19T11:55:17.498Z</time>
      </trkpt>
      <trkpt lat="44.78981" lon="20.4548">
        <ele>175.609791</ele>
        <time>2023-03-19T11:55:20.470Z</time>
      </trkpt>
      <trkpt lat="44.78975" lon="20.45494">
        <ele>175.736829</ele>
        <time>2023-03-19T11:55:23.476Z</time>
      </trkpt>
      <trkpt lat="44.78969" lon="20.45504">
        <ele>175.836632</ele>
        <time>2023-03-19T11:55:26.473Z</time>
      </trkpt>
      <trkpt lat="44.7896" lon="20.45509">
        <ele>175.949831</ele>
        <time>2023-03-19T11:55:29.477Z</time>
      </trkpt>
      <trkpt lat="44.78952" lon="20.45517">
        <ele>176.058046</ele>
        <time>2023-03-19T11:55:32.471Z</time>
      </trkpt>
      <trkpt lat="44.78945" lon="20.45527">
        <ele>176.167665</ele>
        <time>2023-03-19T11:55:35.471Z</time>
      </trkpt>
      <trkpt lat="44.78935" lon="20.45536">
        <ele>176.293014</ele>
        <time>2023-03-19T11:55:39.482Z</time>
      </trkpt>
      <trkpt lat="44.78926" lon="20.45539">
        <ele>176.401659</ele>
        <time>2023-03-19T11:55:42.483Z</time>
      </trkpt>
      <trkpt lat="44.78916" lon="20.45545">
        <ele>176.51671</ele>
        <time>2023-03-19T11:55:45.468Z</time>
      </trkpt>
      <trkpt lat="44.78905" lon="20.45554">
        <ele>176.656333</ele>
        <time>2023-03-19T11:55:48.475Z</time>
      </trkpt>
      <trkpt lat="44.78896" lon="20.45564">
        <ele>176.787614</ele>
        <time>2023-03-19T11:55:51.485Z</time>
      </trkpt>
      <trkpt lat="44.78886" lon="20.45573">
        <ele>176.919787</ele>
        <time>2023-03-19T11:55:54.488Z</time>
      </trkpt>
      <trkpt lat="44.78875" lon="20.45583">
        <ele>177.057762</ele>
        <time>2023-03-19T11:55:57.470Z</time>
      </trkpt>
      <trkpt lat="44.78866" lon="20.45595">
        <ele>177.199798</ele>
        <time>2023-03-19T11:56:00.489Z</time>
      </trkpt>
      <trkpt lat="44.78856" lon="20.45605">
        <ele>177.335522</ele>
        <time>2023-03-19T11:56:03.488Z</time>
      </trkpt>
      <trkpt lat="44.78845" lon="20.45616">
        <ele>177.477115</ele>
        <time>2023-03-19T11:56:06.489Z</time>
      </trkpt>
      <trkpt lat="44.78835" lon="20.45626">
        <ele>177.673216</ele>
        <time>2023-03-19T11:56:09.472Z</time>
      </trkpt>
      <trkpt lat="44.78825" lon="20.45636">
        <ele>178.018306</ele>
        <time>2023-03-19T11:56:12.485Z</time>
      </trkpt>
      <trkpt lat="44.78815" lon="20.45648">
        <ele>178.384367</ele>
        <time>2023-03-19T11:56:15.468Z</time>
      </trkpt>
      <trkpt lat="44.78806" lon="20.45659">
        <ele>178.72836</ele>
        <time>2023-03-19T11:56:18.497Z</time>
      </trkpt>
      <trkpt lat="44.78797" lon="20.45669">
        <ele>179.054317</ele>
        <time>2023-03-19T11:56:21.471Z</time>
      </trkpt>
      <trkpt lat="44.78789" lon="20.4568">
        <ele>179.376459</ele>
        <time>2023-03-19T11:56:24.486Z</time>
      </trkpt>
      <trkpt lat="44.78782" lon="20.45692">
        <ele>179.685971</ele>
        <time>2023-03-19T11:56:27.485Z</time>
      </trkpt>
      <trkpt lat="44.78775" lon="20.45704">
        <ele>179.991091</ele>
        <time>2023-03-19T11:56:31.498Z</time>
      </trkpt>
      <trkpt lat="44.78766" lon="20.45708">
        <ele>180.265981</ele>
        <time>2023-03-19T11:56:37.477Z</time>
      </trkpt>
      <trkpt lat="44.78756" lon="20.45712">
        <ele>180.553936</ele>
        <time>2023-03-19T11:56:41.478Z</time>
      </trkpt>
      <trkpt lat="44.78746" lon="20.45722">
        <ele>180.900174</ele>
        <time>2023-03-19T11:56:45.489Z</time>
      </trkpt>
      <trkpt lat="44.78739" lon="20.45735">
        <ele>181.228401</ele>
        <time>2023-03-19T11:56:49.475Z</time>
      </trkpt>
      <trkpt lat="44.78735" lon="20.4575">
        <ele>181.555348</ele>
        <time>2023-03-19T11:56:52.467Z</time>
      </trkpt>
      <trkpt lat="44.78729" lon="20.45761">
        <ele>181.834446</ele>
        <time>2023-03-19T11:56:54.475Z</time>
      </trkpt>
      <trkpt lat="44.78718" lon="20.45763">
        <ele>182.140503</ele>
        <time>2023-03-19T11:56:57.476Z</time>
      </trkpt>
      <trkpt lat="44.78707" lon="20.45761">
        <ele>182.456408</ele>
        <time>2023-03-19T11:57:00.478Z</time>
      </trkpt>
      <trkpt lat="44.78697" lon="20.4576">
        <ele>182.748266</ele>
        <time>2023-03-19T11:57:03.470Z</time>
      </trkpt>
      <trkpt lat="44.78688" lon="20.45761">
        <ele>183.061357</ele>
        <time>2023-03-19T11:57:06.472Z</time>
      </trkpt>
      <trkpt lat="44.78679" lon="20.45761">
        <ele>183.381085</ele>
        <time>2023-03-19T11:57:09.488Z</time>
      </trkpt>
      <trkpt lat="44.78669" lon="20.45762">
        <ele>183.743684</ele>
        <time>2023-03-19T11:57:12.479Z</time>
      </trkpt>
      <trkpt lat="44.78659" lon="20.45763">
        <ele>184.091489</ele>
        <time>2023-03-19T11:57:15.485Z</time>
      </trkpt>
      <trkpt lat="44.78649" lon="20.45764">
        <ele>184.432599</ele>
        <time>2023-03-19T11:57:18.481Z</time>
      </trkpt>
      <trkpt lat="44.78638" lon="20.45765">
        <ele>184.809707</ele>
        <time>2023-03-19T11:57:21.487Z</time>
      </trkpt>
      <trkpt lat="44.78627" lon="20.45766">
        <ele>185.181725</ele>
        <time>2023-03-19T11:57:24.489Z</time>
      </trkpt>
      <trkpt lat="44.78618" lon="20.45766">
        <ele>185.512172</ele>
        <time>2023-03-19T11:57:27.486Z</time>
      </trkpt>
      <trkpt lat="44.78608" lon="20.45767">
        <ele>185.846499</ele>
        <time>2023-03-19T11:57:30.469Z</time>
      </trkpt>
      <trkpt lat="44.78598" lon="20.45769">
        <ele>186.1957</ele>
        <time>2023-03-19T11:57:33.471Z</time>
      </trkpt>
      <trkpt lat="44.78587" lon="20.45768">
        <ele>186.58154</ele>
        <time>2023-03-19T11:57:37.490Z</time>
      </trkpt>
      <trkpt lat="44.78578" lon="20.45769">
        <ele>186.911802</ele>
        <time>2023-03-19T11:57:40.471Z</time>
      </trkpt>
      <trkpt lat="44.78567" lon="20.45771">
        <ele>187.29721</ele>
        <time>2023-03-19T11:57:44.485Z</time>
      </trkpt>
      <trkpt lat="44.78554" lon="20.45772">
        <ele>187.72298</ele>
        <time>2023-03-19T11:57:48.473Z</time>
      </trkpt>
      <trkpt lat="44.78544" lon="20.45774">
        <ele>188.075406</ele>
        <time>2023-03-19T11:57:51.490Z</time>
      </trkpt>
      <trkpt lat="44.78534" lon="20.45774">
        <ele>188.433397</ele>
        <time>2023-03-19T11:57:54.488Z</time>
      </trkpt>
      <trkpt lat="44.78525" lon="20.45774">
        <ele>188.749651</ele>
        <time>2023-03-19T11:57:57.486Z</time>
      </trkpt>
      <trkpt lat="44.78516" lon="20.45775">
        <ele>189.170441</ele>
        <time>2023-03-19T11:58:00.482Z</time>
      </trkpt>
      <trkpt lat="44.78505" lon="20.45777">
        <ele>189.760867</ele>
        <time>2023-03-19T11:58:03.479Z</time>
      </trkpt>
      <trkpt lat="44.78496" lon="20.45779">
        <ele>190.293636</ele>
        <time>2023-03-19T11:58:06.489Z</time>
      </trkpt>
      <trkpt lat="44.78485" lon="20.45781">
        <ele>190.949186</ele>
        <time>2023-03-19T11:58:10.468Z</time>
      </trkpt>
      <trkpt lat="44.78474" lon="20.45782">
        <ele>191.565644</ele>
        <time>2023-03-19T11:58:13.485Z</time>
      </trkpt>
      <trkpt lat="44.78463" lon="20.45784">
        <ele>192.202284</ele>
        <time>2023-03-19T11:58:16.499Z</time>
      </trkpt>
      <trkpt lat="44.78453" lon="20.45785">
        <ele>192.73979</ele>
        <time>2023-03-19T11:58:19.476Z</time>
      </trkpt>
      <trkpt lat="44.78442" lon="20.45786">
        <ele>193.390613</ele>
        <time>2023-03-19T11:58:23.485Z</time>
      </trkpt>
      <trkpt lat="44.78432" lon="20.45787">
        <ele>193.968904</ele>
        <time>2023-03-19T11:58:26.487Z</time>
      </trkpt>
      <trkpt lat="44.78422" lon="20.45788">
        <ele>194.551639</ele>
        <time>2023-03-19T11:58:29.482Z</time>
      </trkpt>
      <trkpt lat="44.78412" lon="20.45789">
        <ele>195.106512</ele>
        <time>2023-03-19T11:58:32.482Z</time>
      </trkpt>
      <trkpt lat="44.78403" lon="20.45788">
        <ele>195.642736</ele>
        <time>2023-03-19T11:58:35.485Z</time>
      </trkpt>
      <trkpt lat="44.78392" lon="20.45789">
        <ele>196.265561</ele>
        <time>2023-03-19T11:58:38.485Z</time>
      </trkpt>
      <trkpt lat="44.78381" lon="20.45791">
        <ele>196.866228</ele>
        <time>2023-03-19T11:58:41.498Z</time>
      </trkpt>
      <trkpt lat="44.7837" lon="20.45794">
        <ele>197.507499</ele>
        <time>2023-03-19T11:58:45.470Z</time>
      </trkpt>
      <trkpt lat="44.78359" lon="20.45796">
        <ele>198.154078</ele>
        <time>2023-03-19T11:58:49.485Z</time>
      </trkpt>
      <trkpt lat="44.7835" lon="20.45797">
        <ele>198.696002</ele>
        <time>2023-03-19T11:58:52.484Z</time>
      </trkpt>
      <trkpt lat="44.7834" lon="20.45797">
        <ele>199.258305</ele>
        <time>2023-03-19T11:58:55.498Z</time>
      </trkpt>
      <trkpt lat="44.78329" lon="20.45798">
        <ele>199.795436</ele>
        <time>2023-03-19T11:58:58.470Z</time>
      </trkpt>
      <trkpt lat="44.78318" lon="20.45799">
        <ele>200.364408</ele>
        <time>2023-03-19T11:59:01.477Z</time>
      </trkpt>
      <trkpt lat="44.78307" lon="20.45801">
        <ele>200.933674</ele>
        <time>2023-03-19T11:59:04.493Z</time>
      </trkpt>
      <trkpt lat="44.78297" lon="20.45801">
        <ele>201.454741</ele>
        <time>2023-03-19T11:59:07.475Z</time>
      </trkpt>
      <trkpt lat="44.78288" lon="20.45803">
        <ele>201.922554</ele>
        <time>2023-03-19T11:59:10.472Z</time>
      </trkpt>
      <trkpt lat="44.78278" lon="20.45804">
        <ele>202.449844</ele>
        <time>2023-03-19T11:59:14.486Z</time>
      </trkpt>
      <trkpt lat="44.78267" lon="20.45806">
        <ele>203.007492</ele>
        <time>2023-03-19T11:59:18.486Z</time>
      </trkpt>
      <trkpt lat="44.78257" lon="20.45809">
        <ele>203.559288</ele>
        <time>2023-03-19T11:59:22.489Z</time>
      </trkpt>
      <trkpt lat="44.78246" lon="20.4581">
        <ele>204.087796</ele>
        <time>2023-03-19T11:59:26.495Z</time>
      </trkpt>
      <trkpt lat="44.78236" lon="20.45808">
        <ele>204.648221</ele>
        <time>2023-03-19T11:59:30.474Z</time>
      </trkpt>
      <trkpt lat="44.78224" lon="20.45809">
        <ele>205.256851</ele>
        <time>2023-03-19T11:59:34.472Z</time>
      </trkpt>
      <trkpt lat="44.78212" lon="20.4581">
        <ele>205.853166</ele>
        <time>2023-03-19T11:59:38.479Z</time>
      </trkpt>
      <trkpt lat="44.78202" lon="20.45811">
        <ele>206.411099</ele>
        <time>2023-03-19T11:59:42.474Z</time>
      </trkpt>
      <trkpt lat="44.78191" lon="20.45812">
        <ele>206.979553</ele>
        <time>2023-03-19T11:59:46.490Z</time>
      </trkpt>
      <trkpt lat="44.78179" lon="20.45814">
        <ele>207.575149</ele>
        <time>2023-03-19T11:59:50.488Z</time>
      </trkpt>
      <trkpt lat="44.7817" lon="20.45816">
        <ele>208.065967</ele>
        <time>2023-03-19T11:59:53.483Z</time>
      </trkpt>
      <trkpt lat="44.78158" lon="20.45818">
        <ele>208.673651</ele>
        <time>2023-03-19T11:59:57.480Z</time>
      </trkpt>
      <trkpt lat="44.78146" lon="20.45819">
        <ele>209.242169</ele>
        <time>2023-03-19T12:00:00.467Z</time>
      </trkpt>
      <trkpt lat="44.78135" lon="20.45819">
        <ele>209.781958</ele>
        <time>2023-03-19T12:00:03.468Z</time>
      </trkpt>
      <trkpt lat="44.78124" lon="20.45821">
        <ele>210.31598</ele>
        <time>2023-03-19T12:00:06.486Z</time>
      </trkpt>
      <trkpt lat="44.78113" lon="20.45823">
        <ele>210.840908</ele>
        <time>2023-03-19T12:00:09.484Z</time>
      </trkpt>
      <trkpt lat="44.78103" lon="20.45825">
        <ele>211.313427</ele>
        <time>2023-03-19T12:00:12.469Z</time>
      </trkpt>
      <trkpt lat="44.78094" lon="20.45825">
        <ele>211.751575</ele>
        <time>2023-03-19T12:00:15.484Z</time>
      </trkpt>
      <trkpt lat="44.78084" lon="20.45826">
        <ele>212.218662</ele>
        <time>2023-03-19T12:00:18.495Z</time>
      </trkpt>
      <trkpt lat="44.78074" lon="20.45826">
        <ele>212.724956</ele>
        <time>2023-03-19T12:00:21.491Z</time>
      </trkpt>
      <trkpt lat="44.78063" lon="20.45827">
        <ele>213.22664</ele>
        <time>2023-03-19T12:00:24.472Z</time>
      </trkpt>
      <trkpt lat="44.78053" lon="20.45828">
        <ele>213.723318</ele>
        <time>2023-03-19T12:00:27.488Z</time>
      </trkpt>
      <trkpt lat="44.78043" lon="20.45829">
        <ele>214.234249</ele>
        <time>2023-03-19T12:00:30.491Z</time>
      </trkpt>
      <trkpt lat="44.78032" lon="20.45831">
        <ele>214.738348</ele>
        <time>2023-03-19T12:00:33.488Z</time>
      </trkpt>
      <trkpt lat="44.78023" lon="20.45832">
        <ele>215.193116</ele>
        <time>2023-03-19T12:00:36.473Z</time>
      </trkpt>
      <trkpt lat="44.78012" lon="20.45833">
        <ele>215.691028</ele>
        <time>2023-03-19T12:00:39.486Z</time>
      </trkpt>
      <trkpt lat="44.78002" lon="20.45835">
        <ele>216.204319</ele>
        <time>2023-03-19T12:00:42.490Z</time>
      </trkpt>
      <trkpt lat="44.77991" lon="20.45836">
        <ele>216.72544</ele>
        <time>2023-03-19T12:00:45.470Z</time>
      </trkpt>
      <trkpt lat="44.7798" lon="20.45837">
        <ele>217.165257</ele>
        <time>2023-03-19T12:00:48.499Z</time>
      </trkpt>
      <trkpt lat="44.77968" lon="20.4584">
        <ele>217.349001</ele>
        <time>2023-03-19T12:00:51.474Z</time>
      </trkpt>
      <trkpt lat="44.77957" lon="20.45842">
        <ele>217.521079</ele>
        <time>2023-03-19T12:00:54.487Z</time>
      </trkpt>
      <trkpt lat="44.77947" lon="20.45842">
        <ele>217.661259</ele>
        <time>2023-03-19T12:00:57.489Z</time>
      </trkpt>
      <trkpt lat="44.77936" lon="20.45837">
        <ele>217.844777</ele>
        <time>2023-03-19T12:01:01.485Z</time>
      </trkpt>
      <trkpt lat="44.77926" lon="20.45828">
        <ele>218.018752</ele>
        <time>2023-03-19T12:01:04.487Z</time>
      </trkpt>
      <trkpt lat="44.77914" lon="20.45828">
        <ele>218.209127</ele>
        <time>2023-03-19T12:01:07.486Z</time>
      </trkpt>
      <trkpt lat="44.77901" lon="20.4583">
        <ele>218.406553</ele>
        <time>2023-03-19T12:01:10.489Z</time>
      </trkpt>
      <trkpt lat="44.77888" lon="20.45833">
        <ele>218.610903</ele>
        <time>2023-03-19T12:01:13.469Z</time>
      </trkpt>
      <trkpt lat="44.77879" lon="20.45833">
        <ele>218.74818</ele>
        <time>2023-03-19T12:01:15.488Z</time>
      </trkpt>
      <trkpt lat="44.77867" lon="20.45833">
        <ele>218.929414</ele>
        <time>2023-03-19T12:01:18.469Z</time>
      </trkpt>
      <trkpt lat="44.77854" lon="20.45832">
        <ele>219.118637</ele>
        <time>2023-03-19T12:01:21.470Z</time>
      </trkpt>
      <trkpt lat="44.77842" lon="20.45828">
        <ele>219.311908</ele>
        <time>2023-03-19T12:01:24.467Z</time>
      </trkpt>
      <trkpt lat="44.77833" lon="20.45824">
        <ele>219.461772</ele>
        <time>2023-03-19T12:01:26.488Z</time>
      </trkpt>
      <trkpt lat="44.77824" lon="20.4582">
        <ele>219.605435</ele>
        <time>2023-03-19T12:01:28.468Z</time>
      </trkpt>
      <trkpt lat="44.77811" lon="20.45819">
        <ele>219.796497</ele>
        <time>2023-03-19T12:01:31.474Z</time>
      </trkpt>
      <trkpt lat="44.77799" lon="20.45818">
        <ele>219.916807</ele>
        <time>2023-03-19T12:01:34.472Z</time>
      </trkpt>
      <trkpt lat="44.77788" lon="20.45819">
        <ele>220.010596</ele>
        <time>2023-03-19T12:01:37.487Z</time>
      </trkpt>
      <trkpt lat="44.77776" lon="20.45819">
        <ele>220.100232</ele>
        <time>2023-03-19T12:01:40.488Z</time>
      </trkpt>
      <trkpt lat="44.77765" lon="20.4582">
        <ele>220.194022</ele>
        <time>2023-03-19T12:01:43.482Z</time>
      </trkpt>
      <trkpt lat="44.77752" lon="20.45821">
        <ele>220.297179</ele>
        <time>2023-03-19T12:01:46.487Z</time>
      </trkpt>
      <trkpt lat="44.77738" lon="20.45818">
        <ele>220.403133</ele>
        <time>2023-03-19T12:01:49.492Z</time>
      </trkpt>
      <trkpt lat="44.77726" lon="20.45813">
        <ele>220.503969</ele>
        <time>2023-03-19T12:01:52.469Z</time>
      </trkpt>
      <trkpt lat="44.77716" lon="20.45813">
        <ele>220.58883</ele>
        <time>2023-03-19T12:01:56.471Z</time>
      </trkpt>
      <trkpt lat="44.77707" lon="20.45817">
        <ele>220.661989</ele>
        <time>2023-03-19T12:02:02.469Z</time>
      </trkpt>
      <trkpt lat="44.77698" lon="20.45812">
        <ele>220.736894</ele>
        <time>2023-03-19T12:02:05.473Z</time>
      </trkpt>
      <trkpt lat="44.77689" lon="20.45803">
        <ele>220.829674</ele>
        <time>2023-03-19T12:02:08.482Z</time>
      </trkpt>
      <trkpt lat="44.77679" lon="20.45795">
        <ele>220.915076</ele>
        <time>2023-03-19T12:02:11.482Z</time>
      </trkpt>
      <trkpt lat="44.7767" lon="20.45787">
        <ele>221.003615</ele>
        <time>2023-03-19T12:02:15.472Z</time>
      </trkpt>
      <trkpt lat="44.77661" lon="20.45779">
        <ele>221.087916</ele>
        <time>2023-03-19T12:02:18.485Z</time>
      </trkpt>
      <trkpt lat="44.7765" lon="20.45773">
        <ele>221.176937</ele>
        <time>2023-03-19T12:02:21.477Z</time>
      </trkpt>
      <trkpt lat="44.77641" lon="20.45769">
        <ele>221.254815</ele>
        <time>2023-03-19T12:02:24.484Z</time>
      </trkpt>
      <trkpt lat="44.77632" lon="20.45762">
        <ele>221.281833</ele>
        <time>2023-03-19T12:02:27.467Z</time>
      </trkpt>
      <trkpt lat="44.77623" lon="20.45756">
        <ele>221.281833</ele>
        <time>2023-03-19T12:02:30.473Z</time>
      </trkpt>
      <trkpt lat="44.77615" lon="20.45765">
        <ele>221.281833</ele>
        <time>2023-03-19T12:02:36.475Z</time>
      </trkpt>
      <trkpt lat="44.77609" lon="20.45776">
        <ele>221.281833</ele>
        <time>2023-03-19T12:02:39.490Z</time>
      </trkpt>
      <trkpt lat="44.77602" lon="20.45789">
        <ele>221.281833</ele>
        <time>2023-03-19T12:02:42.480Z</time>
      </trkpt>
      <trkpt lat="44.77595" lon="20.45804">
        <ele>221.281833</ele>
        <time>2023-03-19T12:02:45.493Z</time>
      </trkpt>
      <trkpt lat="44.77588" lon="20.45819">
        <ele>221.281833</ele>
        <time>2023-03-19T12:02:48.481Z</time>
      </trkpt>
      <trkpt lat="44.77579" lon="20.45829">
        <ele>221.281833</ele>
        <time>2023-03-19T12:02:51.476Z</time>
      </trkpt>
      <trkpt lat="44.77568" lon="20.45826">
        <ele>221.281833</ele>
        <time>2023-03-19T12:02:55.480Z</time>
      </trkpt>
      <trkpt lat="44.77559" lon="20.45817">
        <ele>221.281833</ele>
        <time>2023-03-19T12:02:58.483Z</time>
      </trkpt>
      <trkpt lat="44.77551" lon="20.4581">
        <ele>221.281833</ele>
        <time>2023-03-19T12:03:01.489Z</time>
      </trkpt>
      <trkpt lat="44.7754" lon="20.458">
        <ele>221.281833</ele>
        <time>2023-03-19T12:03:05.471Z</time>
      </trkpt>
      <trkpt lat="44.77532" lon="20.45791">
        <ele>221.281833</ele>
        <time>2023-03-19T12:03:08.499Z</time>
      </trkpt>
      <trkpt lat="44.77522" lon="20.45783">
        <ele>221.281833</ele>
        <time>2023-03-19T12:03:11.487Z</time>
      </trkpt>
      <trkpt lat="44.77513" lon="20.45776">
        <ele>221.281833</ele>
        <time>2023-03-19T12:03:14.490Z</time>
      </trkpt>
      <trkpt lat="44.77503" lon="20.45768">
        <ele>221.281833</ele>
        <time>2023-03-19T12:03:17.489Z</time>
      </trkpt>
      <trkpt lat="44.77494" lon="20.45761">
        <ele>221.281833</ele>
        <time>2023-03-19T12:03:20.498Z</time>
      </trkpt>
      <trkpt lat="44.77484" lon="20.45753">
        <ele>221.281833</ele>
        <time>2023-03-19T12:03:23.465Z</time>
      </trkpt>
      <trkpt lat="44.77474" lon="20.45745">
        <ele>221.281833</ele>
        <time>2023-03-19T12:03:26.499Z</time>
      </trkpt>
      <trkpt lat="44.77466" lon="20.45737">
        <ele>221.281833</ele>
        <time>2023-03-19T12:03:29.477Z</time>
      </trkpt>
      <trkpt lat="44.77457" lon="20.45727">
        <ele>221.281833</ele>
        <time>2023-03-19T12:03:33.484Z</time>
      </trkpt>
      <trkpt lat="44.7745" lon="20.45718">
        <ele>221.281833</ele>
        <time>2023-03-19T12:03:36.475Z</time>
      </trkpt>
      <trkpt lat="44.77445" lon="20.45713">
        <ele>221.281833</ele>
        <time>2023-03-19T12:03:42.215Z</time>
      </trkpt>
    </trkseg>
  </trk>
</gpx>